<?xml version="1.0" encoding="UTF-8" standalone="no" ?>
<gpx xmlns="http://www.topografix.com/GPX/1/1" xmlns:xsi="http://www.w3.org/2001/XMLSchema-instance" xsi:schemaLocation="http://www.topografix.com/GPX/1/1 http://www.topografix.com/GPX/1/1/gpx.xsd" version="1.1" creator="VisuGPX - https://www.visugpx.com">
  <metadata>
    <name>2018-06-07 Bike ride-Amberieux-Savigneux O 33k</name>
    <desc><![CDATA[2018-06-07 Bike ride-Amberieux-Savigneux O 33k]]></desc>
  </metadata>
  <wpt lat="45.92453" lon="4.73711">
    <ele>174</ele>
    <name><![CDATA[2018-06-07 10:52 (Start)]]></name>
  </wpt>
  <wpt lat="45.92457" lon="4.73711">
    <ele>174</ele>
    <name><![CDATA[2018-06-07 10:52 (End)]]></name>
  </wpt>
  <trk>
    <name><![CDATA[2018-06-07 10:52]]></name>
    <trkseg>
      <trkpt lat="45.92453" lon="4.73711">
        <ele>174</ele>
        <time>2018-06-07T08:52:41.734Z</time>
      </trkpt>
      <trkpt lat="45.92462" lon="4.73708">
        <ele>174</ele>
        <time>2018-06-07T08:52:59Z</time>
      </trkpt>
      <trkpt lat="45.92463" lon="4.73706">
        <ele>174</ele>
        <time>2018-06-07T08:53:00Z</time>
      </trkpt>
      <trkpt lat="45.92466" lon="4.73697">
        <ele>174</ele>
        <time>2018-06-07T08:53:04Z</time>
      </trkpt>
      <trkpt lat="45.92466" lon="4.73694">
        <ele>174</ele>
        <time>2018-06-07T08:53:05Z</time>
      </trkpt>
      <trkpt lat="45.92466" lon="4.73682">
        <ele>174</ele>
        <time>2018-06-07T08:53:08Z</time>
      </trkpt>
      <trkpt lat="45.92467" lon="4.73677">
        <ele>174</ele>
        <time>2018-06-07T08:53:09Z</time>
      </trkpt>
      <trkpt lat="45.92467" lon="4.73673">
        <ele>174</ele>
        <time>2018-06-07T08:53:10Z</time>
      </trkpt>
      <trkpt lat="45.92469" lon="4.73659">
        <ele>174</ele>
        <time>2018-06-07T08:53:11Z</time>
      </trkpt>
      <trkpt lat="45.92471" lon="4.73648">
        <ele>174</ele>
        <time>2018-06-07T08:53:13Z</time>
      </trkpt>
      <trkpt lat="45.92473" lon="4.73642">
        <ele>174</ele>
        <time>2018-06-07T08:53:14Z</time>
      </trkpt>
      <trkpt lat="45.92479" lon="4.73635">
        <ele>174</ele>
        <time>2018-06-07T08:53:17Z</time>
      </trkpt>
      <trkpt lat="45.92486" lon="4.73635">
        <ele>174</ele>
        <time>2018-06-07T08:53:18Z</time>
      </trkpt>
      <trkpt lat="45.9249" lon="4.73637">
        <ele>174</ele>
        <time>2018-06-07T08:53:19Z</time>
      </trkpt>
      <trkpt lat="45.92495" lon="4.73639">
        <ele>174</ele>
        <time>2018-06-07T08:53:20Z</time>
      </trkpt>
      <trkpt lat="45.92501" lon="4.73639">
        <ele>174</ele>
        <time>2018-06-07T08:53:21Z</time>
      </trkpt>
      <trkpt lat="45.92506" lon="4.73639">
        <ele>174</ele>
        <time>2018-06-07T08:53:22Z</time>
      </trkpt>
      <trkpt lat="45.92511" lon="4.73639">
        <ele>174</ele>
        <time>2018-06-07T08:53:23Z</time>
      </trkpt>
      <trkpt lat="45.92516" lon="4.7364">
        <ele>173</ele>
        <time>2018-06-07T08:53:24Z</time>
      </trkpt>
      <trkpt lat="45.92521" lon="4.7364">
        <ele>173</ele>
        <time>2018-06-07T08:53:25Z</time>
      </trkpt>
      <trkpt lat="45.92527" lon="4.7364">
        <ele>173</ele>
        <time>2018-06-07T08:53:26Z</time>
      </trkpt>
      <trkpt lat="45.92532" lon="4.73639">
        <ele>173</ele>
        <time>2018-06-07T08:53:27Z</time>
      </trkpt>
      <trkpt lat="45.92537" lon="4.73637">
        <ele>173</ele>
        <time>2018-06-07T08:53:28Z</time>
      </trkpt>
      <trkpt lat="45.92543" lon="4.73635">
        <ele>173</ele>
        <time>2018-06-07T08:53:29Z</time>
      </trkpt>
      <trkpt lat="45.92547" lon="4.73633">
        <ele>173</ele>
        <time>2018-06-07T08:53:30Z</time>
      </trkpt>
      <trkpt lat="45.92553" lon="4.73633">
        <ele>173</ele>
        <time>2018-06-07T08:53:31Z</time>
      </trkpt>
      <trkpt lat="45.92558" lon="4.73631">
        <ele>173</ele>
        <time>2018-06-07T08:53:32Z</time>
      </trkpt>
      <trkpt lat="45.92563" lon="4.73629">
        <ele>173</ele>
        <time>2018-06-07T08:53:33Z</time>
      </trkpt>
      <trkpt lat="45.92568" lon="4.73627">
        <ele>173</ele>
        <time>2018-06-07T08:53:34Z</time>
      </trkpt>
      <trkpt lat="45.92573" lon="4.73627">
        <ele>173</ele>
        <time>2018-06-07T08:53:35Z</time>
      </trkpt>
      <trkpt lat="45.92578" lon="4.73626">
        <ele>173</ele>
        <time>2018-06-07T08:53:36Z</time>
      </trkpt>
      <trkpt lat="45.92582" lon="4.73626">
        <ele>173</ele>
        <time>2018-06-07T08:53:37Z</time>
      </trkpt>
      <trkpt lat="45.92587" lon="4.73626">
        <ele>172</ele>
        <time>2018-06-07T08:53:38Z</time>
      </trkpt>
      <trkpt lat="45.92592" lon="4.73626">
        <ele>172</ele>
        <time>2018-06-07T08:53:39Z</time>
      </trkpt>
      <trkpt lat="45.92598" lon="4.73626">
        <ele>173</ele>
        <time>2018-06-07T08:53:40Z</time>
      </trkpt>
      <trkpt lat="45.92603" lon="4.73626">
        <ele>173</ele>
        <time>2018-06-07T08:53:41Z</time>
      </trkpt>
      <trkpt lat="45.92608" lon="4.73628">
        <ele>173</ele>
        <time>2018-06-07T08:53:42Z</time>
      </trkpt>
      <trkpt lat="45.92614" lon="4.73629">
        <ele>173</ele>
        <time>2018-06-07T08:53:43Z</time>
      </trkpt>
      <trkpt lat="45.9262" lon="4.73634">
        <ele>173</ele>
        <time>2018-06-07T08:53:44Z</time>
      </trkpt>
      <trkpt lat="45.92624" lon="4.73645">
        <ele>173</ele>
        <time>2018-06-07T08:53:46Z</time>
      </trkpt>
      <trkpt lat="45.92627" lon="4.73654">
        <ele>173</ele>
        <time>2018-06-07T08:53:47Z</time>
      </trkpt>
      <trkpt lat="45.9263" lon="4.73661">
        <ele>173</ele>
        <time>2018-06-07T08:53:48Z</time>
      </trkpt>
      <trkpt lat="45.92633" lon="4.73666">
        <ele>173</ele>
        <time>2018-06-07T08:53:49Z</time>
      </trkpt>
      <trkpt lat="45.92637" lon="4.73671">
        <ele>173</ele>
        <time>2018-06-07T08:53:50Z</time>
      </trkpt>
      <trkpt lat="45.92642" lon="4.73679">
        <ele>173</ele>
        <time>2018-06-07T08:53:51Z</time>
      </trkpt>
      <trkpt lat="45.92645" lon="4.73685">
        <ele>173</ele>
        <time>2018-06-07T08:53:52Z</time>
      </trkpt>
      <trkpt lat="45.92649" lon="4.73689">
        <ele>173</ele>
        <time>2018-06-07T08:53:53Z</time>
      </trkpt>
      <trkpt lat="45.92656" lon="4.73694">
        <ele>173</ele>
        <time>2018-06-07T08:53:54Z</time>
      </trkpt>
      <trkpt lat="45.92663" lon="4.737">
        <ele>173</ele>
        <time>2018-06-07T08:53:55Z</time>
      </trkpt>
      <trkpt lat="45.92668" lon="4.73705">
        <ele>174</ele>
        <time>2018-06-07T08:53:56Z</time>
      </trkpt>
      <trkpt lat="45.92674" lon="4.73709">
        <ele>174</ele>
        <time>2018-06-07T08:53:57Z</time>
      </trkpt>
      <trkpt lat="45.92679" lon="4.7371">
        <ele>173</ele>
        <time>2018-06-07T08:53:58Z</time>
      </trkpt>
      <trkpt lat="45.92685" lon="4.73712">
        <ele>173</ele>
        <time>2018-06-07T08:53:59Z</time>
      </trkpt>
      <trkpt lat="45.92691" lon="4.73714">
        <ele>173</ele>
        <time>2018-06-07T08:54:00Z</time>
      </trkpt>
      <trkpt lat="45.92698" lon="4.73715">
        <ele>173</ele>
        <time>2018-06-07T08:54:01Z</time>
      </trkpt>
      <trkpt lat="45.92705" lon="4.73717">
        <ele>173</ele>
        <time>2018-06-07T08:54:02Z</time>
      </trkpt>
      <trkpt lat="45.92711" lon="4.7372">
        <ele>173</ele>
        <time>2018-06-07T08:54:03Z</time>
      </trkpt>
      <trkpt lat="45.92716" lon="4.7372">
        <ele>173</ele>
        <time>2018-06-07T08:54:04Z</time>
      </trkpt>
      <trkpt lat="45.92723" lon="4.73721">
        <ele>173</ele>
        <time>2018-06-07T08:54:05Z</time>
      </trkpt>
      <trkpt lat="45.92728" lon="4.73722">
        <ele>173</ele>
        <time>2018-06-07T08:54:06Z</time>
      </trkpt>
      <trkpt lat="45.92735" lon="4.73723">
        <ele>173</ele>
        <time>2018-06-07T08:54:07Z</time>
      </trkpt>
      <trkpt lat="45.92739" lon="4.73725">
        <ele>173</ele>
        <time>2018-06-07T08:54:08Z</time>
      </trkpt>
      <trkpt lat="45.92746" lon="4.73727">
        <ele>173</ele>
        <time>2018-06-07T08:54:09Z</time>
      </trkpt>
      <trkpt lat="45.92751" lon="4.73728">
        <ele>172</ele>
        <time>2018-06-07T08:54:10Z</time>
      </trkpt>
      <trkpt lat="45.92755" lon="4.73728">
        <ele>172</ele>
        <time>2018-06-07T08:54:11Z</time>
      </trkpt>
      <trkpt lat="45.92759" lon="4.7373">
        <ele>172</ele>
        <time>2018-06-07T08:54:12Z</time>
      </trkpt>
      <trkpt lat="45.92764" lon="4.73732">
        <ele>172</ele>
        <time>2018-06-07T08:54:13Z</time>
      </trkpt>
      <trkpt lat="45.92768" lon="4.73734">
        <ele>172</ele>
        <time>2018-06-07T08:54:14Z</time>
      </trkpt>
      <trkpt lat="45.92773" lon="4.73736">
        <ele>172</ele>
        <time>2018-06-07T08:54:15Z</time>
      </trkpt>
      <trkpt lat="45.92779" lon="4.73743">
        <ele>172</ele>
        <time>2018-06-07T08:54:21Z</time>
      </trkpt>
      <trkpt lat="45.9278" lon="4.73744">
        <ele>172</ele>
        <time>2018-06-07T08:54:22Z</time>
      </trkpt>
      <trkpt lat="45.9279" lon="4.73753">
        <ele>173</ele>
        <time>2018-06-07T08:54:23Z</time>
      </trkpt>
      <trkpt lat="45.92793" lon="4.73757">
        <ele>173</ele>
        <time>2018-06-07T08:54:24Z</time>
      </trkpt>
      <trkpt lat="45.92798" lon="4.73761">
        <ele>173</ele>
        <time>2018-06-07T08:54:25Z</time>
      </trkpt>
      <trkpt lat="45.92802" lon="4.73764">
        <ele>173</ele>
        <time>2018-06-07T08:54:26Z</time>
      </trkpt>
      <trkpt lat="45.92807" lon="4.73767">
        <ele>173</ele>
        <time>2018-06-07T08:54:27Z</time>
      </trkpt>
      <trkpt lat="45.9281" lon="4.73769">
        <ele>173</ele>
        <time>2018-06-07T08:54:28Z</time>
      </trkpt>
      <trkpt lat="45.92816" lon="4.73771">
        <ele>173</ele>
        <time>2018-06-07T08:54:29Z</time>
      </trkpt>
      <trkpt lat="45.92821" lon="4.73777">
        <ele>173</ele>
        <time>2018-06-07T08:54:30Z</time>
      </trkpt>
      <trkpt lat="45.92827" lon="4.73781">
        <ele>173</ele>
        <time>2018-06-07T08:54:31Z</time>
      </trkpt>
      <trkpt lat="45.92833" lon="4.73781">
        <ele>173</ele>
        <time>2018-06-07T08:54:32Z</time>
      </trkpt>
      <trkpt lat="45.92838" lon="4.73785">
        <ele>173</ele>
        <time>2018-06-07T08:54:33Z</time>
      </trkpt>
      <trkpt lat="45.92843" lon="4.73789">
        <ele>173</ele>
        <time>2018-06-07T08:54:34Z</time>
      </trkpt>
      <trkpt lat="45.9285" lon="4.73794">
        <ele>173</ele>
        <time>2018-06-07T08:54:35Z</time>
      </trkpt>
      <trkpt lat="45.92856" lon="4.73803">
        <ele>173</ele>
        <time>2018-06-07T08:54:37Z</time>
      </trkpt>
      <trkpt lat="45.92859" lon="4.73813">
        <ele>173</ele>
        <time>2018-06-07T08:54:38Z</time>
      </trkpt>
      <trkpt lat="45.92861" lon="4.73821">
        <ele>173</ele>
        <time>2018-06-07T08:54:39Z</time>
      </trkpt>
      <trkpt lat="45.92865" lon="4.7383">
        <ele>173</ele>
        <time>2018-06-07T08:54:40Z</time>
      </trkpt>
      <trkpt lat="45.92867" lon="4.73838">
        <ele>173</ele>
        <time>2018-06-07T08:54:41Z</time>
      </trkpt>
      <trkpt lat="45.9287" lon="4.73847">
        <ele>173</ele>
        <time>2018-06-07T08:54:42Z</time>
      </trkpt>
      <trkpt lat="45.92875" lon="4.73872">
        <ele>173</ele>
        <time>2018-06-07T08:54:45Z</time>
      </trkpt>
      <trkpt lat="45.92878" lon="4.73883">
        <ele>173</ele>
        <time>2018-06-07T08:54:46Z</time>
      </trkpt>
      <trkpt lat="45.92879" lon="4.73893">
        <ele>173</ele>
        <time>2018-06-07T08:54:47Z</time>
      </trkpt>
      <trkpt lat="45.92881" lon="4.73899">
        <ele>173</ele>
        <time>2018-06-07T08:54:48Z</time>
      </trkpt>
      <trkpt lat="45.92886" lon="4.73912">
        <ele>173</ele>
        <time>2018-06-07T08:54:49Z</time>
      </trkpt>
      <trkpt lat="45.92888" lon="4.73922">
        <ele>172</ele>
        <time>2018-06-07T08:54:50Z</time>
      </trkpt>
      <trkpt lat="45.92887" lon="4.7393">
        <ele>172</ele>
        <time>2018-06-07T08:54:51Z</time>
      </trkpt>
      <trkpt lat="45.92887" lon="4.73937">
        <ele>172</ele>
        <time>2018-06-07T08:54:52Z</time>
      </trkpt>
      <trkpt lat="45.92888" lon="4.73946">
        <ele>172</ele>
        <time>2018-06-07T08:54:53Z</time>
      </trkpt>
      <trkpt lat="45.9289" lon="4.73954">
        <ele>172</ele>
        <time>2018-06-07T08:54:54Z</time>
      </trkpt>
      <trkpt lat="45.92889" lon="4.73962">
        <ele>172</ele>
        <time>2018-06-07T08:54:55Z</time>
      </trkpt>
      <trkpt lat="45.92888" lon="4.73969">
        <ele>172</ele>
        <time>2018-06-07T08:54:56Z</time>
      </trkpt>
      <trkpt lat="45.92887" lon="4.73976">
        <ele>172</ele>
        <time>2018-06-07T08:54:57Z</time>
      </trkpt>
      <trkpt lat="45.92886" lon="4.73984">
        <ele>172</ele>
        <time>2018-06-07T08:54:58Z</time>
      </trkpt>
      <trkpt lat="45.92885" lon="4.73992">
        <ele>172</ele>
        <time>2018-06-07T08:54:59Z</time>
      </trkpt>
      <trkpt lat="45.92882" lon="4.73998">
        <ele>172</ele>
        <time>2018-06-07T08:55:00Z</time>
      </trkpt>
      <trkpt lat="45.9288" lon="4.74005">
        <ele>172</ele>
        <time>2018-06-07T08:55:01Z</time>
      </trkpt>
      <trkpt lat="45.92878" lon="4.74011">
        <ele>172</ele>
        <time>2018-06-07T08:55:02Z</time>
      </trkpt>
      <trkpt lat="45.92876" lon="4.74019">
        <ele>172</ele>
        <time>2018-06-07T08:55:03Z</time>
      </trkpt>
      <trkpt lat="45.92874" lon="4.74028">
        <ele>172</ele>
        <time>2018-06-07T08:55:04Z</time>
      </trkpt>
      <trkpt lat="45.92873" lon="4.74035">
        <ele>172</ele>
        <time>2018-06-07T08:55:05Z</time>
      </trkpt>
      <trkpt lat="45.92871" lon="4.74043">
        <ele>172</ele>
        <time>2018-06-07T08:55:06Z</time>
      </trkpt>
      <trkpt lat="45.92866" lon="4.74048">
        <ele>172</ele>
        <time>2018-06-07T08:55:07Z</time>
      </trkpt>
      <trkpt lat="45.92861" lon="4.74053">
        <ele>172</ele>
        <time>2018-06-07T08:55:08Z</time>
      </trkpt>
      <trkpt lat="45.92857" lon="4.74058">
        <ele>172</ele>
        <time>2018-06-07T08:55:09Z</time>
      </trkpt>
      <trkpt lat="45.92851" lon="4.74064">
        <ele>172</ele>
        <time>2018-06-07T08:55:10Z</time>
      </trkpt>
      <trkpt lat="45.92846" lon="4.74069">
        <ele>172</ele>
        <time>2018-06-07T08:55:11Z</time>
      </trkpt>
      <trkpt lat="45.92841" lon="4.74076">
        <ele>171</ele>
        <time>2018-06-07T08:55:12Z</time>
      </trkpt>
      <trkpt lat="45.92836" lon="4.74081">
        <ele>171</ele>
        <time>2018-06-07T08:55:13Z</time>
      </trkpt>
      <trkpt lat="45.92831" lon="4.74088">
        <ele>171</ele>
        <time>2018-06-07T08:55:14Z</time>
      </trkpt>
      <trkpt lat="45.92826" lon="4.74093">
        <ele>171</ele>
        <time>2018-06-07T08:55:15Z</time>
      </trkpt>
      <trkpt lat="45.92821" lon="4.74099">
        <ele>171</ele>
        <time>2018-06-07T08:55:16Z</time>
      </trkpt>
      <trkpt lat="45.92816" lon="4.74104">
        <ele>172</ele>
        <time>2018-06-07T08:55:17Z</time>
      </trkpt>
      <trkpt lat="45.92811" lon="4.74111">
        <ele>172</ele>
        <time>2018-06-07T08:55:18Z</time>
      </trkpt>
      <trkpt lat="45.92806" lon="4.74117">
        <ele>172</ele>
        <time>2018-06-07T08:55:19Z</time>
      </trkpt>
      <trkpt lat="45.92801" lon="4.74122">
        <ele>172</ele>
        <time>2018-06-07T08:55:20Z</time>
      </trkpt>
      <trkpt lat="45.92796" lon="4.74127">
        <ele>172</ele>
        <time>2018-06-07T08:55:21Z</time>
      </trkpt>
      <trkpt lat="45.92791" lon="4.74132">
        <ele>172</ele>
        <time>2018-06-07T08:55:22Z</time>
      </trkpt>
      <trkpt lat="45.92786" lon="4.74137">
        <ele>172</ele>
        <time>2018-06-07T08:55:23Z</time>
      </trkpt>
      <trkpt lat="45.92781" lon="4.74142">
        <ele>172</ele>
        <time>2018-06-07T08:55:24Z</time>
      </trkpt>
      <trkpt lat="45.92775" lon="4.74146">
        <ele>172</ele>
        <time>2018-06-07T08:55:25Z</time>
      </trkpt>
      <trkpt lat="45.9277" lon="4.74153">
        <ele>172</ele>
        <time>2018-06-07T08:55:26Z</time>
      </trkpt>
      <trkpt lat="45.92765" lon="4.74159">
        <ele>172</ele>
        <time>2018-06-07T08:55:27Z</time>
      </trkpt>
      <trkpt lat="45.9276" lon="4.74164">
        <ele>172</ele>
        <time>2018-06-07T08:55:28Z</time>
      </trkpt>
      <trkpt lat="45.92755" lon="4.7417">
        <ele>172</ele>
        <time>2018-06-07T08:55:29Z</time>
      </trkpt>
      <trkpt lat="45.9275" lon="4.74175">
        <ele>172</ele>
        <time>2018-06-07T08:55:30Z</time>
      </trkpt>
      <trkpt lat="45.92746" lon="4.74181">
        <ele>172</ele>
        <time>2018-06-07T08:55:31Z</time>
      </trkpt>
      <trkpt lat="45.92741" lon="4.74186">
        <ele>172</ele>
        <time>2018-06-07T08:55:32Z</time>
      </trkpt>
      <trkpt lat="45.92737" lon="4.74191">
        <ele>171</ele>
        <time>2018-06-07T08:55:33Z</time>
      </trkpt>
      <trkpt lat="45.92733" lon="4.74197">
        <ele>171</ele>
        <time>2018-06-07T08:55:34Z</time>
      </trkpt>
      <trkpt lat="45.92728" lon="4.74203">
        <ele>171</ele>
        <time>2018-06-07T08:55:35Z</time>
      </trkpt>
      <trkpt lat="45.92724" lon="4.7421">
        <ele>171</ele>
        <time>2018-06-07T08:55:36Z</time>
      </trkpt>
      <trkpt lat="45.9272" lon="4.74216">
        <ele>171</ele>
        <time>2018-06-07T08:55:37Z</time>
      </trkpt>
      <trkpt lat="45.92715" lon="4.74222">
        <ele>171</ele>
        <time>2018-06-07T08:55:38Z</time>
      </trkpt>
      <trkpt lat="45.92712" lon="4.7423">
        <ele>171</ele>
        <time>2018-06-07T08:55:39Z</time>
      </trkpt>
      <trkpt lat="45.92708" lon="4.74236">
        <ele>171</ele>
        <time>2018-06-07T08:55:40Z</time>
      </trkpt>
      <trkpt lat="45.92703" lon="4.74243">
        <ele>171</ele>
        <time>2018-06-07T08:55:41Z</time>
      </trkpt>
      <trkpt lat="45.927" lon="4.74249">
        <ele>171</ele>
        <time>2018-06-07T08:55:42Z</time>
      </trkpt>
      <trkpt lat="45.92695" lon="4.74256">
        <ele>171</ele>
        <time>2018-06-07T08:55:43Z</time>
      </trkpt>
      <trkpt lat="45.92691" lon="4.74263">
        <ele>171</ele>
        <time>2018-06-07T08:55:44Z</time>
      </trkpt>
      <trkpt lat="45.92687" lon="4.74269">
        <ele>171</ele>
        <time>2018-06-07T08:55:45Z</time>
      </trkpt>
      <trkpt lat="45.92683" lon="4.74277">
        <ele>171</ele>
        <time>2018-06-07T08:55:46Z</time>
      </trkpt>
      <trkpt lat="45.92679" lon="4.74285">
        <ele>171</ele>
        <time>2018-06-07T08:55:47Z</time>
      </trkpt>
      <trkpt lat="45.92675" lon="4.74292">
        <ele>171</ele>
        <time>2018-06-07T08:55:48Z</time>
      </trkpt>
      <trkpt lat="45.92671" lon="4.74301">
        <ele>171</ele>
        <time>2018-06-07T08:55:49Z</time>
      </trkpt>
      <trkpt lat="45.92667" lon="4.74308">
        <ele>171</ele>
        <time>2018-06-07T08:55:50Z</time>
      </trkpt>
      <trkpt lat="45.92663" lon="4.74314">
        <ele>171</ele>
        <time>2018-06-07T08:55:51Z</time>
      </trkpt>
      <trkpt lat="45.9266" lon="4.74321">
        <ele>171</ele>
        <time>2018-06-07T08:55:52Z</time>
      </trkpt>
      <trkpt lat="45.92656" lon="4.74328">
        <ele>171</ele>
        <time>2018-06-07T08:55:53Z</time>
      </trkpt>
      <trkpt lat="45.92652" lon="4.74335">
        <ele>171</ele>
        <time>2018-06-07T08:55:54Z</time>
      </trkpt>
      <trkpt lat="45.92648" lon="4.74343">
        <ele>171</ele>
        <time>2018-06-07T08:55:55Z</time>
      </trkpt>
      <trkpt lat="45.92644" lon="4.74351">
        <ele>171</ele>
        <time>2018-06-07T08:55:56Z</time>
      </trkpt>
      <trkpt lat="45.92639" lon="4.74358">
        <ele>171</ele>
        <time>2018-06-07T08:55:57Z</time>
      </trkpt>
      <trkpt lat="45.92635" lon="4.74365">
        <ele>171</ele>
        <time>2018-06-07T08:55:58Z</time>
      </trkpt>
      <trkpt lat="45.92631" lon="4.74373">
        <ele>171</ele>
        <time>2018-06-07T08:55:59Z</time>
      </trkpt>
      <trkpt lat="45.92625" lon="4.74381">
        <ele>170</ele>
        <time>2018-06-07T08:56:00Z</time>
      </trkpt>
      <trkpt lat="45.92621" lon="4.74387">
        <ele>170</ele>
        <time>2018-06-07T08:56:01Z</time>
      </trkpt>
      <trkpt lat="45.92617" lon="4.74395">
        <ele>170</ele>
        <time>2018-06-07T08:56:02Z</time>
      </trkpt>
      <trkpt lat="45.92614" lon="4.74401">
        <ele>170</ele>
        <time>2018-06-07T08:56:03Z</time>
      </trkpt>
      <trkpt lat="45.9261" lon="4.74408">
        <ele>170</ele>
        <time>2018-06-07T08:56:04Z</time>
      </trkpt>
      <trkpt lat="45.92607" lon="4.74414">
        <ele>170</ele>
        <time>2018-06-07T08:56:05Z</time>
      </trkpt>
      <trkpt lat="45.92603" lon="4.7442">
        <ele>170</ele>
        <time>2018-06-07T08:56:06Z</time>
      </trkpt>
      <trkpt lat="45.92599" lon="4.74427">
        <ele>170</ele>
        <time>2018-06-07T08:56:07Z</time>
      </trkpt>
      <trkpt lat="45.92595" lon="4.74434">
        <ele>170</ele>
        <time>2018-06-07T08:56:08Z</time>
      </trkpt>
      <trkpt lat="45.9259" lon="4.74441">
        <ele>170</ele>
        <time>2018-06-07T08:56:09Z</time>
      </trkpt>
      <trkpt lat="45.92586" lon="4.74448">
        <ele>170</ele>
        <time>2018-06-07T08:56:10Z</time>
      </trkpt>
      <trkpt lat="45.92582" lon="4.74455">
        <ele>170</ele>
        <time>2018-06-07T08:56:11Z</time>
      </trkpt>
      <trkpt lat="45.92578" lon="4.74463">
        <ele>170</ele>
        <time>2018-06-07T08:56:12Z</time>
      </trkpt>
      <trkpt lat="45.92574" lon="4.7447">
        <ele>170</ele>
        <time>2018-06-07T08:56:13Z</time>
      </trkpt>
      <trkpt lat="45.92569" lon="4.74477">
        <ele>170</ele>
        <time>2018-06-07T08:56:14Z</time>
      </trkpt>
      <trkpt lat="45.92566" lon="4.74484">
        <ele>170</ele>
        <time>2018-06-07T08:56:15Z</time>
      </trkpt>
      <trkpt lat="45.92562" lon="4.74491">
        <ele>170</ele>
        <time>2018-06-07T08:56:16Z</time>
      </trkpt>
      <trkpt lat="45.92558" lon="4.74498">
        <ele>170</ele>
        <time>2018-06-07T08:56:17Z</time>
      </trkpt>
      <trkpt lat="45.92555" lon="4.74504">
        <ele>170</ele>
        <time>2018-06-07T08:56:18Z</time>
      </trkpt>
      <trkpt lat="45.92551" lon="4.74512">
        <ele>170</ele>
        <time>2018-06-07T08:56:19Z</time>
      </trkpt>
      <trkpt lat="45.92547" lon="4.74519">
        <ele>170</ele>
        <time>2018-06-07T08:56:20Z</time>
      </trkpt>
      <trkpt lat="45.92544" lon="4.74526">
        <ele>170</ele>
        <time>2018-06-07T08:56:21Z</time>
      </trkpt>
      <trkpt lat="45.92539" lon="4.74532">
        <ele>171</ele>
        <time>2018-06-07T08:56:22Z</time>
      </trkpt>
      <trkpt lat="45.92535" lon="4.74539">
        <ele>171</ele>
        <time>2018-06-07T08:56:23Z</time>
      </trkpt>
      <trkpt lat="45.92532" lon="4.74545">
        <ele>171</ele>
        <time>2018-06-07T08:56:24Z</time>
      </trkpt>
      <trkpt lat="45.92527" lon="4.74553">
        <ele>171</ele>
        <time>2018-06-07T08:56:25Z</time>
      </trkpt>
      <trkpt lat="45.92522" lon="4.7456">
        <ele>171</ele>
        <time>2018-06-07T08:56:26Z</time>
      </trkpt>
      <trkpt lat="45.92517" lon="4.74566">
        <ele>171</ele>
        <time>2018-06-07T08:56:27Z</time>
      </trkpt>
      <trkpt lat="45.92513" lon="4.74572">
        <ele>171</ele>
        <time>2018-06-07T08:56:28Z</time>
      </trkpt>
      <trkpt lat="45.92508" lon="4.74577">
        <ele>171</ele>
        <time>2018-06-07T08:56:29Z</time>
      </trkpt>
      <trkpt lat="45.92504" lon="4.74583">
        <ele>171</ele>
        <time>2018-06-07T08:56:30Z</time>
      </trkpt>
      <trkpt lat="45.92499" lon="4.74588">
        <ele>171</ele>
        <time>2018-06-07T08:56:31Z</time>
      </trkpt>
      <trkpt lat="45.92496" lon="4.74593">
        <ele>171</ele>
        <time>2018-06-07T08:56:32Z</time>
      </trkpt>
      <trkpt lat="45.92491" lon="4.74599">
        <ele>171</ele>
        <time>2018-06-07T08:56:33Z</time>
      </trkpt>
      <trkpt lat="45.92487" lon="4.74604">
        <ele>171</ele>
        <time>2018-06-07T08:56:34Z</time>
      </trkpt>
      <trkpt lat="45.92482" lon="4.74611">
        <ele>171</ele>
        <time>2018-06-07T08:56:35Z</time>
      </trkpt>
      <trkpt lat="45.92477" lon="4.74617">
        <ele>171</ele>
        <time>2018-06-07T08:56:36Z</time>
      </trkpt>
      <trkpt lat="45.92474" lon="4.74623">
        <ele>171</ele>
        <time>2018-06-07T08:56:37Z</time>
      </trkpt>
      <trkpt lat="45.9247" lon="4.74629">
        <ele>171</ele>
        <time>2018-06-07T08:56:38Z</time>
      </trkpt>
      <trkpt lat="45.92466" lon="4.74635">
        <ele>171</ele>
        <time>2018-06-07T08:56:39Z</time>
      </trkpt>
      <trkpt lat="45.92463" lon="4.74642">
        <ele>171</ele>
        <time>2018-06-07T08:56:40Z</time>
      </trkpt>
      <trkpt lat="45.92458" lon="4.74648">
        <ele>171</ele>
        <time>2018-06-07T08:56:41Z</time>
      </trkpt>
      <trkpt lat="45.92455" lon="4.74653">
        <ele>171</ele>
        <time>2018-06-07T08:56:42Z</time>
      </trkpt>
      <trkpt lat="45.9245" lon="4.7466">
        <ele>171</ele>
        <time>2018-06-07T08:56:43Z</time>
      </trkpt>
      <trkpt lat="45.92447" lon="4.74666">
        <ele>171</ele>
        <time>2018-06-07T08:56:44Z</time>
      </trkpt>
      <trkpt lat="45.92444" lon="4.74673">
        <ele>171</ele>
        <time>2018-06-07T08:56:45Z</time>
      </trkpt>
      <trkpt lat="45.92439" lon="4.74679">
        <ele>171</ele>
        <time>2018-06-07T08:56:46Z</time>
      </trkpt>
      <trkpt lat="45.92438" lon="4.74691">
        <ele>171</ele>
        <time>2018-06-07T08:56:47Z</time>
      </trkpt>
      <trkpt lat="45.92435" lon="4.74698">
        <ele>171</ele>
        <time>2018-06-07T08:56:48Z</time>
      </trkpt>
      <trkpt lat="45.92432" lon="4.74704">
        <ele>171</ele>
        <time>2018-06-07T08:56:49Z</time>
      </trkpt>
      <trkpt lat="45.92429" lon="4.74711">
        <ele>171</ele>
        <time>2018-06-07T08:56:50Z</time>
      </trkpt>
      <trkpt lat="45.92426" lon="4.74718">
        <ele>171</ele>
        <time>2018-06-07T08:56:51Z</time>
      </trkpt>
      <trkpt lat="45.92424" lon="4.74724">
        <ele>171</ele>
        <time>2018-06-07T08:56:52Z</time>
      </trkpt>
      <trkpt lat="45.92422" lon="4.74731">
        <ele>171</ele>
        <time>2018-06-07T08:56:53Z</time>
      </trkpt>
      <trkpt lat="45.92419" lon="4.74741">
        <ele>172</ele>
        <time>2018-06-07T08:56:54Z</time>
      </trkpt>
      <trkpt lat="45.92417" lon="4.74746">
        <ele>172</ele>
        <time>2018-06-07T08:56:55Z</time>
      </trkpt>
      <trkpt lat="45.92415" lon="4.74754">
        <ele>172</ele>
        <time>2018-06-07T08:56:56Z</time>
      </trkpt>
      <trkpt lat="45.92414" lon="4.74763">
        <ele>172</ele>
        <time>2018-06-07T08:56:57Z</time>
      </trkpt>
      <trkpt lat="45.92412" lon="4.74771">
        <ele>172</ele>
        <time>2018-06-07T08:56:58Z</time>
      </trkpt>
      <trkpt lat="45.9241" lon="4.74779">
        <ele>171</ele>
        <time>2018-06-07T08:56:59Z</time>
      </trkpt>
      <trkpt lat="45.92409" lon="4.74789">
        <ele>171</ele>
        <time>2018-06-07T08:57:00Z</time>
      </trkpt>
      <trkpt lat="45.92406" lon="4.74796">
        <ele>171</ele>
        <time>2018-06-07T08:57:01Z</time>
      </trkpt>
      <trkpt lat="45.92404" lon="4.74805">
        <ele>171</ele>
        <time>2018-06-07T08:57:02Z</time>
      </trkpt>
      <trkpt lat="45.92402" lon="4.74809">
        <ele>171</ele>
        <time>2018-06-07T08:57:03Z</time>
      </trkpt>
      <trkpt lat="45.92399" lon="4.74821">
        <ele>171</ele>
        <time>2018-06-07T08:57:04Z</time>
      </trkpt>
      <trkpt lat="45.92398" lon="4.7483">
        <ele>171</ele>
        <time>2018-06-07T08:57:05Z</time>
      </trkpt>
      <trkpt lat="45.92395" lon="4.74839">
        <ele>171</ele>
        <time>2018-06-07T08:57:06Z</time>
      </trkpt>
      <trkpt lat="45.92392" lon="4.74848">
        <ele>171</ele>
        <time>2018-06-07T08:57:07Z</time>
      </trkpt>
      <trkpt lat="45.92389" lon="4.74857">
        <ele>171</ele>
        <time>2018-06-07T08:57:08Z</time>
      </trkpt>
      <trkpt lat="45.92387" lon="4.74865">
        <ele>171</ele>
        <time>2018-06-07T08:57:09Z</time>
      </trkpt>
      <trkpt lat="45.92383" lon="4.74873">
        <ele>171</ele>
        <time>2018-06-07T08:57:10Z</time>
      </trkpt>
      <trkpt lat="45.9238" lon="4.74881">
        <ele>171</ele>
        <time>2018-06-07T08:57:11Z</time>
      </trkpt>
      <trkpt lat="45.92376" lon="4.7489">
        <ele>171</ele>
        <time>2018-06-07T08:57:12Z</time>
      </trkpt>
      <trkpt lat="45.92372" lon="4.74897">
        <ele>171</ele>
        <time>2018-06-07T08:57:13Z</time>
      </trkpt>
      <trkpt lat="45.92369" lon="4.74907">
        <ele>171</ele>
        <time>2018-06-07T08:57:14Z</time>
      </trkpt>
      <trkpt lat="45.92366" lon="4.74915">
        <ele>171</ele>
        <time>2018-06-07T08:57:15Z</time>
      </trkpt>
      <trkpt lat="45.92363" lon="4.74924">
        <ele>170</ele>
        <time>2018-06-07T08:57:16Z</time>
      </trkpt>
      <trkpt lat="45.92358" lon="4.74933">
        <ele>170</ele>
        <time>2018-06-07T08:57:17Z</time>
      </trkpt>
      <trkpt lat="45.92355" lon="4.74941">
        <ele>170</ele>
        <time>2018-06-07T08:57:18Z</time>
      </trkpt>
      <trkpt lat="45.92352" lon="4.74949">
        <ele>170</ele>
        <time>2018-06-07T08:57:19Z</time>
      </trkpt>
      <trkpt lat="45.92349" lon="4.74957">
        <ele>170</ele>
        <time>2018-06-07T08:57:20Z</time>
      </trkpt>
      <trkpt lat="45.92346" lon="4.74966">
        <ele>170</ele>
        <time>2018-06-07T08:57:21Z</time>
      </trkpt>
      <trkpt lat="45.92344" lon="4.74973">
        <ele>170</ele>
        <time>2018-06-07T08:57:22Z</time>
      </trkpt>
      <trkpt lat="45.92341" lon="4.74981">
        <ele>170</ele>
        <time>2018-06-07T08:57:23Z</time>
      </trkpt>
      <trkpt lat="45.92341" lon="4.74989">
        <ele>170</ele>
        <time>2018-06-07T08:57:24Z</time>
      </trkpt>
      <trkpt lat="45.92337" lon="4.74996">
        <ele>170</ele>
        <time>2018-06-07T08:57:25Z</time>
      </trkpt>
      <trkpt lat="45.92334" lon="4.75004">
        <ele>170</ele>
        <time>2018-06-07T08:57:26Z</time>
      </trkpt>
      <trkpt lat="45.92331" lon="4.75012">
        <ele>171</ele>
        <time>2018-06-07T08:57:27Z</time>
      </trkpt>
      <trkpt lat="45.92328" lon="4.7502">
        <ele>171</ele>
        <time>2018-06-07T08:57:28Z</time>
      </trkpt>
      <trkpt lat="45.92323" lon="4.75027">
        <ele>171</ele>
        <time>2018-06-07T08:57:29Z</time>
      </trkpt>
      <trkpt lat="45.92319" lon="4.75034">
        <ele>171</ele>
        <time>2018-06-07T08:57:30Z</time>
      </trkpt>
      <trkpt lat="45.92316" lon="4.75041">
        <ele>172</ele>
        <time>2018-06-07T08:57:31Z</time>
      </trkpt>
      <trkpt lat="45.92312" lon="4.75047">
        <ele>172</ele>
        <time>2018-06-07T08:57:32Z</time>
      </trkpt>
      <trkpt lat="45.92308" lon="4.75054">
        <ele>172</ele>
        <time>2018-06-07T08:57:33Z</time>
      </trkpt>
      <trkpt lat="45.92303" lon="4.75059">
        <ele>172</ele>
        <time>2018-06-07T08:57:34Z</time>
      </trkpt>
      <trkpt lat="45.92298" lon="4.75064">
        <ele>172</ele>
        <time>2018-06-07T08:57:35Z</time>
      </trkpt>
      <trkpt lat="45.92294" lon="4.7507">
        <ele>172</ele>
        <time>2018-06-07T08:57:36Z</time>
      </trkpt>
      <trkpt lat="45.9229" lon="4.75077">
        <ele>172</ele>
        <time>2018-06-07T08:57:37Z</time>
      </trkpt>
      <trkpt lat="45.92286" lon="4.75082">
        <ele>172</ele>
        <time>2018-06-07T08:57:38Z</time>
      </trkpt>
      <trkpt lat="45.92281" lon="4.75087">
        <ele>173</ele>
        <time>2018-06-07T08:57:39Z</time>
      </trkpt>
      <trkpt lat="45.92276" lon="4.75092">
        <ele>173</ele>
        <time>2018-06-07T08:57:40Z</time>
      </trkpt>
      <trkpt lat="45.92271" lon="4.75097">
        <ele>173</ele>
        <time>2018-06-07T08:57:41Z</time>
      </trkpt>
      <trkpt lat="45.92267" lon="4.75102">
        <ele>173</ele>
        <time>2018-06-07T08:57:42Z</time>
      </trkpt>
      <trkpt lat="45.92262" lon="4.75107">
        <ele>174</ele>
        <time>2018-06-07T08:57:43Z</time>
      </trkpt>
      <trkpt lat="45.92258" lon="4.75112">
        <ele>174</ele>
        <time>2018-06-07T08:57:44Z</time>
      </trkpt>
      <trkpt lat="45.92254" lon="4.75117">
        <ele>174</ele>
        <time>2018-06-07T08:57:45Z</time>
      </trkpt>
      <trkpt lat="45.92249" lon="4.75122">
        <ele>174</ele>
        <time>2018-06-07T08:57:46Z</time>
      </trkpt>
      <trkpt lat="45.92245" lon="4.75127">
        <ele>174</ele>
        <time>2018-06-07T08:57:47Z</time>
      </trkpt>
      <trkpt lat="45.92241" lon="4.75133">
        <ele>174</ele>
        <time>2018-06-07T08:57:48Z</time>
      </trkpt>
      <trkpt lat="45.92236" lon="4.75138">
        <ele>174</ele>
        <time>2018-06-07T08:57:49Z</time>
      </trkpt>
      <trkpt lat="45.92232" lon="4.75145">
        <ele>174</ele>
        <time>2018-06-07T08:57:50Z</time>
      </trkpt>
      <trkpt lat="45.92229" lon="4.75151">
        <ele>174</ele>
        <time>2018-06-07T08:57:51Z</time>
      </trkpt>
      <trkpt lat="45.92225" lon="4.75157">
        <ele>174</ele>
        <time>2018-06-07T08:57:52Z</time>
      </trkpt>
      <trkpt lat="45.92221" lon="4.75164">
        <ele>174</ele>
        <time>2018-06-07T08:57:53Z</time>
      </trkpt>
      <trkpt lat="45.92219" lon="4.75171">
        <ele>175</ele>
        <time>2018-06-07T08:57:54Z</time>
      </trkpt>
      <trkpt lat="45.92217" lon="4.75178">
        <ele>175</ele>
        <time>2018-06-07T08:57:55Z</time>
      </trkpt>
      <trkpt lat="45.92215" lon="4.75186">
        <ele>175</ele>
        <time>2018-06-07T08:57:56Z</time>
      </trkpt>
      <trkpt lat="45.92213" lon="4.75193">
        <ele>175</ele>
        <time>2018-06-07T08:57:57Z</time>
      </trkpt>
      <trkpt lat="45.92212" lon="4.75201">
        <ele>175</ele>
        <time>2018-06-07T08:57:58Z</time>
      </trkpt>
      <trkpt lat="45.92211" lon="4.75209">
        <ele>175</ele>
        <time>2018-06-07T08:57:59Z</time>
      </trkpt>
      <trkpt lat="45.92209" lon="4.75217">
        <ele>175</ele>
        <time>2018-06-07T08:58:00Z</time>
      </trkpt>
      <trkpt lat="45.92209" lon="4.75225">
        <ele>175</ele>
        <time>2018-06-07T08:58:01Z</time>
      </trkpt>
      <trkpt lat="45.92209" lon="4.75232">
        <ele>175</ele>
        <time>2018-06-07T08:58:02Z</time>
      </trkpt>
      <trkpt lat="45.92209" lon="4.75241">
        <ele>175</ele>
        <time>2018-06-07T08:58:03Z</time>
      </trkpt>
      <trkpt lat="45.92208" lon="4.75249">
        <ele>175</ele>
        <time>2018-06-07T08:58:04Z</time>
      </trkpt>
      <trkpt lat="45.92209" lon="4.75258">
        <ele>175</ele>
        <time>2018-06-07T08:58:05Z</time>
      </trkpt>
      <trkpt lat="45.92209" lon="4.75267">
        <ele>176</ele>
        <time>2018-06-07T08:58:06Z</time>
      </trkpt>
      <trkpt lat="45.92208" lon="4.75275">
        <ele>176</ele>
        <time>2018-06-07T08:58:07Z</time>
      </trkpt>
      <trkpt lat="45.92208" lon="4.75284">
        <ele>176</ele>
        <time>2018-06-07T08:58:08Z</time>
      </trkpt>
      <trkpt lat="45.92208" lon="4.75292">
        <ele>176</ele>
        <time>2018-06-07T08:58:09Z</time>
      </trkpt>
      <trkpt lat="45.92208" lon="4.75299">
        <ele>176</ele>
        <time>2018-06-07T08:58:10Z</time>
      </trkpt>
      <trkpt lat="45.92208" lon="4.75307">
        <ele>176</ele>
        <time>2018-06-07T08:58:11Z</time>
      </trkpt>
      <trkpt lat="45.92206" lon="4.75315">
        <ele>176</ele>
        <time>2018-06-07T08:58:12Z</time>
      </trkpt>
      <trkpt lat="45.92206" lon="4.75323">
        <ele>176</ele>
        <time>2018-06-07T08:58:13Z</time>
      </trkpt>
      <trkpt lat="45.92204" lon="4.75331">
        <ele>176</ele>
        <time>2018-06-07T08:58:14Z</time>
      </trkpt>
      <trkpt lat="45.92202" lon="4.75339">
        <ele>177</ele>
        <time>2018-06-07T08:58:15Z</time>
      </trkpt>
      <trkpt lat="45.922" lon="4.75347">
        <ele>177</ele>
        <time>2018-06-07T08:58:16Z</time>
      </trkpt>
      <trkpt lat="45.92198" lon="4.75355">
        <ele>177</ele>
        <time>2018-06-07T08:58:17Z</time>
      </trkpt>
      <trkpt lat="45.92196" lon="4.75363">
        <ele>177</ele>
        <time>2018-06-07T08:58:18Z</time>
      </trkpt>
      <trkpt lat="45.92194" lon="4.7537">
        <ele>177</ele>
        <time>2018-06-07T08:58:19Z</time>
      </trkpt>
      <trkpt lat="45.92191" lon="4.75378">
        <ele>177</ele>
        <time>2018-06-07T08:58:20Z</time>
      </trkpt>
      <trkpt lat="45.92188" lon="4.75385">
        <ele>177</ele>
        <time>2018-06-07T08:58:21Z</time>
      </trkpt>
      <trkpt lat="45.92185" lon="4.75393">
        <ele>177</ele>
        <time>2018-06-07T08:58:22Z</time>
      </trkpt>
      <trkpt lat="45.92181" lon="4.75402">
        <ele>177</ele>
        <time>2018-06-07T08:58:23Z</time>
      </trkpt>
      <trkpt lat="45.92178" lon="4.7541">
        <ele>177</ele>
        <time>2018-06-07T08:58:24Z</time>
      </trkpt>
      <trkpt lat="45.92175" lon="4.75417">
        <ele>177</ele>
        <time>2018-06-07T08:58:25Z</time>
      </trkpt>
      <trkpt lat="45.92172" lon="4.75424">
        <ele>177</ele>
        <time>2018-06-07T08:58:26Z</time>
      </trkpt>
      <trkpt lat="45.92168" lon="4.7543">
        <ele>177</ele>
        <time>2018-06-07T08:58:27Z</time>
      </trkpt>
      <trkpt lat="45.92165" lon="4.75437">
        <ele>177</ele>
        <time>2018-06-07T08:58:28Z</time>
      </trkpt>
      <trkpt lat="45.92162" lon="4.75445">
        <ele>177</ele>
        <time>2018-06-07T08:58:29Z</time>
      </trkpt>
      <trkpt lat="45.92158" lon="4.75452">
        <ele>176</ele>
        <time>2018-06-07T08:58:30Z</time>
      </trkpt>
      <trkpt lat="45.92154" lon="4.75459">
        <ele>176</ele>
        <time>2018-06-07T08:58:31Z</time>
      </trkpt>
      <trkpt lat="45.92151" lon="4.75466">
        <ele>176</ele>
        <time>2018-06-07T08:58:32Z</time>
      </trkpt>
      <trkpt lat="45.92147" lon="4.75474">
        <ele>176</ele>
        <time>2018-06-07T08:58:33Z</time>
      </trkpt>
      <trkpt lat="45.92146" lon="4.75481">
        <ele>176</ele>
        <time>2018-06-07T08:58:34Z</time>
      </trkpt>
      <trkpt lat="45.92143" lon="4.75489">
        <ele>176</ele>
        <time>2018-06-07T08:58:35Z</time>
      </trkpt>
      <trkpt lat="45.9214" lon="4.75496">
        <ele>176</ele>
        <time>2018-06-07T08:58:36Z</time>
      </trkpt>
      <trkpt lat="45.92136" lon="4.75503">
        <ele>174</ele>
        <time>2018-06-07T08:58:37Z</time>
      </trkpt>
      <trkpt lat="45.92133" lon="4.75511">
        <ele>174</ele>
        <time>2018-06-07T08:58:38Z</time>
      </trkpt>
      <trkpt lat="45.92129" lon="4.7552">
        <ele>174</ele>
        <time>2018-06-07T08:58:39Z</time>
      </trkpt>
      <trkpt lat="45.92125" lon="4.75527">
        <ele>174</ele>
        <time>2018-06-07T08:58:40Z</time>
      </trkpt>
      <trkpt lat="45.92121" lon="4.75535">
        <ele>174</ele>
        <time>2018-06-07T08:58:41Z</time>
      </trkpt>
      <trkpt lat="45.92118" lon="4.75542">
        <ele>174</ele>
        <time>2018-06-07T08:58:42Z</time>
      </trkpt>
      <trkpt lat="45.92114" lon="4.75549">
        <ele>174</ele>
        <time>2018-06-07T08:58:43Z</time>
      </trkpt>
      <trkpt lat="45.9211" lon="4.75556">
        <ele>174</ele>
        <time>2018-06-07T08:58:44Z</time>
      </trkpt>
      <trkpt lat="45.92108" lon="4.75564">
        <ele>174</ele>
        <time>2018-06-07T08:58:45Z</time>
      </trkpt>
      <trkpt lat="45.92107" lon="4.75574">
        <ele>174</ele>
        <time>2018-06-07T08:58:46Z</time>
      </trkpt>
      <trkpt lat="45.92107" lon="4.75581">
        <ele>174</ele>
        <time>2018-06-07T08:58:47Z</time>
      </trkpt>
      <trkpt lat="45.92111" lon="4.75588">
        <ele>174</ele>
        <time>2018-06-07T08:58:48Z</time>
      </trkpt>
      <trkpt lat="45.92115" lon="4.75595">
        <ele>174</ele>
        <time>2018-06-07T08:58:49Z</time>
      </trkpt>
      <trkpt lat="45.9212" lon="4.756">
        <ele>174</ele>
        <time>2018-06-07T08:58:50Z</time>
      </trkpt>
      <trkpt lat="45.92124" lon="4.75604">
        <ele>174</ele>
        <time>2018-06-07T08:58:51Z</time>
      </trkpt>
      <trkpt lat="45.9213" lon="4.7561">
        <ele>174</ele>
        <time>2018-06-07T08:58:52Z</time>
      </trkpt>
      <trkpt lat="45.92136" lon="4.75614">
        <ele>174</ele>
        <time>2018-06-07T08:58:53Z</time>
      </trkpt>
      <trkpt lat="45.92141" lon="4.7562">
        <ele>174</ele>
        <time>2018-06-07T08:58:54Z</time>
      </trkpt>
      <trkpt lat="45.92146" lon="4.75626">
        <ele>174</ele>
        <time>2018-06-07T08:58:55Z</time>
      </trkpt>
      <trkpt lat="45.92151" lon="4.75631">
        <ele>174</ele>
        <time>2018-06-07T08:58:56Z</time>
      </trkpt>
      <trkpt lat="45.92156" lon="4.75636">
        <ele>174</ele>
        <time>2018-06-07T08:58:57Z</time>
      </trkpt>
      <trkpt lat="45.92162" lon="4.75641">
        <ele>174</ele>
        <time>2018-06-07T08:58:58Z</time>
      </trkpt>
      <trkpt lat="45.92168" lon="4.75646">
        <ele>174</ele>
        <time>2018-06-07T08:58:59Z</time>
      </trkpt>
      <trkpt lat="45.92174" lon="4.75651">
        <ele>174</ele>
        <time>2018-06-07T08:59:00Z</time>
      </trkpt>
      <trkpt lat="45.92179" lon="4.75658">
        <ele>174</ele>
        <time>2018-06-07T08:59:01Z</time>
      </trkpt>
      <trkpt lat="45.92183" lon="4.75663">
        <ele>174</ele>
        <time>2018-06-07T08:59:02Z</time>
      </trkpt>
      <trkpt lat="45.92188" lon="4.75669">
        <ele>174</ele>
        <time>2018-06-07T08:59:03Z</time>
      </trkpt>
      <trkpt lat="45.92193" lon="4.75674">
        <ele>174</ele>
        <time>2018-06-07T08:59:04Z</time>
      </trkpt>
      <trkpt lat="45.92199" lon="4.7568">
        <ele>174</ele>
        <time>2018-06-07T08:59:05Z</time>
      </trkpt>
      <trkpt lat="45.92203" lon="4.75683">
        <ele>174</ele>
        <time>2018-06-07T08:59:06Z</time>
      </trkpt>
      <trkpt lat="45.92208" lon="4.75688">
        <ele>174</ele>
        <time>2018-06-07T08:59:07Z</time>
      </trkpt>
      <trkpt lat="45.92215" lon="4.75696">
        <ele>174</ele>
        <time>2018-06-07T08:59:09Z</time>
      </trkpt>
      <trkpt lat="45.9222" lon="4.75703">
        <ele>174</ele>
        <time>2018-06-07T08:59:10Z</time>
      </trkpt>
      <trkpt lat="45.92225" lon="4.75709">
        <ele>174</ele>
        <time>2018-06-07T08:59:11Z</time>
      </trkpt>
      <trkpt lat="45.92229" lon="4.75715">
        <ele>174</ele>
        <time>2018-06-07T08:59:12Z</time>
      </trkpt>
      <trkpt lat="45.92232" lon="4.75721">
        <ele>174</ele>
        <time>2018-06-07T08:59:13Z</time>
      </trkpt>
      <trkpt lat="45.92236" lon="4.7573">
        <ele>174</ele>
        <time>2018-06-07T08:59:14Z</time>
      </trkpt>
      <trkpt lat="45.92239" lon="4.75738">
        <ele>174</ele>
        <time>2018-06-07T08:59:15Z</time>
      </trkpt>
      <trkpt lat="45.92241" lon="4.75746">
        <ele>174</ele>
        <time>2018-06-07T08:59:16Z</time>
      </trkpt>
      <trkpt lat="45.92242" lon="4.75754">
        <ele>174</ele>
        <time>2018-06-07T08:59:17Z</time>
      </trkpt>
      <trkpt lat="45.92245" lon="4.75761">
        <ele>174</ele>
        <time>2018-06-07T08:59:18Z</time>
      </trkpt>
      <trkpt lat="45.92248" lon="4.75769">
        <ele>174</ele>
        <time>2018-06-07T08:59:19Z</time>
      </trkpt>
      <trkpt lat="45.92249" lon="4.75776">
        <ele>173</ele>
        <time>2018-06-07T08:59:20Z</time>
      </trkpt>
      <trkpt lat="45.9225" lon="4.75783">
        <ele>174</ele>
        <time>2018-06-07T08:59:21Z</time>
      </trkpt>
      <trkpt lat="45.92253" lon="4.75791">
        <ele>174</ele>
        <time>2018-06-07T08:59:22Z</time>
      </trkpt>
      <trkpt lat="45.92255" lon="4.75799">
        <ele>174</ele>
        <time>2018-06-07T08:59:23Z</time>
      </trkpt>
      <trkpt lat="45.92257" lon="4.75806">
        <ele>174</ele>
        <time>2018-06-07T08:59:24Z</time>
      </trkpt>
      <trkpt lat="45.9226" lon="4.75814">
        <ele>174</ele>
        <time>2018-06-07T08:59:25Z</time>
      </trkpt>
      <trkpt lat="45.92264" lon="4.75821">
        <ele>174</ele>
        <time>2018-06-07T08:59:26Z</time>
      </trkpt>
      <trkpt lat="45.92269" lon="4.75826">
        <ele>174</ele>
        <time>2018-06-07T08:59:27Z</time>
      </trkpt>
      <trkpt lat="45.92275" lon="4.75831">
        <ele>174</ele>
        <time>2018-06-07T08:59:28Z</time>
      </trkpt>
      <trkpt lat="45.9228" lon="4.75837">
        <ele>173</ele>
        <time>2018-06-07T08:59:29Z</time>
      </trkpt>
      <trkpt lat="45.92286" lon="4.75838">
        <ele>173</ele>
        <time>2018-06-07T08:59:30Z</time>
      </trkpt>
      <trkpt lat="45.92292" lon="4.75841">
        <ele>173</ele>
        <time>2018-06-07T08:59:31Z</time>
      </trkpt>
      <trkpt lat="45.92298" lon="4.75844">
        <ele>173</ele>
        <time>2018-06-07T08:59:32Z</time>
      </trkpt>
      <trkpt lat="45.92303" lon="4.7585">
        <ele>173</ele>
        <time>2018-06-07T08:59:33Z</time>
      </trkpt>
      <trkpt lat="45.9231" lon="4.75853">
        <ele>173</ele>
        <time>2018-06-07T08:59:34Z</time>
      </trkpt>
      <trkpt lat="45.92316" lon="4.75858">
        <ele>173</ele>
        <time>2018-06-07T08:59:35Z</time>
      </trkpt>
      <trkpt lat="45.92323" lon="4.75861">
        <ele>173</ele>
        <time>2018-06-07T08:59:36Z</time>
      </trkpt>
      <trkpt lat="45.9233" lon="4.75865">
        <ele>173</ele>
        <time>2018-06-07T08:59:37Z</time>
      </trkpt>
      <trkpt lat="45.92337" lon="4.75869">
        <ele>173</ele>
        <time>2018-06-07T08:59:38Z</time>
      </trkpt>
      <trkpt lat="45.92344" lon="4.75872">
        <ele>173</ele>
        <time>2018-06-07T08:59:39Z</time>
      </trkpt>
      <trkpt lat="45.92349" lon="4.75877">
        <ele>173</ele>
        <time>2018-06-07T08:59:40Z</time>
      </trkpt>
      <trkpt lat="45.92356" lon="4.7588">
        <ele>173</ele>
        <time>2018-06-07T08:59:41Z</time>
      </trkpt>
      <trkpt lat="45.92361" lon="4.75884">
        <ele>173</ele>
        <time>2018-06-07T08:59:42Z</time>
      </trkpt>
      <trkpt lat="45.92367" lon="4.75888">
        <ele>173</ele>
        <time>2018-06-07T08:59:43Z</time>
      </trkpt>
      <trkpt lat="45.92373" lon="4.75892">
        <ele>173</ele>
        <time>2018-06-07T08:59:44Z</time>
      </trkpt>
      <trkpt lat="45.92379" lon="4.75897">
        <ele>173</ele>
        <time>2018-06-07T08:59:45Z</time>
      </trkpt>
      <trkpt lat="45.92384" lon="4.759">
        <ele>173</ele>
        <time>2018-06-07T08:59:46Z</time>
      </trkpt>
      <trkpt lat="45.92391" lon="4.75905">
        <ele>173</ele>
        <time>2018-06-07T08:59:47Z</time>
      </trkpt>
      <trkpt lat="45.92396" lon="4.75909">
        <ele>173</ele>
        <time>2018-06-07T08:59:48Z</time>
      </trkpt>
      <trkpt lat="45.92403" lon="4.75912">
        <ele>172</ele>
        <time>2018-06-07T08:59:49Z</time>
      </trkpt>
      <trkpt lat="45.92409" lon="4.75917">
        <ele>172</ele>
        <time>2018-06-07T08:59:50Z</time>
      </trkpt>
      <trkpt lat="45.92415" lon="4.75923">
        <ele>172</ele>
        <time>2018-06-07T08:59:51Z</time>
      </trkpt>
      <trkpt lat="45.9242" lon="4.75927">
        <ele>172</ele>
        <time>2018-06-07T08:59:52Z</time>
      </trkpt>
      <trkpt lat="45.92425" lon="4.75931">
        <ele>172</ele>
        <time>2018-06-07T08:59:53Z</time>
      </trkpt>
      <trkpt lat="45.9243" lon="4.75935">
        <ele>172</ele>
        <time>2018-06-07T08:59:54Z</time>
      </trkpt>
      <trkpt lat="45.92435" lon="4.75939">
        <ele>172</ele>
        <time>2018-06-07T08:59:55Z</time>
      </trkpt>
      <trkpt lat="45.92442" lon="4.75943">
        <ele>172</ele>
        <time>2018-06-07T08:59:56Z</time>
      </trkpt>
      <trkpt lat="45.92448" lon="4.75946">
        <ele>172</ele>
        <time>2018-06-07T08:59:57Z</time>
      </trkpt>
      <trkpt lat="45.92453" lon="4.7595">
        <ele>172</ele>
        <time>2018-06-07T08:59:58Z</time>
      </trkpt>
      <trkpt lat="45.92459" lon="4.75954">
        <ele>172</ele>
        <time>2018-06-07T08:59:59Z</time>
      </trkpt>
      <trkpt lat="45.92464" lon="4.75958">
        <ele>172</ele>
        <time>2018-06-07T09:00:00Z</time>
      </trkpt>
      <trkpt lat="45.92468" lon="4.75962">
        <ele>172</ele>
        <time>2018-06-07T09:00:01Z</time>
      </trkpt>
      <trkpt lat="45.92473" lon="4.75966">
        <ele>172</ele>
        <time>2018-06-07T09:00:02Z</time>
      </trkpt>
      <trkpt lat="45.92478" lon="4.7597">
        <ele>172</ele>
        <time>2018-06-07T09:00:03Z</time>
      </trkpt>
      <trkpt lat="45.92482" lon="4.75974">
        <ele>172</ele>
        <time>2018-06-07T09:00:04Z</time>
      </trkpt>
      <trkpt lat="45.92486" lon="4.75977">
        <ele>172</ele>
        <time>2018-06-07T09:00:05Z</time>
      </trkpt>
      <trkpt lat="45.9249" lon="4.75981">
        <ele>172</ele>
        <time>2018-06-07T09:00:06Z</time>
      </trkpt>
      <trkpt lat="45.92495" lon="4.75984">
        <ele>172</ele>
        <time>2018-06-07T09:00:07Z</time>
      </trkpt>
      <trkpt lat="45.925" lon="4.75989">
        <ele>172</ele>
        <time>2018-06-07T09:00:08Z</time>
      </trkpt>
      <trkpt lat="45.92505" lon="4.75992">
        <ele>172</ele>
        <time>2018-06-07T09:00:09Z</time>
      </trkpt>
      <trkpt lat="45.9251" lon="4.75995">
        <ele>172</ele>
        <time>2018-06-07T09:00:10Z</time>
      </trkpt>
      <trkpt lat="45.92515" lon="4.76">
        <ele>172</ele>
        <time>2018-06-07T09:00:11Z</time>
      </trkpt>
      <trkpt lat="45.9252" lon="4.76003">
        <ele>172</ele>
        <time>2018-06-07T09:00:12Z</time>
      </trkpt>
      <trkpt lat="45.92525" lon="4.76007">
        <ele>172</ele>
        <time>2018-06-07T09:00:13Z</time>
      </trkpt>
      <trkpt lat="45.92531" lon="4.76011">
        <ele>172</ele>
        <time>2018-06-07T09:00:14Z</time>
      </trkpt>
      <trkpt lat="45.92537" lon="4.76016">
        <ele>172</ele>
        <time>2018-06-07T09:00:15Z</time>
      </trkpt>
      <trkpt lat="45.92542" lon="4.76019">
        <ele>172</ele>
        <time>2018-06-07T09:00:16Z</time>
      </trkpt>
      <trkpt lat="45.92546" lon="4.76023">
        <ele>172</ele>
        <time>2018-06-07T09:00:17Z</time>
      </trkpt>
      <trkpt lat="45.92552" lon="4.76028">
        <ele>172</ele>
        <time>2018-06-07T09:00:18Z</time>
      </trkpt>
      <trkpt lat="45.92557" lon="4.76034">
        <ele>172</ele>
        <time>2018-06-07T09:00:19Z</time>
      </trkpt>
      <trkpt lat="45.92562" lon="4.76038">
        <ele>172</ele>
        <time>2018-06-07T09:00:20Z</time>
      </trkpt>
      <trkpt lat="45.92567" lon="4.76041">
        <ele>172</ele>
        <time>2018-06-07T09:00:21Z</time>
      </trkpt>
      <trkpt lat="45.92573" lon="4.76045">
        <ele>171</ele>
        <time>2018-06-07T09:00:22Z</time>
      </trkpt>
      <trkpt lat="45.92579" lon="4.76048">
        <ele>171</ele>
        <time>2018-06-07T09:00:23Z</time>
      </trkpt>
      <trkpt lat="45.92585" lon="4.76053">
        <ele>171</ele>
        <time>2018-06-07T09:00:24Z</time>
      </trkpt>
      <trkpt lat="45.9259" lon="4.76056">
        <ele>171</ele>
        <time>2018-06-07T09:00:25Z</time>
      </trkpt>
      <trkpt lat="45.92596" lon="4.7606">
        <ele>171</ele>
        <time>2018-06-07T09:00:26Z</time>
      </trkpt>
      <trkpt lat="45.92602" lon="4.76065">
        <ele>171</ele>
        <time>2018-06-07T09:00:27Z</time>
      </trkpt>
      <trkpt lat="45.92608" lon="4.7607">
        <ele>171</ele>
        <time>2018-06-07T09:00:28Z</time>
      </trkpt>
      <trkpt lat="45.92614" lon="4.76073">
        <ele>171</ele>
        <time>2018-06-07T09:00:29Z</time>
      </trkpt>
      <trkpt lat="45.92619" lon="4.76078">
        <ele>171</ele>
        <time>2018-06-07T09:00:30Z</time>
      </trkpt>
      <trkpt lat="45.92625" lon="4.76081">
        <ele>170</ele>
        <time>2018-06-07T09:00:31Z</time>
      </trkpt>
      <trkpt lat="45.92632" lon="4.76085">
        <ele>170</ele>
        <time>2018-06-07T09:00:32Z</time>
      </trkpt>
      <trkpt lat="45.92638" lon="4.7609">
        <ele>170</ele>
        <time>2018-06-07T09:00:33Z</time>
      </trkpt>
      <trkpt lat="45.92646" lon="4.76094">
        <ele>170</ele>
        <time>2018-06-07T09:00:34Z</time>
      </trkpt>
      <trkpt lat="45.92651" lon="4.76098">
        <ele>170</ele>
        <time>2018-06-07T09:00:35Z</time>
      </trkpt>
      <trkpt lat="45.92658" lon="4.76102">
        <ele>170</ele>
        <time>2018-06-07T09:00:36Z</time>
      </trkpt>
      <trkpt lat="45.92666" lon="4.76106">
        <ele>170</ele>
        <time>2018-06-07T09:00:37Z</time>
      </trkpt>
      <trkpt lat="45.92673" lon="4.76111">
        <ele>169</ele>
        <time>2018-06-07T09:00:38Z</time>
      </trkpt>
      <trkpt lat="45.9268" lon="4.76116">
        <ele>169</ele>
        <time>2018-06-07T09:00:39Z</time>
      </trkpt>
      <trkpt lat="45.92688" lon="4.76123">
        <ele>169</ele>
        <time>2018-06-07T09:00:40Z</time>
      </trkpt>
      <trkpt lat="45.92696" lon="4.76128">
        <ele>169</ele>
        <time>2018-06-07T09:00:41Z</time>
      </trkpt>
      <trkpt lat="45.92705" lon="4.76132">
        <ele>169</ele>
        <time>2018-06-07T09:00:42Z</time>
      </trkpt>
      <trkpt lat="45.92712" lon="4.76139">
        <ele>168</ele>
        <time>2018-06-07T09:00:43Z</time>
      </trkpt>
      <trkpt lat="45.9272" lon="4.76144">
        <ele>168</ele>
        <time>2018-06-07T09:00:44Z</time>
      </trkpt>
      <trkpt lat="45.92727" lon="4.76149">
        <ele>168</ele>
        <time>2018-06-07T09:00:45Z</time>
      </trkpt>
      <trkpt lat="45.92735" lon="4.76154">
        <ele>168</ele>
        <time>2018-06-07T09:00:46Z</time>
      </trkpt>
      <trkpt lat="45.92744" lon="4.7616">
        <ele>167</ele>
        <time>2018-06-07T09:00:47Z</time>
      </trkpt>
      <trkpt lat="45.9275" lon="4.76166">
        <ele>167</ele>
        <time>2018-06-07T09:00:48Z</time>
      </trkpt>
      <trkpt lat="45.92757" lon="4.76172">
        <ele>167</ele>
        <time>2018-06-07T09:00:49Z</time>
      </trkpt>
      <trkpt lat="45.92763" lon="4.76178">
        <ele>167</ele>
        <time>2018-06-07T09:00:50Z</time>
      </trkpt>
      <trkpt lat="45.9277" lon="4.76185">
        <ele>167</ele>
        <time>2018-06-07T09:00:51Z</time>
      </trkpt>
      <trkpt lat="45.92776" lon="4.7619">
        <ele>168</ele>
        <time>2018-06-07T09:00:52Z</time>
      </trkpt>
      <trkpt lat="45.92782" lon="4.76197">
        <ele>168</ele>
        <time>2018-06-07T09:00:53Z</time>
      </trkpt>
      <trkpt lat="45.92788" lon="4.76199">
        <ele>168</ele>
        <time>2018-06-07T09:00:54Z</time>
      </trkpt>
      <trkpt lat="45.92793" lon="4.76206">
        <ele>168</ele>
        <time>2018-06-07T09:00:55Z</time>
      </trkpt>
      <trkpt lat="45.928" lon="4.76213">
        <ele>168</ele>
        <time>2018-06-07T09:00:56Z</time>
      </trkpt>
      <trkpt lat="45.92804" lon="4.76218">
        <ele>168</ele>
        <time>2018-06-07T09:00:57Z</time>
      </trkpt>
      <trkpt lat="45.9281" lon="4.76224">
        <ele>168</ele>
        <time>2018-06-07T09:00:58Z</time>
      </trkpt>
      <trkpt lat="45.92815" lon="4.76229">
        <ele>168</ele>
        <time>2018-06-07T09:00:59Z</time>
      </trkpt>
      <trkpt lat="45.9282" lon="4.76234">
        <ele>168</ele>
        <time>2018-06-07T09:01:00Z</time>
      </trkpt>
      <trkpt lat="45.92825" lon="4.7624">
        <ele>168</ele>
        <time>2018-06-07T09:01:01Z</time>
      </trkpt>
      <trkpt lat="45.92829" lon="4.76244">
        <ele>169</ele>
        <time>2018-06-07T09:01:02Z</time>
      </trkpt>
      <trkpt lat="45.92835" lon="4.7625">
        <ele>169</ele>
        <time>2018-06-07T09:01:03Z</time>
      </trkpt>
      <trkpt lat="45.9284" lon="4.76254">
        <ele>169</ele>
        <time>2018-06-07T09:01:04Z</time>
      </trkpt>
      <trkpt lat="45.92843" lon="4.76258">
        <ele>169</ele>
        <time>2018-06-07T09:01:05Z</time>
      </trkpt>
      <trkpt lat="45.92848" lon="4.76262">
        <ele>169</ele>
        <time>2018-06-07T09:01:06Z</time>
      </trkpt>
      <trkpt lat="45.92855" lon="4.76268">
        <ele>169</ele>
        <time>2018-06-07T09:01:07Z</time>
      </trkpt>
      <trkpt lat="45.92863" lon="4.76276">
        <ele>169</ele>
        <time>2018-06-07T09:01:08Z</time>
      </trkpt>
      <trkpt lat="45.92867" lon="4.76281">
        <ele>169</ele>
        <time>2018-06-07T09:01:09Z</time>
      </trkpt>
      <trkpt lat="45.92874" lon="4.76286">
        <ele>169</ele>
        <time>2018-06-07T09:01:10Z</time>
      </trkpt>
      <trkpt lat="45.9288" lon="4.76293">
        <ele>169</ele>
        <time>2018-06-07T09:01:11Z</time>
      </trkpt>
      <trkpt lat="45.92885" lon="4.76298">
        <ele>169</ele>
        <time>2018-06-07T09:01:12Z</time>
      </trkpt>
      <trkpt lat="45.92892" lon="4.76305">
        <ele>169</ele>
        <time>2018-06-07T09:01:13Z</time>
      </trkpt>
      <trkpt lat="45.92896" lon="4.76309">
        <ele>169</ele>
        <time>2018-06-07T09:01:14Z</time>
      </trkpt>
      <trkpt lat="45.92903" lon="4.76316">
        <ele>169</ele>
        <time>2018-06-07T09:01:15Z</time>
      </trkpt>
      <trkpt lat="45.92907" lon="4.7632">
        <ele>169</ele>
        <time>2018-06-07T09:01:16Z</time>
      </trkpt>
      <trkpt lat="45.92912" lon="4.76324">
        <ele>169</ele>
        <time>2018-06-07T09:01:17Z</time>
      </trkpt>
      <trkpt lat="45.92917" lon="4.76329">
        <ele>169</ele>
        <time>2018-06-07T09:01:18Z</time>
      </trkpt>
      <trkpt lat="45.92921" lon="4.76333">
        <ele>169</ele>
        <time>2018-06-07T09:01:19Z</time>
      </trkpt>
      <trkpt lat="45.92929" lon="4.76342">
        <ele>169</ele>
        <time>2018-06-07T09:01:20Z</time>
      </trkpt>
      <trkpt lat="45.92936" lon="4.76347">
        <ele>169</ele>
        <time>2018-06-07T09:01:21Z</time>
      </trkpt>
      <trkpt lat="45.92944" lon="4.76355">
        <ele>169</ele>
        <time>2018-06-07T09:01:22Z</time>
      </trkpt>
      <trkpt lat="45.9295" lon="4.76362">
        <ele>169</ele>
        <time>2018-06-07T09:01:24Z</time>
      </trkpt>
      <trkpt lat="45.92954" lon="4.76366">
        <ele>169</ele>
        <time>2018-06-07T09:01:25Z</time>
      </trkpt>
      <trkpt lat="45.92959" lon="4.76372">
        <ele>169</ele>
        <time>2018-06-07T09:01:26Z</time>
      </trkpt>
      <trkpt lat="45.92964" lon="4.76377">
        <ele>169</ele>
        <time>2018-06-07T09:01:27Z</time>
      </trkpt>
      <trkpt lat="45.92968" lon="4.76383">
        <ele>169</ele>
        <time>2018-06-07T09:01:28Z</time>
      </trkpt>
      <trkpt lat="45.92973" lon="4.76387">
        <ele>169</ele>
        <time>2018-06-07T09:01:29Z</time>
      </trkpt>
      <trkpt lat="45.92978" lon="4.76391">
        <ele>169</ele>
        <time>2018-06-07T09:01:30Z</time>
      </trkpt>
      <trkpt lat="45.92984" lon="4.76397">
        <ele>169</ele>
        <time>2018-06-07T09:01:31Z</time>
      </trkpt>
      <trkpt lat="45.92989" lon="4.76402">
        <ele>169</ele>
        <time>2018-06-07T09:01:32Z</time>
      </trkpt>
      <trkpt lat="45.92994" lon="4.76408">
        <ele>169</ele>
        <time>2018-06-07T09:01:33Z</time>
      </trkpt>
      <trkpt lat="45.93" lon="4.76413">
        <ele>169</ele>
        <time>2018-06-07T09:01:34Z</time>
      </trkpt>
      <trkpt lat="45.93004" lon="4.76418">
        <ele>169</ele>
        <time>2018-06-07T09:01:35Z</time>
      </trkpt>
      <trkpt lat="45.9301" lon="4.76424">
        <ele>169</ele>
        <time>2018-06-07T09:01:36Z</time>
      </trkpt>
      <trkpt lat="45.93015" lon="4.7643">
        <ele>169</ele>
        <time>2018-06-07T09:01:37Z</time>
      </trkpt>
      <trkpt lat="45.93019" lon="4.76434">
        <ele>169</ele>
        <time>2018-06-07T09:01:38Z</time>
      </trkpt>
      <trkpt lat="45.93024" lon="4.7644">
        <ele>169</ele>
        <time>2018-06-07T09:01:39Z</time>
      </trkpt>
      <trkpt lat="45.93028" lon="4.76444">
        <ele>169</ele>
        <time>2018-06-07T09:01:40Z</time>
      </trkpt>
      <trkpt lat="45.93034" lon="4.76448">
        <ele>169</ele>
        <time>2018-06-07T09:01:41Z</time>
      </trkpt>
      <trkpt lat="45.93038" lon="4.76453">
        <ele>169</ele>
        <time>2018-06-07T09:01:42Z</time>
      </trkpt>
      <trkpt lat="45.93045" lon="4.76458">
        <ele>169</ele>
        <time>2018-06-07T09:01:43Z</time>
      </trkpt>
      <trkpt lat="45.93051" lon="4.76462">
        <ele>169</ele>
        <time>2018-06-07T09:01:44Z</time>
      </trkpt>
      <trkpt lat="45.93056" lon="4.76466">
        <ele>169</ele>
        <time>2018-06-07T09:01:45Z</time>
      </trkpt>
      <trkpt lat="45.93062" lon="4.76471">
        <ele>169</ele>
        <time>2018-06-07T09:01:46Z</time>
      </trkpt>
      <trkpt lat="45.93067" lon="4.76477">
        <ele>169</ele>
        <time>2018-06-07T09:01:47Z</time>
      </trkpt>
      <trkpt lat="45.93071" lon="4.7648">
        <ele>169</ele>
        <time>2018-06-07T09:01:48Z</time>
      </trkpt>
      <trkpt lat="45.93077" lon="4.76486">
        <ele>170</ele>
        <time>2018-06-07T09:01:49Z</time>
      </trkpt>
      <trkpt lat="45.93081" lon="4.76491">
        <ele>170</ele>
        <time>2018-06-07T09:01:50Z</time>
      </trkpt>
      <trkpt lat="45.93087" lon="4.76494">
        <ele>170</ele>
        <time>2018-06-07T09:01:51Z</time>
      </trkpt>
      <trkpt lat="45.93094" lon="4.76502">
        <ele>170</ele>
        <time>2018-06-07T09:01:54Z</time>
      </trkpt>
      <trkpt lat="45.93095" lon="4.76504">
        <ele>170</ele>
        <time>2018-06-07T09:01:55Z</time>
      </trkpt>
      <trkpt lat="45.93101" lon="4.7651">
        <ele>170</ele>
        <time>2018-06-07T09:01:56Z</time>
      </trkpt>
      <trkpt lat="45.93104" lon="4.76513">
        <ele>170</ele>
        <time>2018-06-07T09:01:57Z</time>
      </trkpt>
      <trkpt lat="45.93107" lon="4.76516">
        <ele>170</ele>
        <time>2018-06-07T09:01:58Z</time>
      </trkpt>
      <trkpt lat="45.93111" lon="4.76521">
        <ele>170</ele>
        <time>2018-06-07T09:01:59Z</time>
      </trkpt>
      <trkpt lat="45.93116" lon="4.76526">
        <ele>170</ele>
        <time>2018-06-07T09:02:00Z</time>
      </trkpt>
      <trkpt lat="45.93121" lon="4.76531">
        <ele>170</ele>
        <time>2018-06-07T09:02:01Z</time>
      </trkpt>
      <trkpt lat="45.93127" lon="4.76539">
        <ele>170</ele>
        <time>2018-06-07T09:02:03Z</time>
      </trkpt>
      <trkpt lat="45.93132" lon="4.76543">
        <ele>170</ele>
        <time>2018-06-07T09:02:04Z</time>
      </trkpt>
      <trkpt lat="45.93137" lon="4.76548">
        <ele>170</ele>
        <time>2018-06-07T09:02:05Z</time>
      </trkpt>
      <trkpt lat="45.93143" lon="4.76554">
        <ele>170</ele>
        <time>2018-06-07T09:02:06Z</time>
      </trkpt>
      <trkpt lat="45.93147" lon="4.76558">
        <ele>170</ele>
        <time>2018-06-07T09:02:07Z</time>
      </trkpt>
      <trkpt lat="45.9315" lon="4.76564">
        <ele>170</ele>
        <time>2018-06-07T09:02:08Z</time>
      </trkpt>
      <trkpt lat="45.93155" lon="4.76569">
        <ele>170</ele>
        <time>2018-06-07T09:02:09Z</time>
      </trkpt>
      <trkpt lat="45.93159" lon="4.76574">
        <ele>170</ele>
        <time>2018-06-07T09:02:10Z</time>
      </trkpt>
      <trkpt lat="45.93163" lon="4.76579">
        <ele>171</ele>
        <time>2018-06-07T09:02:11Z</time>
      </trkpt>
      <trkpt lat="45.93169" lon="4.76586">
        <ele>171</ele>
        <time>2018-06-07T09:02:12Z</time>
      </trkpt>
      <trkpt lat="45.93177" lon="4.76593">
        <ele>171</ele>
        <time>2018-06-07T09:02:13Z</time>
      </trkpt>
      <trkpt lat="45.93181" lon="4.76595">
        <ele>171</ele>
        <time>2018-06-07T09:02:14Z</time>
      </trkpt>
      <trkpt lat="45.93186" lon="4.76599">
        <ele>171</ele>
        <time>2018-06-07T09:02:15Z</time>
      </trkpt>
      <trkpt lat="45.93192" lon="4.76605">
        <ele>170</ele>
        <time>2018-06-07T09:02:16Z</time>
      </trkpt>
      <trkpt lat="45.93198" lon="4.76611">
        <ele>170</ele>
        <time>2018-06-07T09:02:17Z</time>
      </trkpt>
      <trkpt lat="45.93203" lon="4.76615">
        <ele>170</ele>
        <time>2018-06-07T09:02:18Z</time>
      </trkpt>
      <trkpt lat="45.93209" lon="4.76621">
        <ele>170</ele>
        <time>2018-06-07T09:02:19Z</time>
      </trkpt>
      <trkpt lat="45.93213" lon="4.76625">
        <ele>170</ele>
        <time>2018-06-07T09:02:20Z</time>
      </trkpt>
      <trkpt lat="45.93219" lon="4.76632">
        <ele>171</ele>
        <time>2018-06-07T09:02:22Z</time>
      </trkpt>
      <trkpt lat="45.93225" lon="4.76636">
        <ele>171</ele>
        <time>2018-06-07T09:02:23Z</time>
      </trkpt>
      <trkpt lat="45.93233" lon="4.76642">
        <ele>171</ele>
        <time>2018-06-07T09:02:24Z</time>
      </trkpt>
      <trkpt lat="45.93238" lon="4.76649">
        <ele>171</ele>
        <time>2018-06-07T09:02:25Z</time>
      </trkpt>
      <trkpt lat="45.93244" lon="4.76654">
        <ele>171</ele>
        <time>2018-06-07T09:02:26Z</time>
      </trkpt>
      <trkpt lat="45.93249" lon="4.76657">
        <ele>171</ele>
        <time>2018-06-07T09:02:27Z</time>
      </trkpt>
      <trkpt lat="45.93252" lon="4.76661">
        <ele>171</ele>
        <time>2018-06-07T09:02:28Z</time>
      </trkpt>
      <trkpt lat="45.93256" lon="4.76666">
        <ele>171</ele>
        <time>2018-06-07T09:02:29Z</time>
      </trkpt>
      <trkpt lat="45.93262" lon="4.76672">
        <ele>172</ele>
        <time>2018-06-07T09:02:31Z</time>
      </trkpt>
      <trkpt lat="45.93266" lon="4.76676">
        <ele>172</ele>
        <time>2018-06-07T09:02:32Z</time>
      </trkpt>
      <trkpt lat="45.93271" lon="4.7668">
        <ele>172</ele>
        <time>2018-06-07T09:02:33Z</time>
      </trkpt>
      <trkpt lat="45.93274" lon="4.76684">
        <ele>172</ele>
        <time>2018-06-07T09:02:34Z</time>
      </trkpt>
      <trkpt lat="45.93278" lon="4.76689">
        <ele>172</ele>
        <time>2018-06-07T09:02:35Z</time>
      </trkpt>
      <trkpt lat="45.93282" lon="4.76694">
        <ele>172</ele>
        <time>2018-06-07T09:02:36Z</time>
      </trkpt>
      <trkpt lat="45.93285" lon="4.76699">
        <ele>172</ele>
        <time>2018-06-07T09:02:37Z</time>
      </trkpt>
      <trkpt lat="45.9329" lon="4.76702">
        <ele>172</ele>
        <time>2018-06-07T09:02:38Z</time>
      </trkpt>
      <trkpt lat="45.93293" lon="4.76705">
        <ele>172</ele>
        <time>2018-06-07T09:02:39Z</time>
      </trkpt>
      <trkpt lat="45.93299" lon="4.76711">
        <ele>172</ele>
        <time>2018-06-07T09:02:40Z</time>
      </trkpt>
      <trkpt lat="45.93303" lon="4.76715">
        <ele>172</ele>
        <time>2018-06-07T09:02:41Z</time>
      </trkpt>
      <trkpt lat="45.93309" lon="4.7672">
        <ele>172</ele>
        <time>2018-06-07T09:02:42Z</time>
      </trkpt>
      <trkpt lat="45.93312" lon="4.76723">
        <ele>172</ele>
        <time>2018-06-07T09:02:43Z</time>
      </trkpt>
      <trkpt lat="45.93316" lon="4.76727">
        <ele>172</ele>
        <time>2018-06-07T09:02:44Z</time>
      </trkpt>
      <trkpt lat="45.9332" lon="4.76732">
        <ele>172</ele>
        <time>2018-06-07T09:02:45Z</time>
      </trkpt>
      <trkpt lat="45.93324" lon="4.76736">
        <ele>172</ele>
        <time>2018-06-07T09:02:46Z</time>
      </trkpt>
      <trkpt lat="45.9333" lon="4.76742">
        <ele>173</ele>
        <time>2018-06-07T09:02:47Z</time>
      </trkpt>
      <trkpt lat="45.93335" lon="4.76747">
        <ele>173</ele>
        <time>2018-06-07T09:02:48Z</time>
      </trkpt>
      <trkpt lat="45.93341" lon="4.76752">
        <ele>173</ele>
        <time>2018-06-07T09:02:49Z</time>
      </trkpt>
      <trkpt lat="45.93347" lon="4.76758">
        <ele>172</ele>
        <time>2018-06-07T09:02:50Z</time>
      </trkpt>
      <trkpt lat="45.93353" lon="4.76762">
        <ele>172</ele>
        <time>2018-06-07T09:02:51Z</time>
      </trkpt>
      <trkpt lat="45.93359" lon="4.76768">
        <ele>172</ele>
        <time>2018-06-07T09:02:52Z</time>
      </trkpt>
      <trkpt lat="45.93364" lon="4.76774">
        <ele>172</ele>
        <time>2018-06-07T09:02:53Z</time>
      </trkpt>
      <trkpt lat="45.9337" lon="4.7678">
        <ele>172</ele>
        <time>2018-06-07T09:02:54Z</time>
      </trkpt>
      <trkpt lat="45.93375" lon="4.76785">
        <ele>172</ele>
        <time>2018-06-07T09:02:55Z</time>
      </trkpt>
      <trkpt lat="45.9338" lon="4.76791">
        <ele>172</ele>
        <time>2018-06-07T09:02:56Z</time>
      </trkpt>
      <trkpt lat="45.93384" lon="4.76797">
        <ele>172</ele>
        <time>2018-06-07T09:02:57Z</time>
      </trkpt>
      <trkpt lat="45.93389" lon="4.76802">
        <ele>172</ele>
        <time>2018-06-07T09:02:58Z</time>
      </trkpt>
      <trkpt lat="45.93393" lon="4.76808">
        <ele>172</ele>
        <time>2018-06-07T09:02:59Z</time>
      </trkpt>
      <trkpt lat="45.93397" lon="4.76814">
        <ele>172</ele>
        <time>2018-06-07T09:03:00Z</time>
      </trkpt>
      <trkpt lat="45.93402" lon="4.7682">
        <ele>172</ele>
        <time>2018-06-07T09:03:01Z</time>
      </trkpt>
      <trkpt lat="45.93406" lon="4.76826">
        <ele>172</ele>
        <time>2018-06-07T09:03:02Z</time>
      </trkpt>
      <trkpt lat="45.93409" lon="4.76832">
        <ele>172</ele>
        <time>2018-06-07T09:03:03Z</time>
      </trkpt>
      <trkpt lat="45.93413" lon="4.76838">
        <ele>172</ele>
        <time>2018-06-07T09:03:04Z</time>
      </trkpt>
      <trkpt lat="45.93417" lon="4.76845">
        <ele>171</ele>
        <time>2018-06-07T09:03:05Z</time>
      </trkpt>
      <trkpt lat="45.9342" lon="4.76852">
        <ele>171</ele>
        <time>2018-06-07T09:03:06Z</time>
      </trkpt>
      <trkpt lat="45.93422" lon="4.76859">
        <ele>171</ele>
        <time>2018-06-07T09:03:07Z</time>
      </trkpt>
      <trkpt lat="45.93426" lon="4.76867">
        <ele>171</ele>
        <time>2018-06-07T09:03:08Z</time>
      </trkpt>
      <trkpt lat="45.93429" lon="4.76875">
        <ele>171</ele>
        <time>2018-06-07T09:03:09Z</time>
      </trkpt>
      <trkpt lat="45.93433" lon="4.76884">
        <ele>171</ele>
        <time>2018-06-07T09:03:10Z</time>
      </trkpt>
      <trkpt lat="45.93436" lon="4.76892">
        <ele>171</ele>
        <time>2018-06-07T09:03:11Z</time>
      </trkpt>
      <trkpt lat="45.93438" lon="4.76899">
        <ele>170</ele>
        <time>2018-06-07T09:03:12Z</time>
      </trkpt>
      <trkpt lat="45.9344" lon="4.76908">
        <ele>170</ele>
        <time>2018-06-07T09:03:13Z</time>
      </trkpt>
      <trkpt lat="45.93443" lon="4.76916">
        <ele>170</ele>
        <time>2018-06-07T09:03:14Z</time>
      </trkpt>
      <trkpt lat="45.93445" lon="4.76925">
        <ele>170</ele>
        <time>2018-06-07T09:03:15Z</time>
      </trkpt>
      <trkpt lat="45.93447" lon="4.76933">
        <ele>170</ele>
        <time>2018-06-07T09:03:16Z</time>
      </trkpt>
      <trkpt lat="45.93449" lon="4.76943">
        <ele>170</ele>
        <time>2018-06-07T09:03:17Z</time>
      </trkpt>
      <trkpt lat="45.9345" lon="4.76951">
        <ele>170</ele>
        <time>2018-06-07T09:03:18Z</time>
      </trkpt>
      <trkpt lat="45.93453" lon="4.76961">
        <ele>170</ele>
        <time>2018-06-07T09:03:19Z</time>
      </trkpt>
      <trkpt lat="45.93454" lon="4.76969">
        <ele>170</ele>
        <time>2018-06-07T09:03:20Z</time>
      </trkpt>
      <trkpt lat="45.93456" lon="4.76977">
        <ele>170</ele>
        <time>2018-06-07T09:03:21Z</time>
      </trkpt>
      <trkpt lat="45.93457" lon="4.76987">
        <ele>170</ele>
        <time>2018-06-07T09:03:22Z</time>
      </trkpt>
      <trkpt lat="45.93458" lon="4.76995">
        <ele>170</ele>
        <time>2018-06-07T09:03:23Z</time>
      </trkpt>
      <trkpt lat="45.93459" lon="4.77004">
        <ele>170</ele>
        <time>2018-06-07T09:03:24Z</time>
      </trkpt>
      <trkpt lat="45.93461" lon="4.77013">
        <ele>170</ele>
        <time>2018-06-07T09:03:25Z</time>
      </trkpt>
      <trkpt lat="45.93463" lon="4.77022">
        <ele>170</ele>
        <time>2018-06-07T09:03:26Z</time>
      </trkpt>
      <trkpt lat="45.93465" lon="4.7703">
        <ele>170</ele>
        <time>2018-06-07T09:03:27Z</time>
      </trkpt>
      <trkpt lat="45.93466" lon="4.77037">
        <ele>170</ele>
        <time>2018-06-07T09:03:28Z</time>
      </trkpt>
      <trkpt lat="45.93469" lon="4.77046">
        <ele>170</ele>
        <time>2018-06-07T09:03:29Z</time>
      </trkpt>
      <trkpt lat="45.9347" lon="4.77054">
        <ele>170</ele>
        <time>2018-06-07T09:03:30Z</time>
      </trkpt>
      <trkpt lat="45.93471" lon="4.77063">
        <ele>170</ele>
        <time>2018-06-07T09:03:31Z</time>
      </trkpt>
      <trkpt lat="45.93473" lon="4.77072">
        <ele>170</ele>
        <time>2018-06-07T09:03:32Z</time>
      </trkpt>
      <trkpt lat="45.93474" lon="4.77083">
        <ele>169</ele>
        <time>2018-06-07T09:03:33Z</time>
      </trkpt>
      <trkpt lat="45.93476" lon="4.77093">
        <ele>169</ele>
        <time>2018-06-07T09:03:34Z</time>
      </trkpt>
      <trkpt lat="45.93477" lon="4.77101">
        <ele>169</ele>
        <time>2018-06-07T09:03:35Z</time>
      </trkpt>
      <trkpt lat="45.93479" lon="4.7711">
        <ele>169</ele>
        <time>2018-06-07T09:03:36Z</time>
      </trkpt>
      <trkpt lat="45.93481" lon="4.77118">
        <ele>169</ele>
        <time>2018-06-07T09:03:37Z</time>
      </trkpt>
      <trkpt lat="45.93482" lon="4.77126">
        <ele>169</ele>
        <time>2018-06-07T09:03:38Z</time>
      </trkpt>
      <trkpt lat="45.93483" lon="4.77134">
        <ele>169</ele>
        <time>2018-06-07T09:03:39Z</time>
      </trkpt>
      <trkpt lat="45.93484" lon="4.77141">
        <ele>169</ele>
        <time>2018-06-07T09:03:40Z</time>
      </trkpt>
      <trkpt lat="45.93485" lon="4.77149">
        <ele>169</ele>
        <time>2018-06-07T09:03:41Z</time>
      </trkpt>
      <trkpt lat="45.93487" lon="4.77156">
        <ele>169</ele>
        <time>2018-06-07T09:03:42Z</time>
      </trkpt>
      <trkpt lat="45.93488" lon="4.77164">
        <ele>169</ele>
        <time>2018-06-07T09:03:43Z</time>
      </trkpt>
      <trkpt lat="45.9349" lon="4.77173">
        <ele>169</ele>
        <time>2018-06-07T09:03:44Z</time>
      </trkpt>
      <trkpt lat="45.93492" lon="4.77179">
        <ele>169</ele>
        <time>2018-06-07T09:03:45Z</time>
      </trkpt>
      <trkpt lat="45.93494" lon="4.77187">
        <ele>169</ele>
        <time>2018-06-07T09:03:46Z</time>
      </trkpt>
      <trkpt lat="45.93497" lon="4.77195">
        <ele>169</ele>
        <time>2018-06-07T09:03:47Z</time>
      </trkpt>
      <trkpt lat="45.93498" lon="4.77204">
        <ele>169</ele>
        <time>2018-06-07T09:03:48Z</time>
      </trkpt>
      <trkpt lat="45.935" lon="4.77212">
        <ele>169</ele>
        <time>2018-06-07T09:03:49Z</time>
      </trkpt>
      <trkpt lat="45.93503" lon="4.77219">
        <ele>169</ele>
        <time>2018-06-07T09:03:50Z</time>
      </trkpt>
      <trkpt lat="45.93504" lon="4.77227">
        <ele>169</ele>
        <time>2018-06-07T09:03:51Z</time>
      </trkpt>
      <trkpt lat="45.93506" lon="4.77234">
        <ele>169</ele>
        <time>2018-06-07T09:03:52Z</time>
      </trkpt>
      <trkpt lat="45.93508" lon="4.77242">
        <ele>169</ele>
        <time>2018-06-07T09:03:53Z</time>
      </trkpt>
      <trkpt lat="45.93509" lon="4.7725">
        <ele>170</ele>
        <time>2018-06-07T09:03:54Z</time>
      </trkpt>
      <trkpt lat="45.93511" lon="4.77258">
        <ele>170</ele>
        <time>2018-06-07T09:03:55Z</time>
      </trkpt>
      <trkpt lat="45.93514" lon="4.77267">
        <ele>170</ele>
        <time>2018-06-07T09:03:56Z</time>
      </trkpt>
      <trkpt lat="45.93515" lon="4.77276">
        <ele>170</ele>
        <time>2018-06-07T09:03:57Z</time>
      </trkpt>
      <trkpt lat="45.93519" lon="4.77284">
        <ele>170</ele>
        <time>2018-06-07T09:03:58Z</time>
      </trkpt>
      <trkpt lat="45.93521" lon="4.77292">
        <ele>170</ele>
        <time>2018-06-07T09:03:59Z</time>
      </trkpt>
      <trkpt lat="45.93523" lon="4.773">
        <ele>170</ele>
        <time>2018-06-07T09:04:00Z</time>
      </trkpt>
      <trkpt lat="45.93525" lon="4.77307">
        <ele>170</ele>
        <time>2018-06-07T09:04:01Z</time>
      </trkpt>
      <trkpt lat="45.93526" lon="4.77315">
        <ele>170</ele>
        <time>2018-06-07T09:04:02Z</time>
      </trkpt>
      <trkpt lat="45.93527" lon="4.77322">
        <ele>170</ele>
        <time>2018-06-07T09:04:03Z</time>
      </trkpt>
      <trkpt lat="45.93528" lon="4.7733">
        <ele>170</ele>
        <time>2018-06-07T09:04:04Z</time>
      </trkpt>
      <trkpt lat="45.93528" lon="4.77336">
        <ele>170</ele>
        <time>2018-06-07T09:04:05Z</time>
      </trkpt>
      <trkpt lat="45.93529" lon="4.77343">
        <ele>170</ele>
        <time>2018-06-07T09:04:06Z</time>
      </trkpt>
      <trkpt lat="45.9353" lon="4.7735">
        <ele>170</ele>
        <time>2018-06-07T09:04:07Z</time>
      </trkpt>
      <trkpt lat="45.93531" lon="4.77358">
        <ele>170</ele>
        <time>2018-06-07T09:04:08Z</time>
      </trkpt>
      <trkpt lat="45.93534" lon="4.77365">
        <ele>170</ele>
        <time>2018-06-07T09:04:09Z</time>
      </trkpt>
      <trkpt lat="45.93536" lon="4.77374">
        <ele>170</ele>
        <time>2018-06-07T09:04:10Z</time>
      </trkpt>
      <trkpt lat="45.93538" lon="4.77386">
        <ele>170</ele>
        <time>2018-06-07T09:04:12Z</time>
      </trkpt>
      <trkpt lat="45.93538" lon="4.77392">
        <ele>170</ele>
        <time>2018-06-07T09:04:13Z</time>
      </trkpt>
      <trkpt lat="45.93541" lon="4.77402">
        <ele>170</ele>
        <time>2018-06-07T09:04:14Z</time>
      </trkpt>
      <trkpt lat="45.93543" lon="4.7741">
        <ele>170</ele>
        <time>2018-06-07T09:04:15Z</time>
      </trkpt>
      <trkpt lat="45.93545" lon="4.77417">
        <ele>170</ele>
        <time>2018-06-07T09:04:16Z</time>
      </trkpt>
      <trkpt lat="45.93548" lon="4.77425">
        <ele>170</ele>
        <time>2018-06-07T09:04:17Z</time>
      </trkpt>
      <trkpt lat="45.93548" lon="4.77432">
        <ele>169</ele>
        <time>2018-06-07T09:04:18Z</time>
      </trkpt>
      <trkpt lat="45.9355" lon="4.7744">
        <ele>169</ele>
        <time>2018-06-07T09:04:19Z</time>
      </trkpt>
      <trkpt lat="45.93552" lon="4.77448">
        <ele>169</ele>
        <time>2018-06-07T09:04:20Z</time>
      </trkpt>
      <trkpt lat="45.93554" lon="4.77457">
        <ele>169</ele>
        <time>2018-06-07T09:04:21Z</time>
      </trkpt>
      <trkpt lat="45.93556" lon="4.77464">
        <ele>169</ele>
        <time>2018-06-07T09:04:22Z</time>
      </trkpt>
      <trkpt lat="45.93558" lon="4.77471">
        <ele>169</ele>
        <time>2018-06-07T09:04:23Z</time>
      </trkpt>
      <trkpt lat="45.93561" lon="4.7748">
        <ele>169</ele>
        <time>2018-06-07T09:04:24Z</time>
      </trkpt>
      <trkpt lat="45.93565" lon="4.77488">
        <ele>169</ele>
        <time>2018-06-07T09:04:25Z</time>
      </trkpt>
      <trkpt lat="45.93566" lon="4.77496">
        <ele>169</ele>
        <time>2018-06-07T09:04:26Z</time>
      </trkpt>
      <trkpt lat="45.93568" lon="4.77504">
        <ele>169</ele>
        <time>2018-06-07T09:04:27Z</time>
      </trkpt>
      <trkpt lat="45.9357" lon="4.77512">
        <ele>169</ele>
        <time>2018-06-07T09:04:28Z</time>
      </trkpt>
      <trkpt lat="45.93573" lon="4.7752">
        <ele>169</ele>
        <time>2018-06-07T09:04:29Z</time>
      </trkpt>
      <trkpt lat="45.93575" lon="4.77528">
        <ele>169</ele>
        <time>2018-06-07T09:04:30Z</time>
      </trkpt>
      <trkpt lat="45.93576" lon="4.77536">
        <ele>169</ele>
        <time>2018-06-07T09:04:31Z</time>
      </trkpt>
      <trkpt lat="45.93578" lon="4.77545">
        <ele>169</ele>
        <time>2018-06-07T09:04:32Z</time>
      </trkpt>
      <trkpt lat="45.9358" lon="4.77553">
        <ele>169</ele>
        <time>2018-06-07T09:04:33Z</time>
      </trkpt>
      <trkpt lat="45.93582" lon="4.77563">
        <ele>169</ele>
        <time>2018-06-07T09:04:34Z</time>
      </trkpt>
      <trkpt lat="45.93584" lon="4.77571">
        <ele>170</ele>
        <time>2018-06-07T09:04:35Z</time>
      </trkpt>
      <trkpt lat="45.93586" lon="4.77578">
        <ele>170</ele>
        <time>2018-06-07T09:04:36Z</time>
      </trkpt>
      <trkpt lat="45.93588" lon="4.77587">
        <ele>170</ele>
        <time>2018-06-07T09:04:37Z</time>
      </trkpt>
      <trkpt lat="45.9359" lon="4.77595">
        <ele>170</ele>
        <time>2018-06-07T09:04:38Z</time>
      </trkpt>
      <trkpt lat="45.93593" lon="4.77604">
        <ele>170</ele>
        <time>2018-06-07T09:04:39Z</time>
      </trkpt>
      <trkpt lat="45.93595" lon="4.77612">
        <ele>170</ele>
        <time>2018-06-07T09:04:40Z</time>
      </trkpt>
      <trkpt lat="45.93597" lon="4.7762">
        <ele>170</ele>
        <time>2018-06-07T09:04:41Z</time>
      </trkpt>
      <trkpt lat="45.936" lon="4.77628">
        <ele>169</ele>
        <time>2018-06-07T09:04:42Z</time>
      </trkpt>
      <trkpt lat="45.93602" lon="4.77636">
        <ele>169</ele>
        <time>2018-06-07T09:04:43Z</time>
      </trkpt>
      <trkpt lat="45.93605" lon="4.77642">
        <ele>169</ele>
        <time>2018-06-07T09:04:44Z</time>
      </trkpt>
      <trkpt lat="45.93608" lon="4.77648">
        <ele>169</ele>
        <time>2018-06-07T09:04:45Z</time>
      </trkpt>
      <trkpt lat="45.93611" lon="4.77655">
        <ele>169</ele>
        <time>2018-06-07T09:04:46Z</time>
      </trkpt>
      <trkpt lat="45.93614" lon="4.77663">
        <ele>169</ele>
        <time>2018-06-07T09:04:47Z</time>
      </trkpt>
      <trkpt lat="45.93618" lon="4.7767">
        <ele>169</ele>
        <time>2018-06-07T09:04:48Z</time>
      </trkpt>
      <trkpt lat="45.93621" lon="4.77677">
        <ele>169</ele>
        <time>2018-06-07T09:04:49Z</time>
      </trkpt>
      <trkpt lat="45.93624" lon="4.77682">
        <ele>169</ele>
        <time>2018-06-07T09:04:50Z</time>
      </trkpt>
      <trkpt lat="45.93627" lon="4.77689">
        <ele>169</ele>
        <time>2018-06-07T09:04:51Z</time>
      </trkpt>
      <trkpt lat="45.9363" lon="4.77697">
        <ele>169</ele>
        <time>2018-06-07T09:04:52Z</time>
      </trkpt>
      <trkpt lat="45.93634" lon="4.77702">
        <ele>170</ele>
        <time>2018-06-07T09:04:53Z</time>
      </trkpt>
      <trkpt lat="45.93637" lon="4.77708">
        <ele>170</ele>
        <time>2018-06-07T09:04:54Z</time>
      </trkpt>
      <trkpt lat="45.9364" lon="4.77714">
        <ele>170</ele>
        <time>2018-06-07T09:04:55Z</time>
      </trkpt>
      <trkpt lat="45.93643" lon="4.77721">
        <ele>170</ele>
        <time>2018-06-07T09:04:56Z</time>
      </trkpt>
      <trkpt lat="45.93647" lon="4.77726">
        <ele>170</ele>
        <time>2018-06-07T09:04:57Z</time>
      </trkpt>
      <trkpt lat="45.9365" lon="4.77731">
        <ele>170</ele>
        <time>2018-06-07T09:04:58Z</time>
      </trkpt>
      <trkpt lat="45.93654" lon="4.77737">
        <ele>170</ele>
        <time>2018-06-07T09:04:59Z</time>
      </trkpt>
      <trkpt lat="45.93658" lon="4.77742">
        <ele>170</ele>
        <time>2018-06-07T09:05:00Z</time>
      </trkpt>
      <trkpt lat="45.93661" lon="4.77746">
        <ele>171</ele>
        <time>2018-06-07T09:05:01Z</time>
      </trkpt>
      <trkpt lat="45.93663" lon="4.77751">
        <ele>171</ele>
        <time>2018-06-07T09:05:02Z</time>
      </trkpt>
      <trkpt lat="45.93667" lon="4.77755">
        <ele>171</ele>
        <time>2018-06-07T09:05:03Z</time>
      </trkpt>
      <trkpt lat="45.93672" lon="4.77764">
        <ele>170</ele>
        <time>2018-06-07T09:05:05Z</time>
      </trkpt>
      <trkpt lat="45.93676" lon="4.77768">
        <ele>170</ele>
        <time>2018-06-07T09:05:06Z</time>
      </trkpt>
      <trkpt lat="45.93681" lon="4.77776">
        <ele>170</ele>
        <time>2018-06-07T09:05:08Z</time>
      </trkpt>
      <trkpt lat="45.93685" lon="4.77781">
        <ele>170</ele>
        <time>2018-06-07T09:05:09Z</time>
      </trkpt>
      <trkpt lat="45.93691" lon="4.77789">
        <ele>170</ele>
        <time>2018-06-07T09:05:11Z</time>
      </trkpt>
      <trkpt lat="45.93694" lon="4.77793">
        <ele>169</ele>
        <time>2018-06-07T09:05:12Z</time>
      </trkpt>
      <trkpt lat="45.93697" lon="4.77798">
        <ele>169</ele>
        <time>2018-06-07T09:05:13Z</time>
      </trkpt>
      <trkpt lat="45.937" lon="4.77803">
        <ele>169</ele>
        <time>2018-06-07T09:05:14Z</time>
      </trkpt>
      <trkpt lat="45.93706" lon="4.77811">
        <ele>169</ele>
        <time>2018-06-07T09:05:16Z</time>
      </trkpt>
      <trkpt lat="45.93707" lon="4.77814">
        <ele>169</ele>
        <time>2018-06-07T09:05:17Z</time>
      </trkpt>
      <trkpt lat="45.93712" lon="4.7782">
        <ele>169</ele>
        <time>2018-06-07T09:05:18Z</time>
      </trkpt>
      <trkpt lat="45.93715" lon="4.77824">
        <ele>169</ele>
        <time>2018-06-07T09:05:19Z</time>
      </trkpt>
      <trkpt lat="45.93721" lon="4.77831">
        <ele>168</ele>
        <time>2018-06-07T09:05:21Z</time>
      </trkpt>
      <trkpt lat="45.93724" lon="4.77835">
        <ele>167</ele>
        <time>2018-06-07T09:05:22Z</time>
      </trkpt>
      <trkpt lat="45.93728" lon="4.77842">
        <ele>167</ele>
        <time>2018-06-07T09:05:24Z</time>
      </trkpt>
      <trkpt lat="45.93732" lon="4.77847">
        <ele>167</ele>
        <time>2018-06-07T09:05:25Z</time>
      </trkpt>
      <trkpt lat="45.93736" lon="4.77852">
        <ele>167</ele>
        <time>2018-06-07T09:05:26Z</time>
      </trkpt>
      <trkpt lat="45.93739" lon="4.77856">
        <ele>167</ele>
        <time>2018-06-07T09:05:27Z</time>
      </trkpt>
      <trkpt lat="45.93745" lon="4.77863">
        <ele>167</ele>
        <time>2018-06-07T09:05:29Z</time>
      </trkpt>
      <trkpt lat="45.93748" lon="4.77868">
        <ele>167</ele>
        <time>2018-06-07T09:05:30Z</time>
      </trkpt>
      <trkpt lat="45.93751" lon="4.77873">
        <ele>166</ele>
        <time>2018-06-07T09:05:31Z</time>
      </trkpt>
      <trkpt lat="45.93755" lon="4.77878">
        <ele>166</ele>
        <time>2018-06-07T09:05:32Z</time>
      </trkpt>
      <trkpt lat="45.93761" lon="4.77887">
        <ele>166</ele>
        <time>2018-06-07T09:05:34Z</time>
      </trkpt>
      <trkpt lat="45.93765" lon="4.77891">
        <ele>166</ele>
        <time>2018-06-07T09:05:35Z</time>
      </trkpt>
      <trkpt lat="45.93769" lon="4.77896">
        <ele>166</ele>
        <time>2018-06-07T09:05:36Z</time>
      </trkpt>
      <trkpt lat="45.93772" lon="4.77902">
        <ele>166</ele>
        <time>2018-06-07T09:05:37Z</time>
      </trkpt>
      <trkpt lat="45.93775" lon="4.77907">
        <ele>166</ele>
        <time>2018-06-07T09:05:38Z</time>
      </trkpt>
      <trkpt lat="45.93779" lon="4.77912">
        <ele>166</ele>
        <time>2018-06-07T09:05:39Z</time>
      </trkpt>
      <trkpt lat="45.93784" lon="4.77921">
        <ele>168</ele>
        <time>2018-06-07T09:05:41Z</time>
      </trkpt>
      <trkpt lat="45.93788" lon="4.77926">
        <ele>168</ele>
        <time>2018-06-07T09:05:42Z</time>
      </trkpt>
      <trkpt lat="45.93792" lon="4.77928">
        <ele>168</ele>
        <time>2018-06-07T09:05:43Z</time>
      </trkpt>
      <trkpt lat="45.93796" lon="4.77933">
        <ele>168</ele>
        <time>2018-06-07T09:05:44Z</time>
      </trkpt>
      <trkpt lat="45.938" lon="4.77938">
        <ele>169</ele>
        <time>2018-06-07T09:05:45Z</time>
      </trkpt>
      <trkpt lat="45.93803" lon="4.77943">
        <ele>169</ele>
        <time>2018-06-07T09:05:46Z</time>
      </trkpt>
      <trkpt lat="45.93806" lon="4.77949">
        <ele>169</ele>
        <time>2018-06-07T09:05:47Z</time>
      </trkpt>
      <trkpt lat="45.9381" lon="4.77953">
        <ele>170</ele>
        <time>2018-06-07T09:05:48Z</time>
      </trkpt>
      <trkpt lat="45.93815" lon="4.77959">
        <ele>170</ele>
        <time>2018-06-07T09:05:49Z</time>
      </trkpt>
      <trkpt lat="45.9382" lon="4.77964">
        <ele>171</ele>
        <time>2018-06-07T09:05:50Z</time>
      </trkpt>
      <trkpt lat="45.93824" lon="4.77968">
        <ele>171</ele>
        <time>2018-06-07T09:05:51Z</time>
      </trkpt>
      <trkpt lat="45.93828" lon="4.77975">
        <ele>172</ele>
        <time>2018-06-07T09:05:52Z</time>
      </trkpt>
      <trkpt lat="45.93832" lon="4.77982">
        <ele>174</ele>
        <time>2018-06-07T09:05:53Z</time>
      </trkpt>
      <trkpt lat="45.93836" lon="4.77987">
        <ele>179</ele>
        <time>2018-06-07T09:05:54Z</time>
      </trkpt>
      <trkpt lat="45.93839" lon="4.77991">
        <ele>179</ele>
        <time>2018-06-07T09:05:55Z</time>
      </trkpt>
      <trkpt lat="45.93842" lon="4.77998">
        <ele>179</ele>
        <time>2018-06-07T09:05:56Z</time>
      </trkpt>
      <trkpt lat="45.93843" lon="4.78004">
        <ele>181</ele>
        <time>2018-06-07T09:05:57Z</time>
      </trkpt>
      <trkpt lat="45.93844" lon="4.78011">
        <ele>181</ele>
        <time>2018-06-07T09:05:58Z</time>
      </trkpt>
      <trkpt lat="45.93845" lon="4.78019">
        <ele>182</ele>
        <time>2018-06-07T09:05:59Z</time>
      </trkpt>
      <trkpt lat="45.93845" lon="4.78027">
        <ele>182</ele>
        <time>2018-06-07T09:06:00Z</time>
      </trkpt>
      <trkpt lat="45.93847" lon="4.78036">
        <ele>182</ele>
        <time>2018-06-07T09:06:01Z</time>
      </trkpt>
      <trkpt lat="45.93848" lon="4.78042">
        <ele>183</ele>
        <time>2018-06-07T09:06:02Z</time>
      </trkpt>
      <trkpt lat="45.9385" lon="4.78049">
        <ele>183</ele>
        <time>2018-06-07T09:06:03Z</time>
      </trkpt>
      <trkpt lat="45.9385" lon="4.78056">
        <ele>183</ele>
        <time>2018-06-07T09:06:04Z</time>
      </trkpt>
      <trkpt lat="45.93848" lon="4.78068">
        <ele>182</ele>
        <time>2018-06-07T09:06:06Z</time>
      </trkpt>
      <trkpt lat="45.93846" lon="4.78074">
        <ele>182</ele>
        <time>2018-06-07T09:06:07Z</time>
      </trkpt>
      <trkpt lat="45.93845" lon="4.78081">
        <ele>181</ele>
        <time>2018-06-07T09:06:08Z</time>
      </trkpt>
      <trkpt lat="45.93843" lon="4.78088">
        <ele>182</ele>
        <time>2018-06-07T09:06:09Z</time>
      </trkpt>
      <trkpt lat="45.93842" lon="4.78095">
        <ele>183</ele>
        <time>2018-06-07T09:06:10Z</time>
      </trkpt>
      <trkpt lat="45.93842" lon="4.78104">
        <ele>184</ele>
        <time>2018-06-07T09:06:11Z</time>
      </trkpt>
      <trkpt lat="45.93839" lon="4.78112">
        <ele>184</ele>
        <time>2018-06-07T09:06:12Z</time>
      </trkpt>
      <trkpt lat="45.93837" lon="4.78119">
        <ele>184</ele>
        <time>2018-06-07T09:06:13Z</time>
      </trkpt>
      <trkpt lat="45.93835" lon="4.78126">
        <ele>184</ele>
        <time>2018-06-07T09:06:14Z</time>
      </trkpt>
      <trkpt lat="45.93833" lon="4.78133">
        <ele>180</ele>
        <time>2018-06-07T09:06:15Z</time>
      </trkpt>
      <trkpt lat="45.93831" lon="4.7814">
        <ele>180</ele>
        <time>2018-06-07T09:06:16Z</time>
      </trkpt>
      <trkpt lat="45.93829" lon="4.78148">
        <ele>180</ele>
        <time>2018-06-07T09:06:17Z</time>
      </trkpt>
      <trkpt lat="45.93828" lon="4.78154">
        <ele>181</ele>
        <time>2018-06-07T09:06:18Z</time>
      </trkpt>
      <trkpt lat="45.93826" lon="4.78161">
        <ele>181</ele>
        <time>2018-06-07T09:06:19Z</time>
      </trkpt>
      <trkpt lat="45.93823" lon="4.78169">
        <ele>182</ele>
        <time>2018-06-07T09:06:20Z</time>
      </trkpt>
      <trkpt lat="45.93822" lon="4.78175">
        <ele>182</ele>
        <time>2018-06-07T09:06:21Z</time>
      </trkpt>
      <trkpt lat="45.9382" lon="4.78187">
        <ele>182</ele>
        <time>2018-06-07T09:06:23Z</time>
      </trkpt>
      <trkpt lat="45.93818" lon="4.78193">
        <ele>182</ele>
        <time>2018-06-07T09:06:24Z</time>
      </trkpt>
      <trkpt lat="45.93816" lon="4.78199">
        <ele>182</ele>
        <time>2018-06-07T09:06:25Z</time>
      </trkpt>
      <trkpt lat="45.93814" lon="4.78205">
        <ele>182</ele>
        <time>2018-06-07T09:06:26Z</time>
      </trkpt>
      <trkpt lat="45.93813" lon="4.78216">
        <ele>182</ele>
        <time>2018-06-07T09:06:28Z</time>
      </trkpt>
      <trkpt lat="45.9381" lon="4.78221">
        <ele>182</ele>
        <time>2018-06-07T09:06:29Z</time>
      </trkpt>
      <trkpt lat="45.93807" lon="4.78233">
        <ele>182</ele>
        <time>2018-06-07T09:06:31Z</time>
      </trkpt>
      <trkpt lat="45.93804" lon="4.7824">
        <ele>182</ele>
        <time>2018-06-07T09:06:32Z</time>
      </trkpt>
      <trkpt lat="45.938" lon="4.78245">
        <ele>182</ele>
        <time>2018-06-07T09:06:33Z</time>
      </trkpt>
      <trkpt lat="45.93797" lon="4.78251">
        <ele>183</ele>
        <time>2018-06-07T09:06:34Z</time>
      </trkpt>
      <trkpt lat="45.93795" lon="4.78256">
        <ele>183</ele>
        <time>2018-06-07T09:06:35Z</time>
      </trkpt>
      <trkpt lat="45.93794" lon="4.78264">
        <ele>183</ele>
        <time>2018-06-07T09:06:36Z</time>
      </trkpt>
      <trkpt lat="45.93794" lon="4.78272">
        <ele>183</ele>
        <time>2018-06-07T09:06:37Z</time>
      </trkpt>
      <trkpt lat="45.93793" lon="4.78279">
        <ele>183</ele>
        <time>2018-06-07T09:06:38Z</time>
      </trkpt>
      <trkpt lat="45.93792" lon="4.78287">
        <ele>183</ele>
        <time>2018-06-07T09:06:39Z</time>
      </trkpt>
      <trkpt lat="45.9379" lon="4.78292">
        <ele>183</ele>
        <time>2018-06-07T09:06:40Z</time>
      </trkpt>
      <trkpt lat="45.93788" lon="4.783">
        <ele>183</ele>
        <time>2018-06-07T09:06:41Z</time>
      </trkpt>
      <trkpt lat="45.93786" lon="4.78305">
        <ele>183</ele>
        <time>2018-06-07T09:06:42Z</time>
      </trkpt>
      <trkpt lat="45.93783" lon="4.78311">
        <ele>183</ele>
        <time>2018-06-07T09:06:43Z</time>
      </trkpt>
      <trkpt lat="45.93781" lon="4.78317">
        <ele>183</ele>
        <time>2018-06-07T09:06:44Z</time>
      </trkpt>
      <trkpt lat="45.93779" lon="4.78323">
        <ele>183</ele>
        <time>2018-06-07T09:06:45Z</time>
      </trkpt>
      <trkpt lat="45.93777" lon="4.7833">
        <ele>183</ele>
        <time>2018-06-07T09:06:46Z</time>
      </trkpt>
      <trkpt lat="45.93775" lon="4.78337">
        <ele>183</ele>
        <time>2018-06-07T09:06:47Z</time>
      </trkpt>
      <trkpt lat="45.93773" lon="4.78343">
        <ele>183</ele>
        <time>2018-06-07T09:06:48Z</time>
      </trkpt>
      <trkpt lat="45.93771" lon="4.7835">
        <ele>183</ele>
        <time>2018-06-07T09:06:49Z</time>
      </trkpt>
      <trkpt lat="45.93769" lon="4.78357">
        <ele>183</ele>
        <time>2018-06-07T09:06:50Z</time>
      </trkpt>
      <trkpt lat="45.93767" lon="4.78364">
        <ele>183</ele>
        <time>2018-06-07T09:06:51Z</time>
      </trkpt>
      <trkpt lat="45.93765" lon="4.78371">
        <ele>183</ele>
        <time>2018-06-07T09:06:52Z</time>
      </trkpt>
      <trkpt lat="45.93763" lon="4.7838">
        <ele>183</ele>
        <time>2018-06-07T09:06:53Z</time>
      </trkpt>
      <trkpt lat="45.93762" lon="4.78388">
        <ele>183</ele>
        <time>2018-06-07T09:06:54Z</time>
      </trkpt>
      <trkpt lat="45.93761" lon="4.78396">
        <ele>183</ele>
        <time>2018-06-07T09:06:55Z</time>
      </trkpt>
      <trkpt lat="45.93759" lon="4.78404">
        <ele>182</ele>
        <time>2018-06-07T09:06:56Z</time>
      </trkpt>
      <trkpt lat="45.93757" lon="4.78411">
        <ele>182</ele>
        <time>2018-06-07T09:06:57Z</time>
      </trkpt>
      <trkpt lat="45.93755" lon="4.78419">
        <ele>182</ele>
        <time>2018-06-07T09:06:58Z</time>
      </trkpt>
      <trkpt lat="45.9375" lon="4.78427">
        <ele>182</ele>
        <time>2018-06-07T09:06:59Z</time>
      </trkpt>
      <trkpt lat="45.93749" lon="4.78435">
        <ele>180</ele>
        <time>2018-06-07T09:07:00Z</time>
      </trkpt>
      <trkpt lat="45.93746" lon="4.78445">
        <ele>180</ele>
        <time>2018-06-07T09:07:01Z</time>
      </trkpt>
      <trkpt lat="45.93744" lon="4.78453">
        <ele>180</ele>
        <time>2018-06-07T09:07:02Z</time>
      </trkpt>
      <trkpt lat="45.93742" lon="4.78463">
        <ele>180</ele>
        <time>2018-06-07T09:07:03Z</time>
      </trkpt>
      <trkpt lat="45.93739" lon="4.78473">
        <ele>180</ele>
        <time>2018-06-07T09:07:04Z</time>
      </trkpt>
      <trkpt lat="45.93738" lon="4.78482">
        <ele>180</ele>
        <time>2018-06-07T09:07:05Z</time>
      </trkpt>
      <trkpt lat="45.93736" lon="4.78494">
        <ele>180</ele>
        <time>2018-06-07T09:07:06Z</time>
      </trkpt>
      <trkpt lat="45.93733" lon="4.78504">
        <ele>179</ele>
        <time>2018-06-07T09:07:07Z</time>
      </trkpt>
      <trkpt lat="45.9373" lon="4.78513">
        <ele>179</ele>
        <time>2018-06-07T09:07:08Z</time>
      </trkpt>
      <trkpt lat="45.93728" lon="4.78524">
        <ele>179</ele>
        <time>2018-06-07T09:07:09Z</time>
      </trkpt>
      <trkpt lat="45.93725" lon="4.78533">
        <ele>178</ele>
        <time>2018-06-07T09:07:10Z</time>
      </trkpt>
      <trkpt lat="45.93723" lon="4.78543">
        <ele>178</ele>
        <time>2018-06-07T09:07:11Z</time>
      </trkpt>
      <trkpt lat="45.93721" lon="4.78555">
        <ele>178</ele>
        <time>2018-06-07T09:07:12Z</time>
      </trkpt>
      <trkpt lat="45.93718" lon="4.78564">
        <ele>178</ele>
        <time>2018-06-07T09:07:13Z</time>
      </trkpt>
      <trkpt lat="45.93716" lon="4.78574">
        <ele>178</ele>
        <time>2018-06-07T09:07:14Z</time>
      </trkpt>
      <trkpt lat="45.93714" lon="4.78584">
        <ele>177</ele>
        <time>2018-06-07T09:07:15Z</time>
      </trkpt>
      <trkpt lat="45.93712" lon="4.78592">
        <ele>176</ele>
        <time>2018-06-07T09:07:16Z</time>
      </trkpt>
      <trkpt lat="45.93711" lon="4.786">
        <ele>176</ele>
        <time>2018-06-07T09:07:17Z</time>
      </trkpt>
      <trkpt lat="45.93708" lon="4.78606">
        <ele>176</ele>
        <time>2018-06-07T09:07:18Z</time>
      </trkpt>
      <trkpt lat="45.93705" lon="4.78612">
        <ele>176</ele>
        <time>2018-06-07T09:07:19Z</time>
      </trkpt>
      <trkpt lat="45.93703" lon="4.78618">
        <ele>176</ele>
        <time>2018-06-07T09:07:20Z</time>
      </trkpt>
      <trkpt lat="45.93703" lon="4.78629">
        <ele>176</ele>
        <time>2018-06-07T09:07:22Z</time>
      </trkpt>
      <trkpt lat="45.93707" lon="4.78633">
        <ele>176</ele>
        <time>2018-06-07T09:07:23Z</time>
      </trkpt>
      <trkpt lat="45.93714" lon="4.78632">
        <ele>176</ele>
        <time>2018-06-07T09:07:25Z</time>
      </trkpt>
      <trkpt lat="45.93718" lon="4.78631">
        <ele>176</ele>
        <time>2018-06-07T09:07:26Z</time>
      </trkpt>
      <trkpt lat="45.93727" lon="4.78631">
        <ele>177</ele>
        <time>2018-06-07T09:07:28Z</time>
      </trkpt>
      <trkpt lat="45.93731" lon="4.7863">
        <ele>177</ele>
        <time>2018-06-07T09:07:29Z</time>
      </trkpt>
      <trkpt lat="45.93735" lon="4.78627">
        <ele>177</ele>
        <time>2018-06-07T09:07:31Z</time>
      </trkpt>
      <trkpt lat="45.9374" lon="4.78625">
        <ele>177</ele>
        <time>2018-06-07T09:07:32Z</time>
      </trkpt>
      <trkpt lat="45.93748" lon="4.78622">
        <ele>177</ele>
        <time>2018-06-07T09:07:35Z</time>
      </trkpt>
      <trkpt lat="45.93751" lon="4.78621">
        <ele>181</ele>
        <time>2018-06-07T09:07:36Z</time>
      </trkpt>
      <trkpt lat="45.93756" lon="4.7862">
        <ele>181</ele>
        <time>2018-06-07T09:07:38Z</time>
      </trkpt>
      <trkpt lat="45.93764" lon="4.78618">
        <ele>181</ele>
        <time>2018-06-07T09:07:39Z</time>
      </trkpt>
      <trkpt lat="45.93772" lon="4.78617">
        <ele>181</ele>
        <time>2018-06-07T09:07:43Z</time>
      </trkpt>
      <trkpt lat="45.93774" lon="4.78616">
        <ele>181</ele>
        <time>2018-06-07T09:07:44Z</time>
      </trkpt>
      <trkpt lat="45.93782" lon="4.78614">
        <ele>181</ele>
        <time>2018-06-07T09:07:47Z</time>
      </trkpt>
      <trkpt lat="45.93785" lon="4.78614">
        <ele>182</ele>
        <time>2018-06-07T09:07:48Z</time>
      </trkpt>
      <trkpt lat="45.93794" lon="4.78612">
        <ele>182</ele>
        <time>2018-06-07T09:07:51Z</time>
      </trkpt>
      <trkpt lat="45.93797" lon="4.78612">
        <ele>182</ele>
        <time>2018-06-07T09:07:52Z</time>
      </trkpt>
      <trkpt lat="45.93806" lon="4.7861">
        <ele>183</ele>
        <time>2018-06-07T09:07:55Z</time>
      </trkpt>
      <trkpt lat="45.93808" lon="4.7861">
        <ele>183</ele>
        <time>2018-06-07T09:07:56Z</time>
      </trkpt>
      <trkpt lat="45.93814" lon="4.78609">
        <ele>183</ele>
        <time>2018-06-07T09:07:58Z</time>
      </trkpt>
      <trkpt lat="45.93818" lon="4.78608">
        <ele>183</ele>
        <time>2018-06-07T09:07:59Z</time>
      </trkpt>
      <trkpt lat="45.93826" lon="4.78607">
        <ele>184</ele>
        <time>2018-06-07T09:08:02Z</time>
      </trkpt>
      <trkpt lat="45.93829" lon="4.78606">
        <ele>184</ele>
        <time>2018-06-07T09:08:03Z</time>
      </trkpt>
      <trkpt lat="45.93836" lon="4.78604">
        <ele>187</ele>
        <time>2018-06-07T09:08:06Z</time>
      </trkpt>
      <trkpt lat="45.93839" lon="4.78603">
        <ele>187</ele>
        <time>2018-06-07T09:08:07Z</time>
      </trkpt>
      <trkpt lat="45.93846" lon="4.78602">
        <ele>188</ele>
        <time>2018-06-07T09:08:10Z</time>
      </trkpt>
      <trkpt lat="45.93848" lon="4.78602">
        <ele>188</ele>
        <time>2018-06-07T09:08:11Z</time>
      </trkpt>
      <trkpt lat="45.93856" lon="4.78601">
        <ele>188</ele>
        <time>2018-06-07T09:08:14Z</time>
      </trkpt>
      <trkpt lat="45.93859" lon="4.78601">
        <ele>188</ele>
        <time>2018-06-07T09:08:15Z</time>
      </trkpt>
      <trkpt lat="45.93866" lon="4.78601">
        <ele>188</ele>
        <time>2018-06-07T09:08:18Z</time>
      </trkpt>
      <trkpt lat="45.93869" lon="4.786">
        <ele>188</ele>
        <time>2018-06-07T09:08:19Z</time>
      </trkpt>
      <trkpt lat="45.93876" lon="4.78598">
        <ele>189</ele>
        <time>2018-06-07T09:08:22Z</time>
      </trkpt>
      <trkpt lat="45.93878" lon="4.78597">
        <ele>189</ele>
        <time>2018-06-07T09:08:23Z</time>
      </trkpt>
      <trkpt lat="45.93885" lon="4.78593">
        <ele>189</ele>
        <time>2018-06-07T09:08:26Z</time>
      </trkpt>
      <trkpt lat="45.93887" lon="4.78592">
        <ele>190</ele>
        <time>2018-06-07T09:08:27Z</time>
      </trkpt>
      <trkpt lat="45.93894" lon="4.78589">
        <ele>190</ele>
        <time>2018-06-07T09:08:30Z</time>
      </trkpt>
      <trkpt lat="45.93896" lon="4.78588">
        <ele>190</ele>
        <time>2018-06-07T09:08:31Z</time>
      </trkpt>
      <trkpt lat="45.93903" lon="4.78586">
        <ele>191</ele>
        <time>2018-06-07T09:08:34Z</time>
      </trkpt>
      <trkpt lat="45.93905" lon="4.78585">
        <ele>191</ele>
        <time>2018-06-07T09:08:35Z</time>
      </trkpt>
      <trkpt lat="45.93912" lon="4.78582">
        <ele>193</ele>
        <time>2018-06-07T09:08:39Z</time>
      </trkpt>
      <trkpt lat="45.93914" lon="4.78581">
        <ele>193</ele>
        <time>2018-06-07T09:08:40Z</time>
      </trkpt>
      <trkpt lat="45.93922" lon="4.78574">
        <ele>195</ele>
        <time>2018-06-07T09:08:45Z</time>
      </trkpt>
      <trkpt lat="45.93923" lon="4.78572">
        <ele>195</ele>
        <time>2018-06-07T09:08:46Z</time>
      </trkpt>
      <trkpt lat="45.93931" lon="4.78574">
        <ele>196</ele>
        <time>2018-06-07T09:08:51Z</time>
      </trkpt>
      <trkpt lat="45.93933" lon="4.78584">
        <ele>195</ele>
        <time>2018-06-07T09:08:52Z</time>
      </trkpt>
      <trkpt lat="45.93932" lon="4.78593">
        <ele>195</ele>
        <time>2018-06-07T09:08:55Z</time>
      </trkpt>
      <trkpt lat="45.93932" lon="4.78597">
        <ele>195</ele>
        <time>2018-06-07T09:08:56Z</time>
      </trkpt>
      <trkpt lat="45.93932" lon="4.78609">
        <ele>195</ele>
        <time>2018-06-07T09:08:57Z</time>
      </trkpt>
      <trkpt lat="45.93932" lon="4.78611">
        <ele>195</ele>
        <time>2018-06-07T09:08:58Z</time>
      </trkpt>
      <trkpt lat="45.93933" lon="4.78622">
        <ele>195</ele>
        <time>2018-06-07T09:09:00Z</time>
      </trkpt>
      <trkpt lat="45.93933" lon="4.7863">
        <ele>195</ele>
        <time>2018-06-07T09:09:01Z</time>
      </trkpt>
      <trkpt lat="45.93933" lon="4.78642">
        <ele>195</ele>
        <time>2018-06-07T09:09:03Z</time>
      </trkpt>
      <trkpt lat="45.93934" lon="4.78648">
        <ele>194</ele>
        <time>2018-06-07T09:09:04Z</time>
      </trkpt>
      <trkpt lat="45.93935" lon="4.78659">
        <ele>194</ele>
        <time>2018-06-07T09:09:06Z</time>
      </trkpt>
      <trkpt lat="45.93935" lon="4.78666">
        <ele>194</ele>
        <time>2018-06-07T09:09:07Z</time>
      </trkpt>
      <trkpt lat="45.93935" lon="4.78678">
        <ele>193</ele>
        <time>2018-06-07T09:09:09Z</time>
      </trkpt>
      <trkpt lat="45.93935" lon="4.78684">
        <ele>193</ele>
        <time>2018-06-07T09:09:10Z</time>
      </trkpt>
      <trkpt lat="45.93936" lon="4.78689">
        <ele>194</ele>
        <time>2018-06-07T09:09:11Z</time>
      </trkpt>
      <trkpt lat="45.93937" lon="4.78698">
        <ele>194</ele>
        <time>2018-06-07T09:09:12Z</time>
      </trkpt>
      <trkpt lat="45.93938" lon="4.78708">
        <ele>194</ele>
        <time>2018-06-07T09:09:14Z</time>
      </trkpt>
      <trkpt lat="45.93939" lon="4.78716">
        <ele>194</ele>
        <time>2018-06-07T09:09:15Z</time>
      </trkpt>
      <trkpt lat="45.93938" lon="4.78723">
        <ele>194</ele>
        <time>2018-06-07T09:09:16Z</time>
      </trkpt>
      <trkpt lat="45.93938" lon="4.78729">
        <ele>194</ele>
        <time>2018-06-07T09:09:17Z</time>
      </trkpt>
      <trkpt lat="45.93937" lon="4.78735">
        <ele>193</ele>
        <time>2018-06-07T09:09:18Z</time>
      </trkpt>
      <trkpt lat="45.93937" lon="4.78742">
        <ele>193</ele>
        <time>2018-06-07T09:09:19Z</time>
      </trkpt>
      <trkpt lat="45.93936" lon="4.78751">
        <ele>193</ele>
        <time>2018-06-07T09:09:20Z</time>
      </trkpt>
      <trkpt lat="45.93935" lon="4.78758">
        <ele>193</ele>
        <time>2018-06-07T09:09:21Z</time>
      </trkpt>
      <trkpt lat="45.93935" lon="4.78764">
        <ele>193</ele>
        <time>2018-06-07T09:09:22Z</time>
      </trkpt>
      <trkpt lat="45.93934" lon="4.78771">
        <ele>193</ele>
        <time>2018-06-07T09:09:23Z</time>
      </trkpt>
      <trkpt lat="45.93935" lon="4.78782">
        <ele>194</ele>
        <time>2018-06-07T09:09:25Z</time>
      </trkpt>
      <trkpt lat="45.93935" lon="4.7879">
        <ele>194</ele>
        <time>2018-06-07T09:09:26Z</time>
      </trkpt>
      <trkpt lat="45.93933" lon="4.78799">
        <ele>194</ele>
        <time>2018-06-07T09:09:28Z</time>
      </trkpt>
      <trkpt lat="45.93933" lon="4.78809">
        <ele>194</ele>
        <time>2018-06-07T09:09:29Z</time>
      </trkpt>
      <trkpt lat="45.93933" lon="4.78819">
        <ele>193</ele>
        <time>2018-06-07T09:09:31Z</time>
      </trkpt>
      <trkpt lat="45.93935" lon="4.78825">
        <ele>193</ele>
        <time>2018-06-07T09:09:32Z</time>
      </trkpt>
      <trkpt lat="45.93936" lon="4.78832">
        <ele>193</ele>
        <time>2018-06-07T09:09:33Z</time>
      </trkpt>
      <trkpt lat="45.93938" lon="4.78839">
        <ele>193</ele>
        <time>2018-06-07T09:09:34Z</time>
      </trkpt>
      <trkpt lat="45.93936" lon="4.78846">
        <ele>193</ele>
        <time>2018-06-07T09:09:35Z</time>
      </trkpt>
      <trkpt lat="45.93937" lon="4.78853">
        <ele>193</ele>
        <time>2018-06-07T09:09:36Z</time>
      </trkpt>
      <trkpt lat="45.93937" lon="4.7886">
        <ele>194</ele>
        <time>2018-06-07T09:09:37Z</time>
      </trkpt>
      <trkpt lat="45.93937" lon="4.78867">
        <ele>194</ele>
        <time>2018-06-07T09:09:38Z</time>
      </trkpt>
      <trkpt lat="45.93937" lon="4.78874">
        <ele>194</ele>
        <time>2018-06-07T09:09:39Z</time>
      </trkpt>
      <trkpt lat="45.93937" lon="4.7888">
        <ele>193</ele>
        <time>2018-06-07T09:09:40Z</time>
      </trkpt>
      <trkpt lat="45.93937" lon="4.78885">
        <ele>193</ele>
        <time>2018-06-07T09:09:41Z</time>
      </trkpt>
      <trkpt lat="45.93938" lon="4.78893">
        <ele>193</ele>
        <time>2018-06-07T09:09:42Z</time>
      </trkpt>
      <trkpt lat="45.93938" lon="4.78904">
        <ele>193</ele>
        <time>2018-06-07T09:09:44Z</time>
      </trkpt>
      <trkpt lat="45.93938" lon="4.78911">
        <ele>193</ele>
        <time>2018-06-07T09:09:45Z</time>
      </trkpt>
      <trkpt lat="45.93939" lon="4.78917">
        <ele>193</ele>
        <time>2018-06-07T09:09:46Z</time>
      </trkpt>
      <trkpt lat="45.9394" lon="4.78924">
        <ele>193</ele>
        <time>2018-06-07T09:09:47Z</time>
      </trkpt>
      <trkpt lat="45.93939" lon="4.78931">
        <ele>193</ele>
        <time>2018-06-07T09:09:48Z</time>
      </trkpt>
      <trkpt lat="45.93939" lon="4.78939">
        <ele>193</ele>
        <time>2018-06-07T09:09:49Z</time>
      </trkpt>
      <trkpt lat="45.9394" lon="4.78949">
        <ele>194</ele>
        <time>2018-06-07T09:09:51Z</time>
      </trkpt>
      <trkpt lat="45.9394" lon="4.78955">
        <ele>194</ele>
        <time>2018-06-07T09:09:52Z</time>
      </trkpt>
      <trkpt lat="45.9394" lon="4.78962">
        <ele>194</ele>
        <time>2018-06-07T09:09:53Z</time>
      </trkpt>
      <trkpt lat="45.9394" lon="4.78968">
        <ele>194</ele>
        <time>2018-06-07T09:09:54Z</time>
      </trkpt>
      <trkpt lat="45.9394" lon="4.7898">
        <ele>194</ele>
        <time>2018-06-07T09:09:56Z</time>
      </trkpt>
      <trkpt lat="45.93941" lon="4.78988">
        <ele>193</ele>
        <time>2018-06-07T09:09:57Z</time>
      </trkpt>
      <trkpt lat="45.93941" lon="4.78999">
        <ele>193</ele>
        <time>2018-06-07T09:09:59Z</time>
      </trkpt>
      <trkpt lat="45.93941" lon="4.79006">
        <ele>194</ele>
        <time>2018-06-07T09:10:00Z</time>
      </trkpt>
      <trkpt lat="45.93939" lon="4.7901">
        <ele>194</ele>
        <time>2018-06-07T09:10:01Z</time>
      </trkpt>
      <trkpt lat="45.93939" lon="4.7902">
        <ele>195</ele>
        <time>2018-06-07T09:10:02Z</time>
      </trkpt>
      <trkpt lat="45.93939" lon="4.79032">
        <ele>195</ele>
        <time>2018-06-07T09:10:04Z</time>
      </trkpt>
      <trkpt lat="45.93941" lon="4.79039">
        <ele>195</ele>
        <time>2018-06-07T09:10:05Z</time>
      </trkpt>
      <trkpt lat="45.93942" lon="4.79045">
        <ele>195</ele>
        <time>2018-06-07T09:10:06Z</time>
      </trkpt>
      <trkpt lat="45.93943" lon="4.79052">
        <ele>195</ele>
        <time>2018-06-07T09:10:07Z</time>
      </trkpt>
      <trkpt lat="45.93944" lon="4.7906">
        <ele>195</ele>
        <time>2018-06-07T09:10:08Z</time>
      </trkpt>
      <trkpt lat="45.93945" lon="4.79067">
        <ele>195</ele>
        <time>2018-06-07T09:10:09Z</time>
      </trkpt>
      <trkpt lat="45.93945" lon="4.79076">
        <ele>195</ele>
        <time>2018-06-07T09:10:10Z</time>
      </trkpt>
      <trkpt lat="45.93945" lon="4.79083">
        <ele>195</ele>
        <time>2018-06-07T09:10:11Z</time>
      </trkpt>
      <trkpt lat="45.93945" lon="4.79089">
        <ele>196</ele>
        <time>2018-06-07T09:10:12Z</time>
      </trkpt>
      <trkpt lat="45.93945" lon="4.79096">
        <ele>196</ele>
        <time>2018-06-07T09:10:13Z</time>
      </trkpt>
      <trkpt lat="45.93946" lon="4.79103">
        <ele>196</ele>
        <time>2018-06-07T09:10:14Z</time>
      </trkpt>
      <trkpt lat="45.93948" lon="4.79111">
        <ele>197</ele>
        <time>2018-06-07T09:10:15Z</time>
      </trkpt>
      <trkpt lat="45.93949" lon="4.79123">
        <ele>197</ele>
        <time>2018-06-07T09:10:17Z</time>
      </trkpt>
      <trkpt lat="45.93949" lon="4.79129">
        <ele>197</ele>
        <time>2018-06-07T09:10:18Z</time>
      </trkpt>
      <trkpt lat="45.93949" lon="4.79135">
        <ele>197</ele>
        <time>2018-06-07T09:10:19Z</time>
      </trkpt>
      <trkpt lat="45.93948" lon="4.79142">
        <ele>197</ele>
        <time>2018-06-07T09:10:20Z</time>
      </trkpt>
      <trkpt lat="45.93948" lon="4.79154">
        <ele>196</ele>
        <time>2018-06-07T09:10:22Z</time>
      </trkpt>
      <trkpt lat="45.93948" lon="4.7916">
        <ele>196</ele>
        <time>2018-06-07T09:10:23Z</time>
      </trkpt>
      <trkpt lat="45.93949" lon="4.79172">
        <ele>197</ele>
        <time>2018-06-07T09:10:25Z</time>
      </trkpt>
      <trkpt lat="45.93949" lon="4.79178">
        <ele>197</ele>
        <time>2018-06-07T09:10:26Z</time>
      </trkpt>
      <trkpt lat="45.93949" lon="4.79185">
        <ele>197</ele>
        <time>2018-06-07T09:10:27Z</time>
      </trkpt>
      <trkpt lat="45.9395" lon="4.79194">
        <ele>197</ele>
        <time>2018-06-07T09:10:28Z</time>
      </trkpt>
      <trkpt lat="45.93949" lon="4.79206">
        <ele>197</ele>
        <time>2018-06-07T09:10:30Z</time>
      </trkpt>
      <trkpt lat="45.93949" lon="4.79214">
        <ele>197</ele>
        <time>2018-06-07T09:10:31Z</time>
      </trkpt>
      <trkpt lat="45.93948" lon="4.79219">
        <ele>197</ele>
        <time>2018-06-07T09:10:32Z</time>
      </trkpt>
      <trkpt lat="45.9395" lon="4.79227">
        <ele>197</ele>
        <time>2018-06-07T09:10:33Z</time>
      </trkpt>
      <trkpt lat="45.9395" lon="4.79233">
        <ele>197</ele>
        <time>2018-06-07T09:10:34Z</time>
      </trkpt>
      <trkpt lat="45.93951" lon="4.7924">
        <ele>197</ele>
        <time>2018-06-07T09:10:35Z</time>
      </trkpt>
      <trkpt lat="45.9395" lon="4.79252">
        <ele>197</ele>
        <time>2018-06-07T09:10:37Z</time>
      </trkpt>
      <trkpt lat="45.9395" lon="4.79257">
        <ele>197</ele>
        <time>2018-06-07T09:10:38Z</time>
      </trkpt>
      <trkpt lat="45.9395" lon="4.79264">
        <ele>198</ele>
        <time>2018-06-07T09:10:39Z</time>
      </trkpt>
      <trkpt lat="45.93949" lon="4.7927">
        <ele>198</ele>
        <time>2018-06-07T09:10:40Z</time>
      </trkpt>
      <trkpt lat="45.93949" lon="4.79279">
        <ele>198</ele>
        <time>2018-06-07T09:10:42Z</time>
      </trkpt>
      <trkpt lat="45.9395" lon="4.79288">
        <ele>198</ele>
        <time>2018-06-07T09:10:43Z</time>
      </trkpt>
      <trkpt lat="45.93951" lon="4.79301">
        <ele>198</ele>
        <time>2018-06-07T09:10:45Z</time>
      </trkpt>
      <trkpt lat="45.93951" lon="4.79306">
        <ele>198</ele>
        <time>2018-06-07T09:10:46Z</time>
      </trkpt>
      <trkpt lat="45.93951" lon="4.79317">
        <ele>198</ele>
        <time>2018-06-07T09:10:48Z</time>
      </trkpt>
      <trkpt lat="45.93952" lon="4.79324">
        <ele>199</ele>
        <time>2018-06-07T09:10:49Z</time>
      </trkpt>
      <trkpt lat="45.93953" lon="4.79331">
        <ele>199</ele>
        <time>2018-06-07T09:10:50Z</time>
      </trkpt>
      <trkpt lat="45.93954" lon="4.79337">
        <ele>200</ele>
        <time>2018-06-07T09:10:51Z</time>
      </trkpt>
      <trkpt lat="45.93956" lon="4.79347">
        <ele>201</ele>
        <time>2018-06-07T09:10:52Z</time>
      </trkpt>
      <trkpt lat="45.93955" lon="4.79353">
        <ele>201</ele>
        <time>2018-06-07T09:10:53Z</time>
      </trkpt>
      <trkpt lat="45.93955" lon="4.79359">
        <ele>201</ele>
        <time>2018-06-07T09:10:54Z</time>
      </trkpt>
      <trkpt lat="45.93956" lon="4.79366">
        <ele>201</ele>
        <time>2018-06-07T09:10:55Z</time>
      </trkpt>
      <trkpt lat="45.93956" lon="4.79372">
        <ele>201</ele>
        <time>2018-06-07T09:10:56Z</time>
      </trkpt>
      <trkpt lat="45.93955" lon="4.79379">
        <ele>201</ele>
        <time>2018-06-07T09:10:57Z</time>
      </trkpt>
      <trkpt lat="45.93954" lon="4.79391">
        <ele>201</ele>
        <time>2018-06-07T09:10:59Z</time>
      </trkpt>
      <trkpt lat="45.93955" lon="4.79398">
        <ele>201</ele>
        <time>2018-06-07T09:11:00Z</time>
      </trkpt>
      <trkpt lat="45.93956" lon="4.79411">
        <ele>201</ele>
        <time>2018-06-07T09:11:02Z</time>
      </trkpt>
      <trkpt lat="45.93957" lon="4.79419">
        <ele>203</ele>
        <time>2018-06-07T09:11:03Z</time>
      </trkpt>
      <trkpt lat="45.93957" lon="4.79425">
        <ele>203</ele>
        <time>2018-06-07T09:11:04Z</time>
      </trkpt>
      <trkpt lat="45.93956" lon="4.79432">
        <ele>203</ele>
        <time>2018-06-07T09:11:05Z</time>
      </trkpt>
      <trkpt lat="45.93954" lon="4.79444">
        <ele>203</ele>
        <time>2018-06-07T09:11:07Z</time>
      </trkpt>
      <trkpt lat="45.93954" lon="4.7945">
        <ele>203</ele>
        <time>2018-06-07T09:11:08Z</time>
      </trkpt>
      <trkpt lat="45.93953" lon="4.79456">
        <ele>203</ele>
        <time>2018-06-07T09:11:09Z</time>
      </trkpt>
      <trkpt lat="45.93953" lon="4.79463">
        <ele>203</ele>
        <time>2018-06-07T09:11:10Z</time>
      </trkpt>
      <trkpt lat="45.93953" lon="4.79473">
        <ele>203</ele>
        <time>2018-06-07T09:11:12Z</time>
      </trkpt>
      <trkpt lat="45.93953" lon="4.79479">
        <ele>203</ele>
        <time>2018-06-07T09:11:13Z</time>
      </trkpt>
      <trkpt lat="45.93952" lon="4.7949">
        <ele>203</ele>
        <time>2018-06-07T09:11:15Z</time>
      </trkpt>
      <trkpt lat="45.93953" lon="4.79497">
        <ele>203</ele>
        <time>2018-06-07T09:11:16Z</time>
      </trkpt>
      <trkpt lat="45.93953" lon="4.79507">
        <ele>204</ele>
        <time>2018-06-07T09:11:18Z</time>
      </trkpt>
      <trkpt lat="45.93953" lon="4.79512">
        <ele>204</ele>
        <time>2018-06-07T09:11:19Z</time>
      </trkpt>
      <trkpt lat="45.93954" lon="4.79521">
        <ele>204</ele>
        <time>2018-06-07T09:11:21Z</time>
      </trkpt>
      <trkpt lat="45.93956" lon="4.7953">
        <ele>205</ele>
        <time>2018-06-07T09:11:22Z</time>
      </trkpt>
      <trkpt lat="45.93956" lon="4.79536">
        <ele>205</ele>
        <time>2018-06-07T09:11:23Z</time>
      </trkpt>
      <trkpt lat="45.93957" lon="4.79543">
        <ele>205</ele>
        <time>2018-06-07T09:11:24Z</time>
      </trkpt>
      <trkpt lat="45.93957" lon="4.79554">
        <ele>205</ele>
        <time>2018-06-07T09:11:27Z</time>
      </trkpt>
      <trkpt lat="45.93957" lon="4.79557">
        <ele>205</ele>
        <time>2018-06-07T09:11:28Z</time>
      </trkpt>
      <trkpt lat="45.93958" lon="4.79569">
        <ele>205</ele>
        <time>2018-06-07T09:11:29Z</time>
      </trkpt>
      <trkpt lat="45.93959" lon="4.79575">
        <ele>206</ele>
        <time>2018-06-07T09:11:30Z</time>
      </trkpt>
      <trkpt lat="45.9396" lon="4.79586">
        <ele>207</ele>
        <time>2018-06-07T09:11:32Z</time>
      </trkpt>
      <trkpt lat="45.9396" lon="4.79592">
        <ele>207</ele>
        <time>2018-06-07T09:11:33Z</time>
      </trkpt>
      <trkpt lat="45.93962" lon="4.79604">
        <ele>207</ele>
        <time>2018-06-07T09:11:35Z</time>
      </trkpt>
      <trkpt lat="45.93963" lon="4.7961">
        <ele>207</ele>
        <time>2018-06-07T09:11:36Z</time>
      </trkpt>
      <trkpt lat="45.93964" lon="4.7962">
        <ele>207</ele>
        <time>2018-06-07T09:11:38Z</time>
      </trkpt>
      <trkpt lat="45.93968" lon="4.79629">
        <ele>207</ele>
        <time>2018-06-07T09:11:39Z</time>
      </trkpt>
      <trkpt lat="45.93968" lon="4.79638">
        <ele>207</ele>
        <time>2018-06-07T09:11:40Z</time>
      </trkpt>
      <trkpt lat="45.93968" lon="4.79644">
        <ele>207</ele>
        <time>2018-06-07T09:11:41Z</time>
      </trkpt>
      <trkpt lat="45.93966" lon="4.79655">
        <ele>207</ele>
        <time>2018-06-07T09:11:43Z</time>
      </trkpt>
      <trkpt lat="45.93968" lon="4.79661">
        <ele>208</ele>
        <time>2018-06-07T09:11:44Z</time>
      </trkpt>
      <trkpt lat="45.93968" lon="4.79671">
        <ele>207</ele>
        <time>2018-06-07T09:11:46Z</time>
      </trkpt>
      <trkpt lat="45.93969" lon="4.79677">
        <ele>207</ele>
        <time>2018-06-07T09:11:47Z</time>
      </trkpt>
      <trkpt lat="45.93971" lon="4.79688">
        <ele>207</ele>
        <time>2018-06-07T09:11:49Z</time>
      </trkpt>
      <trkpt lat="45.93972" lon="4.79695">
        <ele>207</ele>
        <time>2018-06-07T09:11:50Z</time>
      </trkpt>
      <trkpt lat="45.93972" lon="4.79703">
        <ele>207</ele>
        <time>2018-06-07T09:11:52Z</time>
      </trkpt>
      <trkpt lat="45.93972" lon="4.79711">
        <ele>207</ele>
        <time>2018-06-07T09:11:53Z</time>
      </trkpt>
      <trkpt lat="45.93973" lon="4.79723">
        <ele>207</ele>
        <time>2018-06-07T09:11:55Z</time>
      </trkpt>
      <trkpt lat="45.93973" lon="4.79729">
        <ele>207</ele>
        <time>2018-06-07T09:11:56Z</time>
      </trkpt>
      <trkpt lat="45.93974" lon="4.79735">
        <ele>207</ele>
        <time>2018-06-07T09:11:57Z</time>
      </trkpt>
      <trkpt lat="45.93974" lon="4.79744">
        <ele>207</ele>
        <time>2018-06-07T09:11:58Z</time>
      </trkpt>
      <trkpt lat="45.93974" lon="4.7975">
        <ele>207</ele>
        <time>2018-06-07T09:11:59Z</time>
      </trkpt>
      <trkpt lat="45.93975" lon="4.79757">
        <ele>207</ele>
        <time>2018-06-07T09:12:00Z</time>
      </trkpt>
      <trkpt lat="45.93976" lon="4.79764">
        <ele>207</ele>
        <time>2018-06-07T09:12:01Z</time>
      </trkpt>
      <trkpt lat="45.93977" lon="4.79771">
        <ele>207</ele>
        <time>2018-06-07T09:12:02Z</time>
      </trkpt>
      <trkpt lat="45.93976" lon="4.79776">
        <ele>206</ele>
        <time>2018-06-07T09:12:03Z</time>
      </trkpt>
      <trkpt lat="45.93977" lon="4.79784">
        <ele>207</ele>
        <time>2018-06-07T09:12:04Z</time>
      </trkpt>
      <trkpt lat="45.93977" lon="4.7979">
        <ele>207</ele>
        <time>2018-06-07T09:12:05Z</time>
      </trkpt>
      <trkpt lat="45.93976" lon="4.79797">
        <ele>207</ele>
        <time>2018-06-07T09:12:06Z</time>
      </trkpt>
      <trkpt lat="45.93975" lon="4.79805">
        <ele>207</ele>
        <time>2018-06-07T09:12:07Z</time>
      </trkpt>
      <trkpt lat="45.93974" lon="4.79812">
        <ele>207</ele>
        <time>2018-06-07T09:12:08Z</time>
      </trkpt>
      <trkpt lat="45.93973" lon="4.7982">
        <ele>207</ele>
        <time>2018-06-07T09:12:09Z</time>
      </trkpt>
      <trkpt lat="45.93971" lon="4.79826">
        <ele>207</ele>
        <time>2018-06-07T09:12:10Z</time>
      </trkpt>
      <trkpt lat="45.9397" lon="4.79839">
        <ele>207</ele>
        <time>2018-06-07T09:12:12Z</time>
      </trkpt>
      <trkpt lat="45.93969" lon="4.79846">
        <ele>206</ele>
        <time>2018-06-07T09:12:13Z</time>
      </trkpt>
      <trkpt lat="45.93968" lon="4.79852">
        <ele>206</ele>
        <time>2018-06-07T09:12:14Z</time>
      </trkpt>
      <trkpt lat="45.93966" lon="4.79859">
        <ele>206</ele>
        <time>2018-06-07T09:12:15Z</time>
      </trkpt>
      <trkpt lat="45.93965" lon="4.79866">
        <ele>206</ele>
        <time>2018-06-07T09:12:16Z</time>
      </trkpt>
      <trkpt lat="45.93963" lon="4.79873">
        <ele>206</ele>
        <time>2018-06-07T09:12:17Z</time>
      </trkpt>
      <trkpt lat="45.93961" lon="4.7988">
        <ele>206</ele>
        <time>2018-06-07T09:12:18Z</time>
      </trkpt>
      <trkpt lat="45.93959" lon="4.79888">
        <ele>206</ele>
        <time>2018-06-07T09:12:19Z</time>
      </trkpt>
      <trkpt lat="45.93957" lon="4.79893">
        <ele>206</ele>
        <time>2018-06-07T09:12:20Z</time>
      </trkpt>
      <trkpt lat="45.93956" lon="4.79902">
        <ele>205</ele>
        <time>2018-06-07T09:12:21Z</time>
      </trkpt>
      <trkpt lat="45.93952" lon="4.79913">
        <ele>205</ele>
        <time>2018-06-07T09:12:23Z</time>
      </trkpt>
      <trkpt lat="45.93951" lon="4.79918">
        <ele>205</ele>
        <time>2018-06-07T09:12:24Z</time>
      </trkpt>
      <trkpt lat="45.9395" lon="4.7993">
        <ele>205</ele>
        <time>2018-06-07T09:12:26Z</time>
      </trkpt>
      <trkpt lat="45.9395" lon="4.79937">
        <ele>205</ele>
        <time>2018-06-07T09:12:27Z</time>
      </trkpt>
      <trkpt lat="45.93948" lon="4.79942">
        <ele>205</ele>
        <time>2018-06-07T09:12:28Z</time>
      </trkpt>
      <trkpt lat="45.93948" lon="4.7995">
        <ele>205</ele>
        <time>2018-06-07T09:12:29Z</time>
      </trkpt>
      <trkpt lat="45.93949" lon="4.79957">
        <ele>205</ele>
        <time>2018-06-07T09:12:30Z</time>
      </trkpt>
      <trkpt lat="45.93949" lon="4.79963">
        <ele>205</ele>
        <time>2018-06-07T09:12:31Z</time>
      </trkpt>
      <trkpt lat="45.93948" lon="4.79971">
        <ele>205</ele>
        <time>2018-06-07T09:12:32Z</time>
      </trkpt>
      <trkpt lat="45.93947" lon="4.79978">
        <ele>205</ele>
        <time>2018-06-07T09:12:33Z</time>
      </trkpt>
      <trkpt lat="45.93945" lon="4.79987">
        <ele>205</ele>
        <time>2018-06-07T09:12:34Z</time>
      </trkpt>
      <trkpt lat="45.93944" lon="4.79992">
        <ele>204</ele>
        <time>2018-06-07T09:12:35Z</time>
      </trkpt>
      <trkpt lat="45.93942" lon="4.79999">
        <ele>204</ele>
        <time>2018-06-07T09:12:36Z</time>
      </trkpt>
      <trkpt lat="45.93941" lon="4.80006">
        <ele>206</ele>
        <time>2018-06-07T09:12:37Z</time>
      </trkpt>
      <trkpt lat="45.9394" lon="4.80013">
        <ele>206</ele>
        <time>2018-06-07T09:12:38Z</time>
      </trkpt>
      <trkpt lat="45.9394" lon="4.8002">
        <ele>206</ele>
        <time>2018-06-07T09:12:39Z</time>
      </trkpt>
      <trkpt lat="45.9394" lon="4.80028">
        <ele>207</ele>
        <time>2018-06-07T09:12:40Z</time>
      </trkpt>
      <trkpt lat="45.9394" lon="4.80034">
        <ele>207</ele>
        <time>2018-06-07T09:12:41Z</time>
      </trkpt>
      <trkpt lat="45.93938" lon="4.80042">
        <ele>207</ele>
        <time>2018-06-07T09:12:42Z</time>
      </trkpt>
      <trkpt lat="45.93937" lon="4.80049">
        <ele>207</ele>
        <time>2018-06-07T09:12:43Z</time>
      </trkpt>
      <trkpt lat="45.93936" lon="4.80056">
        <ele>207</ele>
        <time>2018-06-07T09:12:44Z</time>
      </trkpt>
      <trkpt lat="45.93936" lon="4.80064">
        <ele>207</ele>
        <time>2018-06-07T09:12:45Z</time>
      </trkpt>
      <trkpt lat="45.93937" lon="4.80074">
        <ele>207</ele>
        <time>2018-06-07T09:12:46Z</time>
      </trkpt>
      <trkpt lat="45.93937" lon="4.80081">
        <ele>207</ele>
        <time>2018-06-07T09:12:47Z</time>
      </trkpt>
      <trkpt lat="45.93938" lon="4.80089">
        <ele>208</ele>
        <time>2018-06-07T09:12:48Z</time>
      </trkpt>
      <trkpt lat="45.93939" lon="4.80096">
        <ele>208</ele>
        <time>2018-06-07T09:12:49Z</time>
      </trkpt>
      <trkpt lat="45.93939" lon="4.80108">
        <ele>208</ele>
        <time>2018-06-07T09:12:51Z</time>
      </trkpt>
      <trkpt lat="45.9394" lon="4.80119">
        <ele>208</ele>
        <time>2018-06-07T09:12:52Z</time>
      </trkpt>
      <trkpt lat="45.93943" lon="4.80128">
        <ele>209</ele>
        <time>2018-06-07T09:12:53Z</time>
      </trkpt>
      <trkpt lat="45.93943" lon="4.80135">
        <ele>208</ele>
        <time>2018-06-07T09:12:54Z</time>
      </trkpt>
      <trkpt lat="45.93943" lon="4.80145">
        <ele>208</ele>
        <time>2018-06-07T09:12:56Z</time>
      </trkpt>
      <trkpt lat="45.93945" lon="4.80153">
        <ele>208</ele>
        <time>2018-06-07T09:12:57Z</time>
      </trkpt>
      <trkpt lat="45.93947" lon="4.8016">
        <ele>208</ele>
        <time>2018-06-07T09:12:58Z</time>
      </trkpt>
      <trkpt lat="45.93949" lon="4.80166">
        <ele>208</ele>
        <time>2018-06-07T09:12:59Z</time>
      </trkpt>
      <trkpt lat="45.9395" lon="4.80171">
        <ele>206</ele>
        <time>2018-06-07T09:13:00Z</time>
      </trkpt>
      <trkpt lat="45.93951" lon="4.80178">
        <ele>206</ele>
        <time>2018-06-07T09:13:01Z</time>
      </trkpt>
      <trkpt lat="45.93952" lon="4.80186">
        <ele>206</ele>
        <time>2018-06-07T09:13:02Z</time>
      </trkpt>
      <trkpt lat="45.93954" lon="4.80193">
        <ele>206</ele>
        <time>2018-06-07T09:13:03Z</time>
      </trkpt>
      <trkpt lat="45.93955" lon="4.80201">
        <ele>205</ele>
        <time>2018-06-07T09:13:04Z</time>
      </trkpt>
      <trkpt lat="45.93956" lon="4.80207">
        <ele>205</ele>
        <time>2018-06-07T09:13:05Z</time>
      </trkpt>
      <trkpt lat="45.93959" lon="4.80218">
        <ele>205</ele>
        <time>2018-06-07T09:13:06Z</time>
      </trkpt>
      <trkpt lat="45.93961" lon="4.80226">
        <ele>205</ele>
        <time>2018-06-07T09:13:07Z</time>
      </trkpt>
      <trkpt lat="45.93964" lon="4.80235">
        <ele>205</ele>
        <time>2018-06-07T09:13:09Z</time>
      </trkpt>
      <trkpt lat="45.93965" lon="4.8024">
        <ele>204</ele>
        <time>2018-06-07T09:13:10Z</time>
      </trkpt>
      <trkpt lat="45.93968" lon="4.80245">
        <ele>204</ele>
        <time>2018-06-07T09:13:11Z</time>
      </trkpt>
      <trkpt lat="45.93971" lon="4.80251">
        <ele>202</ele>
        <time>2018-06-07T09:13:12Z</time>
      </trkpt>
      <trkpt lat="45.93972" lon="4.80257">
        <ele>203</ele>
        <time>2018-06-07T09:13:13Z</time>
      </trkpt>
      <trkpt lat="45.93974" lon="4.80264">
        <ele>203</ele>
        <time>2018-06-07T09:13:14Z</time>
      </trkpt>
      <trkpt lat="45.93975" lon="4.80271">
        <ele>203</ele>
        <time>2018-06-07T09:13:15Z</time>
      </trkpt>
      <trkpt lat="45.93975" lon="4.80277">
        <ele>203</ele>
        <time>2018-06-07T09:13:16Z</time>
      </trkpt>
      <trkpt lat="45.93978" lon="4.80284">
        <ele>203</ele>
        <time>2018-06-07T09:13:17Z</time>
      </trkpt>
      <trkpt lat="45.93979" lon="4.8029">
        <ele>203</ele>
        <time>2018-06-07T09:13:18Z</time>
      </trkpt>
      <trkpt lat="45.93982" lon="4.80297">
        <ele>203</ele>
        <time>2018-06-07T09:13:19Z</time>
      </trkpt>
      <trkpt lat="45.93984" lon="4.80303">
        <ele>203</ele>
        <time>2018-06-07T09:13:20Z</time>
      </trkpt>
      <trkpt lat="45.93986" lon="4.80313">
        <ele>203</ele>
        <time>2018-06-07T09:13:22Z</time>
      </trkpt>
      <trkpt lat="45.93987" lon="4.80316">
        <ele>204</ele>
        <time>2018-06-07T09:13:23Z</time>
      </trkpt>
      <trkpt lat="45.9399" lon="4.80327">
        <ele>204</ele>
        <time>2018-06-07T09:13:25Z</time>
      </trkpt>
      <trkpt lat="45.93993" lon="4.80334">
        <ele>206</ele>
        <time>2018-06-07T09:13:26Z</time>
      </trkpt>
      <trkpt lat="45.93996" lon="4.80346">
        <ele>206</ele>
        <time>2018-06-07T09:13:30Z</time>
      </trkpt>
      <trkpt lat="45.93997" lon="4.80349">
        <ele>206</ele>
        <time>2018-06-07T09:13:31Z</time>
      </trkpt>
      <trkpt lat="45.94" lon="4.8036">
        <ele>214</ele>
        <time>2018-06-07T09:13:34Z</time>
      </trkpt>
      <trkpt lat="45.94004" lon="4.80371">
        <ele>216</ele>
        <time>2018-06-07T09:13:35Z</time>
      </trkpt>
      <trkpt lat="45.94005" lon="4.80381">
        <ele>216</ele>
        <time>2018-06-07T09:13:39Z</time>
      </trkpt>
      <trkpt lat="45.94006" lon="4.80384">
        <ele>217</ele>
        <time>2018-06-07T09:13:40Z</time>
      </trkpt>
      <trkpt lat="45.94008" lon="4.80393">
        <ele>217</ele>
        <time>2018-06-07T09:13:43Z</time>
      </trkpt>
      <trkpt lat="45.94009" lon="4.80397">
        <ele>217</ele>
        <time>2018-06-07T09:13:44Z</time>
      </trkpt>
      <trkpt lat="45.94012" lon="4.80408">
        <ele>217</ele>
        <time>2018-06-07T09:13:47Z</time>
      </trkpt>
      <trkpt lat="45.94012" lon="4.80412">
        <ele>217</ele>
        <time>2018-06-07T09:13:48Z</time>
      </trkpt>
      <trkpt lat="45.94015" lon="4.80422">
        <ele>220</ele>
        <time>2018-06-07T09:13:51Z</time>
      </trkpt>
      <trkpt lat="45.94016" lon="4.80425">
        <ele>221</ele>
        <time>2018-06-07T09:13:52Z</time>
      </trkpt>
      <trkpt lat="45.94018" lon="4.80434">
        <ele>222</ele>
        <time>2018-06-07T09:13:55Z</time>
      </trkpt>
      <trkpt lat="45.94018" lon="4.80437">
        <ele>222</ele>
        <time>2018-06-07T09:13:56Z</time>
      </trkpt>
      <trkpt lat="45.94018" lon="4.80448">
        <ele>223</ele>
        <time>2018-06-07T09:13:59Z</time>
      </trkpt>
      <trkpt lat="45.94018" lon="4.80452">
        <ele>223</ele>
        <time>2018-06-07T09:14:00Z</time>
      </trkpt>
      <trkpt lat="45.94018" lon="4.80464">
        <ele>223</ele>
        <time>2018-06-07T09:14:03Z</time>
      </trkpt>
      <trkpt lat="45.94018" lon="4.80467">
        <ele>223</ele>
        <time>2018-06-07T09:14:04Z</time>
      </trkpt>
      <trkpt lat="45.94018" lon="4.80479">
        <ele>223</ele>
        <time>2018-06-07T09:14:07Z</time>
      </trkpt>
      <trkpt lat="45.94018" lon="4.80482">
        <ele>223</ele>
        <time>2018-06-07T09:14:08Z</time>
      </trkpt>
      <trkpt lat="45.94018" lon="4.80494">
        <ele>222</ele>
        <time>2018-06-07T09:14:12Z</time>
      </trkpt>
      <trkpt lat="45.94018" lon="4.80497">
        <ele>222</ele>
        <time>2018-06-07T09:14:13Z</time>
      </trkpt>
      <trkpt lat="45.94019" lon="4.80508">
        <ele>223</ele>
        <time>2018-06-07T09:14:17Z</time>
      </trkpt>
      <trkpt lat="45.94019" lon="4.8051">
        <ele>223</ele>
        <time>2018-06-07T09:14:18Z</time>
      </trkpt>
      <trkpt lat="45.94018" lon="4.80516">
        <ele>224</ele>
        <time>2018-06-07T09:14:21Z</time>
      </trkpt>
      <trkpt lat="45.94018" lon="4.80516">
        <ele>224</ele>
        <time>2018-06-07T09:14:22Z</time>
      </trkpt>
      <trkpt lat="45.94019" lon="4.80517">
        <ele>224</ele>
        <time>2018-06-07T09:14:23Z</time>
      </trkpt>
      <trkpt lat="45.94019" lon="4.80517">
        <ele>224</ele>
        <time>2018-06-07T09:14:24Z</time>
      </trkpt>
      <trkpt lat="45.94019" lon="4.80518">
        <ele>224</ele>
        <time>2018-06-07T09:14:25Z</time>
      </trkpt>
      <trkpt lat="45.9402" lon="4.80518">
        <ele>224</ele>
        <time>2018-06-07T09:14:26Z</time>
      </trkpt>
      <trkpt lat="45.94021" lon="4.8053">
        <ele>225</ele>
        <time>2018-06-07T09:14:53Z</time>
      </trkpt>
      <trkpt lat="45.94021" lon="4.80531">
        <ele>225</ele>
        <time>2018-06-07T09:14:54Z</time>
      </trkpt>
      <trkpt lat="45.94019" lon="4.80543">
        <ele>225</ele>
        <time>2018-06-07T09:14:58Z</time>
      </trkpt>
      <trkpt lat="45.94018" lon="4.80546">
        <ele>225</ele>
        <time>2018-06-07T09:14:59Z</time>
      </trkpt>
      <trkpt lat="45.94018" lon="4.80555">
        <ele>224</ele>
        <time>2018-06-07T09:15:02Z</time>
      </trkpt>
      <trkpt lat="45.94018" lon="4.80559">
        <ele>224</ele>
        <time>2018-06-07T09:15:03Z</time>
      </trkpt>
      <trkpt lat="45.94019" lon="4.80569">
        <ele>223</ele>
        <time>2018-06-07T09:15:06Z</time>
      </trkpt>
      <trkpt lat="45.94019" lon="4.80572">
        <ele>223</ele>
        <time>2018-06-07T09:15:07Z</time>
      </trkpt>
      <trkpt lat="45.9402" lon="4.80582">
        <ele>223</ele>
        <time>2018-06-07T09:15:10Z</time>
      </trkpt>
      <trkpt lat="45.94021" lon="4.80585">
        <ele>223</ele>
        <time>2018-06-07T09:15:11Z</time>
      </trkpt>
      <trkpt lat="45.94021" lon="4.80595">
        <ele>223</ele>
        <time>2018-06-07T09:15:14Z</time>
      </trkpt>
      <trkpt lat="45.94022" lon="4.80599">
        <ele>224</ele>
        <time>2018-06-07T09:15:15Z</time>
      </trkpt>
      <trkpt lat="45.94023" lon="4.80608">
        <ele>224</ele>
        <time>2018-06-07T09:15:18Z</time>
      </trkpt>
      <trkpt lat="45.94023" lon="4.80611">
        <ele>224</ele>
        <time>2018-06-07T09:15:19Z</time>
      </trkpt>
      <trkpt lat="45.94025" lon="4.80624">
        <ele>225</ele>
        <time>2018-06-07T09:15:23Z</time>
      </trkpt>
      <trkpt lat="45.94025" lon="4.80627">
        <ele>225</ele>
        <time>2018-06-07T09:15:24Z</time>
      </trkpt>
      <trkpt lat="45.94026" lon="4.80638">
        <ele>225</ele>
        <time>2018-06-07T09:15:27Z</time>
      </trkpt>
      <trkpt lat="45.94026" lon="4.80641">
        <ele>224</ele>
        <time>2018-06-07T09:15:28Z</time>
      </trkpt>
      <trkpt lat="45.94028" lon="4.80652">
        <ele>224</ele>
        <time>2018-06-07T09:15:31Z</time>
      </trkpt>
      <trkpt lat="45.94029" lon="4.80655">
        <ele>224</ele>
        <time>2018-06-07T09:15:32Z</time>
      </trkpt>
      <trkpt lat="45.94031" lon="4.80664">
        <ele>224</ele>
        <time>2018-06-07T09:15:34Z</time>
      </trkpt>
      <trkpt lat="45.94032" lon="4.80668">
        <ele>225</ele>
        <time>2018-06-07T09:15:35Z</time>
      </trkpt>
      <trkpt lat="45.94033" lon="4.80675">
        <ele>225</ele>
        <time>2018-06-07T09:15:37Z</time>
      </trkpt>
      <trkpt lat="45.94035" lon="4.80689">
        <ele>226</ele>
        <time>2018-06-07T09:15:38Z</time>
      </trkpt>
      <trkpt lat="45.94035" lon="4.80701">
        <ele>226</ele>
        <time>2018-06-07T09:15:42Z</time>
      </trkpt>
      <trkpt lat="45.94036" lon="4.80704">
        <ele>226</ele>
        <time>2018-06-07T09:15:43Z</time>
      </trkpt>
      <trkpt lat="45.94037" lon="4.80715">
        <ele>226</ele>
        <time>2018-06-07T09:15:46Z</time>
      </trkpt>
      <trkpt lat="45.94037" lon="4.80719">
        <ele>226</ele>
        <time>2018-06-07T09:15:47Z</time>
      </trkpt>
      <trkpt lat="45.94039" lon="4.80731">
        <ele>226</ele>
        <time>2018-06-07T09:15:50Z</time>
      </trkpt>
      <trkpt lat="45.94039" lon="4.80734">
        <ele>227</ele>
        <time>2018-06-07T09:15:51Z</time>
      </trkpt>
      <trkpt lat="45.9404" lon="4.80745">
        <ele>227</ele>
        <time>2018-06-07T09:15:54Z</time>
      </trkpt>
      <trkpt lat="45.94041" lon="4.80749">
        <ele>227</ele>
        <time>2018-06-07T09:15:55Z</time>
      </trkpt>
      <trkpt lat="45.94042" lon="4.80761">
        <ele>228</ele>
        <time>2018-06-07T09:15:58Z</time>
      </trkpt>
      <trkpt lat="45.94042" lon="4.80765">
        <ele>228</ele>
        <time>2018-06-07T09:15:59Z</time>
      </trkpt>
      <trkpt lat="45.94043" lon="4.80776">
        <ele>228</ele>
        <time>2018-06-07T09:16:02Z</time>
      </trkpt>
      <trkpt lat="45.94043" lon="4.8078">
        <ele>228</ele>
        <time>2018-06-07T09:16:03Z</time>
      </trkpt>
      <trkpt lat="45.94044" lon="4.8079">
        <ele>228</ele>
        <time>2018-06-07T09:16:06Z</time>
      </trkpt>
      <trkpt lat="45.94044" lon="4.80794">
        <ele>228</ele>
        <time>2018-06-07T09:16:07Z</time>
      </trkpt>
      <trkpt lat="45.94045" lon="4.80805">
        <ele>229</ele>
        <time>2018-06-07T09:16:10Z</time>
      </trkpt>
      <trkpt lat="45.94045" lon="4.80809">
        <ele>229</ele>
        <time>2018-06-07T09:16:11Z</time>
      </trkpt>
      <trkpt lat="45.94047" lon="4.8082">
        <ele>229</ele>
        <time>2018-06-07T09:16:14Z</time>
      </trkpt>
      <trkpt lat="45.94048" lon="4.80824">
        <ele>229</ele>
        <time>2018-06-07T09:16:15Z</time>
      </trkpt>
      <trkpt lat="45.9405" lon="4.80836">
        <ele>230</ele>
        <time>2018-06-07T09:16:18Z</time>
      </trkpt>
      <trkpt lat="45.94051" lon="4.80839">
        <ele>230</ele>
        <time>2018-06-07T09:16:19Z</time>
      </trkpt>
      <trkpt lat="45.94052" lon="4.80851">
        <ele>230</ele>
        <time>2018-06-07T09:16:22Z</time>
      </trkpt>
      <trkpt lat="45.94052" lon="4.80854">
        <ele>230</ele>
        <time>2018-06-07T09:16:23Z</time>
      </trkpt>
      <trkpt lat="45.94054" lon="4.80866">
        <ele>230</ele>
        <time>2018-06-07T09:16:26Z</time>
      </trkpt>
      <trkpt lat="45.94054" lon="4.80869">
        <ele>230</ele>
        <time>2018-06-07T09:16:27Z</time>
      </trkpt>
      <trkpt lat="45.94056" lon="4.8088">
        <ele>230</ele>
        <time>2018-06-07T09:16:30Z</time>
      </trkpt>
      <trkpt lat="45.94057" lon="4.80884">
        <ele>230</ele>
        <time>2018-06-07T09:16:31Z</time>
      </trkpt>
      <trkpt lat="45.94058" lon="4.80894">
        <ele>231</ele>
        <time>2018-06-07T09:16:34Z</time>
      </trkpt>
      <trkpt lat="45.94058" lon="4.80897">
        <ele>231</ele>
        <time>2018-06-07T09:16:35Z</time>
      </trkpt>
      <trkpt lat="45.9406" lon="4.80907">
        <ele>232</ele>
        <time>2018-06-07T09:16:38Z</time>
      </trkpt>
      <trkpt lat="45.9406" lon="4.8091">
        <ele>232</ele>
        <time>2018-06-07T09:16:39Z</time>
      </trkpt>
      <trkpt lat="45.94061" lon="4.80921">
        <ele>233</ele>
        <time>2018-06-07T09:16:42Z</time>
      </trkpt>
      <trkpt lat="45.94061" lon="4.80924">
        <ele>233</ele>
        <time>2018-06-07T09:16:43Z</time>
      </trkpt>
      <trkpt lat="45.94062" lon="4.80935">
        <ele>232</ele>
        <time>2018-06-07T09:16:46Z</time>
      </trkpt>
      <trkpt lat="45.94063" lon="4.80939">
        <ele>232</ele>
        <time>2018-06-07T09:16:47Z</time>
      </trkpt>
      <trkpt lat="45.94064" lon="4.8095">
        <ele>232</ele>
        <time>2018-06-07T09:16:50Z</time>
      </trkpt>
      <trkpt lat="45.94065" lon="4.80953">
        <ele>232</ele>
        <time>2018-06-07T09:16:51Z</time>
      </trkpt>
      <trkpt lat="45.94067" lon="4.80962">
        <ele>232</ele>
        <time>2018-06-07T09:16:53Z</time>
      </trkpt>
      <trkpt lat="45.94067" lon="4.80966">
        <ele>232</ele>
        <time>2018-06-07T09:16:54Z</time>
      </trkpt>
      <trkpt lat="45.94069" lon="4.80977">
        <ele>233</ele>
        <time>2018-06-07T09:16:57Z</time>
      </trkpt>
      <trkpt lat="45.9407" lon="4.8098">
        <ele>234</ele>
        <time>2018-06-07T09:16:58Z</time>
      </trkpt>
      <trkpt lat="45.94071" lon="4.8099">
        <ele>235</ele>
        <time>2018-06-07T09:17:01Z</time>
      </trkpt>
      <trkpt lat="45.94072" lon="4.80994">
        <ele>236</ele>
        <time>2018-06-07T09:17:02Z</time>
      </trkpt>
      <trkpt lat="45.94073" lon="4.81005">
        <ele>236</ele>
        <time>2018-06-07T09:17:05Z</time>
      </trkpt>
      <trkpt lat="45.94074" lon="4.81009">
        <ele>236</ele>
        <time>2018-06-07T09:17:06Z</time>
      </trkpt>
      <trkpt lat="45.94076" lon="4.81019">
        <ele>235</ele>
        <time>2018-06-07T09:17:09Z</time>
      </trkpt>
      <trkpt lat="45.94077" lon="4.81022">
        <ele>235</ele>
        <time>2018-06-07T09:17:10Z</time>
      </trkpt>
      <trkpt lat="45.94079" lon="4.81032">
        <ele>234</ele>
        <time>2018-06-07T09:17:13Z</time>
      </trkpt>
      <trkpt lat="45.9408" lon="4.81035">
        <ele>234</ele>
        <time>2018-06-07T09:17:14Z</time>
      </trkpt>
      <trkpt lat="45.94082" lon="4.81045">
        <ele>233</ele>
        <time>2018-06-07T09:17:17Z</time>
      </trkpt>
      <trkpt lat="45.94083" lon="4.81048">
        <ele>233</ele>
        <time>2018-06-07T09:17:18Z</time>
      </trkpt>
      <trkpt lat="45.94086" lon="4.81057">
        <ele>243</ele>
        <time>2018-06-07T09:17:21Z</time>
      </trkpt>
      <trkpt lat="45.94088" lon="4.8106">
        <ele>242</ele>
        <time>2018-06-07T09:17:22Z</time>
      </trkpt>
      <trkpt lat="45.94091" lon="4.81069">
        <ele>241</ele>
        <time>2018-06-07T09:17:25Z</time>
      </trkpt>
      <trkpt lat="45.94093" lon="4.81072">
        <ele>241</ele>
        <time>2018-06-07T09:17:26Z</time>
      </trkpt>
      <trkpt lat="45.94097" lon="4.81082">
        <ele>241</ele>
        <time>2018-06-07T09:17:29Z</time>
      </trkpt>
      <trkpt lat="45.94098" lon="4.81085">
        <ele>240</ele>
        <time>2018-06-07T09:17:30Z</time>
      </trkpt>
      <trkpt lat="45.94103" lon="4.81093">
        <ele>241</ele>
        <time>2018-06-07T09:17:33Z</time>
      </trkpt>
      <trkpt lat="45.94105" lon="4.81095">
        <ele>241</ele>
        <time>2018-06-07T09:17:34Z</time>
      </trkpt>
      <trkpt lat="45.9411" lon="4.81103">
        <ele>242</ele>
        <time>2018-06-07T09:17:37Z</time>
      </trkpt>
      <trkpt lat="45.94111" lon="4.81106">
        <ele>242</ele>
        <time>2018-06-07T09:17:38Z</time>
      </trkpt>
      <trkpt lat="45.94117" lon="4.81115">
        <ele>243</ele>
        <time>2018-06-07T09:17:41Z</time>
      </trkpt>
      <trkpt lat="45.94119" lon="4.81118">
        <ele>243</ele>
        <time>2018-06-07T09:17:42Z</time>
      </trkpt>
      <trkpt lat="45.94124" lon="4.81127">
        <ele>243</ele>
        <time>2018-06-07T09:17:45Z</time>
      </trkpt>
      <trkpt lat="45.94125" lon="4.81129">
        <ele>243</ele>
        <time>2018-06-07T09:17:46Z</time>
      </trkpt>
      <trkpt lat="45.9413" lon="4.8114">
        <ele>243</ele>
        <time>2018-06-07T09:17:50Z</time>
      </trkpt>
      <trkpt lat="45.94131" lon="4.81143">
        <ele>243</ele>
        <time>2018-06-07T09:17:51Z</time>
      </trkpt>
      <trkpt lat="45.94135" lon="4.81151">
        <ele>244</ele>
        <time>2018-06-07T09:17:54Z</time>
      </trkpt>
      <trkpt lat="45.94136" lon="4.81154">
        <ele>244</ele>
        <time>2018-06-07T09:17:55Z</time>
      </trkpt>
      <trkpt lat="45.9414" lon="4.81164">
        <ele>244</ele>
        <time>2018-06-07T09:17:58Z</time>
      </trkpt>
      <trkpt lat="45.94141" lon="4.81167">
        <ele>244</ele>
        <time>2018-06-07T09:17:59Z</time>
      </trkpt>
      <trkpt lat="45.94145" lon="4.81176">
        <ele>244</ele>
        <time>2018-06-07T09:18:02Z</time>
      </trkpt>
      <trkpt lat="45.94146" lon="4.81179">
        <ele>244</ele>
        <time>2018-06-07T09:18:03Z</time>
      </trkpt>
      <trkpt lat="45.94149" lon="4.81189">
        <ele>244</ele>
        <time>2018-06-07T09:18:06Z</time>
      </trkpt>
      <trkpt lat="45.9415" lon="4.81192">
        <ele>244</ele>
        <time>2018-06-07T09:18:07Z</time>
      </trkpt>
      <trkpt lat="45.94153" lon="4.81203">
        <ele>244</ele>
        <time>2018-06-07T09:18:10Z</time>
      </trkpt>
      <trkpt lat="45.94153" lon="4.81206">
        <ele>244</ele>
        <time>2018-06-07T09:18:11Z</time>
      </trkpt>
      <trkpt lat="45.94156" lon="4.81216">
        <ele>245</ele>
        <time>2018-06-07T09:18:14Z</time>
      </trkpt>
      <trkpt lat="45.94157" lon="4.8122">
        <ele>245</ele>
        <time>2018-06-07T09:18:15Z</time>
      </trkpt>
      <trkpt lat="45.94159" lon="4.8123">
        <ele>246</ele>
        <time>2018-06-07T09:18:18Z</time>
      </trkpt>
      <trkpt lat="45.9416" lon="4.81233">
        <ele>246</ele>
        <time>2018-06-07T09:18:19Z</time>
      </trkpt>
      <trkpt lat="45.94163" lon="4.81243">
        <ele>248</ele>
        <time>2018-06-07T09:18:22Z</time>
      </trkpt>
      <trkpt lat="45.94164" lon="4.81246">
        <ele>249</ele>
        <time>2018-06-07T09:18:23Z</time>
      </trkpt>
      <trkpt lat="45.94167" lon="4.81258">
        <ele>252</ele>
        <time>2018-06-07T09:18:27Z</time>
      </trkpt>
      <trkpt lat="45.94168" lon="4.81261">
        <ele>253</ele>
        <time>2018-06-07T09:18:28Z</time>
      </trkpt>
      <trkpt lat="45.9417" lon="4.81271">
        <ele>254</ele>
        <time>2018-06-07T09:18:31Z</time>
      </trkpt>
      <trkpt lat="45.94171" lon="4.81274">
        <ele>255</ele>
        <time>2018-06-07T09:18:32Z</time>
      </trkpt>
      <trkpt lat="45.94172" lon="4.81284">
        <ele>255</ele>
        <time>2018-06-07T09:18:35Z</time>
      </trkpt>
      <trkpt lat="45.94173" lon="4.81288">
        <ele>255</ele>
        <time>2018-06-07T09:18:36Z</time>
      </trkpt>
      <trkpt lat="45.94174" lon="4.81299">
        <ele>256</ele>
        <time>2018-06-07T09:18:39Z</time>
      </trkpt>
      <trkpt lat="45.94174" lon="4.81302">
        <ele>256</ele>
        <time>2018-06-07T09:18:40Z</time>
      </trkpt>
      <trkpt lat="45.94175" lon="4.81314">
        <ele>255</ele>
        <time>2018-06-07T09:18:44Z</time>
      </trkpt>
      <trkpt lat="45.94175" lon="4.81317">
        <ele>255</ele>
        <time>2018-06-07T09:18:45Z</time>
      </trkpt>
      <trkpt lat="45.94174" lon="4.8133">
        <ele>254</ele>
        <time>2018-06-07T09:18:49Z</time>
      </trkpt>
      <trkpt lat="45.94174" lon="4.81333">
        <ele>254</ele>
        <time>2018-06-07T09:18:50Z</time>
      </trkpt>
      <trkpt lat="45.94172" lon="4.81345">
        <ele>255</ele>
        <time>2018-06-07T09:18:53Z</time>
      </trkpt>
      <trkpt lat="45.94172" lon="4.81349">
        <ele>256</ele>
        <time>2018-06-07T09:18:54Z</time>
      </trkpt>
      <trkpt lat="45.9417" lon="4.81359">
        <ele>257</ele>
        <time>2018-06-07T09:18:57Z</time>
      </trkpt>
      <trkpt lat="45.94169" lon="4.81363">
        <ele>257</ele>
        <time>2018-06-07T09:18:58Z</time>
      </trkpt>
      <trkpt lat="45.94165" lon="4.81375">
        <ele>251</ele>
        <time>2018-06-07T09:19:01Z</time>
      </trkpt>
      <trkpt lat="45.94164" lon="4.81379">
        <ele>251</ele>
        <time>2018-06-07T09:19:02Z</time>
      </trkpt>
      <trkpt lat="45.94163" lon="4.81391">
        <ele>252</ele>
        <time>2018-06-07T09:19:06Z</time>
      </trkpt>
      <trkpt lat="45.94163" lon="4.81394">
        <ele>252</ele>
        <time>2018-06-07T09:19:07Z</time>
      </trkpt>
      <trkpt lat="45.94162" lon="4.81406">
        <ele>253</ele>
        <time>2018-06-07T09:19:11Z</time>
      </trkpt>
      <trkpt lat="45.94162" lon="4.81409">
        <ele>254</ele>
        <time>2018-06-07T09:19:12Z</time>
      </trkpt>
      <trkpt lat="45.94161" lon="4.81422">
        <ele>256</ele>
        <time>2018-06-07T09:19:16Z</time>
      </trkpt>
      <trkpt lat="45.94161" lon="4.81424">
        <ele>256</ele>
        <time>2018-06-07T09:19:17Z</time>
      </trkpt>
      <trkpt lat="45.94161" lon="4.81436">
        <ele>256</ele>
        <time>2018-06-07T09:19:21Z</time>
      </trkpt>
      <trkpt lat="45.94161" lon="4.81439">
        <ele>256</ele>
        <time>2018-06-07T09:19:22Z</time>
      </trkpt>
      <trkpt lat="45.94159" lon="4.81451">
        <ele>257</ele>
        <time>2018-06-07T09:19:27Z</time>
      </trkpt>
      <trkpt lat="45.94159" lon="4.81455">
        <ele>257</ele>
        <time>2018-06-07T09:19:28Z</time>
      </trkpt>
      <trkpt lat="45.94159" lon="4.81465">
        <ele>258</ele>
        <time>2018-06-07T09:19:31Z</time>
      </trkpt>
      <trkpt lat="45.94158" lon="4.81469">
        <ele>258</ele>
        <time>2018-06-07T09:19:32Z</time>
      </trkpt>
      <trkpt lat="45.94157" lon="4.81479">
        <ele>259</ele>
        <time>2018-06-07T09:19:35Z</time>
      </trkpt>
      <trkpt lat="45.94156" lon="4.81483">
        <ele>259</ele>
        <time>2018-06-07T09:19:36Z</time>
      </trkpt>
      <trkpt lat="45.94154" lon="4.81494">
        <ele>260</ele>
        <time>2018-06-07T09:19:39Z</time>
      </trkpt>
      <trkpt lat="45.94153" lon="4.81498">
        <ele>260</ele>
        <time>2018-06-07T09:19:40Z</time>
      </trkpt>
      <trkpt lat="45.94153" lon="4.81508">
        <ele>263</ele>
        <time>2018-06-07T09:19:42Z</time>
      </trkpt>
      <trkpt lat="45.94153" lon="4.81513">
        <ele>263</ele>
        <time>2018-06-07T09:19:43Z</time>
      </trkpt>
      <trkpt lat="45.94153" lon="4.81525">
        <ele>263</ele>
        <time>2018-06-07T09:19:46Z</time>
      </trkpt>
      <trkpt lat="45.94152" lon="4.8153">
        <ele>264</ele>
        <time>2018-06-07T09:19:47Z</time>
      </trkpt>
      <trkpt lat="45.94152" lon="4.81546">
        <ele>264</ele>
        <time>2018-06-07T09:19:48Z</time>
      </trkpt>
      <trkpt lat="45.94154" lon="4.81558">
        <ele>265</ele>
        <time>2018-06-07T09:19:53Z</time>
      </trkpt>
      <trkpt lat="45.94155" lon="4.81561">
        <ele>265</ele>
        <time>2018-06-07T09:19:54Z</time>
      </trkpt>
      <trkpt lat="45.94157" lon="4.81571">
        <ele>265</ele>
        <time>2018-06-07T09:19:57Z</time>
      </trkpt>
      <trkpt lat="45.94157" lon="4.81575">
        <ele>266</ele>
        <time>2018-06-07T09:19:58Z</time>
      </trkpt>
      <trkpt lat="45.94159" lon="4.81587">
        <ele>267</ele>
        <time>2018-06-07T09:20:01Z</time>
      </trkpt>
      <trkpt lat="45.9416" lon="4.81591">
        <ele>267</ele>
        <time>2018-06-07T09:20:02Z</time>
      </trkpt>
      <trkpt lat="45.94161" lon="4.816">
        <ele>267</ele>
        <time>2018-06-07T09:20:04Z</time>
      </trkpt>
      <trkpt lat="45.94162" lon="4.81604">
        <ele>267</ele>
        <time>2018-06-07T09:20:05Z</time>
      </trkpt>
      <trkpt lat="45.94163" lon="4.81613">
        <ele>267</ele>
        <time>2018-06-07T09:20:07Z</time>
      </trkpt>
      <trkpt lat="45.94164" lon="4.81618">
        <ele>268</ele>
        <time>2018-06-07T09:20:08Z</time>
      </trkpt>
      <trkpt lat="45.94166" lon="4.81626">
        <ele>268</ele>
        <time>2018-06-07T09:20:10Z</time>
      </trkpt>
      <trkpt lat="45.94167" lon="4.81631">
        <ele>267</ele>
        <time>2018-06-07T09:20:11Z</time>
      </trkpt>
      <trkpt lat="45.94168" lon="4.81639">
        <ele>268</ele>
        <time>2018-06-07T09:20:13Z</time>
      </trkpt>
      <trkpt lat="45.94169" lon="4.81644">
        <ele>268</ele>
        <time>2018-06-07T09:20:14Z</time>
      </trkpt>
      <trkpt lat="45.94171" lon="4.81652">
        <ele>268</ele>
        <time>2018-06-07T09:20:16Z</time>
      </trkpt>
      <trkpt lat="45.94171" lon="4.81656">
        <ele>268</ele>
        <time>2018-06-07T09:20:17Z</time>
      </trkpt>
      <trkpt lat="45.94173" lon="4.81668">
        <ele>268</ele>
        <time>2018-06-07T09:20:20Z</time>
      </trkpt>
      <trkpt lat="45.94173" lon="4.81672">
        <ele>268</ele>
        <time>2018-06-07T09:20:21Z</time>
      </trkpt>
      <trkpt lat="45.94175" lon="4.81684">
        <ele>268</ele>
        <time>2018-06-07T09:20:24Z</time>
      </trkpt>
      <trkpt lat="45.94176" lon="4.81689">
        <ele>267</ele>
        <time>2018-06-07T09:20:25Z</time>
      </trkpt>
      <trkpt lat="45.94178" lon="4.81697">
        <ele>267</ele>
        <time>2018-06-07T09:20:27Z</time>
      </trkpt>
      <trkpt lat="45.94179" lon="4.81702">
        <ele>267</ele>
        <time>2018-06-07T09:20:28Z</time>
      </trkpt>
      <trkpt lat="45.94183" lon="4.81716">
        <ele>267</ele>
        <time>2018-06-07T09:20:29Z</time>
      </trkpt>
      <trkpt lat="45.94184" lon="4.81728">
        <ele>267</ele>
        <time>2018-06-07T09:20:32Z</time>
      </trkpt>
      <trkpt lat="45.94184" lon="4.81738">
        <ele>267</ele>
        <time>2018-06-07T09:20:33Z</time>
      </trkpt>
      <trkpt lat="45.94185" lon="4.81746">
        <ele>267</ele>
        <time>2018-06-07T09:20:35Z</time>
      </trkpt>
      <trkpt lat="45.94187" lon="4.81753">
        <ele>266</ele>
        <time>2018-06-07T09:20:36Z</time>
      </trkpt>
      <trkpt lat="45.94189" lon="4.81759">
        <ele>266</ele>
        <time>2018-06-07T09:20:37Z</time>
      </trkpt>
      <trkpt lat="45.94194" lon="4.81764">
        <ele>266</ele>
        <time>2018-06-07T09:20:38Z</time>
      </trkpt>
      <trkpt lat="45.94196" lon="4.8177">
        <ele>266</ele>
        <time>2018-06-07T09:20:39Z</time>
      </trkpt>
      <trkpt lat="45.94197" lon="4.81776">
        <ele>266</ele>
        <time>2018-06-07T09:20:40Z</time>
      </trkpt>
      <trkpt lat="45.94197" lon="4.81787">
        <ele>266</ele>
        <time>2018-06-07T09:20:42Z</time>
      </trkpt>
      <trkpt lat="45.94198" lon="4.81794">
        <ele>266</ele>
        <time>2018-06-07T09:20:43Z</time>
      </trkpt>
      <trkpt lat="45.94198" lon="4.81805">
        <ele>266</ele>
        <time>2018-06-07T09:20:46Z</time>
      </trkpt>
      <trkpt lat="45.94198" lon="4.81808">
        <ele>266</ele>
        <time>2018-06-07T09:20:47Z</time>
      </trkpt>
      <trkpt lat="45.94198" lon="4.81817">
        <ele>266</ele>
        <time>2018-06-07T09:20:50Z</time>
      </trkpt>
      <trkpt lat="45.94199" lon="4.81821">
        <ele>266</ele>
        <time>2018-06-07T09:20:51Z</time>
      </trkpt>
      <trkpt lat="45.942" lon="4.81825">
        <ele>266</ele>
        <time>2018-06-07T09:20:52Z</time>
      </trkpt>
      <trkpt lat="45.94202" lon="4.81839">
        <ele>266</ele>
        <time>2018-06-07T09:20:53Z</time>
      </trkpt>
      <trkpt lat="45.94203" lon="4.81847">
        <ele>266</ele>
        <time>2018-06-07T09:20:55Z</time>
      </trkpt>
      <trkpt lat="45.94205" lon="4.81855">
        <ele>266</ele>
        <time>2018-06-07T09:20:56Z</time>
      </trkpt>
      <trkpt lat="45.94207" lon="4.81866">
        <ele>265</ele>
        <time>2018-06-07T09:20:58Z</time>
      </trkpt>
      <trkpt lat="45.94208" lon="4.81872">
        <ele>265</ele>
        <time>2018-06-07T09:20:59Z</time>
      </trkpt>
      <trkpt lat="45.9421" lon="4.81879">
        <ele>265</ele>
        <time>2018-06-07T09:21:00Z</time>
      </trkpt>
      <trkpt lat="45.94211" lon="4.81885">
        <ele>265</ele>
        <time>2018-06-07T09:21:01Z</time>
      </trkpt>
      <trkpt lat="45.94214" lon="4.81897">
        <ele>265</ele>
        <time>2018-06-07T09:21:03Z</time>
      </trkpt>
      <trkpt lat="45.94215" lon="4.81903">
        <ele>265</ele>
        <time>2018-06-07T09:21:04Z</time>
      </trkpt>
      <trkpt lat="45.94215" lon="4.81908">
        <ele>265</ele>
        <time>2018-06-07T09:21:05Z</time>
      </trkpt>
      <trkpt lat="45.94217" lon="4.81916">
        <ele>265</ele>
        <time>2018-06-07T09:21:06Z</time>
      </trkpt>
      <trkpt lat="45.94218" lon="4.81922">
        <ele>264</ele>
        <time>2018-06-07T09:21:07Z</time>
      </trkpt>
      <trkpt lat="45.9422" lon="4.81929">
        <ele>264</ele>
        <time>2018-06-07T09:21:08Z</time>
      </trkpt>
      <trkpt lat="45.94223" lon="4.81941">
        <ele>264</ele>
        <time>2018-06-07T09:21:10Z</time>
      </trkpt>
      <trkpt lat="45.94224" lon="4.81947">
        <ele>264</ele>
        <time>2018-06-07T09:21:11Z</time>
      </trkpt>
      <trkpt lat="45.94227" lon="4.81959">
        <ele>264</ele>
        <time>2018-06-07T09:21:13Z</time>
      </trkpt>
      <trkpt lat="45.94229" lon="4.81964">
        <ele>264</ele>
        <time>2018-06-07T09:21:14Z</time>
      </trkpt>
      <trkpt lat="45.94233" lon="4.81973">
        <ele>264</ele>
        <time>2018-06-07T09:21:16Z</time>
      </trkpt>
      <trkpt lat="45.94233" lon="4.81979">
        <ele>263</ele>
        <time>2018-06-07T09:21:17Z</time>
      </trkpt>
      <trkpt lat="45.94232" lon="4.81987">
        <ele>263</ele>
        <time>2018-06-07T09:21:18Z</time>
      </trkpt>
      <trkpt lat="45.94232" lon="4.81992">
        <ele>263</ele>
        <time>2018-06-07T09:21:19Z</time>
      </trkpt>
      <trkpt lat="45.94235" lon="4.82002">
        <ele>263</ele>
        <time>2018-06-07T09:21:21Z</time>
      </trkpt>
      <trkpt lat="45.94237" lon="4.82008">
        <ele>263</ele>
        <time>2018-06-07T09:21:22Z</time>
      </trkpt>
      <trkpt lat="45.94237" lon="4.82015">
        <ele>263</ele>
        <time>2018-06-07T09:21:23Z</time>
      </trkpt>
      <trkpt lat="45.94239" lon="4.82021">
        <ele>263</ele>
        <time>2018-06-07T09:21:24Z</time>
      </trkpt>
      <trkpt lat="45.94243" lon="4.82031">
        <ele>263</ele>
        <time>2018-06-07T09:21:26Z</time>
      </trkpt>
      <trkpt lat="45.94243" lon="4.82039">
        <ele>263</ele>
        <time>2018-06-07T09:21:27Z</time>
      </trkpt>
      <trkpt lat="45.94245" lon="4.82048">
        <ele>263</ele>
        <time>2018-06-07T09:21:29Z</time>
      </trkpt>
      <trkpt lat="45.94245" lon="4.82054">
        <ele>263</ele>
        <time>2018-06-07T09:21:30Z</time>
      </trkpt>
      <trkpt lat="45.94249" lon="4.82065">
        <ele>263</ele>
        <time>2018-06-07T09:21:32Z</time>
      </trkpt>
      <trkpt lat="45.94251" lon="4.82071">
        <ele>262</ele>
        <time>2018-06-07T09:21:33Z</time>
      </trkpt>
      <trkpt lat="45.94252" lon="4.82082">
        <ele>262</ele>
        <time>2018-06-07T09:21:35Z</time>
      </trkpt>
      <trkpt lat="45.94253" lon="4.82088">
        <ele>262</ele>
        <time>2018-06-07T09:21:36Z</time>
      </trkpt>
      <trkpt lat="45.94255" lon="4.82095">
        <ele>262</ele>
        <time>2018-06-07T09:21:37Z</time>
      </trkpt>
      <trkpt lat="45.94255" lon="4.82102">
        <ele>262</ele>
        <time>2018-06-07T09:21:38Z</time>
      </trkpt>
      <trkpt lat="45.94257" lon="4.82108">
        <ele>263</ele>
        <time>2018-06-07T09:21:39Z</time>
      </trkpt>
      <trkpt lat="45.94257" lon="4.82115">
        <ele>263</ele>
        <time>2018-06-07T09:21:40Z</time>
      </trkpt>
      <trkpt lat="45.94257" lon="4.82121">
        <ele>263</ele>
        <time>2018-06-07T09:21:41Z</time>
      </trkpt>
      <trkpt lat="45.94258" lon="4.82129">
        <ele>263</ele>
        <time>2018-06-07T09:21:42Z</time>
      </trkpt>
      <trkpt lat="45.9426" lon="4.82136">
        <ele>263</ele>
        <time>2018-06-07T09:21:43Z</time>
      </trkpt>
      <trkpt lat="45.9426" lon="4.82142">
        <ele>263</ele>
        <time>2018-06-07T09:21:44Z</time>
      </trkpt>
      <trkpt lat="45.94262" lon="4.82149">
        <ele>263</ele>
        <time>2018-06-07T09:21:45Z</time>
      </trkpt>
      <trkpt lat="45.94264" lon="4.82157">
        <ele>263</ele>
        <time>2018-06-07T09:21:46Z</time>
      </trkpt>
      <trkpt lat="45.94265" lon="4.82164">
        <ele>263</ele>
        <time>2018-06-07T09:21:47Z</time>
      </trkpt>
      <trkpt lat="45.94268" lon="4.8217">
        <ele>263</ele>
        <time>2018-06-07T09:21:48Z</time>
      </trkpt>
      <trkpt lat="45.9427" lon="4.82182">
        <ele>264</ele>
        <time>2018-06-07T09:21:50Z</time>
      </trkpt>
      <trkpt lat="45.94271" lon="4.82188">
        <ele>264</ele>
        <time>2018-06-07T09:21:51Z</time>
      </trkpt>
      <trkpt lat="45.94274" lon="4.82195">
        <ele>264</ele>
        <time>2018-06-07T09:21:52Z</time>
      </trkpt>
      <trkpt lat="45.94275" lon="4.82201">
        <ele>264</ele>
        <time>2018-06-07T09:21:53Z</time>
      </trkpt>
      <trkpt lat="45.94276" lon="4.82213">
        <ele>264</ele>
        <time>2018-06-07T09:21:55Z</time>
      </trkpt>
      <trkpt lat="45.94278" lon="4.82218">
        <ele>264</ele>
        <time>2018-06-07T09:21:56Z</time>
      </trkpt>
      <trkpt lat="45.94278" lon="4.82231">
        <ele>264</ele>
        <time>2018-06-07T09:21:58Z</time>
      </trkpt>
      <trkpt lat="45.94278" lon="4.82237">
        <ele>264</ele>
        <time>2018-06-07T09:21:59Z</time>
      </trkpt>
      <trkpt lat="45.9428" lon="4.82245">
        <ele>264</ele>
        <time>2018-06-07T09:22:00Z</time>
      </trkpt>
      <trkpt lat="45.94281" lon="4.82251">
        <ele>265</ele>
        <time>2018-06-07T09:22:01Z</time>
      </trkpt>
      <trkpt lat="45.94281" lon="4.82258">
        <ele>265</ele>
        <time>2018-06-07T09:22:02Z</time>
      </trkpt>
      <trkpt lat="45.94283" lon="4.82266">
        <ele>265</ele>
        <time>2018-06-07T09:22:03Z</time>
      </trkpt>
      <trkpt lat="45.94283" lon="4.82273">
        <ele>265</ele>
        <time>2018-06-07T09:22:04Z</time>
      </trkpt>
      <trkpt lat="45.94283" lon="4.82279">
        <ele>265</ele>
        <time>2018-06-07T09:22:05Z</time>
      </trkpt>
      <trkpt lat="45.94284" lon="4.82291">
        <ele>265</ele>
        <time>2018-06-07T09:22:07Z</time>
      </trkpt>
      <trkpt lat="45.94283" lon="4.82297">
        <ele>265</ele>
        <time>2018-06-07T09:22:08Z</time>
      </trkpt>
      <trkpt lat="45.94283" lon="4.82304">
        <ele>265</ele>
        <time>2018-06-07T09:22:09Z</time>
      </trkpt>
      <trkpt lat="45.94283" lon="4.82311">
        <ele>265</ele>
        <time>2018-06-07T09:22:10Z</time>
      </trkpt>
      <trkpt lat="45.94283" lon="4.82319">
        <ele>265</ele>
        <time>2018-06-07T09:22:11Z</time>
      </trkpt>
      <trkpt lat="45.94284" lon="4.82326">
        <ele>265</ele>
        <time>2018-06-07T09:22:12Z</time>
      </trkpt>
      <trkpt lat="45.94285" lon="4.82333">
        <ele>265</ele>
        <time>2018-06-07T09:22:13Z</time>
      </trkpt>
      <trkpt lat="45.94285" lon="4.82339">
        <ele>264</ele>
        <time>2018-06-07T09:22:14Z</time>
      </trkpt>
      <trkpt lat="45.94285" lon="4.82347">
        <ele>264</ele>
        <time>2018-06-07T09:22:15Z</time>
      </trkpt>
      <trkpt lat="45.94285" lon="4.82354">
        <ele>264</ele>
        <time>2018-06-07T09:22:16Z</time>
      </trkpt>
      <trkpt lat="45.94285" lon="4.8236">
        <ele>264</ele>
        <time>2018-06-07T09:22:17Z</time>
      </trkpt>
      <trkpt lat="45.94286" lon="4.82366">
        <ele>264</ele>
        <time>2018-06-07T09:22:18Z</time>
      </trkpt>
      <trkpt lat="45.94287" lon="4.82373">
        <ele>264</ele>
        <time>2018-06-07T09:22:19Z</time>
      </trkpt>
      <trkpt lat="45.94286" lon="4.82381">
        <ele>264</ele>
        <time>2018-06-07T09:22:20Z</time>
      </trkpt>
      <trkpt lat="45.94288" lon="4.82391">
        <ele>264</ele>
        <time>2018-06-07T09:22:21Z</time>
      </trkpt>
      <trkpt lat="45.94288" lon="4.82397">
        <ele>264</ele>
        <time>2018-06-07T09:22:22Z</time>
      </trkpt>
      <trkpt lat="45.94288" lon="4.82403">
        <ele>264</ele>
        <time>2018-06-07T09:22:23Z</time>
      </trkpt>
      <trkpt lat="45.94288" lon="4.82411">
        <ele>264</ele>
        <time>2018-06-07T09:22:24Z</time>
      </trkpt>
      <trkpt lat="45.94289" lon="4.82424">
        <ele>264</ele>
        <time>2018-06-07T09:22:26Z</time>
      </trkpt>
      <trkpt lat="45.9429" lon="4.82429">
        <ele>264</ele>
        <time>2018-06-07T09:22:27Z</time>
      </trkpt>
      <trkpt lat="45.94291" lon="4.82436">
        <ele>264</ele>
        <time>2018-06-07T09:22:28Z</time>
      </trkpt>
      <trkpt lat="45.94291" lon="4.82444">
        <ele>264</ele>
        <time>2018-06-07T09:22:29Z</time>
      </trkpt>
      <trkpt lat="45.94292" lon="4.82451">
        <ele>264</ele>
        <time>2018-06-07T09:22:30Z</time>
      </trkpt>
      <trkpt lat="45.94292" lon="4.82457">
        <ele>264</ele>
        <time>2018-06-07T09:22:31Z</time>
      </trkpt>
      <trkpt lat="45.94293" lon="4.82469">
        <ele>264</ele>
        <time>2018-06-07T09:22:33Z</time>
      </trkpt>
      <trkpt lat="45.94293" lon="4.82473">
        <ele>264</ele>
        <time>2018-06-07T09:22:34Z</time>
      </trkpt>
      <trkpt lat="45.94293" lon="4.82484">
        <ele>264</ele>
        <time>2018-06-07T09:22:36Z</time>
      </trkpt>
      <trkpt lat="45.94293" lon="4.82491">
        <ele>264</ele>
        <time>2018-06-07T09:22:37Z</time>
      </trkpt>
      <trkpt lat="45.94293" lon="4.82499">
        <ele>264</ele>
        <time>2018-06-07T09:22:38Z</time>
      </trkpt>
      <trkpt lat="45.94294" lon="4.82504">
        <ele>264</ele>
        <time>2018-06-07T09:22:39Z</time>
      </trkpt>
      <trkpt lat="45.94294" lon="4.82512">
        <ele>264</ele>
        <time>2018-06-07T09:22:40Z</time>
      </trkpt>
      <trkpt lat="45.94292" lon="4.8252">
        <ele>264</ele>
        <time>2018-06-07T09:22:41Z</time>
      </trkpt>
      <trkpt lat="45.94292" lon="4.82526">
        <ele>264</ele>
        <time>2018-06-07T09:22:42Z</time>
      </trkpt>
      <trkpt lat="45.94292" lon="4.82533">
        <ele>264</ele>
        <time>2018-06-07T09:22:43Z</time>
      </trkpt>
      <trkpt lat="45.94291" lon="4.82544">
        <ele>264</ele>
        <time>2018-06-07T09:22:45Z</time>
      </trkpt>
      <trkpt lat="45.9429" lon="4.82549">
        <ele>264</ele>
        <time>2018-06-07T09:22:46Z</time>
      </trkpt>
      <trkpt lat="45.94289" lon="4.82557">
        <ele>264</ele>
        <time>2018-06-07T09:22:47Z</time>
      </trkpt>
      <trkpt lat="45.94289" lon="4.82562">
        <ele>264</ele>
        <time>2018-06-07T09:22:48Z</time>
      </trkpt>
      <trkpt lat="45.94289" lon="4.82569">
        <ele>265</ele>
        <time>2018-06-07T09:22:49Z</time>
      </trkpt>
      <trkpt lat="45.9429" lon="4.82576">
        <ele>265</ele>
        <time>2018-06-07T09:22:50Z</time>
      </trkpt>
      <trkpt lat="45.94291" lon="4.82582">
        <ele>265</ele>
        <time>2018-06-07T09:22:51Z</time>
      </trkpt>
      <trkpt lat="45.94292" lon="4.8259">
        <ele>265</ele>
        <time>2018-06-07T09:22:52Z</time>
      </trkpt>
      <trkpt lat="45.94292" lon="4.82597">
        <ele>265</ele>
        <time>2018-06-07T09:22:53Z</time>
      </trkpt>
      <trkpt lat="45.94292" lon="4.82603">
        <ele>265</ele>
        <time>2018-06-07T09:22:54Z</time>
      </trkpt>
      <trkpt lat="45.94292" lon="4.82616">
        <ele>265</ele>
        <time>2018-06-07T09:22:56Z</time>
      </trkpt>
      <trkpt lat="45.94291" lon="4.82622">
        <ele>265</ele>
        <time>2018-06-07T09:22:57Z</time>
      </trkpt>
      <trkpt lat="45.94291" lon="4.82634">
        <ele>265</ele>
        <time>2018-06-07T09:22:59Z</time>
      </trkpt>
      <trkpt lat="45.94292" lon="4.8264">
        <ele>265</ele>
        <time>2018-06-07T09:23:00Z</time>
      </trkpt>
      <trkpt lat="45.94292" lon="4.82647">
        <ele>265</ele>
        <time>2018-06-07T09:23:01Z</time>
      </trkpt>
      <trkpt lat="45.94292" lon="4.82655">
        <ele>265</ele>
        <time>2018-06-07T09:23:02Z</time>
      </trkpt>
      <trkpt lat="45.94292" lon="4.82664">
        <ele>265</ele>
        <time>2018-06-07T09:23:03Z</time>
      </trkpt>
      <trkpt lat="45.94292" lon="4.82671">
        <ele>265</ele>
        <time>2018-06-07T09:23:04Z</time>
      </trkpt>
      <trkpt lat="45.94292" lon="4.82679">
        <ele>265</ele>
        <time>2018-06-07T09:23:05Z</time>
      </trkpt>
      <trkpt lat="45.94292" lon="4.82688">
        <ele>265</ele>
        <time>2018-06-07T09:23:06Z</time>
      </trkpt>
      <trkpt lat="45.94291" lon="4.82695">
        <ele>265</ele>
        <time>2018-06-07T09:23:07Z</time>
      </trkpt>
      <trkpt lat="45.94291" lon="4.82703">
        <ele>265</ele>
        <time>2018-06-07T09:23:08Z</time>
      </trkpt>
      <trkpt lat="45.9429" lon="4.8271">
        <ele>265</ele>
        <time>2018-06-07T09:23:09Z</time>
      </trkpt>
      <trkpt lat="45.9429" lon="4.82717">
        <ele>265</ele>
        <time>2018-06-07T09:23:10Z</time>
      </trkpt>
      <trkpt lat="45.9429" lon="4.82724">
        <ele>265</ele>
        <time>2018-06-07T09:23:11Z</time>
      </trkpt>
      <trkpt lat="45.9429" lon="4.82731">
        <ele>265</ele>
        <time>2018-06-07T09:23:12Z</time>
      </trkpt>
      <trkpt lat="45.94289" lon="4.82738">
        <ele>265</ele>
        <time>2018-06-07T09:23:13Z</time>
      </trkpt>
      <trkpt lat="45.94288" lon="4.82744">
        <ele>265</ele>
        <time>2018-06-07T09:23:14Z</time>
      </trkpt>
      <trkpt lat="45.94288" lon="4.82755">
        <ele>265</ele>
        <time>2018-06-07T09:23:16Z</time>
      </trkpt>
      <trkpt lat="45.94288" lon="4.82761">
        <ele>265</ele>
        <time>2018-06-07T09:23:17Z</time>
      </trkpt>
      <trkpt lat="45.94289" lon="4.82773">
        <ele>265</ele>
        <time>2018-06-07T09:23:19Z</time>
      </trkpt>
      <trkpt lat="45.94289" lon="4.82779">
        <ele>265</ele>
        <time>2018-06-07T09:23:20Z</time>
      </trkpt>
      <trkpt lat="45.94289" lon="4.82785">
        <ele>265</ele>
        <time>2018-06-07T09:23:21Z</time>
      </trkpt>
      <trkpt lat="45.94288" lon="4.82793">
        <ele>265</ele>
        <time>2018-06-07T09:23:22Z</time>
      </trkpt>
      <trkpt lat="45.94288" lon="4.82805">
        <ele>265</ele>
        <time>2018-06-07T09:23:24Z</time>
      </trkpt>
      <trkpt lat="45.94288" lon="4.82811">
        <ele>265</ele>
        <time>2018-06-07T09:23:25Z</time>
      </trkpt>
      <trkpt lat="45.94288" lon="4.82824">
        <ele>265</ele>
        <time>2018-06-07T09:23:27Z</time>
      </trkpt>
      <trkpt lat="45.94288" lon="4.82831">
        <ele>265</ele>
        <time>2018-06-07T09:23:28Z</time>
      </trkpt>
      <trkpt lat="45.94288" lon="4.82844">
        <ele>265</ele>
        <time>2018-06-07T09:23:30Z</time>
      </trkpt>
      <trkpt lat="45.94288" lon="4.8285">
        <ele>265</ele>
        <time>2018-06-07T09:23:31Z</time>
      </trkpt>
      <trkpt lat="45.94288" lon="4.82857">
        <ele>265</ele>
        <time>2018-06-07T09:23:32Z</time>
      </trkpt>
      <trkpt lat="45.94288" lon="4.82863">
        <ele>265</ele>
        <time>2018-06-07T09:23:33Z</time>
      </trkpt>
      <trkpt lat="45.94288" lon="4.82875">
        <ele>265</ele>
        <time>2018-06-07T09:23:35Z</time>
      </trkpt>
      <trkpt lat="45.94288" lon="4.8288">
        <ele>265</ele>
        <time>2018-06-07T09:23:36Z</time>
      </trkpt>
      <trkpt lat="45.94288" lon="4.82892">
        <ele>265</ele>
        <time>2018-06-07T09:23:38Z</time>
      </trkpt>
      <trkpt lat="45.94286" lon="4.82897">
        <ele>265</ele>
        <time>2018-06-07T09:23:39Z</time>
      </trkpt>
      <trkpt lat="45.94286" lon="4.82903">
        <ele>265</ele>
        <time>2018-06-07T09:23:40Z</time>
      </trkpt>
      <trkpt lat="45.94285" lon="4.8291">
        <ele>265</ele>
        <time>2018-06-07T09:23:41Z</time>
      </trkpt>
      <trkpt lat="45.94285" lon="4.82916">
        <ele>265</ele>
        <time>2018-06-07T09:23:42Z</time>
      </trkpt>
      <trkpt lat="45.94284" lon="4.82923">
        <ele>265</ele>
        <time>2018-06-07T09:23:43Z</time>
      </trkpt>
      <trkpt lat="45.94284" lon="4.82929">
        <ele>265</ele>
        <time>2018-06-07T09:23:44Z</time>
      </trkpt>
      <trkpt lat="45.94284" lon="4.82936">
        <ele>265</ele>
        <time>2018-06-07T09:23:45Z</time>
      </trkpt>
      <trkpt lat="45.94283" lon="4.82944">
        <ele>265</ele>
        <time>2018-06-07T09:23:46Z</time>
      </trkpt>
      <trkpt lat="45.94282" lon="4.82952">
        <ele>265</ele>
        <time>2018-06-07T09:23:47Z</time>
      </trkpt>
      <trkpt lat="45.94283" lon="4.8296">
        <ele>265</ele>
        <time>2018-06-07T09:23:48Z</time>
      </trkpt>
      <trkpt lat="45.94285" lon="4.82968">
        <ele>265</ele>
        <time>2018-06-07T09:23:49Z</time>
      </trkpt>
      <trkpt lat="45.94286" lon="4.82975">
        <ele>265</ele>
        <time>2018-06-07T09:23:50Z</time>
      </trkpt>
      <trkpt lat="45.94288" lon="4.82983">
        <ele>265</ele>
        <time>2018-06-07T09:23:51Z</time>
      </trkpt>
      <trkpt lat="45.9429" lon="4.8299">
        <ele>265</ele>
        <time>2018-06-07T09:23:52Z</time>
      </trkpt>
      <trkpt lat="45.94291" lon="4.82997">
        <ele>265</ele>
        <time>2018-06-07T09:23:53Z</time>
      </trkpt>
      <trkpt lat="45.94295" lon="4.83005">
        <ele>266</ele>
        <time>2018-06-07T09:23:54Z</time>
      </trkpt>
      <trkpt lat="45.94296" lon="4.83011">
        <ele>266</ele>
        <time>2018-06-07T09:23:55Z</time>
      </trkpt>
      <trkpt lat="45.94296" lon="4.83018">
        <ele>266</ele>
        <time>2018-06-07T09:23:56Z</time>
      </trkpt>
      <trkpt lat="45.94298" lon="4.83026">
        <ele>266</ele>
        <time>2018-06-07T09:23:57Z</time>
      </trkpt>
      <trkpt lat="45.943" lon="4.83032">
        <ele>266</ele>
        <time>2018-06-07T09:23:58Z</time>
      </trkpt>
      <trkpt lat="45.94301" lon="4.83038">
        <ele>266</ele>
        <time>2018-06-07T09:23:59Z</time>
      </trkpt>
      <trkpt lat="45.94303" lon="4.83047">
        <ele>266</ele>
        <time>2018-06-07T09:24:00Z</time>
      </trkpt>
      <trkpt lat="45.94304" lon="4.83054">
        <ele>266</ele>
        <time>2018-06-07T09:24:01Z</time>
      </trkpt>
      <trkpt lat="45.94307" lon="4.83065">
        <ele>266</ele>
        <time>2018-06-07T09:24:03Z</time>
      </trkpt>
      <trkpt lat="45.94309" lon="4.83071">
        <ele>266</ele>
        <time>2018-06-07T09:24:04Z</time>
      </trkpt>
      <trkpt lat="45.9431" lon="4.83077">
        <ele>266</ele>
        <time>2018-06-07T09:24:05Z</time>
      </trkpt>
      <trkpt lat="45.94311" lon="4.83084">
        <ele>266</ele>
        <time>2018-06-07T09:24:06Z</time>
      </trkpt>
      <trkpt lat="45.94313" lon="4.8309">
        <ele>266</ele>
        <time>2018-06-07T09:24:07Z</time>
      </trkpt>
      <trkpt lat="45.94315" lon="4.83098">
        <ele>266</ele>
        <time>2018-06-07T09:24:08Z</time>
      </trkpt>
      <trkpt lat="45.94318" lon="4.83107">
        <ele>266</ele>
        <time>2018-06-07T09:24:09Z</time>
      </trkpt>
      <trkpt lat="45.94321" lon="4.83114">
        <ele>266</ele>
        <time>2018-06-07T09:24:10Z</time>
      </trkpt>
      <trkpt lat="45.94322" lon="4.83121">
        <ele>266</ele>
        <time>2018-06-07T09:24:11Z</time>
      </trkpt>
      <trkpt lat="45.94324" lon="4.83127">
        <ele>266</ele>
        <time>2018-06-07T09:24:12Z</time>
      </trkpt>
      <trkpt lat="45.94325" lon="4.83134">
        <ele>266</ele>
        <time>2018-06-07T09:24:13Z</time>
      </trkpt>
      <trkpt lat="45.94327" lon="4.8314">
        <ele>266</ele>
        <time>2018-06-07T09:24:14Z</time>
      </trkpt>
      <trkpt lat="45.94331" lon="4.83151">
        <ele>266</ele>
        <time>2018-06-07T09:24:16Z</time>
      </trkpt>
      <trkpt lat="45.94333" lon="4.83157">
        <ele>266</ele>
        <time>2018-06-07T09:24:17Z</time>
      </trkpt>
      <trkpt lat="45.94338" lon="4.83166">
        <ele>266</ele>
        <time>2018-06-07T09:24:19Z</time>
      </trkpt>
      <trkpt lat="45.94341" lon="4.83173">
        <ele>266</ele>
        <time>2018-06-07T09:24:20Z</time>
      </trkpt>
      <trkpt lat="45.94344" lon="4.8318">
        <ele>266</ele>
        <time>2018-06-07T09:24:21Z</time>
      </trkpt>
      <trkpt lat="45.94347" lon="4.83187">
        <ele>266</ele>
        <time>2018-06-07T09:24:22Z</time>
      </trkpt>
      <trkpt lat="45.94349" lon="4.83194">
        <ele>266</ele>
        <time>2018-06-07T09:24:23Z</time>
      </trkpt>
      <trkpt lat="45.94351" lon="4.83201">
        <ele>266</ele>
        <time>2018-06-07T09:24:24Z</time>
      </trkpt>
      <trkpt lat="45.94354" lon="4.83208">
        <ele>266</ele>
        <time>2018-06-07T09:24:25Z</time>
      </trkpt>
      <trkpt lat="45.94357" lon="4.83214">
        <ele>266</ele>
        <time>2018-06-07T09:24:26Z</time>
      </trkpt>
      <trkpt lat="45.94359" lon="4.83221">
        <ele>266</ele>
        <time>2018-06-07T09:24:27Z</time>
      </trkpt>
      <trkpt lat="45.94361" lon="4.83229">
        <ele>266</ele>
        <time>2018-06-07T09:24:28Z</time>
      </trkpt>
      <trkpt lat="45.94363" lon="4.83235">
        <ele>266</ele>
        <time>2018-06-07T09:24:29Z</time>
      </trkpt>
      <trkpt lat="45.94366" lon="4.83242">
        <ele>265</ele>
        <time>2018-06-07T09:24:30Z</time>
      </trkpt>
      <trkpt lat="45.94368" lon="4.83249">
        <ele>265</ele>
        <time>2018-06-07T09:24:31Z</time>
      </trkpt>
      <trkpt lat="45.94371" lon="4.83256">
        <ele>265</ele>
        <time>2018-06-07T09:24:32Z</time>
      </trkpt>
      <trkpt lat="45.94374" lon="4.83263">
        <ele>264</ele>
        <time>2018-06-07T09:24:33Z</time>
      </trkpt>
      <trkpt lat="45.94377" lon="4.83271">
        <ele>264</ele>
        <time>2018-06-07T09:24:34Z</time>
      </trkpt>
      <trkpt lat="45.94379" lon="4.8328">
        <ele>264</ele>
        <time>2018-06-07T09:24:35Z</time>
      </trkpt>
      <trkpt lat="45.94381" lon="4.83287">
        <ele>264</ele>
        <time>2018-06-07T09:24:36Z</time>
      </trkpt>
      <trkpt lat="45.94384" lon="4.83294">
        <ele>264</ele>
        <time>2018-06-07T09:24:37Z</time>
      </trkpt>
      <trkpt lat="45.94386" lon="4.83301">
        <ele>264</ele>
        <time>2018-06-07T09:24:38Z</time>
      </trkpt>
      <trkpt lat="45.9439" lon="4.83309">
        <ele>264</ele>
        <time>2018-06-07T09:24:39Z</time>
      </trkpt>
      <trkpt lat="45.94394" lon="4.83315">
        <ele>264</ele>
        <time>2018-06-07T09:24:40Z</time>
      </trkpt>
      <trkpt lat="45.94396" lon="4.83322">
        <ele>264</ele>
        <time>2018-06-07T09:24:41Z</time>
      </trkpt>
      <trkpt lat="45.94399" lon="4.83329">
        <ele>264</ele>
        <time>2018-06-07T09:24:42Z</time>
      </trkpt>
      <trkpt lat="45.94401" lon="4.83336">
        <ele>263</ele>
        <time>2018-06-07T09:24:43Z</time>
      </trkpt>
      <trkpt lat="45.94404" lon="4.83342">
        <ele>263</ele>
        <time>2018-06-07T09:24:44Z</time>
      </trkpt>
      <trkpt lat="45.94407" lon="4.83349">
        <ele>263</ele>
        <time>2018-06-07T09:24:45Z</time>
      </trkpt>
      <trkpt lat="45.94409" lon="4.83356">
        <ele>263</ele>
        <time>2018-06-07T09:24:46Z</time>
      </trkpt>
      <trkpt lat="45.94411" lon="4.83362">
        <ele>264</ele>
        <time>2018-06-07T09:24:47Z</time>
      </trkpt>
      <trkpt lat="45.94414" lon="4.83368">
        <ele>264</ele>
        <time>2018-06-07T09:24:48Z</time>
      </trkpt>
      <trkpt lat="45.94417" lon="4.83376">
        <ele>264</ele>
        <time>2018-06-07T09:24:49Z</time>
      </trkpt>
      <trkpt lat="45.9442" lon="4.83384">
        <ele>264</ele>
        <time>2018-06-07T09:24:50Z</time>
      </trkpt>
      <trkpt lat="45.94424" lon="4.83391">
        <ele>264</ele>
        <time>2018-06-07T09:24:51Z</time>
      </trkpt>
      <trkpt lat="45.94427" lon="4.83398">
        <ele>264</ele>
        <time>2018-06-07T09:24:52Z</time>
      </trkpt>
      <trkpt lat="45.94429" lon="4.83404">
        <ele>264</ele>
        <time>2018-06-07T09:24:53Z</time>
      </trkpt>
      <trkpt lat="45.94432" lon="4.83411">
        <ele>264</ele>
        <time>2018-06-07T09:24:54Z</time>
      </trkpt>
      <trkpt lat="45.94435" lon="4.83416">
        <ele>264</ele>
        <time>2018-06-07T09:24:55Z</time>
      </trkpt>
      <trkpt lat="45.94439" lon="4.83422">
        <ele>264</ele>
        <time>2018-06-07T09:24:56Z</time>
      </trkpt>
      <trkpt lat="45.94442" lon="4.83429">
        <ele>264</ele>
        <time>2018-06-07T09:24:57Z</time>
      </trkpt>
      <trkpt lat="45.94446" lon="4.83435">
        <ele>263</ele>
        <time>2018-06-07T09:24:58Z</time>
      </trkpt>
      <trkpt lat="45.94448" lon="4.83441">
        <ele>263</ele>
        <time>2018-06-07T09:24:59Z</time>
      </trkpt>
      <trkpt lat="45.94451" lon="4.83447">
        <ele>263</ele>
        <time>2018-06-07T09:25:00Z</time>
      </trkpt>
      <trkpt lat="45.94454" lon="4.83453">
        <ele>263</ele>
        <time>2018-06-07T09:25:01Z</time>
      </trkpt>
      <trkpt lat="45.94456" lon="4.83458">
        <ele>263</ele>
        <time>2018-06-07T09:25:02Z</time>
      </trkpt>
      <trkpt lat="45.94459" lon="4.83464">
        <ele>263</ele>
        <time>2018-06-07T09:25:03Z</time>
      </trkpt>
      <trkpt lat="45.94463" lon="4.83468">
        <ele>263</ele>
        <time>2018-06-07T09:25:04Z</time>
      </trkpt>
      <trkpt lat="45.94466" lon="4.83473">
        <ele>263</ele>
        <time>2018-06-07T09:25:05Z</time>
      </trkpt>
      <trkpt lat="45.94469" lon="4.83479">
        <ele>263</ele>
        <time>2018-06-07T09:25:06Z</time>
      </trkpt>
      <trkpt lat="45.94473" lon="4.83486">
        <ele>263</ele>
        <time>2018-06-07T09:25:07Z</time>
      </trkpt>
      <trkpt lat="45.94476" lon="4.83492">
        <ele>263</ele>
        <time>2018-06-07T09:25:08Z</time>
      </trkpt>
      <trkpt lat="45.9448" lon="4.83499">
        <ele>263</ele>
        <time>2018-06-07T09:25:09Z</time>
      </trkpt>
      <trkpt lat="45.94484" lon="4.83503">
        <ele>262</ele>
        <time>2018-06-07T09:25:10Z</time>
      </trkpt>
      <trkpt lat="45.94488" lon="4.83509">
        <ele>262</ele>
        <time>2018-06-07T09:25:11Z</time>
      </trkpt>
      <trkpt lat="45.94493" lon="4.83516">
        <ele>262</ele>
        <time>2018-06-07T09:25:12Z</time>
      </trkpt>
      <trkpt lat="45.94496" lon="4.83521">
        <ele>262</ele>
        <time>2018-06-07T09:25:13Z</time>
      </trkpt>
      <trkpt lat="45.94499" lon="4.83527">
        <ele>262</ele>
        <time>2018-06-07T09:25:14Z</time>
      </trkpt>
      <trkpt lat="45.94503" lon="4.83533">
        <ele>262</ele>
        <time>2018-06-07T09:25:15Z</time>
      </trkpt>
      <trkpt lat="45.94507" lon="4.83539">
        <ele>262</ele>
        <time>2018-06-07T09:25:16Z</time>
      </trkpt>
      <trkpt lat="45.9451" lon="4.83544">
        <ele>261</ele>
        <time>2018-06-07T09:25:17Z</time>
      </trkpt>
      <trkpt lat="45.94514" lon="4.8355">
        <ele>261</ele>
        <time>2018-06-07T09:25:18Z</time>
      </trkpt>
      <trkpt lat="45.94518" lon="4.83558">
        <ele>261</ele>
        <time>2018-06-07T09:25:19Z</time>
      </trkpt>
      <trkpt lat="45.94521" lon="4.83563">
        <ele>261</ele>
        <time>2018-06-07T09:25:20Z</time>
      </trkpt>
      <trkpt lat="45.94526" lon="4.83569">
        <ele>261</ele>
        <time>2018-06-07T09:25:21Z</time>
      </trkpt>
      <trkpt lat="45.94532" lon="4.83573">
        <ele>261</ele>
        <time>2018-06-07T09:25:22Z</time>
      </trkpt>
      <trkpt lat="45.94536" lon="4.8358">
        <ele>261</ele>
        <time>2018-06-07T09:25:23Z</time>
      </trkpt>
      <trkpt lat="45.9454" lon="4.83587">
        <ele>261</ele>
        <time>2018-06-07T09:25:24Z</time>
      </trkpt>
      <trkpt lat="45.94543" lon="4.83592">
        <ele>261</ele>
        <time>2018-06-07T09:25:25Z</time>
      </trkpt>
      <trkpt lat="45.94547" lon="4.83599">
        <ele>261</ele>
        <time>2018-06-07T09:25:26Z</time>
      </trkpt>
      <trkpt lat="45.94551" lon="4.83604">
        <ele>261</ele>
        <time>2018-06-07T09:25:27Z</time>
      </trkpt>
      <trkpt lat="45.94556" lon="4.83612">
        <ele>261</ele>
        <time>2018-06-07T09:25:28Z</time>
      </trkpt>
      <trkpt lat="45.94561" lon="4.83618">
        <ele>261</ele>
        <time>2018-06-07T09:25:29Z</time>
      </trkpt>
      <trkpt lat="45.94565" lon="4.83622">
        <ele>261</ele>
        <time>2018-06-07T09:25:30Z</time>
      </trkpt>
      <trkpt lat="45.94569" lon="4.83627">
        <ele>261</ele>
        <time>2018-06-07T09:25:31Z</time>
      </trkpt>
      <trkpt lat="45.94575" lon="4.83629">
        <ele>261</ele>
        <time>2018-06-07T09:25:32Z</time>
      </trkpt>
      <trkpt lat="45.94578" lon="4.83633">
        <ele>261</ele>
        <time>2018-06-07T09:25:33Z</time>
      </trkpt>
      <trkpt lat="45.94583" lon="4.83637">
        <ele>261</ele>
        <time>2018-06-07T09:25:34Z</time>
      </trkpt>
      <trkpt lat="45.94587" lon="4.83642">
        <ele>260</ele>
        <time>2018-06-07T09:25:35Z</time>
      </trkpt>
      <trkpt lat="45.94592" lon="4.83646">
        <ele>260</ele>
        <time>2018-06-07T09:25:36Z</time>
      </trkpt>
      <trkpt lat="45.94596" lon="4.83651">
        <ele>260</ele>
        <time>2018-06-07T09:25:37Z</time>
      </trkpt>
      <trkpt lat="45.946" lon="4.83655">
        <ele>260</ele>
        <time>2018-06-07T09:25:38Z</time>
      </trkpt>
      <trkpt lat="45.94604" lon="4.83659">
        <ele>260</ele>
        <time>2018-06-07T09:25:39Z</time>
      </trkpt>
      <trkpt lat="45.94608" lon="4.83662">
        <ele>260</ele>
        <time>2018-06-07T09:25:40Z</time>
      </trkpt>
      <trkpt lat="45.94613" lon="4.83666">
        <ele>260</ele>
        <time>2018-06-07T09:25:41Z</time>
      </trkpt>
      <trkpt lat="45.94617" lon="4.8367">
        <ele>261</ele>
        <time>2018-06-07T09:25:42Z</time>
      </trkpt>
      <trkpt lat="45.94623" lon="4.83674">
        <ele>261</ele>
        <time>2018-06-07T09:25:43Z</time>
      </trkpt>
      <trkpt lat="45.94627" lon="4.83679">
        <ele>261</ele>
        <time>2018-06-07T09:25:44Z</time>
      </trkpt>
      <trkpt lat="45.94631" lon="4.83684">
        <ele>261</ele>
        <time>2018-06-07T09:25:45Z</time>
      </trkpt>
      <trkpt lat="45.94636" lon="4.83688">
        <ele>261</ele>
        <time>2018-06-07T09:25:46Z</time>
      </trkpt>
      <trkpt lat="45.9464" lon="4.83694">
        <ele>261</ele>
        <time>2018-06-07T09:25:47Z</time>
      </trkpt>
      <trkpt lat="45.94645" lon="4.83697">
        <ele>261</ele>
        <time>2018-06-07T09:25:48Z</time>
      </trkpt>
      <trkpt lat="45.94649" lon="4.83701">
        <ele>261</ele>
        <time>2018-06-07T09:25:49Z</time>
      </trkpt>
      <trkpt lat="45.94653" lon="4.83705">
        <ele>261</ele>
        <time>2018-06-07T09:25:50Z</time>
      </trkpt>
      <trkpt lat="45.94657" lon="4.8371">
        <ele>261</ele>
        <time>2018-06-07T09:25:51Z</time>
      </trkpt>
      <trkpt lat="45.94661" lon="4.83714">
        <ele>261</ele>
        <time>2018-06-07T09:25:52Z</time>
      </trkpt>
      <trkpt lat="45.94666" lon="4.83718">
        <ele>261</ele>
        <time>2018-06-07T09:25:53Z</time>
      </trkpt>
      <trkpt lat="45.94671" lon="4.83722">
        <ele>261</ele>
        <time>2018-06-07T09:25:54Z</time>
      </trkpt>
      <trkpt lat="45.94675" lon="4.83727">
        <ele>261</ele>
        <time>2018-06-07T09:25:55Z</time>
      </trkpt>
      <trkpt lat="45.94679" lon="4.83731">
        <ele>262</ele>
        <time>2018-06-07T09:25:56Z</time>
      </trkpt>
      <trkpt lat="45.94683" lon="4.83733">
        <ele>262</ele>
        <time>2018-06-07T09:25:57Z</time>
      </trkpt>
      <trkpt lat="45.94687" lon="4.83736">
        <ele>262</ele>
        <time>2018-06-07T09:25:58Z</time>
      </trkpt>
      <trkpt lat="45.94691" lon="4.83741">
        <ele>262</ele>
        <time>2018-06-07T09:25:59Z</time>
      </trkpt>
      <trkpt lat="45.94696" lon="4.83745">
        <ele>262</ele>
        <time>2018-06-07T09:26:00Z</time>
      </trkpt>
      <trkpt lat="45.94699" lon="4.83749">
        <ele>262</ele>
        <time>2018-06-07T09:26:01Z</time>
      </trkpt>
      <trkpt lat="45.94703" lon="4.83752">
        <ele>263</ele>
        <time>2018-06-07T09:26:02Z</time>
      </trkpt>
      <trkpt lat="45.94709" lon="4.83761">
        <ele>263</ele>
        <time>2018-06-07T09:26:04Z</time>
      </trkpt>
      <trkpt lat="45.94713" lon="4.83767">
        <ele>263</ele>
        <time>2018-06-07T09:26:05Z</time>
      </trkpt>
      <trkpt lat="45.94716" lon="4.83772">
        <ele>263</ele>
        <time>2018-06-07T09:26:06Z</time>
      </trkpt>
      <trkpt lat="45.9472" lon="4.83777">
        <ele>263</ele>
        <time>2018-06-07T09:26:07Z</time>
      </trkpt>
      <trkpt lat="45.94726" lon="4.83786">
        <ele>263</ele>
        <time>2018-06-07T09:26:09Z</time>
      </trkpt>
      <trkpt lat="45.94729" lon="4.83791">
        <ele>263</ele>
        <time>2018-06-07T09:26:10Z</time>
      </trkpt>
      <trkpt lat="45.94733" lon="4.83796">
        <ele>264</ele>
        <time>2018-06-07T09:26:11Z</time>
      </trkpt>
      <trkpt lat="45.94736" lon="4.83799">
        <ele>264</ele>
        <time>2018-06-07T09:26:12Z</time>
      </trkpt>
      <trkpt lat="45.94739" lon="4.83803">
        <ele>264</ele>
        <time>2018-06-07T09:26:13Z</time>
      </trkpt>
      <trkpt lat="45.94743" lon="4.8381">
        <ele>264</ele>
        <time>2018-06-07T09:26:14Z</time>
      </trkpt>
      <trkpt lat="45.94746" lon="4.83815">
        <ele>264</ele>
        <time>2018-06-07T09:26:15Z</time>
      </trkpt>
      <trkpt lat="45.9475" lon="4.8382">
        <ele>264</ele>
        <time>2018-06-07T09:26:16Z</time>
      </trkpt>
      <trkpt lat="45.94756" lon="4.83829">
        <ele>265</ele>
        <time>2018-06-07T09:26:18Z</time>
      </trkpt>
      <trkpt lat="45.94759" lon="4.83833">
        <ele>265</ele>
        <time>2018-06-07T09:26:19Z</time>
      </trkpt>
      <trkpt lat="45.94764" lon="4.83837">
        <ele>265</ele>
        <time>2018-06-07T09:26:20Z</time>
      </trkpt>
      <trkpt lat="45.94767" lon="4.83842">
        <ele>265</ele>
        <time>2018-06-07T09:26:21Z</time>
      </trkpt>
      <trkpt lat="45.94773" lon="4.83849">
        <ele>265</ele>
        <time>2018-06-07T09:26:23Z</time>
      </trkpt>
      <trkpt lat="45.94776" lon="4.83853">
        <ele>265</ele>
        <time>2018-06-07T09:26:24Z</time>
      </trkpt>
      <trkpt lat="45.94779" lon="4.83857">
        <ele>265</ele>
        <time>2018-06-07T09:26:25Z</time>
      </trkpt>
      <trkpt lat="45.94783" lon="4.83862">
        <ele>265</ele>
        <time>2018-06-07T09:26:26Z</time>
      </trkpt>
      <trkpt lat="45.94788" lon="4.83871">
        <ele>265</ele>
        <time>2018-06-07T09:26:28Z</time>
      </trkpt>
      <trkpt lat="45.9479" lon="4.83874">
        <ele>266</ele>
        <time>2018-06-07T09:26:29Z</time>
      </trkpt>
      <trkpt lat="45.94795" lon="4.83883">
        <ele>266</ele>
        <time>2018-06-07T09:26:31Z</time>
      </trkpt>
      <trkpt lat="45.94797" lon="4.83888">
        <ele>266</ele>
        <time>2018-06-07T09:26:32Z</time>
      </trkpt>
      <trkpt lat="45.94802" lon="4.83898">
        <ele>266</ele>
        <time>2018-06-07T09:26:34Z</time>
      </trkpt>
      <trkpt lat="45.94804" lon="4.83902">
        <ele>265</ele>
        <time>2018-06-07T09:26:35Z</time>
      </trkpt>
      <trkpt lat="45.94809" lon="4.83911">
        <ele>265</ele>
        <time>2018-06-07T09:26:37Z</time>
      </trkpt>
      <trkpt lat="45.94812" lon="4.83915">
        <ele>265</ele>
        <time>2018-06-07T09:26:38Z</time>
      </trkpt>
      <trkpt lat="45.94816" lon="4.83923">
        <ele>266</ele>
        <time>2018-06-07T09:26:40Z</time>
      </trkpt>
      <trkpt lat="45.94818" lon="4.83927">
        <ele>266</ele>
        <time>2018-06-07T09:26:41Z</time>
      </trkpt>
      <trkpt lat="45.94823" lon="4.83936">
        <ele>266</ele>
        <time>2018-06-07T09:26:43Z</time>
      </trkpt>
      <trkpt lat="45.94825" lon="4.8394">
        <ele>266</ele>
        <time>2018-06-07T09:26:44Z</time>
      </trkpt>
      <trkpt lat="45.94831" lon="4.83949">
        <ele>266</ele>
        <time>2018-06-07T09:26:46Z</time>
      </trkpt>
      <trkpt lat="45.94833" lon="4.83954">
        <ele>266</ele>
        <time>2018-06-07T09:26:47Z</time>
      </trkpt>
      <trkpt lat="45.94837" lon="4.8396">
        <ele>265</ele>
        <time>2018-06-07T09:26:49Z</time>
      </trkpt>
      <trkpt lat="45.94841" lon="4.83966">
        <ele>265</ele>
        <time>2018-06-07T09:26:50Z</time>
      </trkpt>
      <trkpt lat="45.94846" lon="4.83976">
        <ele>265</ele>
        <time>2018-06-07T09:26:52Z</time>
      </trkpt>
      <trkpt lat="45.94848" lon="4.83982">
        <ele>265</ele>
        <time>2018-06-07T09:26:53Z</time>
      </trkpt>
      <trkpt lat="45.94851" lon="4.83993">
        <ele>265</ele>
        <time>2018-06-07T09:26:55Z</time>
      </trkpt>
      <trkpt lat="45.94854" lon="4.84">
        <ele>265</ele>
        <time>2018-06-07T09:26:56Z</time>
      </trkpt>
      <trkpt lat="45.94857" lon="4.84012">
        <ele>266</ele>
        <time>2018-06-07T09:26:58Z</time>
      </trkpt>
      <trkpt lat="45.94859" lon="4.84018">
        <ele>266</ele>
        <time>2018-06-07T09:26:59Z</time>
      </trkpt>
      <trkpt lat="45.94861" lon="4.84024">
        <ele>266</ele>
        <time>2018-06-07T09:27:00Z</time>
      </trkpt>
      <trkpt lat="45.94864" lon="4.8403">
        <ele>266</ele>
        <time>2018-06-07T09:27:01Z</time>
      </trkpt>
      <trkpt lat="45.94866" lon="4.84037">
        <ele>266</ele>
        <time>2018-06-07T09:27:02Z</time>
      </trkpt>
      <trkpt lat="45.94868" lon="4.84045">
        <ele>266</ele>
        <time>2018-06-07T09:27:03Z</time>
      </trkpt>
      <trkpt lat="45.94871" lon="4.84051">
        <ele>267</ele>
        <time>2018-06-07T09:27:04Z</time>
      </trkpt>
      <trkpt lat="45.94873" lon="4.84055">
        <ele>267</ele>
        <time>2018-06-07T09:27:05Z</time>
      </trkpt>
      <trkpt lat="45.94877" lon="4.84063">
        <ele>267</ele>
        <time>2018-06-07T09:27:06Z</time>
      </trkpt>
      <trkpt lat="45.94879" lon="4.84068">
        <ele>267</ele>
        <time>2018-06-07T09:27:07Z</time>
      </trkpt>
      <trkpt lat="45.94884" lon="4.84078">
        <ele>267</ele>
        <time>2018-06-07T09:27:09Z</time>
      </trkpt>
      <trkpt lat="45.94887" lon="4.84084">
        <ele>267</ele>
        <time>2018-06-07T09:27:10Z</time>
      </trkpt>
      <trkpt lat="45.94889" lon="4.84091">
        <ele>267</ele>
        <time>2018-06-07T09:27:11Z</time>
      </trkpt>
      <trkpt lat="45.94892" lon="4.84097">
        <ele>267</ele>
        <time>2018-06-07T09:27:12Z</time>
      </trkpt>
      <trkpt lat="45.94894" lon="4.84103">
        <ele>267</ele>
        <time>2018-06-07T09:27:13Z</time>
      </trkpt>
      <trkpt lat="45.94897" lon="4.84108">
        <ele>267</ele>
        <time>2018-06-07T09:27:14Z</time>
      </trkpt>
      <trkpt lat="45.94901" lon="4.84117">
        <ele>267</ele>
        <time>2018-06-07T09:27:16Z</time>
      </trkpt>
      <trkpt lat="45.94904" lon="4.84122">
        <ele>267</ele>
        <time>2018-06-07T09:27:17Z</time>
      </trkpt>
      <trkpt lat="45.94906" lon="4.84127">
        <ele>267</ele>
        <time>2018-06-07T09:27:18Z</time>
      </trkpt>
      <trkpt lat="45.9491" lon="4.84133">
        <ele>268</ele>
        <time>2018-06-07T09:27:19Z</time>
      </trkpt>
      <trkpt lat="45.94912" lon="4.8414">
        <ele>268</ele>
        <time>2018-06-07T09:27:20Z</time>
      </trkpt>
      <trkpt lat="45.94915" lon="4.84145">
        <ele>268</ele>
        <time>2018-06-07T09:27:21Z</time>
      </trkpt>
      <trkpt lat="45.94919" lon="4.84151">
        <ele>268</ele>
        <time>2018-06-07T09:27:22Z</time>
      </trkpt>
      <trkpt lat="45.94922" lon="4.84156">
        <ele>268</ele>
        <time>2018-06-07T09:27:23Z</time>
      </trkpt>
      <trkpt lat="45.94925" lon="4.84161">
        <ele>268</ele>
        <time>2018-06-07T09:27:24Z</time>
      </trkpt>
      <trkpt lat="45.94928" lon="4.84166">
        <ele>268</ele>
        <time>2018-06-07T09:27:25Z</time>
      </trkpt>
      <trkpt lat="45.94931" lon="4.8417">
        <ele>268</ele>
        <time>2018-06-07T09:27:26Z</time>
      </trkpt>
      <trkpt lat="45.94934" lon="4.84175">
        <ele>267</ele>
        <time>2018-06-07T09:27:27Z</time>
      </trkpt>
      <trkpt lat="45.94937" lon="4.84182">
        <ele>267</ele>
        <time>2018-06-07T09:27:28Z</time>
      </trkpt>
      <trkpt lat="45.9494" lon="4.84187">
        <ele>267</ele>
        <time>2018-06-07T09:27:29Z</time>
      </trkpt>
      <trkpt lat="45.94944" lon="4.84192">
        <ele>267</ele>
        <time>2018-06-07T09:27:30Z</time>
      </trkpt>
      <trkpt lat="45.94948" lon="4.84197">
        <ele>267</ele>
        <time>2018-06-07T09:27:31Z</time>
      </trkpt>
      <trkpt lat="45.94951" lon="4.84202">
        <ele>267</ele>
        <time>2018-06-07T09:27:32Z</time>
      </trkpt>
      <trkpt lat="45.94955" lon="4.84207">
        <ele>267</ele>
        <time>2018-06-07T09:27:33Z</time>
      </trkpt>
      <trkpt lat="45.94958" lon="4.84212">
        <ele>267</ele>
        <time>2018-06-07T09:27:34Z</time>
      </trkpt>
      <trkpt lat="45.94961" lon="4.84215">
        <ele>267</ele>
        <time>2018-06-07T09:27:35Z</time>
      </trkpt>
      <trkpt lat="45.94967" lon="4.84225">
        <ele>267</ele>
        <time>2018-06-07T09:27:37Z</time>
      </trkpt>
      <trkpt lat="45.94971" lon="4.8423">
        <ele>267</ele>
        <time>2018-06-07T09:27:38Z</time>
      </trkpt>
      <trkpt lat="45.94977" lon="4.84239">
        <ele>267</ele>
        <time>2018-06-07T09:27:40Z</time>
      </trkpt>
      <trkpt lat="45.94978" lon="4.84246">
        <ele>267</ele>
        <time>2018-06-07T09:27:41Z</time>
      </trkpt>
      <trkpt lat="45.94984" lon="4.84253">
        <ele>267</ele>
        <time>2018-06-07T09:27:43Z</time>
      </trkpt>
      <trkpt lat="45.94987" lon="4.84258">
        <ele>267</ele>
        <time>2018-06-07T09:27:44Z</time>
      </trkpt>
      <trkpt lat="45.94989" lon="4.84263">
        <ele>267</ele>
        <time>2018-06-07T09:27:45Z</time>
      </trkpt>
      <trkpt lat="45.94993" lon="4.84268">
        <ele>267</ele>
        <time>2018-06-07T09:27:46Z</time>
      </trkpt>
      <trkpt lat="45.94996" lon="4.84273">
        <ele>267</ele>
        <time>2018-06-07T09:27:47Z</time>
      </trkpt>
      <trkpt lat="45.94999" lon="4.84278">
        <ele>267</ele>
        <time>2018-06-07T09:27:48Z</time>
      </trkpt>
      <trkpt lat="45.95002" lon="4.84283">
        <ele>267</ele>
        <time>2018-06-07T09:27:49Z</time>
      </trkpt>
      <trkpt lat="45.95005" lon="4.84289">
        <ele>267</ele>
        <time>2018-06-07T09:27:50Z</time>
      </trkpt>
      <trkpt lat="45.95009" lon="4.84294">
        <ele>267</ele>
        <time>2018-06-07T09:27:51Z</time>
      </trkpt>
      <trkpt lat="45.95012" lon="4.84301">
        <ele>267</ele>
        <time>2018-06-07T09:27:52Z</time>
      </trkpt>
      <trkpt lat="45.95015" lon="4.84306">
        <ele>267</ele>
        <time>2018-06-07T09:27:53Z</time>
      </trkpt>
      <trkpt lat="45.95018" lon="4.84312">
        <ele>267</ele>
        <time>2018-06-07T09:27:54Z</time>
      </trkpt>
      <trkpt lat="45.95024" lon="4.84322">
        <ele>267</ele>
        <time>2018-06-07T09:27:56Z</time>
      </trkpt>
      <trkpt lat="45.95026" lon="4.84327">
        <ele>267</ele>
        <time>2018-06-07T09:27:57Z</time>
      </trkpt>
      <trkpt lat="45.9503" lon="4.84333">
        <ele>267</ele>
        <time>2018-06-07T09:27:58Z</time>
      </trkpt>
      <trkpt lat="45.95033" lon="4.84338">
        <ele>267</ele>
        <time>2018-06-07T09:27:59Z</time>
      </trkpt>
      <trkpt lat="45.95039" lon="4.84346">
        <ele>267</ele>
        <time>2018-06-07T09:28:01Z</time>
      </trkpt>
      <trkpt lat="45.95043" lon="4.84351">
        <ele>267</ele>
        <time>2018-06-07T09:28:02Z</time>
      </trkpt>
      <trkpt lat="45.95046" lon="4.84355">
        <ele>267</ele>
        <time>2018-06-07T09:28:03Z</time>
      </trkpt>
      <trkpt lat="45.9505" lon="4.8436">
        <ele>267</ele>
        <time>2018-06-07T09:28:04Z</time>
      </trkpt>
      <trkpt lat="45.95053" lon="4.84364">
        <ele>267</ele>
        <time>2018-06-07T09:28:05Z</time>
      </trkpt>
      <trkpt lat="45.95055" lon="4.84371">
        <ele>267</ele>
        <time>2018-06-07T09:28:06Z</time>
      </trkpt>
      <trkpt lat="45.95059" lon="4.84377">
        <ele>267</ele>
        <time>2018-06-07T09:28:07Z</time>
      </trkpt>
      <trkpt lat="45.95062" lon="4.84381">
        <ele>267</ele>
        <time>2018-06-07T09:28:08Z</time>
      </trkpt>
      <trkpt lat="45.95068" lon="4.8439">
        <ele>267</ele>
        <time>2018-06-07T09:28:10Z</time>
      </trkpt>
      <trkpt lat="45.95071" lon="4.84393">
        <ele>267</ele>
        <time>2018-06-07T09:28:11Z</time>
      </trkpt>
      <trkpt lat="45.95075" lon="4.84396">
        <ele>267</ele>
        <time>2018-06-07T09:28:12Z</time>
      </trkpt>
      <trkpt lat="45.95079" lon="4.844">
        <ele>267</ele>
        <time>2018-06-07T09:28:13Z</time>
      </trkpt>
      <trkpt lat="45.95083" lon="4.84404">
        <ele>267</ele>
        <time>2018-06-07T09:28:14Z</time>
      </trkpt>
      <trkpt lat="45.95087" lon="4.84407">
        <ele>267</ele>
        <time>2018-06-07T09:28:15Z</time>
      </trkpt>
      <trkpt lat="45.95094" lon="4.84415">
        <ele>267</ele>
        <time>2018-06-07T09:28:17Z</time>
      </trkpt>
      <trkpt lat="45.95097" lon="4.84419">
        <ele>267</ele>
        <time>2018-06-07T09:28:18Z</time>
      </trkpt>
      <trkpt lat="45.95101" lon="4.84424">
        <ele>267</ele>
        <time>2018-06-07T09:28:19Z</time>
      </trkpt>
      <trkpt lat="45.95105" lon="4.84429">
        <ele>267</ele>
        <time>2018-06-07T09:28:20Z</time>
      </trkpt>
      <trkpt lat="45.95111" lon="4.84434">
        <ele>267</ele>
        <time>2018-06-07T09:28:21Z</time>
      </trkpt>
      <trkpt lat="45.95114" lon="4.84439">
        <ele>267</ele>
        <time>2018-06-07T09:28:22Z</time>
      </trkpt>
      <trkpt lat="45.95119" lon="4.84443">
        <ele>267</ele>
        <time>2018-06-07T09:28:23Z</time>
      </trkpt>
      <trkpt lat="45.95124" lon="4.84448">
        <ele>267</ele>
        <time>2018-06-07T09:28:24Z</time>
      </trkpt>
      <trkpt lat="45.95129" lon="4.84453">
        <ele>267</ele>
        <time>2018-06-07T09:28:25Z</time>
      </trkpt>
      <trkpt lat="45.95134" lon="4.84458">
        <ele>267</ele>
        <time>2018-06-07T09:28:26Z</time>
      </trkpt>
      <trkpt lat="45.95139" lon="4.84463">
        <ele>266</ele>
        <time>2018-06-07T09:28:27Z</time>
      </trkpt>
      <trkpt lat="45.95143" lon="4.84468">
        <ele>266</ele>
        <time>2018-06-07T09:28:28Z</time>
      </trkpt>
      <trkpt lat="45.95147" lon="4.84472">
        <ele>266</ele>
        <time>2018-06-07T09:28:29Z</time>
      </trkpt>
      <trkpt lat="45.95152" lon="4.84479">
        <ele>266</ele>
        <time>2018-06-07T09:28:30Z</time>
      </trkpt>
      <trkpt lat="45.95156" lon="4.84482">
        <ele>266</ele>
        <time>2018-06-07T09:28:31Z</time>
      </trkpt>
      <trkpt lat="45.95161" lon="4.84487">
        <ele>266</ele>
        <time>2018-06-07T09:28:32Z</time>
      </trkpt>
      <trkpt lat="45.95166" lon="4.84493">
        <ele>266</ele>
        <time>2018-06-07T09:28:33Z</time>
      </trkpt>
      <trkpt lat="45.95172" lon="4.84499">
        <ele>266</ele>
        <time>2018-06-07T09:28:34Z</time>
      </trkpt>
      <trkpt lat="45.95176" lon="4.84503">
        <ele>265</ele>
        <time>2018-06-07T09:28:35Z</time>
      </trkpt>
      <trkpt lat="45.95182" lon="4.84511">
        <ele>265</ele>
        <time>2018-06-07T09:28:36Z</time>
      </trkpt>
      <trkpt lat="45.95187" lon="4.84518">
        <ele>265</ele>
        <time>2018-06-07T09:28:37Z</time>
      </trkpt>
      <trkpt lat="45.95192" lon="4.84523">
        <ele>265</ele>
        <time>2018-06-07T09:28:38Z</time>
      </trkpt>
      <trkpt lat="45.95197" lon="4.84529">
        <ele>265</ele>
        <time>2018-06-07T09:28:39Z</time>
      </trkpt>
      <trkpt lat="45.95202" lon="4.84536">
        <ele>265</ele>
        <time>2018-06-07T09:28:40Z</time>
      </trkpt>
      <trkpt lat="45.95206" lon="4.84541">
        <ele>265</ele>
        <time>2018-06-07T09:28:41Z</time>
      </trkpt>
      <trkpt lat="45.95211" lon="4.84548">
        <ele>264</ele>
        <time>2018-06-07T09:28:42Z</time>
      </trkpt>
      <trkpt lat="45.95216" lon="4.84552">
        <ele>264</ele>
        <time>2018-06-07T09:28:43Z</time>
      </trkpt>
      <trkpt lat="45.95221" lon="4.84558">
        <ele>264</ele>
        <time>2018-06-07T09:28:44Z</time>
      </trkpt>
      <trkpt lat="45.95225" lon="4.84563">
        <ele>264</ele>
        <time>2018-06-07T09:28:45Z</time>
      </trkpt>
      <trkpt lat="45.9523" lon="4.84569">
        <ele>264</ele>
        <time>2018-06-07T09:28:46Z</time>
      </trkpt>
      <trkpt lat="45.95234" lon="4.84574">
        <ele>264</ele>
        <time>2018-06-07T09:28:47Z</time>
      </trkpt>
      <trkpt lat="45.95239" lon="4.84579">
        <ele>264</ele>
        <time>2018-06-07T09:28:48Z</time>
      </trkpt>
      <trkpt lat="45.95243" lon="4.84584">
        <ele>264</ele>
        <time>2018-06-07T09:28:49Z</time>
      </trkpt>
      <trkpt lat="45.95246" lon="4.84589">
        <ele>264</ele>
        <time>2018-06-07T09:28:50Z</time>
      </trkpt>
      <trkpt lat="45.95249" lon="4.84594">
        <ele>264</ele>
        <time>2018-06-07T09:28:51Z</time>
      </trkpt>
      <trkpt lat="45.95254" lon="4.84599">
        <ele>264</ele>
        <time>2018-06-07T09:28:52Z</time>
      </trkpt>
      <trkpt lat="45.95258" lon="4.84604">
        <ele>264</ele>
        <time>2018-06-07T09:28:53Z</time>
      </trkpt>
      <trkpt lat="45.95261" lon="4.84609">
        <ele>264</ele>
        <time>2018-06-07T09:28:54Z</time>
      </trkpt>
      <trkpt lat="45.95265" lon="4.84615">
        <ele>264</ele>
        <time>2018-06-07T09:28:55Z</time>
      </trkpt>
      <trkpt lat="45.95268" lon="4.84619">
        <ele>264</ele>
        <time>2018-06-07T09:28:56Z</time>
      </trkpt>
      <trkpt lat="45.95272" lon="4.84623">
        <ele>264</ele>
        <time>2018-06-07T09:28:57Z</time>
      </trkpt>
      <trkpt lat="45.95276" lon="4.84628">
        <ele>264</ele>
        <time>2018-06-07T09:28:58Z</time>
      </trkpt>
      <trkpt lat="45.9528" lon="4.84632">
        <ele>264</ele>
        <time>2018-06-07T09:28:59Z</time>
      </trkpt>
      <trkpt lat="45.95285" lon="4.84636">
        <ele>264</ele>
        <time>2018-06-07T09:29:00Z</time>
      </trkpt>
      <trkpt lat="45.95287" lon="4.84638">
        <ele>264</ele>
        <time>2018-06-07T09:29:01Z</time>
      </trkpt>
      <trkpt lat="45.95294" lon="4.84644">
        <ele>264</ele>
        <time>2018-06-07T09:29:02Z</time>
      </trkpt>
      <trkpt lat="45.95297" lon="4.84648">
        <ele>264</ele>
        <time>2018-06-07T09:29:03Z</time>
      </trkpt>
      <trkpt lat="45.95302" lon="4.84652">
        <ele>264</ele>
        <time>2018-06-07T09:29:04Z</time>
      </trkpt>
      <trkpt lat="45.95306" lon="4.84657">
        <ele>265</ele>
        <time>2018-06-07T09:29:05Z</time>
      </trkpt>
      <trkpt lat="45.95311" lon="4.84661">
        <ele>265</ele>
        <time>2018-06-07T09:29:06Z</time>
      </trkpt>
      <trkpt lat="45.95316" lon="4.84665">
        <ele>265</ele>
        <time>2018-06-07T09:29:07Z</time>
      </trkpt>
      <trkpt lat="45.9532" lon="4.84669">
        <ele>265</ele>
        <time>2018-06-07T09:29:08Z</time>
      </trkpt>
      <trkpt lat="45.95325" lon="4.84673">
        <ele>265</ele>
        <time>2018-06-07T09:29:09Z</time>
      </trkpt>
      <trkpt lat="45.9533" lon="4.84678">
        <ele>265</ele>
        <time>2018-06-07T09:29:10Z</time>
      </trkpt>
      <trkpt lat="45.95334" lon="4.84682">
        <ele>265</ele>
        <time>2018-06-07T09:29:11Z</time>
      </trkpt>
      <trkpt lat="45.95338" lon="4.84684">
        <ele>266</ele>
        <time>2018-06-07T09:29:12Z</time>
      </trkpt>
      <trkpt lat="45.95343" lon="4.84687">
        <ele>266</ele>
        <time>2018-06-07T09:29:13Z</time>
      </trkpt>
      <trkpt lat="45.95348" lon="4.84691">
        <ele>266</ele>
        <time>2018-06-07T09:29:14Z</time>
      </trkpt>
      <trkpt lat="45.95352" lon="4.84694">
        <ele>266</ele>
        <time>2018-06-07T09:29:15Z</time>
      </trkpt>
      <trkpt lat="45.95357" lon="4.84698">
        <ele>266</ele>
        <time>2018-06-07T09:29:16Z</time>
      </trkpt>
      <trkpt lat="45.95361" lon="4.84701">
        <ele>266</ele>
        <time>2018-06-07T09:29:17Z</time>
      </trkpt>
      <trkpt lat="45.95366" lon="4.84705">
        <ele>266</ele>
        <time>2018-06-07T09:29:18Z</time>
      </trkpt>
      <trkpt lat="45.9537" lon="4.84707">
        <ele>266</ele>
        <time>2018-06-07T09:29:19Z</time>
      </trkpt>
      <trkpt lat="45.95374" lon="4.8471">
        <ele>266</ele>
        <time>2018-06-07T09:29:20Z</time>
      </trkpt>
      <trkpt lat="45.95378" lon="4.84715">
        <ele>266</ele>
        <time>2018-06-07T09:29:21Z</time>
      </trkpt>
      <trkpt lat="45.95382" lon="4.84718">
        <ele>266</ele>
        <time>2018-06-07T09:29:22Z</time>
      </trkpt>
      <trkpt lat="45.95387" lon="4.84722">
        <ele>266</ele>
        <time>2018-06-07T09:29:23Z</time>
      </trkpt>
      <trkpt lat="45.9539" lon="4.84725">
        <ele>266</ele>
        <time>2018-06-07T09:29:24Z</time>
      </trkpt>
      <trkpt lat="45.95395" lon="4.84729">
        <ele>266</ele>
        <time>2018-06-07T09:29:25Z</time>
      </trkpt>
      <trkpt lat="45.95399" lon="4.84733">
        <ele>266</ele>
        <time>2018-06-07T09:29:26Z</time>
      </trkpt>
      <trkpt lat="45.95403" lon="4.84737">
        <ele>266</ele>
        <time>2018-06-07T09:29:27Z</time>
      </trkpt>
      <trkpt lat="45.95407" lon="4.84741">
        <ele>267</ele>
        <time>2018-06-07T09:29:28Z</time>
      </trkpt>
      <trkpt lat="45.9541" lon="4.84745">
        <ele>267</ele>
        <time>2018-06-07T09:29:29Z</time>
      </trkpt>
      <trkpt lat="45.95414" lon="4.84749">
        <ele>267</ele>
        <time>2018-06-07T09:29:30Z</time>
      </trkpt>
      <trkpt lat="45.95421" lon="4.84756">
        <ele>267</ele>
        <time>2018-06-07T09:29:32Z</time>
      </trkpt>
      <trkpt lat="45.95425" lon="4.84759">
        <ele>267</ele>
        <time>2018-06-07T09:29:33Z</time>
      </trkpt>
      <trkpt lat="45.95432" lon="4.84768">
        <ele>267</ele>
        <time>2018-06-07T09:29:35Z</time>
      </trkpt>
      <trkpt lat="45.95436" lon="4.84771">
        <ele>267</ele>
        <time>2018-06-07T09:29:36Z</time>
      </trkpt>
      <trkpt lat="45.95441" lon="4.84779">
        <ele>267</ele>
        <time>2018-06-07T09:29:38Z</time>
      </trkpt>
      <trkpt lat="45.95446" lon="4.84783">
        <ele>267</ele>
        <time>2018-06-07T09:29:39Z</time>
      </trkpt>
      <trkpt lat="45.9545" lon="4.84787">
        <ele>267</ele>
        <time>2018-06-07T09:29:40Z</time>
      </trkpt>
      <trkpt lat="45.95454" lon="4.84791">
        <ele>267</ele>
        <time>2018-06-07T09:29:41Z</time>
      </trkpt>
      <trkpt lat="45.95459" lon="4.84795">
        <ele>267</ele>
        <time>2018-06-07T09:29:42Z</time>
      </trkpt>
      <trkpt lat="45.95462" lon="4.848">
        <ele>267</ele>
        <time>2018-06-07T09:29:43Z</time>
      </trkpt>
      <trkpt lat="45.95466" lon="4.84804">
        <ele>267</ele>
        <time>2018-06-07T09:29:44Z</time>
      </trkpt>
      <trkpt lat="45.95469" lon="4.84808">
        <ele>267</ele>
        <time>2018-06-07T09:29:45Z</time>
      </trkpt>
      <trkpt lat="45.95473" lon="4.84813">
        <ele>267</ele>
        <time>2018-06-07T09:29:46Z</time>
      </trkpt>
      <trkpt lat="45.95477" lon="4.84817">
        <ele>267</ele>
        <time>2018-06-07T09:29:47Z</time>
      </trkpt>
      <trkpt lat="45.95484" lon="4.84825">
        <ele>267</ele>
        <time>2018-06-07T09:29:49Z</time>
      </trkpt>
      <trkpt lat="45.95488" lon="4.84829">
        <ele>267</ele>
        <time>2018-06-07T09:29:50Z</time>
      </trkpt>
      <trkpt lat="45.95491" lon="4.84833">
        <ele>267</ele>
        <time>2018-06-07T09:29:51Z</time>
      </trkpt>
      <trkpt lat="45.95495" lon="4.84837">
        <ele>267</ele>
        <time>2018-06-07T09:29:52Z</time>
      </trkpt>
      <trkpt lat="45.95498" lon="4.84841">
        <ele>267</ele>
        <time>2018-06-07T09:29:53Z</time>
      </trkpt>
      <trkpt lat="45.95502" lon="4.84846">
        <ele>267</ele>
        <time>2018-06-07T09:29:54Z</time>
      </trkpt>
      <trkpt lat="45.95505" lon="4.8485">
        <ele>268</ele>
        <time>2018-06-07T09:29:55Z</time>
      </trkpt>
      <trkpt lat="45.95509" lon="4.84855">
        <ele>268</ele>
        <time>2018-06-07T09:29:56Z</time>
      </trkpt>
      <trkpt lat="45.95513" lon="4.84859">
        <ele>268</ele>
        <time>2018-06-07T09:29:57Z</time>
      </trkpt>
      <trkpt lat="45.95518" lon="4.84863">
        <ele>268</ele>
        <time>2018-06-07T09:29:58Z</time>
      </trkpt>
      <trkpt lat="45.95522" lon="4.84867">
        <ele>268</ele>
        <time>2018-06-07T09:29:59Z</time>
      </trkpt>
      <trkpt lat="45.95526" lon="4.8487">
        <ele>268</ele>
        <time>2018-06-07T09:30:00Z</time>
      </trkpt>
      <trkpt lat="45.95529" lon="4.84875">
        <ele>268</ele>
        <time>2018-06-07T09:30:01Z</time>
      </trkpt>
      <trkpt lat="45.95533" lon="4.84879">
        <ele>268</ele>
        <time>2018-06-07T09:30:02Z</time>
      </trkpt>
      <trkpt lat="45.95538" lon="4.84882">
        <ele>268</ele>
        <time>2018-06-07T09:30:03Z</time>
      </trkpt>
      <trkpt lat="45.95543" lon="4.84885">
        <ele>268</ele>
        <time>2018-06-07T09:30:04Z</time>
      </trkpt>
      <trkpt lat="45.95547" lon="4.84888">
        <ele>268</ele>
        <time>2018-06-07T09:30:05Z</time>
      </trkpt>
      <trkpt lat="45.95552" lon="4.8489">
        <ele>268</ele>
        <time>2018-06-07T09:30:06Z</time>
      </trkpt>
      <trkpt lat="45.95556" lon="4.84892">
        <ele>268</ele>
        <time>2018-06-07T09:30:07Z</time>
      </trkpt>
      <trkpt lat="45.95561" lon="4.84896">
        <ele>268</ele>
        <time>2018-06-07T09:30:08Z</time>
      </trkpt>
      <trkpt lat="45.95569" lon="4.84901">
        <ele>268</ele>
        <time>2018-06-07T09:30:10Z</time>
      </trkpt>
      <trkpt lat="45.95573" lon="4.84903">
        <ele>268</ele>
        <time>2018-06-07T09:30:11Z</time>
      </trkpt>
      <trkpt lat="45.95577" lon="4.84906">
        <ele>269</ele>
        <time>2018-06-07T09:30:12Z</time>
      </trkpt>
      <trkpt lat="45.95582" lon="4.84909">
        <ele>269</ele>
        <time>2018-06-07T09:30:13Z</time>
      </trkpt>
      <trkpt lat="45.95589" lon="4.84913">
        <ele>269</ele>
        <time>2018-06-07T09:30:15Z</time>
      </trkpt>
      <trkpt lat="45.95592" lon="4.84917">
        <ele>270</ele>
        <time>2018-06-07T09:30:16Z</time>
      </trkpt>
      <trkpt lat="45.956" lon="4.84923">
        <ele>270</ele>
        <time>2018-06-07T09:30:18Z</time>
      </trkpt>
      <trkpt lat="45.95603" lon="4.84927">
        <ele>270</ele>
        <time>2018-06-07T09:30:19Z</time>
      </trkpt>
      <trkpt lat="45.95607" lon="4.84929">
        <ele>270</ele>
        <time>2018-06-07T09:30:20Z</time>
      </trkpt>
      <trkpt lat="45.95611" lon="4.84933">
        <ele>270</ele>
        <time>2018-06-07T09:30:21Z</time>
      </trkpt>
      <trkpt lat="45.95619" lon="4.84939">
        <ele>270</ele>
        <time>2018-06-07T09:30:23Z</time>
      </trkpt>
      <trkpt lat="45.95623" lon="4.84942">
        <ele>270</ele>
        <time>2018-06-07T09:30:24Z</time>
      </trkpt>
      <trkpt lat="45.9563" lon="4.84949">
        <ele>271</ele>
        <time>2018-06-07T09:30:26Z</time>
      </trkpt>
      <trkpt lat="45.95633" lon="4.84952">
        <ele>271</ele>
        <time>2018-06-07T09:30:27Z</time>
      </trkpt>
      <trkpt lat="45.95641" lon="4.8496">
        <ele>271</ele>
        <time>2018-06-07T09:30:29Z</time>
      </trkpt>
      <trkpt lat="45.95644" lon="4.84964">
        <ele>271</ele>
        <time>2018-06-07T09:30:30Z</time>
      </trkpt>
      <trkpt lat="45.95652" lon="4.84971">
        <ele>271</ele>
        <time>2018-06-07T09:30:32Z</time>
      </trkpt>
      <trkpt lat="45.95656" lon="4.84976">
        <ele>271</ele>
        <time>2018-06-07T09:30:33Z</time>
      </trkpt>
      <trkpt lat="45.95662" lon="4.84984">
        <ele>272</ele>
        <time>2018-06-07T09:30:35Z</time>
      </trkpt>
      <trkpt lat="45.95666" lon="4.84988">
        <ele>272</ele>
        <time>2018-06-07T09:30:36Z</time>
      </trkpt>
      <trkpt lat="45.95672" lon="4.84996">
        <ele>273</ele>
        <time>2018-06-07T09:30:38Z</time>
      </trkpt>
      <trkpt lat="45.95675" lon="4.85001">
        <ele>274</ele>
        <time>2018-06-07T09:30:39Z</time>
      </trkpt>
      <trkpt lat="45.9568" lon="4.85009">
        <ele>275</ele>
        <time>2018-06-07T09:30:41Z</time>
      </trkpt>
      <trkpt lat="45.95683" lon="4.85013">
        <ele>275</ele>
        <time>2018-06-07T09:30:42Z</time>
      </trkpt>
      <trkpt lat="45.95688" lon="4.85022">
        <ele>275</ele>
        <time>2018-06-07T09:30:44Z</time>
      </trkpt>
      <trkpt lat="45.95689" lon="4.85024">
        <ele>275</ele>
        <time>2018-06-07T09:30:45Z</time>
      </trkpt>
      <trkpt lat="45.95695" lon="4.85032">
        <ele>276</ele>
        <time>2018-06-07T09:30:47Z</time>
      </trkpt>
      <trkpt lat="45.95698" lon="4.85036">
        <ele>276</ele>
        <time>2018-06-07T09:30:48Z</time>
      </trkpt>
      <trkpt lat="45.95702" lon="4.85042">
        <ele>276</ele>
        <time>2018-06-07T09:30:50Z</time>
      </trkpt>
      <trkpt lat="45.95705" lon="4.85049">
        <ele>276</ele>
        <time>2018-06-07T09:30:51Z</time>
      </trkpt>
      <trkpt lat="45.9571" lon="4.85059">
        <ele>277</ele>
        <time>2018-06-07T09:30:53Z</time>
      </trkpt>
      <trkpt lat="45.95712" lon="4.85064">
        <ele>277</ele>
        <time>2018-06-07T09:30:54Z</time>
      </trkpt>
      <trkpt lat="45.95716" lon="4.85074">
        <ele>277</ele>
        <time>2018-06-07T09:30:56Z</time>
      </trkpt>
      <trkpt lat="45.95719" lon="4.85079">
        <ele>277</ele>
        <time>2018-06-07T09:30:57Z</time>
      </trkpt>
      <trkpt lat="45.95721" lon="4.85087">
        <ele>279</ele>
        <time>2018-06-07T09:30:58Z</time>
      </trkpt>
      <trkpt lat="45.95723" lon="4.85093">
        <ele>279</ele>
        <time>2018-06-07T09:30:59Z</time>
      </trkpt>
      <trkpt lat="45.95729" lon="4.85101">
        <ele>279</ele>
        <time>2018-06-07T09:31:01Z</time>
      </trkpt>
      <trkpt lat="45.95732" lon="4.85105">
        <ele>279</ele>
        <time>2018-06-07T09:31:02Z</time>
      </trkpt>
      <trkpt lat="45.95734" lon="4.8511">
        <ele>279</ele>
        <time>2018-06-07T09:31:03Z</time>
      </trkpt>
      <trkpt lat="45.95738" lon="4.85116">
        <ele>279</ele>
        <time>2018-06-07T09:31:04Z</time>
      </trkpt>
      <trkpt lat="45.95743" lon="4.85125">
        <ele>279</ele>
        <time>2018-06-07T09:31:06Z</time>
      </trkpt>
      <trkpt lat="45.95745" lon="4.85131">
        <ele>279</ele>
        <time>2018-06-07T09:31:07Z</time>
      </trkpt>
      <trkpt lat="45.95751" lon="4.85137">
        <ele>276</ele>
        <time>2018-06-07T09:31:09Z</time>
      </trkpt>
      <trkpt lat="45.95757" lon="4.85143">
        <ele>277</ele>
        <time>2018-06-07T09:31:10Z</time>
      </trkpt>
      <trkpt lat="45.95758" lon="4.85151">
        <ele>277</ele>
        <time>2018-06-07T09:31:11Z</time>
      </trkpt>
      <trkpt lat="45.95761" lon="4.85155">
        <ele>277</ele>
        <time>2018-06-07T09:31:12Z</time>
      </trkpt>
      <trkpt lat="45.95768" lon="4.8516">
        <ele>277</ele>
        <time>2018-06-07T09:31:13Z</time>
      </trkpt>
      <trkpt lat="45.95774" lon="4.85166">
        <ele>276</ele>
        <time>2018-06-07T09:31:14Z</time>
      </trkpt>
      <trkpt lat="45.95777" lon="4.85173">
        <ele>277</ele>
        <time>2018-06-07T09:31:15Z</time>
      </trkpt>
      <trkpt lat="45.95783" lon="4.85176">
        <ele>276</ele>
        <time>2018-06-07T09:31:16Z</time>
      </trkpt>
      <trkpt lat="45.95789" lon="4.85185">
        <ele>276</ele>
        <time>2018-06-07T09:31:18Z</time>
      </trkpt>
      <trkpt lat="45.95793" lon="4.85188">
        <ele>276</ele>
        <time>2018-06-07T09:31:19Z</time>
      </trkpt>
      <trkpt lat="45.95798" lon="4.85196">
        <ele>276</ele>
        <time>2018-06-07T09:31:20Z</time>
      </trkpt>
      <trkpt lat="45.95804" lon="4.85203">
        <ele>275</ele>
        <time>2018-06-07T09:31:21Z</time>
      </trkpt>
      <trkpt lat="45.95809" lon="4.85211">
        <ele>275</ele>
        <time>2018-06-07T09:31:22Z</time>
      </trkpt>
      <trkpt lat="45.95815" lon="4.85212">
        <ele>275</ele>
        <time>2018-06-07T09:31:23Z</time>
      </trkpt>
      <trkpt lat="45.9582" lon="4.85219">
        <ele>275</ele>
        <time>2018-06-07T09:31:24Z</time>
      </trkpt>
      <trkpt lat="45.95826" lon="4.85221">
        <ele>274</ele>
        <time>2018-06-07T09:31:25Z</time>
      </trkpt>
      <trkpt lat="45.9583" lon="4.85227">
        <ele>274</ele>
        <time>2018-06-07T09:31:26Z</time>
      </trkpt>
      <trkpt lat="45.95835" lon="4.85236">
        <ele>271</ele>
        <time>2018-06-07T09:31:27Z</time>
      </trkpt>
      <trkpt lat="45.95839" lon="4.85243">
        <ele>271</ele>
        <time>2018-06-07T09:31:28Z</time>
      </trkpt>
      <trkpt lat="45.95841" lon="4.85249">
        <ele>271</ele>
        <time>2018-06-07T09:31:29Z</time>
      </trkpt>
      <trkpt lat="45.95844" lon="4.85255">
        <ele>271</ele>
        <time>2018-06-07T09:31:30Z</time>
      </trkpt>
      <trkpt lat="45.95847" lon="4.85262">
        <ele>271</ele>
        <time>2018-06-07T09:31:31Z</time>
      </trkpt>
      <trkpt lat="45.95851" lon="4.8527">
        <ele>270</ele>
        <time>2018-06-07T09:31:32Z</time>
      </trkpt>
      <trkpt lat="45.95854" lon="4.85276">
        <ele>270</ele>
        <time>2018-06-07T09:31:33Z</time>
      </trkpt>
      <trkpt lat="45.95858" lon="4.85284">
        <ele>270</ele>
        <time>2018-06-07T09:31:34Z</time>
      </trkpt>
      <trkpt lat="45.95861" lon="4.8529">
        <ele>270</ele>
        <time>2018-06-07T09:31:35Z</time>
      </trkpt>
      <trkpt lat="45.95865" lon="4.85298">
        <ele>269</ele>
        <time>2018-06-07T09:31:36Z</time>
      </trkpt>
      <trkpt lat="45.9587" lon="4.85304">
        <ele>269</ele>
        <time>2018-06-07T09:31:37Z</time>
      </trkpt>
      <trkpt lat="45.95874" lon="4.8531">
        <ele>269</ele>
        <time>2018-06-07T09:31:38Z</time>
      </trkpt>
      <trkpt lat="45.95879" lon="4.85315">
        <ele>269</ele>
        <time>2018-06-07T09:31:39Z</time>
      </trkpt>
      <trkpt lat="45.95886" lon="4.85321">
        <ele>269</ele>
        <time>2018-06-07T09:31:40Z</time>
      </trkpt>
      <trkpt lat="45.95891" lon="4.85327">
        <ele>269</ele>
        <time>2018-06-07T09:31:41Z</time>
      </trkpt>
      <trkpt lat="45.95897" lon="4.85331">
        <ele>268</ele>
        <time>2018-06-07T09:31:42Z</time>
      </trkpt>
      <trkpt lat="45.95902" lon="4.85335">
        <ele>267</ele>
        <time>2018-06-07T09:31:43Z</time>
      </trkpt>
      <trkpt lat="45.95909" lon="4.85339">
        <ele>267</ele>
        <time>2018-06-07T09:31:44Z</time>
      </trkpt>
      <trkpt lat="45.95915" lon="4.8534">
        <ele>267</ele>
        <time>2018-06-07T09:31:45Z</time>
      </trkpt>
      <trkpt lat="45.95922" lon="4.85341">
        <ele>266</ele>
        <time>2018-06-07T09:31:46Z</time>
      </trkpt>
      <trkpt lat="45.95928" lon="4.85343">
        <ele>266</ele>
        <time>2018-06-07T09:31:47Z</time>
      </trkpt>
      <trkpt lat="45.95934" lon="4.85345">
        <ele>266</ele>
        <time>2018-06-07T09:31:48Z</time>
      </trkpt>
      <trkpt lat="45.95941" lon="4.85346">
        <ele>266</ele>
        <time>2018-06-07T09:31:49Z</time>
      </trkpt>
      <trkpt lat="45.95948" lon="4.85346">
        <ele>266</ele>
        <time>2018-06-07T09:31:50Z</time>
      </trkpt>
      <trkpt lat="45.95955" lon="4.85346">
        <ele>266</ele>
        <time>2018-06-07T09:31:51Z</time>
      </trkpt>
      <trkpt lat="45.95963" lon="4.85346">
        <ele>265</ele>
        <time>2018-06-07T09:31:52Z</time>
      </trkpt>
      <trkpt lat="45.9597" lon="4.85347">
        <ele>265</ele>
        <time>2018-06-07T09:31:53Z</time>
      </trkpt>
      <trkpt lat="45.95979" lon="4.85349">
        <ele>265</ele>
        <time>2018-06-07T09:31:54Z</time>
      </trkpt>
      <trkpt lat="45.95987" lon="4.8535">
        <ele>265</ele>
        <time>2018-06-07T09:31:55Z</time>
      </trkpt>
      <trkpt lat="45.95994" lon="4.8535">
        <ele>265</ele>
        <time>2018-06-07T09:31:56Z</time>
      </trkpt>
      <trkpt lat="45.96001" lon="4.85351">
        <ele>264</ele>
        <time>2018-06-07T09:31:57Z</time>
      </trkpt>
      <trkpt lat="45.96009" lon="4.85352">
        <ele>264</ele>
        <time>2018-06-07T09:31:58Z</time>
      </trkpt>
      <trkpt lat="45.96016" lon="4.85354">
        <ele>263</ele>
        <time>2018-06-07T09:31:59Z</time>
      </trkpt>
      <trkpt lat="45.96025" lon="4.85351">
        <ele>263</ele>
        <time>2018-06-07T09:32:00Z</time>
      </trkpt>
      <trkpt lat="45.96033" lon="4.85352">
        <ele>263</ele>
        <time>2018-06-07T09:32:01Z</time>
      </trkpt>
      <trkpt lat="45.96043" lon="4.85355">
        <ele>262</ele>
        <time>2018-06-07T09:32:02Z</time>
      </trkpt>
      <trkpt lat="45.96051" lon="4.85356">
        <ele>262</ele>
        <time>2018-06-07T09:32:03Z</time>
      </trkpt>
      <trkpt lat="45.96062" lon="4.85355">
        <ele>262</ele>
        <time>2018-06-07T09:32:04Z</time>
      </trkpt>
      <trkpt lat="45.96071" lon="4.85355">
        <ele>262</ele>
        <time>2018-06-07T09:32:05Z</time>
      </trkpt>
      <trkpt lat="45.96082" lon="4.85351">
        <ele>261</ele>
        <time>2018-06-07T09:32:06Z</time>
      </trkpt>
      <trkpt lat="45.96089" lon="4.85358">
        <ele>259</ele>
        <time>2018-06-07T09:32:07Z</time>
      </trkpt>
      <trkpt lat="45.96098" lon="4.85366">
        <ele>259</ele>
        <time>2018-06-07T09:32:08Z</time>
      </trkpt>
      <trkpt lat="45.96107" lon="4.8537">
        <ele>259</ele>
        <time>2018-06-07T09:32:09Z</time>
      </trkpt>
      <trkpt lat="45.96117" lon="4.85373">
        <ele>258</ele>
        <time>2018-06-07T09:32:10Z</time>
      </trkpt>
      <trkpt lat="45.96126" lon="4.85376">
        <ele>258</ele>
        <time>2018-06-07T09:32:11Z</time>
      </trkpt>
      <trkpt lat="45.96135" lon="4.8538">
        <ele>258</ele>
        <time>2018-06-07T09:32:12Z</time>
      </trkpt>
      <trkpt lat="45.96143" lon="4.85384">
        <ele>258</ele>
        <time>2018-06-07T09:32:13Z</time>
      </trkpt>
      <trkpt lat="45.96152" lon="4.85388">
        <ele>258</ele>
        <time>2018-06-07T09:32:14Z</time>
      </trkpt>
      <trkpt lat="45.96159" lon="4.85393">
        <ele>258</ele>
        <time>2018-06-07T09:32:15Z</time>
      </trkpt>
      <trkpt lat="45.96166" lon="4.85398">
        <ele>258</ele>
        <time>2018-06-07T09:32:16Z</time>
      </trkpt>
      <trkpt lat="45.96173" lon="4.85404">
        <ele>258</ele>
        <time>2018-06-07T09:32:17Z</time>
      </trkpt>
      <trkpt lat="45.9618" lon="4.85408">
        <ele>258</ele>
        <time>2018-06-07T09:32:18Z</time>
      </trkpt>
      <trkpt lat="45.96189" lon="4.85411">
        <ele>258</ele>
        <time>2018-06-07T09:32:19Z</time>
      </trkpt>
      <trkpt lat="45.96193" lon="4.85418">
        <ele>260</ele>
        <time>2018-06-07T09:32:20Z</time>
      </trkpt>
      <trkpt lat="45.96198" lon="4.85423">
        <ele>260</ele>
        <time>2018-06-07T09:32:21Z</time>
      </trkpt>
      <trkpt lat="45.96201" lon="4.85428">
        <ele>260</ele>
        <time>2018-06-07T09:32:22Z</time>
      </trkpt>
      <trkpt lat="45.96206" lon="4.8543">
        <ele>260</ele>
        <time>2018-06-07T09:32:23Z</time>
      </trkpt>
      <trkpt lat="45.96211" lon="4.85433">
        <ele>261</ele>
        <time>2018-06-07T09:32:24Z</time>
      </trkpt>
      <trkpt lat="45.96215" lon="4.85436">
        <ele>261</ele>
        <time>2018-06-07T09:32:25Z</time>
      </trkpt>
      <trkpt lat="45.9622" lon="4.85438">
        <ele>261</ele>
        <time>2018-06-07T09:32:26Z</time>
      </trkpt>
      <trkpt lat="45.96225" lon="4.8544">
        <ele>261</ele>
        <time>2018-06-07T09:32:27Z</time>
      </trkpt>
      <trkpt lat="45.96232" lon="4.85444">
        <ele>261</ele>
        <time>2018-06-07T09:32:29Z</time>
      </trkpt>
      <trkpt lat="45.96236" lon="4.85443">
        <ele>261</ele>
        <time>2018-06-07T09:32:30Z</time>
      </trkpt>
      <trkpt lat="45.96242" lon="4.85446">
        <ele>261</ele>
        <time>2018-06-07T09:32:31Z</time>
      </trkpt>
      <trkpt lat="45.96245" lon="4.85448">
        <ele>261</ele>
        <time>2018-06-07T09:32:32Z</time>
      </trkpt>
      <trkpt lat="45.96253" lon="4.85452">
        <ele>264</ele>
        <time>2018-06-07T09:32:35Z</time>
      </trkpt>
      <trkpt lat="45.96258" lon="4.85453">
        <ele>264</ele>
        <time>2018-06-07T09:32:36Z</time>
      </trkpt>
      <trkpt lat="45.96264" lon="4.85455">
        <ele>264</ele>
        <time>2018-06-07T09:32:39Z</time>
      </trkpt>
      <trkpt lat="45.96272" lon="4.85457">
        <ele>264</ele>
        <time>2018-06-07T09:32:40Z</time>
      </trkpt>
      <trkpt lat="45.96279" lon="4.8546">
        <ele>265</ele>
        <time>2018-06-07T09:32:44Z</time>
      </trkpt>
      <trkpt lat="45.96282" lon="4.8546">
        <ele>265</ele>
        <time>2018-06-07T09:32:45Z</time>
      </trkpt>
      <trkpt lat="45.96289" lon="4.8546">
        <ele>265</ele>
        <time>2018-06-07T09:32:47Z</time>
      </trkpt>
      <trkpt lat="45.96292" lon="4.85461">
        <ele>265</ele>
        <time>2018-06-07T09:32:48Z</time>
      </trkpt>
      <trkpt lat="45.96298" lon="4.85462">
        <ele>265</ele>
        <time>2018-06-07T09:32:50Z</time>
      </trkpt>
      <trkpt lat="45.96307" lon="4.85464">
        <ele>265</ele>
        <time>2018-06-07T09:32:51Z</time>
      </trkpt>
      <trkpt lat="45.96314" lon="4.85464">
        <ele>265</ele>
        <time>2018-06-07T09:32:54Z</time>
      </trkpt>
      <trkpt lat="45.96316" lon="4.85465">
        <ele>265</ele>
        <time>2018-06-07T09:32:55Z</time>
      </trkpt>
      <trkpt lat="45.96323" lon="4.85465">
        <ele>265</ele>
        <time>2018-06-07T09:32:58Z</time>
      </trkpt>
      <trkpt lat="45.96326" lon="4.85466">
        <ele>265</ele>
        <time>2018-06-07T09:32:59Z</time>
      </trkpt>
      <trkpt lat="45.96328" lon="4.85466">
        <ele>265</ele>
        <time>2018-06-07T09:33:00Z</time>
      </trkpt>
      <trkpt lat="45.96338" lon="4.85467">
        <ele>268</ele>
        <time>2018-06-07T09:33:01Z</time>
      </trkpt>
      <trkpt lat="45.96345" lon="4.85467">
        <ele>268</ele>
        <time>2018-06-07T09:33:04Z</time>
      </trkpt>
      <trkpt lat="45.96348" lon="4.85467">
        <ele>268</ele>
        <time>2018-06-07T09:33:05Z</time>
      </trkpt>
      <trkpt lat="45.96357" lon="4.85467">
        <ele>268</ele>
        <time>2018-06-07T09:33:08Z</time>
      </trkpt>
      <trkpt lat="45.96359" lon="4.85468">
        <ele>268</ele>
        <time>2018-06-07T09:33:09Z</time>
      </trkpt>
      <trkpt lat="45.96368" lon="4.85469">
        <ele>268</ele>
        <time>2018-06-07T09:33:12Z</time>
      </trkpt>
      <trkpt lat="45.96371" lon="4.85469">
        <ele>268</ele>
        <time>2018-06-07T09:33:13Z</time>
      </trkpt>
      <trkpt lat="45.96376" lon="4.85468">
        <ele>268</ele>
        <time>2018-06-07T09:33:15Z</time>
      </trkpt>
      <trkpt lat="45.96385" lon="4.85466">
        <ele>268</ele>
        <time>2018-06-07T09:33:16Z</time>
      </trkpt>
      <trkpt lat="45.96392" lon="4.85465">
        <ele>269</ele>
        <time>2018-06-07T09:33:19Z</time>
      </trkpt>
      <trkpt lat="45.96398" lon="4.85465">
        <ele>269</ele>
        <time>2018-06-07T09:33:20Z</time>
      </trkpt>
      <trkpt lat="45.96401" lon="4.85466">
        <ele>269</ele>
        <time>2018-06-07T09:33:22Z</time>
      </trkpt>
      <trkpt lat="45.96408" lon="4.85467">
        <ele>269</ele>
        <time>2018-06-07T09:33:23Z</time>
      </trkpt>
      <trkpt lat="45.96416" lon="4.85469">
        <ele>269</ele>
        <time>2018-06-07T09:33:25Z</time>
      </trkpt>
      <trkpt lat="45.96418" lon="4.8547">
        <ele>271</ele>
        <time>2018-06-07T09:33:26Z</time>
      </trkpt>
      <trkpt lat="45.96424" lon="4.85471">
        <ele>271</ele>
        <time>2018-06-07T09:33:30Z</time>
      </trkpt>
      <trkpt lat="45.9643" lon="4.85473">
        <ele>271</ele>
        <time>2018-06-07T09:33:31Z</time>
      </trkpt>
      <trkpt lat="45.96438" lon="4.85474">
        <ele>271</ele>
        <time>2018-06-07T09:33:35Z</time>
      </trkpt>
      <trkpt lat="45.96441" lon="4.85474">
        <ele>272</ele>
        <time>2018-06-07T09:33:36Z</time>
      </trkpt>
      <trkpt lat="45.96448" lon="4.85475">
        <ele>272</ele>
        <time>2018-06-07T09:33:39Z</time>
      </trkpt>
      <trkpt lat="45.96451" lon="4.85476">
        <ele>272</ele>
        <time>2018-06-07T09:33:40Z</time>
      </trkpt>
      <trkpt lat="45.9646" lon="4.85478">
        <ele>272</ele>
        <time>2018-06-07T09:33:43Z</time>
      </trkpt>
      <trkpt lat="45.96463" lon="4.85478">
        <ele>272</ele>
        <time>2018-06-07T09:33:44Z</time>
      </trkpt>
      <trkpt lat="45.96469" lon="4.85478">
        <ele>272</ele>
        <time>2018-06-07T09:33:46Z</time>
      </trkpt>
      <trkpt lat="45.96472" lon="4.85478">
        <ele>272</ele>
        <time>2018-06-07T09:33:47Z</time>
      </trkpt>
      <trkpt lat="45.96483" lon="4.85478">
        <ele>273</ele>
        <time>2018-06-07T09:33:48Z</time>
      </trkpt>
      <trkpt lat="45.9649" lon="4.85477">
        <ele>273</ele>
        <time>2018-06-07T09:33:50Z</time>
      </trkpt>
      <trkpt lat="45.96492" lon="4.85477">
        <ele>273</ele>
        <time>2018-06-07T09:33:51Z</time>
      </trkpt>
      <trkpt lat="45.96499" lon="4.85475">
        <ele>273</ele>
        <time>2018-06-07T09:33:54Z</time>
      </trkpt>
      <trkpt lat="45.96501" lon="4.85474">
        <ele>275</ele>
        <time>2018-06-07T09:33:55Z</time>
      </trkpt>
      <trkpt lat="45.96509" lon="4.85472">
        <ele>275</ele>
        <time>2018-06-07T09:33:58Z</time>
      </trkpt>
      <trkpt lat="45.96512" lon="4.85471">
        <ele>275</ele>
        <time>2018-06-07T09:33:59Z</time>
      </trkpt>
      <trkpt lat="45.96519" lon="4.85469">
        <ele>275</ele>
        <time>2018-06-07T09:34:01Z</time>
      </trkpt>
      <trkpt lat="45.96521" lon="4.85468">
        <ele>275</ele>
        <time>2018-06-07T09:34:02Z</time>
      </trkpt>
      <trkpt lat="45.96528" lon="4.85465">
        <ele>275</ele>
        <time>2018-06-07T09:34:04Z</time>
      </trkpt>
      <trkpt lat="45.96531" lon="4.85464">
        <ele>275</ele>
        <time>2018-06-07T09:34:05Z</time>
      </trkpt>
      <trkpt lat="45.96537" lon="4.85461">
        <ele>275</ele>
        <time>2018-06-07T09:34:07Z</time>
      </trkpt>
      <trkpt lat="45.96541" lon="4.8546">
        <ele>275</ele>
        <time>2018-06-07T09:34:08Z</time>
      </trkpt>
      <trkpt lat="45.96547" lon="4.85458">
        <ele>275</ele>
        <time>2018-06-07T09:34:10Z</time>
      </trkpt>
      <trkpt lat="45.96551" lon="4.85457">
        <ele>275</ele>
        <time>2018-06-07T09:34:11Z</time>
      </trkpt>
      <trkpt lat="45.96558" lon="4.85455">
        <ele>275</ele>
        <time>2018-06-07T09:34:13Z</time>
      </trkpt>
      <trkpt lat="45.96561" lon="4.85454">
        <ele>275</ele>
        <time>2018-06-07T09:34:14Z</time>
      </trkpt>
      <trkpt lat="45.96568" lon="4.85453">
        <ele>275</ele>
        <time>2018-06-07T09:34:16Z</time>
      </trkpt>
      <trkpt lat="45.96571" lon="4.85452">
        <ele>275</ele>
        <time>2018-06-07T09:34:17Z</time>
      </trkpt>
      <trkpt lat="45.96575" lon="4.85451">
        <ele>275</ele>
        <time>2018-06-07T09:34:18Z</time>
      </trkpt>
      <trkpt lat="45.96585" lon="4.85449">
        <ele>276</ele>
        <time>2018-06-07T09:34:19Z</time>
      </trkpt>
      <trkpt lat="45.96592" lon="4.85447">
        <ele>276</ele>
        <time>2018-06-07T09:34:21Z</time>
      </trkpt>
      <trkpt lat="45.96596" lon="4.85446">
        <ele>276</ele>
        <time>2018-06-07T09:34:22Z</time>
      </trkpt>
      <trkpt lat="45.96605" lon="4.85443">
        <ele>276</ele>
        <time>2018-06-07T09:34:24Z</time>
      </trkpt>
      <trkpt lat="45.96608" lon="4.85441">
        <ele>276</ele>
        <time>2018-06-07T09:34:25Z</time>
      </trkpt>
      <trkpt lat="45.96616" lon="4.85439">
        <ele>276</ele>
        <time>2018-06-07T09:34:27Z</time>
      </trkpt>
      <trkpt lat="45.9662" lon="4.85438">
        <ele>276</ele>
        <time>2018-06-07T09:34:28Z</time>
      </trkpt>
      <trkpt lat="45.96627" lon="4.85436">
        <ele>276</ele>
        <time>2018-06-07T09:34:30Z</time>
      </trkpt>
      <trkpt lat="45.96629" lon="4.85435">
        <ele>276</ele>
        <time>2018-06-07T09:34:31Z</time>
      </trkpt>
      <trkpt lat="45.96634" lon="4.85434">
        <ele>276</ele>
        <time>2018-06-07T09:34:32Z</time>
      </trkpt>
      <trkpt lat="45.96638" lon="4.85432">
        <ele>276</ele>
        <time>2018-06-07T09:34:33Z</time>
      </trkpt>
      <trkpt lat="45.96646" lon="4.8543">
        <ele>276</ele>
        <time>2018-06-07T09:34:35Z</time>
      </trkpt>
      <trkpt lat="45.9665" lon="4.85428">
        <ele>276</ele>
        <time>2018-06-07T09:34:36Z</time>
      </trkpt>
      <trkpt lat="45.96659" lon="4.85426">
        <ele>276</ele>
        <time>2018-06-07T09:34:38Z</time>
      </trkpt>
      <trkpt lat="45.96663" lon="4.85425">
        <ele>276</ele>
        <time>2018-06-07T09:34:39Z</time>
      </trkpt>
      <trkpt lat="45.96672" lon="4.85422">
        <ele>276</ele>
        <time>2018-06-07T09:34:41Z</time>
      </trkpt>
      <trkpt lat="45.96676" lon="4.8542">
        <ele>276</ele>
        <time>2018-06-07T09:34:42Z</time>
      </trkpt>
      <trkpt lat="45.96684" lon="4.85417">
        <ele>276</ele>
        <time>2018-06-07T09:34:44Z</time>
      </trkpt>
      <trkpt lat="45.96687" lon="4.85415">
        <ele>276</ele>
        <time>2018-06-07T09:34:45Z</time>
      </trkpt>
      <trkpt lat="45.96695" lon="4.85412">
        <ele>276</ele>
        <time>2018-06-07T09:34:47Z</time>
      </trkpt>
      <trkpt lat="45.96698" lon="4.8541">
        <ele>276</ele>
        <time>2018-06-07T09:34:48Z</time>
      </trkpt>
      <trkpt lat="45.96706" lon="4.85405">
        <ele>276</ele>
        <time>2018-06-07T09:34:50Z</time>
      </trkpt>
      <trkpt lat="45.9671" lon="4.85404">
        <ele>276</ele>
        <time>2018-06-07T09:34:51Z</time>
      </trkpt>
      <trkpt lat="45.96716" lon="4.85399">
        <ele>276</ele>
        <time>2018-06-07T09:34:54Z</time>
      </trkpt>
      <trkpt lat="45.96722" lon="4.85395">
        <ele>276</ele>
        <time>2018-06-07T09:34:55Z</time>
      </trkpt>
      <trkpt lat="45.96728" lon="4.85389">
        <ele>276</ele>
        <time>2018-06-07T09:34:57Z</time>
      </trkpt>
      <trkpt lat="45.96732" lon="4.85385">
        <ele>276</ele>
        <time>2018-06-07T09:34:58Z</time>
      </trkpt>
      <trkpt lat="45.96736" lon="4.85381">
        <ele>276</ele>
        <time>2018-06-07T09:34:59Z</time>
      </trkpt>
      <trkpt lat="45.96739" lon="4.85378">
        <ele>276</ele>
        <time>2018-06-07T09:35:00Z</time>
      </trkpt>
      <trkpt lat="45.96746" lon="4.85373">
        <ele>277</ele>
        <time>2018-06-07T09:35:02Z</time>
      </trkpt>
      <trkpt lat="45.9675" lon="4.85371">
        <ele>278</ele>
        <time>2018-06-07T09:35:03Z</time>
      </trkpt>
      <trkpt lat="45.96757" lon="4.85365">
        <ele>278</ele>
        <time>2018-06-07T09:35:05Z</time>
      </trkpt>
      <trkpt lat="45.96758" lon="4.85364">
        <ele>278</ele>
        <time>2018-06-07T09:35:06Z</time>
      </trkpt>
      <trkpt lat="45.96766" lon="4.85358">
        <ele>278</ele>
        <time>2018-06-07T09:35:09Z</time>
      </trkpt>
      <trkpt lat="45.96768" lon="4.85356">
        <ele>278</ele>
        <time>2018-06-07T09:35:10Z</time>
      </trkpt>
      <trkpt lat="45.96774" lon="4.85353">
        <ele>278</ele>
        <time>2018-06-07T09:35:12Z</time>
      </trkpt>
      <trkpt lat="45.96777" lon="4.85351">
        <ele>278</ele>
        <time>2018-06-07T09:35:13Z</time>
      </trkpt>
      <trkpt lat="45.96783" lon="4.85347">
        <ele>278</ele>
        <time>2018-06-07T09:35:15Z</time>
      </trkpt>
      <trkpt lat="45.96786" lon="4.85346">
        <ele>278</ele>
        <time>2018-06-07T09:35:16Z</time>
      </trkpt>
      <trkpt lat="45.96792" lon="4.85342">
        <ele>279</ele>
        <time>2018-06-07T09:35:18Z</time>
      </trkpt>
      <trkpt lat="45.96795" lon="4.8534">
        <ele>279</ele>
        <time>2018-06-07T09:35:19Z</time>
      </trkpt>
      <trkpt lat="45.96802" lon="4.85337">
        <ele>279</ele>
        <time>2018-06-07T09:35:21Z</time>
      </trkpt>
      <trkpt lat="45.96805" lon="4.85335">
        <ele>279</ele>
        <time>2018-06-07T09:35:22Z</time>
      </trkpt>
      <trkpt lat="45.96811" lon="4.85333">
        <ele>279</ele>
        <time>2018-06-07T09:35:24Z</time>
      </trkpt>
      <trkpt lat="45.96814" lon="4.85332">
        <ele>279</ele>
        <time>2018-06-07T09:35:25Z</time>
      </trkpt>
      <trkpt lat="45.96821" lon="4.8533">
        <ele>279</ele>
        <time>2018-06-07T09:35:27Z</time>
      </trkpt>
      <trkpt lat="45.96825" lon="4.85329">
        <ele>279</ele>
        <time>2018-06-07T09:35:28Z</time>
      </trkpt>
      <trkpt lat="45.96832" lon="4.85327">
        <ele>280</ele>
        <time>2018-06-07T09:35:30Z</time>
      </trkpt>
      <trkpt lat="45.96835" lon="4.85326">
        <ele>281</ele>
        <time>2018-06-07T09:35:31Z</time>
      </trkpt>
      <trkpt lat="45.96842" lon="4.85324">
        <ele>281</ele>
        <time>2018-06-07T09:35:33Z</time>
      </trkpt>
      <trkpt lat="45.96845" lon="4.85323">
        <ele>281</ele>
        <time>2018-06-07T09:35:34Z</time>
      </trkpt>
      <trkpt lat="45.96851" lon="4.85321">
        <ele>282</ele>
        <time>2018-06-07T09:35:36Z</time>
      </trkpt>
      <trkpt lat="45.96854" lon="4.8532">
        <ele>282</ele>
        <time>2018-06-07T09:35:37Z</time>
      </trkpt>
      <trkpt lat="45.9686" lon="4.85318">
        <ele>282</ele>
        <time>2018-06-07T09:35:39Z</time>
      </trkpt>
      <trkpt lat="45.96863" lon="4.85316">
        <ele>282</ele>
        <time>2018-06-07T09:35:40Z</time>
      </trkpt>
      <trkpt lat="45.96869" lon="4.85314">
        <ele>282</ele>
        <time>2018-06-07T09:35:42Z</time>
      </trkpt>
      <trkpt lat="45.96872" lon="4.85313">
        <ele>283</ele>
        <time>2018-06-07T09:35:43Z</time>
      </trkpt>
      <trkpt lat="45.96881" lon="4.8531">
        <ele>283</ele>
        <time>2018-06-07T09:35:46Z</time>
      </trkpt>
      <trkpt lat="45.96884" lon="4.85309">
        <ele>283</ele>
        <time>2018-06-07T09:35:47Z</time>
      </trkpt>
      <trkpt lat="45.96892" lon="4.85305">
        <ele>283</ele>
        <time>2018-06-07T09:35:50Z</time>
      </trkpt>
      <trkpt lat="45.96895" lon="4.85305">
        <ele>283</ele>
        <time>2018-06-07T09:35:51Z</time>
      </trkpt>
      <trkpt lat="45.96901" lon="4.85303">
        <ele>284</ele>
        <time>2018-06-07T09:35:53Z</time>
      </trkpt>
      <trkpt lat="45.96904" lon="4.85302">
        <ele>284</ele>
        <time>2018-06-07T09:35:54Z</time>
      </trkpt>
      <trkpt lat="45.96911" lon="4.853">
        <ele>284</ele>
        <time>2018-06-07T09:35:56Z</time>
      </trkpt>
      <trkpt lat="45.96914" lon="4.853">
        <ele>284</ele>
        <time>2018-06-07T09:35:57Z</time>
      </trkpt>
      <trkpt lat="45.9692" lon="4.85299">
        <ele>285</ele>
        <time>2018-06-07T09:35:59Z</time>
      </trkpt>
      <trkpt lat="45.96923" lon="4.85299">
        <ele>284</ele>
        <time>2018-06-07T09:36:00Z</time>
      </trkpt>
      <trkpt lat="45.96929" lon="4.85299">
        <ele>284</ele>
        <time>2018-06-07T09:36:02Z</time>
      </trkpt>
      <trkpt lat="45.96932" lon="4.85298">
        <ele>284</ele>
        <time>2018-06-07T09:36:03Z</time>
      </trkpt>
      <trkpt lat="45.96938" lon="4.85297">
        <ele>284</ele>
        <time>2018-06-07T09:36:05Z</time>
      </trkpt>
      <trkpt lat="45.96948" lon="4.85295">
        <ele>284</ele>
        <time>2018-06-07T09:36:06Z</time>
      </trkpt>
      <trkpt lat="45.96956" lon="4.85292">
        <ele>284</ele>
        <time>2018-06-07T09:36:08Z</time>
      </trkpt>
      <trkpt lat="45.9696" lon="4.85291">
        <ele>284</ele>
        <time>2018-06-07T09:36:09Z</time>
      </trkpt>
      <trkpt lat="45.96968" lon="4.85289">
        <ele>284</ele>
        <time>2018-06-07T09:36:11Z</time>
      </trkpt>
      <trkpt lat="45.96973" lon="4.85288">
        <ele>284</ele>
        <time>2018-06-07T09:36:12Z</time>
      </trkpt>
      <trkpt lat="45.96977" lon="4.85287">
        <ele>284</ele>
        <time>2018-06-07T09:36:13Z</time>
      </trkpt>
      <trkpt lat="45.96982" lon="4.85287">
        <ele>284</ele>
        <time>2018-06-07T09:36:14Z</time>
      </trkpt>
      <trkpt lat="45.96987" lon="4.85287">
        <ele>284</ele>
        <time>2018-06-07T09:36:15Z</time>
      </trkpt>
      <trkpt lat="45.96992" lon="4.85285">
        <ele>284</ele>
        <time>2018-06-07T09:36:16Z</time>
      </trkpt>
      <trkpt lat="45.96997" lon="4.85284">
        <ele>283</ele>
        <time>2018-06-07T09:36:17Z</time>
      </trkpt>
      <trkpt lat="45.97002" lon="4.85282">
        <ele>282</ele>
        <time>2018-06-07T09:36:18Z</time>
      </trkpt>
      <trkpt lat="45.97007" lon="4.85281">
        <ele>282</ele>
        <time>2018-06-07T09:36:19Z</time>
      </trkpt>
      <trkpt lat="45.97012" lon="4.85281">
        <ele>282</ele>
        <time>2018-06-07T09:36:20Z</time>
      </trkpt>
      <trkpt lat="45.97018" lon="4.85279">
        <ele>282</ele>
        <time>2018-06-07T09:36:21Z</time>
      </trkpt>
      <trkpt lat="45.97025" lon="4.85277">
        <ele>282</ele>
        <time>2018-06-07T09:36:22Z</time>
      </trkpt>
      <trkpt lat="45.97032" lon="4.85276">
        <ele>282</ele>
        <time>2018-06-07T09:36:23Z</time>
      </trkpt>
      <trkpt lat="45.97038" lon="4.85275">
        <ele>282</ele>
        <time>2018-06-07T09:36:24Z</time>
      </trkpt>
      <trkpt lat="45.97044" lon="4.85273">
        <ele>282</ele>
        <time>2018-06-07T09:36:25Z</time>
      </trkpt>
      <trkpt lat="45.97051" lon="4.85273">
        <ele>282</ele>
        <time>2018-06-07T09:36:26Z</time>
      </trkpt>
      <trkpt lat="45.97058" lon="4.85272">
        <ele>282</ele>
        <time>2018-06-07T09:36:27Z</time>
      </trkpt>
      <trkpt lat="45.97065" lon="4.8527">
        <ele>282</ele>
        <time>2018-06-07T09:36:28Z</time>
      </trkpt>
      <trkpt lat="45.97073" lon="4.85269">
        <ele>281</ele>
        <time>2018-06-07T09:36:29Z</time>
      </trkpt>
      <trkpt lat="45.97079" lon="4.85267">
        <ele>281</ele>
        <time>2018-06-07T09:36:30Z</time>
      </trkpt>
      <trkpt lat="45.97086" lon="4.85267">
        <ele>280</ele>
        <time>2018-06-07T09:36:31Z</time>
      </trkpt>
      <trkpt lat="45.97092" lon="4.85267">
        <ele>280</ele>
        <time>2018-06-07T09:36:32Z</time>
      </trkpt>
      <trkpt lat="45.97099" lon="4.85267">
        <ele>280</ele>
        <time>2018-06-07T09:36:33Z</time>
      </trkpt>
      <trkpt lat="45.97104" lon="4.85268">
        <ele>280</ele>
        <time>2018-06-07T09:36:34Z</time>
      </trkpt>
      <trkpt lat="45.97109" lon="4.85268">
        <ele>280</ele>
        <time>2018-06-07T09:36:35Z</time>
      </trkpt>
      <trkpt lat="45.97114" lon="4.85269">
        <ele>280</ele>
        <time>2018-06-07T09:36:36Z</time>
      </trkpt>
      <trkpt lat="45.97119" lon="4.8527">
        <ele>280</ele>
        <time>2018-06-07T09:36:37Z</time>
      </trkpt>
      <trkpt lat="45.97124" lon="4.85272">
        <ele>280</ele>
        <time>2018-06-07T09:36:38Z</time>
      </trkpt>
      <trkpt lat="45.97129" lon="4.85272">
        <ele>279</ele>
        <time>2018-06-07T09:36:39Z</time>
      </trkpt>
      <trkpt lat="45.97134" lon="4.85272">
        <ele>279</ele>
        <time>2018-06-07T09:36:40Z</time>
      </trkpt>
      <trkpt lat="45.9714" lon="4.85272">
        <ele>279</ele>
        <time>2018-06-07T09:36:41Z</time>
      </trkpt>
      <trkpt lat="45.97145" lon="4.85272">
        <ele>279</ele>
        <time>2018-06-07T09:36:42Z</time>
      </trkpt>
      <trkpt lat="45.97151" lon="4.85272">
        <ele>279</ele>
        <time>2018-06-07T09:36:43Z</time>
      </trkpt>
      <trkpt lat="45.97157" lon="4.85269">
        <ele>279</ele>
        <time>2018-06-07T09:36:44Z</time>
      </trkpt>
      <trkpt lat="45.97163" lon="4.85268">
        <ele>279</ele>
        <time>2018-06-07T09:36:45Z</time>
      </trkpt>
      <trkpt lat="45.97169" lon="4.85268">
        <ele>279</ele>
        <time>2018-06-07T09:36:46Z</time>
      </trkpt>
      <trkpt lat="45.97174" lon="4.85268">
        <ele>279</ele>
        <time>2018-06-07T09:36:47Z</time>
      </trkpt>
      <trkpt lat="45.97179" lon="4.85268">
        <ele>279</ele>
        <time>2018-06-07T09:36:48Z</time>
      </trkpt>
      <trkpt lat="45.97185" lon="4.85268">
        <ele>279</ele>
        <time>2018-06-07T09:36:49Z</time>
      </trkpt>
      <trkpt lat="45.9719" lon="4.85268">
        <ele>279</ele>
        <time>2018-06-07T09:36:50Z</time>
      </trkpt>
      <trkpt lat="45.97195" lon="4.85267">
        <ele>279</ele>
        <time>2018-06-07T09:36:51Z</time>
      </trkpt>
      <trkpt lat="45.97201" lon="4.85267">
        <ele>279</ele>
        <time>2018-06-07T09:36:52Z</time>
      </trkpt>
      <trkpt lat="45.97207" lon="4.85266">
        <ele>279</ele>
        <time>2018-06-07T09:36:53Z</time>
      </trkpt>
      <trkpt lat="45.97212" lon="4.85266">
        <ele>279</ele>
        <time>2018-06-07T09:36:54Z</time>
      </trkpt>
      <trkpt lat="45.97218" lon="4.85265">
        <ele>279</ele>
        <time>2018-06-07T09:36:55Z</time>
      </trkpt>
      <trkpt lat="45.97224" lon="4.85264">
        <ele>279</ele>
        <time>2018-06-07T09:36:56Z</time>
      </trkpt>
      <trkpt lat="45.97229" lon="4.85266">
        <ele>279</ele>
        <time>2018-06-07T09:36:57Z</time>
      </trkpt>
      <trkpt lat="45.97235" lon="4.85265">
        <ele>279</ele>
        <time>2018-06-07T09:36:58Z</time>
      </trkpt>
      <trkpt lat="45.9724" lon="4.85265">
        <ele>279</ele>
        <time>2018-06-07T09:36:59Z</time>
      </trkpt>
      <trkpt lat="45.97246" lon="4.85265">
        <ele>279</ele>
        <time>2018-06-07T09:37:00Z</time>
      </trkpt>
      <trkpt lat="45.97252" lon="4.85266">
        <ele>280</ele>
        <time>2018-06-07T09:37:01Z</time>
      </trkpt>
      <trkpt lat="45.97257" lon="4.85267">
        <ele>280</ele>
        <time>2018-06-07T09:37:02Z</time>
      </trkpt>
      <trkpt lat="45.97262" lon="4.85267">
        <ele>281</ele>
        <time>2018-06-07T09:37:03Z</time>
      </trkpt>
      <trkpt lat="45.97267" lon="4.85266">
        <ele>281</ele>
        <time>2018-06-07T09:37:04Z</time>
      </trkpt>
      <trkpt lat="45.97273" lon="4.85268">
        <ele>281</ele>
        <time>2018-06-07T09:37:05Z</time>
      </trkpt>
      <trkpt lat="45.97278" lon="4.8527">
        <ele>281</ele>
        <time>2018-06-07T09:37:06Z</time>
      </trkpt>
      <trkpt lat="45.97284" lon="4.85273">
        <ele>281</ele>
        <time>2018-06-07T09:37:07Z</time>
      </trkpt>
      <trkpt lat="45.9729" lon="4.85273">
        <ele>282</ele>
        <time>2018-06-07T09:37:08Z</time>
      </trkpt>
      <trkpt lat="45.97296" lon="4.85275">
        <ele>282</ele>
        <time>2018-06-07T09:37:09Z</time>
      </trkpt>
      <trkpt lat="45.97301" lon="4.85274">
        <ele>282</ele>
        <time>2018-06-07T09:37:10Z</time>
      </trkpt>
      <trkpt lat="45.97306" lon="4.85275">
        <ele>282</ele>
        <time>2018-06-07T09:37:11Z</time>
      </trkpt>
      <trkpt lat="45.97311" lon="4.85277">
        <ele>282</ele>
        <time>2018-06-07T09:37:12Z</time>
      </trkpt>
      <trkpt lat="45.97317" lon="4.85274">
        <ele>282</ele>
        <time>2018-06-07T09:37:13Z</time>
      </trkpt>
      <trkpt lat="45.97322" lon="4.85273">
        <ele>282</ele>
        <time>2018-06-07T09:37:14Z</time>
      </trkpt>
      <trkpt lat="45.97327" lon="4.85272">
        <ele>282</ele>
        <time>2018-06-07T09:37:15Z</time>
      </trkpt>
      <trkpt lat="45.97332" lon="4.85272">
        <ele>282</ele>
        <time>2018-06-07T09:37:16Z</time>
      </trkpt>
      <trkpt lat="45.97338" lon="4.85271">
        <ele>284</ele>
        <time>2018-06-07T09:37:17Z</time>
      </trkpt>
      <trkpt lat="45.97344" lon="4.85271">
        <ele>284</ele>
        <time>2018-06-07T09:37:18Z</time>
      </trkpt>
      <trkpt lat="45.97351" lon="4.85273">
        <ele>284</ele>
        <time>2018-06-07T09:37:20Z</time>
      </trkpt>
      <trkpt lat="45.97357" lon="4.85273">
        <ele>284</ele>
        <time>2018-06-07T09:37:21Z</time>
      </trkpt>
      <trkpt lat="45.97365" lon="4.85274">
        <ele>285</ele>
        <time>2018-06-07T09:37:23Z</time>
      </trkpt>
      <trkpt lat="45.97372" lon="4.85276">
        <ele>285</ele>
        <time>2018-06-07T09:37:24Z</time>
      </trkpt>
      <trkpt lat="45.97379" lon="4.8528">
        <ele>285</ele>
        <time>2018-06-07T09:37:25Z</time>
      </trkpt>
      <trkpt lat="45.97384" lon="4.85279">
        <ele>285</ele>
        <time>2018-06-07T09:37:26Z</time>
      </trkpt>
      <trkpt lat="45.97391" lon="4.85276">
        <ele>286</ele>
        <time>2018-06-07T09:37:27Z</time>
      </trkpt>
      <trkpt lat="45.97397" lon="4.85277">
        <ele>286</ele>
        <time>2018-06-07T09:37:28Z</time>
      </trkpt>
      <trkpt lat="45.97404" lon="4.85277">
        <ele>286</ele>
        <time>2018-06-07T09:37:30Z</time>
      </trkpt>
      <trkpt lat="45.97407" lon="4.85277">
        <ele>286</ele>
        <time>2018-06-07T09:37:31Z</time>
      </trkpt>
      <trkpt lat="45.9741" lon="4.85276">
        <ele>286</ele>
        <time>2018-06-07T09:37:32Z</time>
      </trkpt>
      <trkpt lat="45.97417" lon="4.85279">
        <ele>285</ele>
        <time>2018-06-07T09:37:33Z</time>
      </trkpt>
      <trkpt lat="45.9742" lon="4.85277">
        <ele>285</ele>
        <time>2018-06-07T09:37:34Z</time>
      </trkpt>
      <trkpt lat="45.97428" lon="4.85276">
        <ele>285</ele>
        <time>2018-06-07T09:37:35Z</time>
      </trkpt>
      <trkpt lat="45.97436" lon="4.85276">
        <ele>285</ele>
        <time>2018-06-07T09:37:36Z</time>
      </trkpt>
      <trkpt lat="45.97443" lon="4.85275">
        <ele>285</ele>
        <time>2018-06-07T09:37:37Z</time>
      </trkpt>
      <trkpt lat="45.97453" lon="4.85272">
        <ele>284</ele>
        <time>2018-06-07T09:37:38Z</time>
      </trkpt>
      <trkpt lat="45.97462" lon="4.85272">
        <ele>284</ele>
        <time>2018-06-07T09:37:39Z</time>
      </trkpt>
      <trkpt lat="45.9747" lon="4.85271">
        <ele>284</ele>
        <time>2018-06-07T09:37:40Z</time>
      </trkpt>
      <trkpt lat="45.97477" lon="4.8527">
        <ele>284</ele>
        <time>2018-06-07T09:37:41Z</time>
      </trkpt>
      <trkpt lat="45.97482" lon="4.8527">
        <ele>284</ele>
        <time>2018-06-07T09:37:42Z</time>
      </trkpt>
      <trkpt lat="45.97488" lon="4.8527">
        <ele>283</ele>
        <time>2018-06-07T09:37:43Z</time>
      </trkpt>
      <trkpt lat="45.97494" lon="4.85269">
        <ele>283</ele>
        <time>2018-06-07T09:37:44Z</time>
      </trkpt>
      <trkpt lat="45.975" lon="4.85269">
        <ele>282</ele>
        <time>2018-06-07T09:37:45Z</time>
      </trkpt>
      <trkpt lat="45.97507" lon="4.85267">
        <ele>282</ele>
        <time>2018-06-07T09:37:46Z</time>
      </trkpt>
      <trkpt lat="45.97513" lon="4.85268">
        <ele>281</ele>
        <time>2018-06-07T09:37:47Z</time>
      </trkpt>
      <trkpt lat="45.97519" lon="4.85267">
        <ele>281</ele>
        <time>2018-06-07T09:37:48Z</time>
      </trkpt>
      <trkpt lat="45.97525" lon="4.85267">
        <ele>281</ele>
        <time>2018-06-07T09:37:49Z</time>
      </trkpt>
      <trkpt lat="45.97531" lon="4.85267">
        <ele>281</ele>
        <time>2018-06-07T09:37:50Z</time>
      </trkpt>
      <trkpt lat="45.97536" lon="4.85268">
        <ele>281</ele>
        <time>2018-06-07T09:37:51Z</time>
      </trkpt>
      <trkpt lat="45.97542" lon="4.85268">
        <ele>281</ele>
        <time>2018-06-07T09:37:52Z</time>
      </trkpt>
      <trkpt lat="45.97548" lon="4.85267">
        <ele>281</ele>
        <time>2018-06-07T09:37:53Z</time>
      </trkpt>
      <trkpt lat="45.97553" lon="4.85267">
        <ele>281</ele>
        <time>2018-06-07T09:37:54Z</time>
      </trkpt>
      <trkpt lat="45.97559" lon="4.85264">
        <ele>281</ele>
        <time>2018-06-07T09:37:55Z</time>
      </trkpt>
      <trkpt lat="45.97565" lon="4.85263">
        <ele>281</ele>
        <time>2018-06-07T09:37:56Z</time>
      </trkpt>
      <trkpt lat="45.97569" lon="4.85255">
        <ele>281</ele>
        <time>2018-06-07T09:37:57Z</time>
      </trkpt>
      <trkpt lat="45.97576" lon="4.85253">
        <ele>282</ele>
        <time>2018-06-07T09:37:58Z</time>
      </trkpt>
      <trkpt lat="45.97582" lon="4.85253">
        <ele>282</ele>
        <time>2018-06-07T09:37:59Z</time>
      </trkpt>
      <trkpt lat="45.97588" lon="4.85252">
        <ele>281</ele>
        <time>2018-06-07T09:38:00Z</time>
      </trkpt>
      <trkpt lat="45.97595" lon="4.8525">
        <ele>280</ele>
        <time>2018-06-07T09:38:01Z</time>
      </trkpt>
      <trkpt lat="45.976" lon="4.85251">
        <ele>280</ele>
        <time>2018-06-07T09:38:02Z</time>
      </trkpt>
      <trkpt lat="45.97606" lon="4.85251">
        <ele>279</ele>
        <time>2018-06-07T09:38:03Z</time>
      </trkpt>
      <trkpt lat="45.97612" lon="4.85251">
        <ele>279</ele>
        <time>2018-06-07T09:38:04Z</time>
      </trkpt>
      <trkpt lat="45.97619" lon="4.8525">
        <ele>280</ele>
        <time>2018-06-07T09:38:05Z</time>
      </trkpt>
      <trkpt lat="45.97624" lon="4.8525">
        <ele>280</ele>
        <time>2018-06-07T09:38:06Z</time>
      </trkpt>
      <trkpt lat="45.9763" lon="4.8525">
        <ele>279</ele>
        <time>2018-06-07T09:38:07Z</time>
      </trkpt>
      <trkpt lat="45.97636" lon="4.85249">
        <ele>279</ele>
        <time>2018-06-07T09:38:08Z</time>
      </trkpt>
      <trkpt lat="45.97642" lon="4.85247">
        <ele>278</ele>
        <time>2018-06-07T09:38:09Z</time>
      </trkpt>
      <trkpt lat="45.97648" lon="4.85248">
        <ele>278</ele>
        <time>2018-06-07T09:38:10Z</time>
      </trkpt>
      <trkpt lat="45.97654" lon="4.85246">
        <ele>278</ele>
        <time>2018-06-07T09:38:11Z</time>
      </trkpt>
      <trkpt lat="45.9766" lon="4.85246">
        <ele>277</ele>
        <time>2018-06-07T09:38:12Z</time>
      </trkpt>
      <trkpt lat="45.97667" lon="4.85248">
        <ele>276</ele>
        <time>2018-06-07T09:38:13Z</time>
      </trkpt>
      <trkpt lat="45.97673" lon="4.85248">
        <ele>276</ele>
        <time>2018-06-07T09:38:14Z</time>
      </trkpt>
      <trkpt lat="45.97679" lon="4.85248">
        <ele>276</ele>
        <time>2018-06-07T09:38:15Z</time>
      </trkpt>
      <trkpt lat="45.97685" lon="4.85247">
        <ele>276</ele>
        <time>2018-06-07T09:38:16Z</time>
      </trkpt>
      <trkpt lat="45.9769" lon="4.85247">
        <ele>275</ele>
        <time>2018-06-07T09:38:17Z</time>
      </trkpt>
      <trkpt lat="45.97695" lon="4.85247">
        <ele>275</ele>
        <time>2018-06-07T09:38:18Z</time>
      </trkpt>
      <trkpt lat="45.97701" lon="4.85247">
        <ele>275</ele>
        <time>2018-06-07T09:38:19Z</time>
      </trkpt>
      <trkpt lat="45.97706" lon="4.85247">
        <ele>275</ele>
        <time>2018-06-07T09:38:20Z</time>
      </trkpt>
      <trkpt lat="45.97711" lon="4.85247">
        <ele>275</ele>
        <time>2018-06-07T09:38:21Z</time>
      </trkpt>
      <trkpt lat="45.97717" lon="4.85246">
        <ele>275</ele>
        <time>2018-06-07T09:38:22Z</time>
      </trkpt>
      <trkpt lat="45.97724" lon="4.85246">
        <ele>275</ele>
        <time>2018-06-07T09:38:23Z</time>
      </trkpt>
      <trkpt lat="45.9773" lon="4.85247">
        <ele>275</ele>
        <time>2018-06-07T09:38:24Z</time>
      </trkpt>
      <trkpt lat="45.97737" lon="4.85246">
        <ele>275</ele>
        <time>2018-06-07T09:38:25Z</time>
      </trkpt>
      <trkpt lat="45.97743" lon="4.85246">
        <ele>274</ele>
        <time>2018-06-07T09:38:26Z</time>
      </trkpt>
      <trkpt lat="45.97749" lon="4.85244">
        <ele>274</ele>
        <time>2018-06-07T09:38:27Z</time>
      </trkpt>
      <trkpt lat="45.97754" lon="4.85243">
        <ele>274</ele>
        <time>2018-06-07T09:38:28Z</time>
      </trkpt>
      <trkpt lat="45.97759" lon="4.85241">
        <ele>274</ele>
        <time>2018-06-07T09:38:29Z</time>
      </trkpt>
      <trkpt lat="45.97764" lon="4.85241">
        <ele>274</ele>
        <time>2018-06-07T09:38:30Z</time>
      </trkpt>
      <trkpt lat="45.97769" lon="4.8524">
        <ele>274</ele>
        <time>2018-06-07T09:38:31Z</time>
      </trkpt>
      <trkpt lat="45.97773" lon="4.8524">
        <ele>274</ele>
        <time>2018-06-07T09:38:32Z</time>
      </trkpt>
      <trkpt lat="45.97779" lon="4.8524">
        <ele>274</ele>
        <time>2018-06-07T09:38:33Z</time>
      </trkpt>
      <trkpt lat="45.97784" lon="4.8524">
        <ele>274</ele>
        <time>2018-06-07T09:38:34Z</time>
      </trkpt>
      <trkpt lat="45.97788" lon="4.85241">
        <ele>274</ele>
        <time>2018-06-07T09:38:35Z</time>
      </trkpt>
      <trkpt lat="45.97793" lon="4.85238">
        <ele>274</ele>
        <time>2018-06-07T09:38:36Z</time>
      </trkpt>
      <trkpt lat="45.97799" lon="4.85235">
        <ele>274</ele>
        <time>2018-06-07T09:38:37Z</time>
      </trkpt>
      <trkpt lat="45.97804" lon="4.85234">
        <ele>274</ele>
        <time>2018-06-07T09:38:38Z</time>
      </trkpt>
      <trkpt lat="45.9781" lon="4.85232">
        <ele>274</ele>
        <time>2018-06-07T09:38:39Z</time>
      </trkpt>
      <trkpt lat="45.97816" lon="4.85231">
        <ele>274</ele>
        <time>2018-06-07T09:38:40Z</time>
      </trkpt>
      <trkpt lat="45.97821" lon="4.85232">
        <ele>275</ele>
        <time>2018-06-07T09:38:41Z</time>
      </trkpt>
      <trkpt lat="45.97827" lon="4.85233">
        <ele>275</ele>
        <time>2018-06-07T09:38:42Z</time>
      </trkpt>
      <trkpt lat="45.97833" lon="4.85231">
        <ele>275</ele>
        <time>2018-06-07T09:38:43Z</time>
      </trkpt>
      <trkpt lat="45.97838" lon="4.85231">
        <ele>275</ele>
        <time>2018-06-07T09:38:44Z</time>
      </trkpt>
      <trkpt lat="45.97843" lon="4.8523">
        <ele>275</ele>
        <time>2018-06-07T09:38:45Z</time>
      </trkpt>
      <trkpt lat="45.97848" lon="4.85229">
        <ele>275</ele>
        <time>2018-06-07T09:38:46Z</time>
      </trkpt>
      <trkpt lat="45.97854" lon="4.85229">
        <ele>275</ele>
        <time>2018-06-07T09:38:47Z</time>
      </trkpt>
      <trkpt lat="45.9786" lon="4.85228">
        <ele>275</ele>
        <time>2018-06-07T09:38:48Z</time>
      </trkpt>
      <trkpt lat="45.97866" lon="4.85227">
        <ele>275</ele>
        <time>2018-06-07T09:38:49Z</time>
      </trkpt>
      <trkpt lat="45.97872" lon="4.85228">
        <ele>275</ele>
        <time>2018-06-07T09:38:50Z</time>
      </trkpt>
      <trkpt lat="45.97878" lon="4.85228">
        <ele>275</ele>
        <time>2018-06-07T09:38:51Z</time>
      </trkpt>
      <trkpt lat="45.97885" lon="4.85228">
        <ele>275</ele>
        <time>2018-06-07T09:38:52Z</time>
      </trkpt>
      <trkpt lat="45.97891" lon="4.85228">
        <ele>275</ele>
        <time>2018-06-07T09:38:53Z</time>
      </trkpt>
      <trkpt lat="45.97898" lon="4.85227">
        <ele>275</ele>
        <time>2018-06-07T09:38:54Z</time>
      </trkpt>
      <trkpt lat="45.97904" lon="4.85225">
        <ele>275</ele>
        <time>2018-06-07T09:38:55Z</time>
      </trkpt>
      <trkpt lat="45.97909" lon="4.85225">
        <ele>275</ele>
        <time>2018-06-07T09:38:56Z</time>
      </trkpt>
      <trkpt lat="45.97914" lon="4.85226">
        <ele>275</ele>
        <time>2018-06-07T09:38:57Z</time>
      </trkpt>
      <trkpt lat="45.9792" lon="4.85226">
        <ele>276</ele>
        <time>2018-06-07T09:38:58Z</time>
      </trkpt>
      <trkpt lat="45.97924" lon="4.85225">
        <ele>276</ele>
        <time>2018-06-07T09:38:59Z</time>
      </trkpt>
      <trkpt lat="45.97929" lon="4.85225">
        <ele>276</ele>
        <time>2018-06-07T09:39:00Z</time>
      </trkpt>
      <trkpt lat="45.97935" lon="4.85223">
        <ele>276</ele>
        <time>2018-06-07T09:39:01Z</time>
      </trkpt>
      <trkpt lat="45.9794" lon="4.85222">
        <ele>276</ele>
        <time>2018-06-07T09:39:02Z</time>
      </trkpt>
      <trkpt lat="45.97946" lon="4.85223">
        <ele>276</ele>
        <time>2018-06-07T09:39:03Z</time>
      </trkpt>
      <trkpt lat="45.97952" lon="4.85222">
        <ele>276</ele>
        <time>2018-06-07T09:39:04Z</time>
      </trkpt>
      <trkpt lat="45.97958" lon="4.8522">
        <ele>276</ele>
        <time>2018-06-07T09:39:05Z</time>
      </trkpt>
      <trkpt lat="45.97963" lon="4.8522">
        <ele>276</ele>
        <time>2018-06-07T09:39:06Z</time>
      </trkpt>
      <trkpt lat="45.97968" lon="4.8522">
        <ele>276</ele>
        <time>2018-06-07T09:39:07Z</time>
      </trkpt>
      <trkpt lat="45.97973" lon="4.85219">
        <ele>276</ele>
        <time>2018-06-07T09:39:08Z</time>
      </trkpt>
      <trkpt lat="45.97978" lon="4.85219">
        <ele>276</ele>
        <time>2018-06-07T09:39:09Z</time>
      </trkpt>
      <trkpt lat="45.97984" lon="4.85218">
        <ele>276</ele>
        <time>2018-06-07T09:39:10Z</time>
      </trkpt>
      <trkpt lat="45.97988" lon="4.85217">
        <ele>276</ele>
        <time>2018-06-07T09:39:11Z</time>
      </trkpt>
      <trkpt lat="45.97994" lon="4.85217">
        <ele>276</ele>
        <time>2018-06-07T09:39:12Z</time>
      </trkpt>
      <trkpt lat="45.97999" lon="4.85216">
        <ele>276</ele>
        <time>2018-06-07T09:39:13Z</time>
      </trkpt>
      <trkpt lat="45.98004" lon="4.85216">
        <ele>276</ele>
        <time>2018-06-07T09:39:14Z</time>
      </trkpt>
      <trkpt lat="45.98008" lon="4.85215">
        <ele>276</ele>
        <time>2018-06-07T09:39:15Z</time>
      </trkpt>
      <trkpt lat="45.98013" lon="4.85215">
        <ele>276</ele>
        <time>2018-06-07T09:39:16Z</time>
      </trkpt>
      <trkpt lat="45.9802" lon="4.85214">
        <ele>276</ele>
        <time>2018-06-07T09:39:17Z</time>
      </trkpt>
      <trkpt lat="45.98025" lon="4.85213">
        <ele>276</ele>
        <time>2018-06-07T09:39:18Z</time>
      </trkpt>
      <trkpt lat="45.9803" lon="4.85213">
        <ele>276</ele>
        <time>2018-06-07T09:39:19Z</time>
      </trkpt>
      <trkpt lat="45.98036" lon="4.85213">
        <ele>276</ele>
        <time>2018-06-07T09:39:20Z</time>
      </trkpt>
      <trkpt lat="45.98042" lon="4.85212">
        <ele>276</ele>
        <time>2018-06-07T09:39:21Z</time>
      </trkpt>
      <trkpt lat="45.98048" lon="4.85211">
        <ele>276</ele>
        <time>2018-06-07T09:39:22Z</time>
      </trkpt>
      <trkpt lat="45.98053" lon="4.8521">
        <ele>276</ele>
        <time>2018-06-07T09:39:23Z</time>
      </trkpt>
      <trkpt lat="45.98058" lon="4.85209">
        <ele>276</ele>
        <time>2018-06-07T09:39:24Z</time>
      </trkpt>
      <trkpt lat="45.98064" lon="4.85208">
        <ele>276</ele>
        <time>2018-06-07T09:39:25Z</time>
      </trkpt>
      <trkpt lat="45.98069" lon="4.85209">
        <ele>276</ele>
        <time>2018-06-07T09:39:26Z</time>
      </trkpt>
      <trkpt lat="45.98074" lon="4.85208">
        <ele>276</ele>
        <time>2018-06-07T09:39:27Z</time>
      </trkpt>
      <trkpt lat="45.98079" lon="4.85206">
        <ele>276</ele>
        <time>2018-06-07T09:39:28Z</time>
      </trkpt>
      <trkpt lat="45.98084" lon="4.85205">
        <ele>275</ele>
        <time>2018-06-07T09:39:29Z</time>
      </trkpt>
      <trkpt lat="45.98089" lon="4.85202">
        <ele>275</ele>
        <time>2018-06-07T09:39:30Z</time>
      </trkpt>
      <trkpt lat="45.98094" lon="4.85202">
        <ele>275</ele>
        <time>2018-06-07T09:39:31Z</time>
      </trkpt>
      <trkpt lat="45.981" lon="4.85202">
        <ele>275</ele>
        <time>2018-06-07T09:39:32Z</time>
      </trkpt>
      <trkpt lat="45.98105" lon="4.85201">
        <ele>275</ele>
        <time>2018-06-07T09:39:33Z</time>
      </trkpt>
      <trkpt lat="45.98111" lon="4.852">
        <ele>275</ele>
        <time>2018-06-07T09:39:34Z</time>
      </trkpt>
      <trkpt lat="45.98118" lon="4.85201">
        <ele>275</ele>
        <time>2018-06-07T09:39:35Z</time>
      </trkpt>
      <trkpt lat="45.98125" lon="4.85201">
        <ele>275</ele>
        <time>2018-06-07T09:39:36Z</time>
      </trkpt>
      <trkpt lat="45.98132" lon="4.85201">
        <ele>275</ele>
        <time>2018-06-07T09:39:37Z</time>
      </trkpt>
      <trkpt lat="45.98138" lon="4.852">
        <ele>275</ele>
        <time>2018-06-07T09:39:38Z</time>
      </trkpt>
      <trkpt lat="45.98144" lon="4.85199">
        <ele>275</ele>
        <time>2018-06-07T09:39:39Z</time>
      </trkpt>
      <trkpt lat="45.98151" lon="4.85199">
        <ele>275</ele>
        <time>2018-06-07T09:39:40Z</time>
      </trkpt>
      <trkpt lat="45.98157" lon="4.85196">
        <ele>274</ele>
        <time>2018-06-07T09:39:41Z</time>
      </trkpt>
      <trkpt lat="45.98164" lon="4.85196">
        <ele>274</ele>
        <time>2018-06-07T09:39:42Z</time>
      </trkpt>
      <trkpt lat="45.9817" lon="4.85196">
        <ele>274</ele>
        <time>2018-06-07T09:39:43Z</time>
      </trkpt>
      <trkpt lat="45.98175" lon="4.85196">
        <ele>274</ele>
        <time>2018-06-07T09:39:44Z</time>
      </trkpt>
      <trkpt lat="45.98182" lon="4.85196">
        <ele>274</ele>
        <time>2018-06-07T09:39:45Z</time>
      </trkpt>
      <trkpt lat="45.98188" lon="4.85195">
        <ele>274</ele>
        <time>2018-06-07T09:39:46Z</time>
      </trkpt>
      <trkpt lat="45.98194" lon="4.85193">
        <ele>274</ele>
        <time>2018-06-07T09:39:47Z</time>
      </trkpt>
      <trkpt lat="45.982" lon="4.85192">
        <ele>274</ele>
        <time>2018-06-07T09:39:48Z</time>
      </trkpt>
      <trkpt lat="45.98206" lon="4.85192">
        <ele>274</ele>
        <time>2018-06-07T09:39:49Z</time>
      </trkpt>
      <trkpt lat="45.98211" lon="4.85192">
        <ele>274</ele>
        <time>2018-06-07T09:39:50Z</time>
      </trkpt>
      <trkpt lat="45.98217" lon="4.85191">
        <ele>274</ele>
        <time>2018-06-07T09:39:51Z</time>
      </trkpt>
      <trkpt lat="45.98223" lon="4.85191">
        <ele>274</ele>
        <time>2018-06-07T09:39:52Z</time>
      </trkpt>
      <trkpt lat="45.98229" lon="4.85192">
        <ele>274</ele>
        <time>2018-06-07T09:39:53Z</time>
      </trkpt>
      <trkpt lat="45.98235" lon="4.85191">
        <ele>274</ele>
        <time>2018-06-07T09:39:54Z</time>
      </trkpt>
      <trkpt lat="45.98241" lon="4.8519">
        <ele>274</ele>
        <time>2018-06-07T09:39:55Z</time>
      </trkpt>
      <trkpt lat="45.98247" lon="4.85191">
        <ele>273</ele>
        <time>2018-06-07T09:39:56Z</time>
      </trkpt>
      <trkpt lat="45.98253" lon="4.85191">
        <ele>274</ele>
        <time>2018-06-07T09:39:57Z</time>
      </trkpt>
      <trkpt lat="45.98258" lon="4.8519">
        <ele>274</ele>
        <time>2018-06-07T09:39:58Z</time>
      </trkpt>
      <trkpt lat="45.98264" lon="4.85189">
        <ele>274</ele>
        <time>2018-06-07T09:39:59Z</time>
      </trkpt>
      <trkpt lat="45.98269" lon="4.85189">
        <ele>274</ele>
        <time>2018-06-07T09:40:00Z</time>
      </trkpt>
      <trkpt lat="45.98275" lon="4.85189">
        <ele>274</ele>
        <time>2018-06-07T09:40:01Z</time>
      </trkpt>
      <trkpt lat="45.9828" lon="4.85189">
        <ele>274</ele>
        <time>2018-06-07T09:40:02Z</time>
      </trkpt>
      <trkpt lat="45.98286" lon="4.85189">
        <ele>274</ele>
        <time>2018-06-07T09:40:03Z</time>
      </trkpt>
      <trkpt lat="45.98292" lon="4.85189">
        <ele>274</ele>
        <time>2018-06-07T09:40:04Z</time>
      </trkpt>
      <trkpt lat="45.98298" lon="4.85188">
        <ele>274</ele>
        <time>2018-06-07T09:40:05Z</time>
      </trkpt>
      <trkpt lat="45.98303" lon="4.85188">
        <ele>274</ele>
        <time>2018-06-07T09:40:06Z</time>
      </trkpt>
      <trkpt lat="45.98309" lon="4.85187">
        <ele>274</ele>
        <time>2018-06-07T09:40:07Z</time>
      </trkpt>
      <trkpt lat="45.98314" lon="4.85188">
        <ele>274</ele>
        <time>2018-06-07T09:40:08Z</time>
      </trkpt>
      <trkpt lat="45.9832" lon="4.85186">
        <ele>274</ele>
        <time>2018-06-07T09:40:09Z</time>
      </trkpt>
      <trkpt lat="45.98326" lon="4.85186">
        <ele>274</ele>
        <time>2018-06-07T09:40:10Z</time>
      </trkpt>
      <trkpt lat="45.98331" lon="4.85184">
        <ele>274</ele>
        <time>2018-06-07T09:40:11Z</time>
      </trkpt>
      <trkpt lat="45.98337" lon="4.85184">
        <ele>275</ele>
        <time>2018-06-07T09:40:12Z</time>
      </trkpt>
      <trkpt lat="45.98344" lon="4.85183">
        <ele>275</ele>
        <time>2018-06-07T09:40:13Z</time>
      </trkpt>
      <trkpt lat="45.9835" lon="4.85184">
        <ele>275</ele>
        <time>2018-06-07T09:40:14Z</time>
      </trkpt>
      <trkpt lat="45.98356" lon="4.85183">
        <ele>275</ele>
        <time>2018-06-07T09:40:15Z</time>
      </trkpt>
      <trkpt lat="45.98362" lon="4.85183">
        <ele>275</ele>
        <time>2018-06-07T09:40:16Z</time>
      </trkpt>
      <trkpt lat="45.98369" lon="4.85184">
        <ele>275</ele>
        <time>2018-06-07T09:40:17Z</time>
      </trkpt>
      <trkpt lat="45.98374" lon="4.85184">
        <ele>275</ele>
        <time>2018-06-07T09:40:18Z</time>
      </trkpt>
      <trkpt lat="45.98381" lon="4.85183">
        <ele>275</ele>
        <time>2018-06-07T09:40:19Z</time>
      </trkpt>
      <trkpt lat="45.98388" lon="4.85184">
        <ele>275</ele>
        <time>2018-06-07T09:40:20Z</time>
      </trkpt>
      <trkpt lat="45.98394" lon="4.85183">
        <ele>275</ele>
        <time>2018-06-07T09:40:21Z</time>
      </trkpt>
      <trkpt lat="45.98401" lon="4.85183">
        <ele>275</ele>
        <time>2018-06-07T09:40:22Z</time>
      </trkpt>
      <trkpt lat="45.98407" lon="4.85181">
        <ele>275</ele>
        <time>2018-06-07T09:40:23Z</time>
      </trkpt>
      <trkpt lat="45.98413" lon="4.85181">
        <ele>276</ele>
        <time>2018-06-07T09:40:24Z</time>
      </trkpt>
      <trkpt lat="45.98418" lon="4.85181">
        <ele>275</ele>
        <time>2018-06-07T09:40:25Z</time>
      </trkpt>
      <trkpt lat="45.98424" lon="4.8518">
        <ele>275</ele>
        <time>2018-06-07T09:40:26Z</time>
      </trkpt>
      <trkpt lat="45.98429" lon="4.8518">
        <ele>275</ele>
        <time>2018-06-07T09:40:27Z</time>
      </trkpt>
      <trkpt lat="45.98433" lon="4.85177">
        <ele>275</ele>
        <time>2018-06-07T09:40:28Z</time>
      </trkpt>
      <trkpt lat="45.98439" lon="4.85177">
        <ele>275</ele>
        <time>2018-06-07T09:40:29Z</time>
      </trkpt>
      <trkpt lat="45.98445" lon="4.85175">
        <ele>275</ele>
        <time>2018-06-07T09:40:30Z</time>
      </trkpt>
      <trkpt lat="45.9845" lon="4.85176">
        <ele>275</ele>
        <time>2018-06-07T09:40:31Z</time>
      </trkpt>
      <trkpt lat="45.98455" lon="4.85174">
        <ele>275</ele>
        <time>2018-06-07T09:40:32Z</time>
      </trkpt>
      <trkpt lat="45.98461" lon="4.85174">
        <ele>275</ele>
        <time>2018-06-07T09:40:33Z</time>
      </trkpt>
      <trkpt lat="45.98467" lon="4.85172">
        <ele>275</ele>
        <time>2018-06-07T09:40:34Z</time>
      </trkpt>
      <trkpt lat="45.98473" lon="4.85173">
        <ele>275</ele>
        <time>2018-06-07T09:40:35Z</time>
      </trkpt>
      <trkpt lat="45.98478" lon="4.85173">
        <ele>275</ele>
        <time>2018-06-07T09:40:36Z</time>
      </trkpt>
      <trkpt lat="45.98484" lon="4.85174">
        <ele>275</ele>
        <time>2018-06-07T09:40:37Z</time>
      </trkpt>
      <trkpt lat="45.98489" lon="4.85173">
        <ele>275</ele>
        <time>2018-06-07T09:40:38Z</time>
      </trkpt>
      <trkpt lat="45.98494" lon="4.85172">
        <ele>275</ele>
        <time>2018-06-07T09:40:39Z</time>
      </trkpt>
      <trkpt lat="45.98499" lon="4.8517">
        <ele>275</ele>
        <time>2018-06-07T09:40:40Z</time>
      </trkpt>
      <trkpt lat="45.98504" lon="4.8517">
        <ele>275</ele>
        <time>2018-06-07T09:40:41Z</time>
      </trkpt>
      <trkpt lat="45.98509" lon="4.85168">
        <ele>274</ele>
        <time>2018-06-07T09:40:42Z</time>
      </trkpt>
      <trkpt lat="45.98513" lon="4.85166">
        <ele>275</ele>
        <time>2018-06-07T09:40:43Z</time>
      </trkpt>
      <trkpt lat="45.98518" lon="4.85167">
        <ele>274</ele>
        <time>2018-06-07T09:40:44Z</time>
      </trkpt>
      <trkpt lat="45.98525" lon="4.85166">
        <ele>275</ele>
        <time>2018-06-07T09:40:45Z</time>
      </trkpt>
      <trkpt lat="45.9853" lon="4.85165">
        <ele>274</ele>
        <time>2018-06-07T09:40:46Z</time>
      </trkpt>
      <trkpt lat="45.98535" lon="4.85163">
        <ele>274</ele>
        <time>2018-06-07T09:40:47Z</time>
      </trkpt>
      <trkpt lat="45.9854" lon="4.85161">
        <ele>274</ele>
        <time>2018-06-07T09:40:48Z</time>
      </trkpt>
      <trkpt lat="45.98545" lon="4.85157">
        <ele>274</ele>
        <time>2018-06-07T09:40:49Z</time>
      </trkpt>
      <trkpt lat="45.9855" lon="4.85153">
        <ele>274</ele>
        <time>2018-06-07T09:40:50Z</time>
      </trkpt>
      <trkpt lat="45.98554" lon="4.8515">
        <ele>274</ele>
        <time>2018-06-07T09:40:51Z</time>
      </trkpt>
      <trkpt lat="45.9856" lon="4.85148">
        <ele>274</ele>
        <time>2018-06-07T09:40:52Z</time>
      </trkpt>
      <trkpt lat="45.98564" lon="4.85147">
        <ele>274</ele>
        <time>2018-06-07T09:40:53Z</time>
      </trkpt>
      <trkpt lat="45.98568" lon="4.85144">
        <ele>274</ele>
        <time>2018-06-07T09:40:54Z</time>
      </trkpt>
      <trkpt lat="45.98574" lon="4.85142">
        <ele>274</ele>
        <time>2018-06-07T09:40:55Z</time>
      </trkpt>
      <trkpt lat="45.9858" lon="4.8514">
        <ele>274</ele>
        <time>2018-06-07T09:40:56Z</time>
      </trkpt>
      <trkpt lat="45.98585" lon="4.85138">
        <ele>272</ele>
        <time>2018-06-07T09:40:57Z</time>
      </trkpt>
      <trkpt lat="45.9859" lon="4.85137">
        <ele>272</ele>
        <time>2018-06-07T09:40:58Z</time>
      </trkpt>
      <trkpt lat="45.98595" lon="4.85133">
        <ele>272</ele>
        <time>2018-06-07T09:40:59Z</time>
      </trkpt>
      <trkpt lat="45.98599" lon="4.8513">
        <ele>272</ele>
        <time>2018-06-07T09:41:00Z</time>
      </trkpt>
      <trkpt lat="45.98605" lon="4.85128">
        <ele>272</ele>
        <time>2018-06-07T09:41:01Z</time>
      </trkpt>
      <trkpt lat="45.9861" lon="4.85124">
        <ele>272</ele>
        <time>2018-06-07T09:41:02Z</time>
      </trkpt>
      <trkpt lat="45.98616" lon="4.85121">
        <ele>272</ele>
        <time>2018-06-07T09:41:03Z</time>
      </trkpt>
      <trkpt lat="45.98622" lon="4.85116">
        <ele>272</ele>
        <time>2018-06-07T09:41:04Z</time>
      </trkpt>
      <trkpt lat="45.98627" lon="4.85113">
        <ele>272</ele>
        <time>2018-06-07T09:41:05Z</time>
      </trkpt>
      <trkpt lat="45.98633" lon="4.8511">
        <ele>272</ele>
        <time>2018-06-07T09:41:06Z</time>
      </trkpt>
      <trkpt lat="45.98638" lon="4.85107">
        <ele>272</ele>
        <time>2018-06-07T09:41:07Z</time>
      </trkpt>
      <trkpt lat="45.98643" lon="4.85104">
        <ele>272</ele>
        <time>2018-06-07T09:41:08Z</time>
      </trkpt>
      <trkpt lat="45.98648" lon="4.85103">
        <ele>272</ele>
        <time>2018-06-07T09:41:09Z</time>
      </trkpt>
      <trkpt lat="45.98655" lon="4.851">
        <ele>271</ele>
        <time>2018-06-07T09:41:10Z</time>
      </trkpt>
      <trkpt lat="45.98661" lon="4.85096">
        <ele>271</ele>
        <time>2018-06-07T09:41:11Z</time>
      </trkpt>
      <trkpt lat="45.98667" lon="4.85093">
        <ele>271</ele>
        <time>2018-06-07T09:41:12Z</time>
      </trkpt>
      <trkpt lat="45.98674" lon="4.85092">
        <ele>271</ele>
        <time>2018-06-07T09:41:13Z</time>
      </trkpt>
      <trkpt lat="45.98679" lon="4.8509">
        <ele>270</ele>
        <time>2018-06-07T09:41:14Z</time>
      </trkpt>
      <trkpt lat="45.98685" lon="4.85087">
        <ele>270</ele>
        <time>2018-06-07T09:41:15Z</time>
      </trkpt>
      <trkpt lat="45.98691" lon="4.85085">
        <ele>270</ele>
        <time>2018-06-07T09:41:16Z</time>
      </trkpt>
      <trkpt lat="45.98698" lon="4.85084">
        <ele>270</ele>
        <time>2018-06-07T09:41:17Z</time>
      </trkpt>
      <trkpt lat="45.98704" lon="4.8508">
        <ele>270</ele>
        <time>2018-06-07T09:41:18Z</time>
      </trkpt>
      <trkpt lat="45.9871" lon="4.85077">
        <ele>270</ele>
        <time>2018-06-07T09:41:19Z</time>
      </trkpt>
      <trkpt lat="45.98715" lon="4.85074">
        <ele>270</ele>
        <time>2018-06-07T09:41:20Z</time>
      </trkpt>
      <trkpt lat="45.98721" lon="4.8507">
        <ele>270</ele>
        <time>2018-06-07T09:41:21Z</time>
      </trkpt>
      <trkpt lat="45.98727" lon="4.85066">
        <ele>270</ele>
        <time>2018-06-07T09:41:22Z</time>
      </trkpt>
      <trkpt lat="45.98733" lon="4.85064">
        <ele>269</ele>
        <time>2018-06-07T09:41:23Z</time>
      </trkpt>
      <trkpt lat="45.98739" lon="4.85062">
        <ele>269</ele>
        <time>2018-06-07T09:41:24Z</time>
      </trkpt>
      <trkpt lat="45.98743" lon="4.85059">
        <ele>269</ele>
        <time>2018-06-07T09:41:25Z</time>
      </trkpt>
      <trkpt lat="45.98749" lon="4.85056">
        <ele>269</ele>
        <time>2018-06-07T09:41:26Z</time>
      </trkpt>
      <trkpt lat="45.98755" lon="4.85054">
        <ele>268</ele>
        <time>2018-06-07T09:41:27Z</time>
      </trkpt>
      <trkpt lat="45.9876" lon="4.85052">
        <ele>268</ele>
        <time>2018-06-07T09:41:28Z</time>
      </trkpt>
      <trkpt lat="45.98766" lon="4.85049">
        <ele>268</ele>
        <time>2018-06-07T09:41:29Z</time>
      </trkpt>
      <trkpt lat="45.98772" lon="4.85046">
        <ele>268</ele>
        <time>2018-06-07T09:41:30Z</time>
      </trkpt>
      <trkpt lat="45.98779" lon="4.85046">
        <ele>267</ele>
        <time>2018-06-07T09:41:31Z</time>
      </trkpt>
      <trkpt lat="45.98786" lon="4.85042">
        <ele>267</ele>
        <time>2018-06-07T09:41:32Z</time>
      </trkpt>
      <trkpt lat="45.98792" lon="4.85039">
        <ele>267</ele>
        <time>2018-06-07T09:41:33Z</time>
      </trkpt>
      <trkpt lat="45.98799" lon="4.85035">
        <ele>267</ele>
        <time>2018-06-07T09:41:34Z</time>
      </trkpt>
      <trkpt lat="45.98805" lon="4.85031">
        <ele>267</ele>
        <time>2018-06-07T09:41:35Z</time>
      </trkpt>
      <trkpt lat="45.98811" lon="4.85029">
        <ele>267</ele>
        <time>2018-06-07T09:41:36Z</time>
      </trkpt>
      <trkpt lat="45.98817" lon="4.85026">
        <ele>267</ele>
        <time>2018-06-07T09:41:37Z</time>
      </trkpt>
      <trkpt lat="45.98823" lon="4.85023">
        <ele>267</ele>
        <time>2018-06-07T09:41:38Z</time>
      </trkpt>
      <trkpt lat="45.98829" lon="4.85019">
        <ele>267</ele>
        <time>2018-06-07T09:41:39Z</time>
      </trkpt>
      <trkpt lat="45.98833" lon="4.85016">
        <ele>267</ele>
        <time>2018-06-07T09:41:40Z</time>
      </trkpt>
      <trkpt lat="45.98839" lon="4.85012">
        <ele>267</ele>
        <time>2018-06-07T09:41:41Z</time>
      </trkpt>
      <trkpt lat="45.98845" lon="4.85009">
        <ele>267</ele>
        <time>2018-06-07T09:41:42Z</time>
      </trkpt>
      <trkpt lat="45.98853" lon="4.85006">
        <ele>267</ele>
        <time>2018-06-07T09:41:43Z</time>
      </trkpt>
      <trkpt lat="45.98859" lon="4.85003">
        <ele>267</ele>
        <time>2018-06-07T09:41:44Z</time>
      </trkpt>
      <trkpt lat="45.98865" lon="4.85">
        <ele>267</ele>
        <time>2018-06-07T09:41:45Z</time>
      </trkpt>
      <trkpt lat="45.98871" lon="4.84996">
        <ele>267</ele>
        <time>2018-06-07T09:41:46Z</time>
      </trkpt>
      <trkpt lat="45.98877" lon="4.84993">
        <ele>267</ele>
        <time>2018-06-07T09:41:47Z</time>
      </trkpt>
      <trkpt lat="45.98884" lon="4.84991">
        <ele>267</ele>
        <time>2018-06-07T09:41:48Z</time>
      </trkpt>
      <trkpt lat="45.9889" lon="4.84988">
        <ele>267</ele>
        <time>2018-06-07T09:41:49Z</time>
      </trkpt>
      <trkpt lat="45.98896" lon="4.84985">
        <ele>267</ele>
        <time>2018-06-07T09:41:50Z</time>
      </trkpt>
      <trkpt lat="45.98903" lon="4.84979">
        <ele>267</ele>
        <time>2018-06-07T09:41:51Z</time>
      </trkpt>
      <trkpt lat="45.9891" lon="4.84976">
        <ele>267</ele>
        <time>2018-06-07T09:41:52Z</time>
      </trkpt>
      <trkpt lat="45.98916" lon="4.84974">
        <ele>267</ele>
        <time>2018-06-07T09:41:53Z</time>
      </trkpt>
      <trkpt lat="45.98923" lon="4.84968">
        <ele>267</ele>
        <time>2018-06-07T09:41:54Z</time>
      </trkpt>
      <trkpt lat="45.98929" lon="4.84965">
        <ele>266</ele>
        <time>2018-06-07T09:41:55Z</time>
      </trkpt>
      <trkpt lat="45.98935" lon="4.84961">
        <ele>266</ele>
        <time>2018-06-07T09:41:56Z</time>
      </trkpt>
      <trkpt lat="45.9894" lon="4.84959">
        <ele>266</ele>
        <time>2018-06-07T09:41:57Z</time>
      </trkpt>
      <trkpt lat="45.98945" lon="4.84958">
        <ele>266</ele>
        <time>2018-06-07T09:41:58Z</time>
      </trkpt>
      <trkpt lat="45.98951" lon="4.84955">
        <ele>266</ele>
        <time>2018-06-07T09:41:59Z</time>
      </trkpt>
      <trkpt lat="45.98958" lon="4.84953">
        <ele>266</ele>
        <time>2018-06-07T09:42:00Z</time>
      </trkpt>
      <trkpt lat="45.98964" lon="4.84949">
        <ele>266</ele>
        <time>2018-06-07T09:42:01Z</time>
      </trkpt>
      <trkpt lat="45.98971" lon="4.84945">
        <ele>266</ele>
        <time>2018-06-07T09:42:02Z</time>
      </trkpt>
      <trkpt lat="45.98977" lon="4.84942">
        <ele>266</ele>
        <time>2018-06-07T09:42:03Z</time>
      </trkpt>
      <trkpt lat="45.98983" lon="4.84938">
        <ele>266</ele>
        <time>2018-06-07T09:42:04Z</time>
      </trkpt>
      <trkpt lat="45.9899" lon="4.84935">
        <ele>266</ele>
        <time>2018-06-07T09:42:05Z</time>
      </trkpt>
      <trkpt lat="45.98996" lon="4.84932">
        <ele>266</ele>
        <time>2018-06-07T09:42:06Z</time>
      </trkpt>
      <trkpt lat="45.99002" lon="4.84929">
        <ele>265</ele>
        <time>2018-06-07T09:42:07Z</time>
      </trkpt>
      <trkpt lat="45.99008" lon="4.84926">
        <ele>265</ele>
        <time>2018-06-07T09:42:08Z</time>
      </trkpt>
      <trkpt lat="45.99015" lon="4.84924">
        <ele>265</ele>
        <time>2018-06-07T09:42:09Z</time>
      </trkpt>
      <trkpt lat="45.99021" lon="4.84922">
        <ele>265</ele>
        <time>2018-06-07T09:42:10Z</time>
      </trkpt>
      <trkpt lat="45.99027" lon="4.8492">
        <ele>264</ele>
        <time>2018-06-07T09:42:11Z</time>
      </trkpt>
      <trkpt lat="45.99033" lon="4.84916">
        <ele>264</ele>
        <time>2018-06-07T09:42:12Z</time>
      </trkpt>
      <trkpt lat="45.9904" lon="4.84913">
        <ele>264</ele>
        <time>2018-06-07T09:42:13Z</time>
      </trkpt>
      <trkpt lat="45.99048" lon="4.84909">
        <ele>264</ele>
        <time>2018-06-07T09:42:14Z</time>
      </trkpt>
      <trkpt lat="45.99054" lon="4.84905">
        <ele>263</ele>
        <time>2018-06-07T09:42:15Z</time>
      </trkpt>
      <trkpt lat="45.9906" lon="4.84902">
        <ele>263</ele>
        <time>2018-06-07T09:42:16Z</time>
      </trkpt>
      <trkpt lat="45.99068" lon="4.84898">
        <ele>263</ele>
        <time>2018-06-07T09:42:17Z</time>
      </trkpt>
      <trkpt lat="45.99074" lon="4.84894">
        <ele>263</ele>
        <time>2018-06-07T09:42:18Z</time>
      </trkpt>
      <trkpt lat="45.99079" lon="4.8489">
        <ele>263</ele>
        <time>2018-06-07T09:42:19Z</time>
      </trkpt>
      <trkpt lat="45.99086" lon="4.84887">
        <ele>261</ele>
        <time>2018-06-07T09:42:20Z</time>
      </trkpt>
      <trkpt lat="45.99094" lon="4.84882">
        <ele>261</ele>
        <time>2018-06-07T09:42:21Z</time>
      </trkpt>
      <trkpt lat="45.991" lon="4.84879">
        <ele>261</ele>
        <time>2018-06-07T09:42:22Z</time>
      </trkpt>
      <trkpt lat="45.99107" lon="4.84876">
        <ele>261</ele>
        <time>2018-06-07T09:42:23Z</time>
      </trkpt>
      <trkpt lat="45.99113" lon="4.84874">
        <ele>260</ele>
        <time>2018-06-07T09:42:24Z</time>
      </trkpt>
      <trkpt lat="45.99121" lon="4.8487">
        <ele>260</ele>
        <time>2018-06-07T09:42:25Z</time>
      </trkpt>
      <trkpt lat="45.99128" lon="4.84865">
        <ele>260</ele>
        <time>2018-06-07T09:42:26Z</time>
      </trkpt>
      <trkpt lat="45.99135" lon="4.84862">
        <ele>260</ele>
        <time>2018-06-07T09:42:27Z</time>
      </trkpt>
      <trkpt lat="45.99142" lon="4.84856">
        <ele>260</ele>
        <time>2018-06-07T09:42:28Z</time>
      </trkpt>
      <trkpt lat="45.99149" lon="4.84851">
        <ele>260</ele>
        <time>2018-06-07T09:42:29Z</time>
      </trkpt>
      <trkpt lat="45.99156" lon="4.84848">
        <ele>259</ele>
        <time>2018-06-07T09:42:30Z</time>
      </trkpt>
      <trkpt lat="45.99163" lon="4.84842">
        <ele>259</ele>
        <time>2018-06-07T09:42:31Z</time>
      </trkpt>
      <trkpt lat="45.9917" lon="4.84839">
        <ele>258</ele>
        <time>2018-06-07T09:42:32Z</time>
      </trkpt>
      <trkpt lat="45.99178" lon="4.84833">
        <ele>258</ele>
        <time>2018-06-07T09:42:33Z</time>
      </trkpt>
      <trkpt lat="45.99185" lon="4.84829">
        <ele>258</ele>
        <time>2018-06-07T09:42:34Z</time>
      </trkpt>
      <trkpt lat="45.99192" lon="4.84826">
        <ele>258</ele>
        <time>2018-06-07T09:42:35Z</time>
      </trkpt>
      <trkpt lat="45.99199" lon="4.8482">
        <ele>258</ele>
        <time>2018-06-07T09:42:36Z</time>
      </trkpt>
      <trkpt lat="45.99207" lon="4.84815">
        <ele>257</ele>
        <time>2018-06-07T09:42:37Z</time>
      </trkpt>
      <trkpt lat="45.99215" lon="4.84812">
        <ele>257</ele>
        <time>2018-06-07T09:42:38Z</time>
      </trkpt>
      <trkpt lat="45.99223" lon="4.84807">
        <ele>257</ele>
        <time>2018-06-07T09:42:39Z</time>
      </trkpt>
      <trkpt lat="45.99232" lon="4.84805">
        <ele>256</ele>
        <time>2018-06-07T09:42:40Z</time>
      </trkpt>
      <trkpt lat="45.99241" lon="4.84802">
        <ele>256</ele>
        <time>2018-06-07T09:42:41Z</time>
      </trkpt>
      <trkpt lat="45.99249" lon="4.84798">
        <ele>256</ele>
        <time>2018-06-07T09:42:42Z</time>
      </trkpt>
      <trkpt lat="45.99258" lon="4.84795">
        <ele>253</ele>
        <time>2018-06-07T09:42:43Z</time>
      </trkpt>
      <trkpt lat="45.99267" lon="4.84791">
        <ele>253</ele>
        <time>2018-06-07T09:42:44Z</time>
      </trkpt>
      <trkpt lat="45.99275" lon="4.84785">
        <ele>253</ele>
        <time>2018-06-07T09:42:45Z</time>
      </trkpt>
      <trkpt lat="45.99283" lon="4.84781">
        <ele>253</ele>
        <time>2018-06-07T09:42:46Z</time>
      </trkpt>
      <trkpt lat="45.99292" lon="4.84777">
        <ele>253</ele>
        <time>2018-06-07T09:42:47Z</time>
      </trkpt>
      <trkpt lat="45.99301" lon="4.84771">
        <ele>253</ele>
        <time>2018-06-07T09:42:48Z</time>
      </trkpt>
      <trkpt lat="45.9931" lon="4.84767">
        <ele>252</ele>
        <time>2018-06-07T09:42:49Z</time>
      </trkpt>
      <trkpt lat="45.99319" lon="4.84763">
        <ele>252</ele>
        <time>2018-06-07T09:42:50Z</time>
      </trkpt>
      <trkpt lat="45.99328" lon="4.84759">
        <ele>252</ele>
        <time>2018-06-07T09:42:51Z</time>
      </trkpt>
      <trkpt lat="45.99335" lon="4.84754">
        <ele>251</ele>
        <time>2018-06-07T09:42:52Z</time>
      </trkpt>
      <trkpt lat="45.99344" lon="4.8475">
        <ele>251</ele>
        <time>2018-06-07T09:42:53Z</time>
      </trkpt>
      <trkpt lat="45.99352" lon="4.84746">
        <ele>250</ele>
        <time>2018-06-07T09:42:54Z</time>
      </trkpt>
      <trkpt lat="45.9936" lon="4.84741">
        <ele>250</ele>
        <time>2018-06-07T09:42:55Z</time>
      </trkpt>
      <trkpt lat="45.9937" lon="4.84738">
        <ele>250</ele>
        <time>2018-06-07T09:42:56Z</time>
      </trkpt>
      <trkpt lat="45.99377" lon="4.84733">
        <ele>250</ele>
        <time>2018-06-07T09:42:57Z</time>
      </trkpt>
      <trkpt lat="45.99386" lon="4.84728">
        <ele>249</ele>
        <time>2018-06-07T09:42:58Z</time>
      </trkpt>
      <trkpt lat="45.99394" lon="4.84724">
        <ele>249</ele>
        <time>2018-06-07T09:42:59Z</time>
      </trkpt>
      <trkpt lat="45.99402" lon="4.84719">
        <ele>249</ele>
        <time>2018-06-07T09:43:00Z</time>
      </trkpt>
      <trkpt lat="45.99409" lon="4.84715">
        <ele>249</ele>
        <time>2018-06-07T09:43:01Z</time>
      </trkpt>
      <trkpt lat="45.99417" lon="4.8471">
        <ele>249</ele>
        <time>2018-06-07T09:43:02Z</time>
      </trkpt>
      <trkpt lat="45.99424" lon="4.84705">
        <ele>249</ele>
        <time>2018-06-07T09:43:03Z</time>
      </trkpt>
      <trkpt lat="45.99432" lon="4.84701">
        <ele>249</ele>
        <time>2018-06-07T09:43:04Z</time>
      </trkpt>
      <trkpt lat="45.99439" lon="4.84698">
        <ele>249</ele>
        <time>2018-06-07T09:43:05Z</time>
      </trkpt>
      <trkpt lat="45.99446" lon="4.84693">
        <ele>249</ele>
        <time>2018-06-07T09:43:06Z</time>
      </trkpt>
      <trkpt lat="45.99453" lon="4.84691">
        <ele>250</ele>
        <time>2018-06-07T09:43:07Z</time>
      </trkpt>
      <trkpt lat="45.99459" lon="4.84686">
        <ele>250</ele>
        <time>2018-06-07T09:43:08Z</time>
      </trkpt>
      <trkpt lat="45.99466" lon="4.84682">
        <ele>250</ele>
        <time>2018-06-07T09:43:09Z</time>
      </trkpt>
      <trkpt lat="45.99471" lon="4.84682">
        <ele>250</ele>
        <time>2018-06-07T09:43:10Z</time>
      </trkpt>
      <trkpt lat="45.99477" lon="4.8468">
        <ele>250</ele>
        <time>2018-06-07T09:43:11Z</time>
      </trkpt>
      <trkpt lat="45.99483" lon="4.84679">
        <ele>250</ele>
        <time>2018-06-07T09:43:12Z</time>
      </trkpt>
      <trkpt lat="45.9949" lon="4.84678">
        <ele>250</ele>
        <time>2018-06-07T09:43:13Z</time>
      </trkpt>
      <trkpt lat="45.99495" lon="4.84675">
        <ele>251</ele>
        <time>2018-06-07T09:43:14Z</time>
      </trkpt>
      <trkpt lat="45.995" lon="4.84674">
        <ele>251</ele>
        <time>2018-06-07T09:43:15Z</time>
      </trkpt>
      <trkpt lat="45.99506" lon="4.84671">
        <ele>251</ele>
        <time>2018-06-07T09:43:16Z</time>
      </trkpt>
      <trkpt lat="45.99512" lon="4.8467">
        <ele>251</ele>
        <time>2018-06-07T09:43:17Z</time>
      </trkpt>
      <trkpt lat="45.99517" lon="4.84668">
        <ele>251</ele>
        <time>2018-06-07T09:43:18Z</time>
      </trkpt>
      <trkpt lat="45.99522" lon="4.84668">
        <ele>251</ele>
        <time>2018-06-07T09:43:19Z</time>
      </trkpt>
      <trkpt lat="45.99529" lon="4.84669">
        <ele>251</ele>
        <time>2018-06-07T09:43:20Z</time>
      </trkpt>
      <trkpt lat="45.99536" lon="4.84668">
        <ele>251</ele>
        <time>2018-06-07T09:43:21Z</time>
      </trkpt>
      <trkpt lat="45.99541" lon="4.84665">
        <ele>250</ele>
        <time>2018-06-07T09:43:22Z</time>
      </trkpt>
      <trkpt lat="45.99549" lon="4.84663">
        <ele>250</ele>
        <time>2018-06-07T09:43:23Z</time>
      </trkpt>
      <trkpt lat="45.99555" lon="4.84661">
        <ele>250</ele>
        <time>2018-06-07T09:43:24Z</time>
      </trkpt>
      <trkpt lat="45.99561" lon="4.8466">
        <ele>250</ele>
        <time>2018-06-07T09:43:25Z</time>
      </trkpt>
      <trkpt lat="45.99568" lon="4.84658">
        <ele>250</ele>
        <time>2018-06-07T09:43:26Z</time>
      </trkpt>
      <trkpt lat="45.99575" lon="4.84657">
        <ele>250</ele>
        <time>2018-06-07T09:43:27Z</time>
      </trkpt>
      <trkpt lat="45.99583" lon="4.84657">
        <ele>250</ele>
        <time>2018-06-07T09:43:28Z</time>
      </trkpt>
      <trkpt lat="45.99589" lon="4.84656">
        <ele>250</ele>
        <time>2018-06-07T09:43:29Z</time>
      </trkpt>
      <trkpt lat="45.99595" lon="4.84656">
        <ele>250</ele>
        <time>2018-06-07T09:43:30Z</time>
      </trkpt>
      <trkpt lat="45.99601" lon="4.84654">
        <ele>250</ele>
        <time>2018-06-07T09:43:31Z</time>
      </trkpt>
      <trkpt lat="45.99607" lon="4.84653">
        <ele>250</ele>
        <time>2018-06-07T09:43:32Z</time>
      </trkpt>
      <trkpt lat="45.99614" lon="4.84654">
        <ele>250</ele>
        <time>2018-06-07T09:43:33Z</time>
      </trkpt>
      <trkpt lat="45.99621" lon="4.84653">
        <ele>250</ele>
        <time>2018-06-07T09:43:34Z</time>
      </trkpt>
      <trkpt lat="45.99626" lon="4.84651">
        <ele>250</ele>
        <time>2018-06-07T09:43:35Z</time>
      </trkpt>
      <trkpt lat="45.99632" lon="4.8465">
        <ele>250</ele>
        <time>2018-06-07T09:43:36Z</time>
      </trkpt>
      <trkpt lat="45.99638" lon="4.8465">
        <ele>250</ele>
        <time>2018-06-07T09:43:37Z</time>
      </trkpt>
      <trkpt lat="45.99644" lon="4.84648">
        <ele>250</ele>
        <time>2018-06-07T09:43:38Z</time>
      </trkpt>
      <trkpt lat="45.9965" lon="4.84646">
        <ele>250</ele>
        <time>2018-06-07T09:43:39Z</time>
      </trkpt>
      <trkpt lat="45.99655" lon="4.84645">
        <ele>250</ele>
        <time>2018-06-07T09:43:40Z</time>
      </trkpt>
      <trkpt lat="45.99662" lon="4.84645">
        <ele>250</ele>
        <time>2018-06-07T09:43:41Z</time>
      </trkpt>
      <trkpt lat="45.99667" lon="4.84644">
        <ele>251</ele>
        <time>2018-06-07T09:43:42Z</time>
      </trkpt>
      <trkpt lat="45.99672" lon="4.84643">
        <ele>251</ele>
        <time>2018-06-07T09:43:43Z</time>
      </trkpt>
      <trkpt lat="45.99677" lon="4.84641">
        <ele>252</ele>
        <time>2018-06-07T09:43:44Z</time>
      </trkpt>
      <trkpt lat="45.99682" lon="4.84641">
        <ele>252</ele>
        <time>2018-06-07T09:43:45Z</time>
      </trkpt>
      <trkpt lat="45.99687" lon="4.8464">
        <ele>252</ele>
        <time>2018-06-07T09:43:46Z</time>
      </trkpt>
      <trkpt lat="45.99692" lon="4.84637">
        <ele>252</ele>
        <time>2018-06-07T09:43:47Z</time>
      </trkpt>
      <trkpt lat="45.99696" lon="4.84637">
        <ele>252</ele>
        <time>2018-06-07T09:43:48Z</time>
      </trkpt>
      <trkpt lat="45.99703" lon="4.84635">
        <ele>252</ele>
        <time>2018-06-07T09:43:50Z</time>
      </trkpt>
      <trkpt lat="45.99707" lon="4.84631">
        <ele>252</ele>
        <time>2018-06-07T09:43:51Z</time>
      </trkpt>
      <trkpt lat="45.99714" lon="4.8463">
        <ele>252</ele>
        <time>2018-06-07T09:43:53Z</time>
      </trkpt>
      <trkpt lat="45.99716" lon="4.8463">
        <ele>252</ele>
        <time>2018-06-07T09:43:54Z</time>
      </trkpt>
      <trkpt lat="45.9972" lon="4.84628">
        <ele>252</ele>
        <time>2018-06-07T09:43:56Z</time>
      </trkpt>
      <trkpt lat="45.99728" lon="4.84627">
        <ele>252</ele>
        <time>2018-06-07T09:43:57Z</time>
      </trkpt>
      <trkpt lat="45.99732" lon="4.84626">
        <ele>252</ele>
        <time>2018-06-07T09:43:59Z</time>
      </trkpt>
      <trkpt lat="45.99739" lon="4.84624">
        <ele>252</ele>
        <time>2018-06-07T09:44:00Z</time>
      </trkpt>
      <trkpt lat="45.99746" lon="4.84623">
        <ele>253</ele>
        <time>2018-06-07T09:44:02Z</time>
      </trkpt>
      <trkpt lat="45.9975" lon="4.84622">
        <ele>254</ele>
        <time>2018-06-07T09:44:03Z</time>
      </trkpt>
      <trkpt lat="45.99757" lon="4.84622">
        <ele>254</ele>
        <time>2018-06-07T09:44:05Z</time>
      </trkpt>
      <trkpt lat="45.99761" lon="4.84623">
        <ele>254</ele>
        <time>2018-06-07T09:44:06Z</time>
      </trkpt>
      <trkpt lat="45.99769" lon="4.84625">
        <ele>254</ele>
        <time>2018-06-07T09:44:08Z</time>
      </trkpt>
      <trkpt lat="45.99773" lon="4.84626">
        <ele>254</ele>
        <time>2018-06-07T09:44:09Z</time>
      </trkpt>
      <trkpt lat="45.9978" lon="4.84628">
        <ele>254</ele>
        <time>2018-06-07T09:44:11Z</time>
      </trkpt>
      <trkpt lat="45.99784" lon="4.84628">
        <ele>254</ele>
        <time>2018-06-07T09:44:12Z</time>
      </trkpt>
      <trkpt lat="45.99793" lon="4.84629">
        <ele>254</ele>
        <time>2018-06-07T09:44:14Z</time>
      </trkpt>
      <trkpt lat="45.99797" lon="4.8463">
        <ele>254</ele>
        <time>2018-06-07T09:44:15Z</time>
      </trkpt>
      <trkpt lat="45.99805" lon="4.8463">
        <ele>254</ele>
        <time>2018-06-07T09:44:17Z</time>
      </trkpt>
      <trkpt lat="45.9981" lon="4.8463">
        <ele>254</ele>
        <time>2018-06-07T09:44:18Z</time>
      </trkpt>
      <trkpt lat="45.99818" lon="4.84632">
        <ele>254</ele>
        <time>2018-06-07T09:44:20Z</time>
      </trkpt>
      <trkpt lat="45.99822" lon="4.84634">
        <ele>254</ele>
        <time>2018-06-07T09:44:21Z</time>
      </trkpt>
      <trkpt lat="45.99827" lon="4.84635">
        <ele>254</ele>
        <time>2018-06-07T09:44:22Z</time>
      </trkpt>
      <trkpt lat="45.99831" lon="4.84637">
        <ele>254</ele>
        <time>2018-06-07T09:44:23Z</time>
      </trkpt>
      <trkpt lat="45.99836" lon="4.84639">
        <ele>254</ele>
        <time>2018-06-07T09:44:24Z</time>
      </trkpt>
      <trkpt lat="45.99841" lon="4.84641">
        <ele>254</ele>
        <time>2018-06-07T09:44:25Z</time>
      </trkpt>
      <trkpt lat="45.99849" lon="4.84643">
        <ele>254</ele>
        <time>2018-06-07T09:44:27Z</time>
      </trkpt>
      <trkpt lat="45.99854" lon="4.84642">
        <ele>254</ele>
        <time>2018-06-07T09:44:28Z</time>
      </trkpt>
      <trkpt lat="45.9986" lon="4.84644">
        <ele>254</ele>
        <time>2018-06-07T09:44:29Z</time>
      </trkpt>
      <trkpt lat="45.99865" lon="4.84645">
        <ele>254</ele>
        <time>2018-06-07T09:44:30Z</time>
      </trkpt>
      <trkpt lat="45.99874" lon="4.84648">
        <ele>254</ele>
        <time>2018-06-07T09:44:32Z</time>
      </trkpt>
      <trkpt lat="45.99878" lon="4.84647">
        <ele>254</ele>
        <time>2018-06-07T09:44:33Z</time>
      </trkpt>
      <trkpt lat="45.99882" lon="4.84649">
        <ele>254</ele>
        <time>2018-06-07T09:44:34Z</time>
      </trkpt>
      <trkpt lat="45.99887" lon="4.8465">
        <ele>254</ele>
        <time>2018-06-07T09:44:35Z</time>
      </trkpt>
      <trkpt lat="45.99895" lon="4.84653">
        <ele>254</ele>
        <time>2018-06-07T09:44:37Z</time>
      </trkpt>
      <trkpt lat="45.99899" lon="4.84655">
        <ele>254</ele>
        <time>2018-06-07T09:44:38Z</time>
      </trkpt>
      <trkpt lat="45.99907" lon="4.84657">
        <ele>254</ele>
        <time>2018-06-07T09:44:40Z</time>
      </trkpt>
      <trkpt lat="45.99911" lon="4.84656">
        <ele>254</ele>
        <time>2018-06-07T09:44:41Z</time>
      </trkpt>
      <trkpt lat="45.9992" lon="4.84659">
        <ele>254</ele>
        <time>2018-06-07T09:44:43Z</time>
      </trkpt>
      <trkpt lat="45.99925" lon="4.84661">
        <ele>254</ele>
        <time>2018-06-07T09:44:44Z</time>
      </trkpt>
      <trkpt lat="45.99929" lon="4.84664">
        <ele>254</ele>
        <time>2018-06-07T09:44:45Z</time>
      </trkpt>
      <trkpt lat="45.99934" lon="4.84667">
        <ele>254</ele>
        <time>2018-06-07T09:44:46Z</time>
      </trkpt>
      <trkpt lat="45.99939" lon="4.84668">
        <ele>255</ele>
        <time>2018-06-07T09:44:47Z</time>
      </trkpt>
      <trkpt lat="45.99944" lon="4.84671">
        <ele>255</ele>
        <time>2018-06-07T09:44:48Z</time>
      </trkpt>
      <trkpt lat="45.99952" lon="4.84672">
        <ele>255</ele>
        <time>2018-06-07T09:44:50Z</time>
      </trkpt>
      <trkpt lat="45.99956" lon="4.84674">
        <ele>255</ele>
        <time>2018-06-07T09:44:51Z</time>
      </trkpt>
      <trkpt lat="45.99965" lon="4.84675">
        <ele>255</ele>
        <time>2018-06-07T09:44:53Z</time>
      </trkpt>
      <trkpt lat="45.99969" lon="4.84676">
        <ele>255</ele>
        <time>2018-06-07T09:44:54Z</time>
      </trkpt>
      <trkpt lat="45.99976" lon="4.8468">
        <ele>255</ele>
        <time>2018-06-07T09:44:56Z</time>
      </trkpt>
      <trkpt lat="45.99981" lon="4.84681">
        <ele>255</ele>
        <time>2018-06-07T09:44:57Z</time>
      </trkpt>
      <trkpt lat="45.99987" lon="4.84689">
        <ele>256</ele>
        <time>2018-06-07T09:45:00Z</time>
      </trkpt>
      <trkpt lat="45.99991" lon="4.84689">
        <ele>255</ele>
        <time>2018-06-07T09:45:01Z</time>
      </trkpt>
      <trkpt lat="45.99995" lon="4.84689">
        <ele>255</ele>
        <time>2018-06-07T09:45:02Z</time>
      </trkpt>
      <trkpt lat="46.00002" lon="4.8469">
        <ele>256</ele>
        <time>2018-06-07T09:45:03Z</time>
      </trkpt>
      <trkpt lat="46.00006" lon="4.84691">
        <ele>256</ele>
        <time>2018-06-07T09:45:04Z</time>
      </trkpt>
      <trkpt lat="46.00011" lon="4.84693">
        <ele>256</ele>
        <time>2018-06-07T09:45:05Z</time>
      </trkpt>
      <trkpt lat="46.00016" lon="4.84693">
        <ele>256</ele>
        <time>2018-06-07T09:45:06Z</time>
      </trkpt>
      <trkpt lat="46.0002" lon="4.84694">
        <ele>256</ele>
        <time>2018-06-07T09:45:07Z</time>
      </trkpt>
      <trkpt lat="46.00029" lon="4.84694">
        <ele>256</ele>
        <time>2018-06-07T09:45:09Z</time>
      </trkpt>
      <trkpt lat="46.00033" lon="4.84694">
        <ele>256</ele>
        <time>2018-06-07T09:45:10Z</time>
      </trkpt>
      <trkpt lat="46.00041" lon="4.84695">
        <ele>256</ele>
        <time>2018-06-07T09:45:13Z</time>
      </trkpt>
      <trkpt lat="46.00044" lon="4.84694">
        <ele>256</ele>
        <time>2018-06-07T09:45:14Z</time>
      </trkpt>
      <trkpt lat="46.00052" lon="4.84694">
        <ele>256</ele>
        <time>2018-06-07T09:45:17Z</time>
      </trkpt>
      <trkpt lat="46.00055" lon="4.84694">
        <ele>256</ele>
        <time>2018-06-07T09:45:18Z</time>
      </trkpt>
      <trkpt lat="46.00062" lon="4.84694">
        <ele>256</ele>
        <time>2018-06-07T09:45:21Z</time>
      </trkpt>
      <trkpt lat="46.00064" lon="4.84695">
        <ele>256</ele>
        <time>2018-06-07T09:45:22Z</time>
      </trkpt>
      <trkpt lat="46.00073" lon="4.84696">
        <ele>256</ele>
        <time>2018-06-07T09:45:27Z</time>
      </trkpt>
      <trkpt lat="46.00075" lon="4.84697">
        <ele>256</ele>
        <time>2018-06-07T09:45:28Z</time>
      </trkpt>
      <trkpt lat="46.00077" lon="4.84696">
        <ele>256</ele>
        <time>2018-06-07T09:45:29Z</time>
      </trkpt>
      <trkpt lat="46.00083" lon="4.84692">
        <ele>256</ele>
        <time>2018-06-07T09:45:30Z</time>
      </trkpt>
      <trkpt lat="46.00084" lon="4.8468">
        <ele>257</ele>
        <time>2018-06-07T09:45:32Z</time>
      </trkpt>
      <trkpt lat="46.00084" lon="4.84674">
        <ele>256</ele>
        <time>2018-06-07T09:45:33Z</time>
      </trkpt>
      <trkpt lat="46.00084" lon="4.84665">
        <ele>256</ele>
        <time>2018-06-07T09:45:35Z</time>
      </trkpt>
      <trkpt lat="46.00084" lon="4.84656">
        <ele>256</ele>
        <time>2018-06-07T09:45:36Z</time>
      </trkpt>
      <trkpt lat="46.00083" lon="4.8465">
        <ele>257</ele>
        <time>2018-06-07T09:45:37Z</time>
      </trkpt>
      <trkpt lat="46.00083" lon="4.84643">
        <ele>256</ele>
        <time>2018-06-07T09:45:38Z</time>
      </trkpt>
      <trkpt lat="46.00083" lon="4.8464">
        <ele>256</ele>
        <time>2018-06-07T09:45:39Z</time>
      </trkpt>
      <trkpt lat="46.00071" lon="4.84635">
        <ele>256</ele>
        <time>2018-06-07T09:45:40Z</time>
      </trkpt>
      <trkpt lat="46.0007" lon="4.84631">
        <ele>256</ele>
        <time>2018-06-07T09:45:43Z</time>
      </trkpt>
      <trkpt lat="46.00074" lon="4.84615">
        <ele>256</ele>
        <time>2018-06-07T09:45:44Z</time>
      </trkpt>
      <trkpt lat="46.00075" lon="4.84609">
        <ele>256</ele>
        <time>2018-06-07T09:45:45Z</time>
      </trkpt>
      <trkpt lat="46.00076" lon="4.84601">
        <ele>256</ele>
        <time>2018-06-07T09:45:46Z</time>
      </trkpt>
      <trkpt lat="46.00077" lon="4.84594">
        <ele>257</ele>
        <time>2018-06-07T09:45:47Z</time>
      </trkpt>
      <trkpt lat="46.00078" lon="4.84588">
        <ele>257</ele>
        <time>2018-06-07T09:45:48Z</time>
      </trkpt>
      <trkpt lat="46.00078" lon="4.8458">
        <ele>257</ele>
        <time>2018-06-07T09:45:49Z</time>
      </trkpt>
      <trkpt lat="46.00077" lon="4.84574">
        <ele>257</ele>
        <time>2018-06-07T09:45:50Z</time>
      </trkpt>
      <trkpt lat="46.00079" lon="4.84561">
        <ele>257</ele>
        <time>2018-06-07T09:45:52Z</time>
      </trkpt>
      <trkpt lat="46.00079" lon="4.84559">
        <ele>257</ele>
        <time>2018-06-07T09:45:53Z</time>
      </trkpt>
      <trkpt lat="46.00079" lon="4.84546">
        <ele>257</ele>
        <time>2018-06-07T09:45:55Z</time>
      </trkpt>
      <trkpt lat="46.0008" lon="4.84541">
        <ele>257</ele>
        <time>2018-06-07T09:45:56Z</time>
      </trkpt>
      <trkpt lat="46.00083" lon="4.84529">
        <ele>257</ele>
        <time>2018-06-07T09:45:59Z</time>
      </trkpt>
      <trkpt lat="46.00086" lon="4.84521">
        <ele>259</ele>
        <time>2018-06-07T09:46:00Z</time>
      </trkpt>
      <trkpt lat="46.00087" lon="4.84515">
        <ele>259</ele>
        <time>2018-06-07T09:46:02Z</time>
      </trkpt>
      <trkpt lat="46.00089" lon="4.84507">
        <ele>259</ele>
        <time>2018-06-07T09:46:03Z</time>
      </trkpt>
      <trkpt lat="46.00091" lon="4.84495">
        <ele>259</ele>
        <time>2018-06-07T09:46:05Z</time>
      </trkpt>
      <trkpt lat="46.00091" lon="4.84489">
        <ele>259</ele>
        <time>2018-06-07T09:46:06Z</time>
      </trkpt>
      <trkpt lat="46.00091" lon="4.84478">
        <ele>260</ele>
        <time>2018-06-07T09:46:08Z</time>
      </trkpt>
      <trkpt lat="46.00091" lon="4.84472">
        <ele>260</ele>
        <time>2018-06-07T09:46:09Z</time>
      </trkpt>
      <trkpt lat="46.00091" lon="4.84466">
        <ele>260</ele>
        <time>2018-06-07T09:46:11Z</time>
      </trkpt>
      <trkpt lat="46.00092" lon="4.84456">
        <ele>260</ele>
        <time>2018-06-07T09:46:12Z</time>
      </trkpt>
      <trkpt lat="46.0009" lon="4.84445">
        <ele>260</ele>
        <time>2018-06-07T09:46:17Z</time>
      </trkpt>
      <trkpt lat="46.00088" lon="4.84444">
        <ele>260</ele>
        <time>2018-06-07T09:46:18Z</time>
      </trkpt>
      <trkpt lat="46.0008" lon="4.84449">
        <ele>258</ele>
        <time>2018-06-07T09:46:23Z</time>
      </trkpt>
      <trkpt lat="46.00079" lon="4.8445">
        <ele>258</ele>
        <time>2018-06-07T09:46:24Z</time>
      </trkpt>
      <trkpt lat="46.0008" lon="4.84454">
        <ele>258</ele>
        <time>2018-06-07T09:55:00Z</time>
      </trkpt>
      <trkpt lat="46.0008" lon="4.84454">
        <ele>258</ele>
        <time>2018-06-07T09:55:01Z</time>
      </trkpt>
      <trkpt lat="46.00078" lon="4.84457">
        <ele>258</ele>
        <time>2018-06-07T09:55:20Z</time>
      </trkpt>
      <trkpt lat="46.00078" lon="4.84457">
        <ele>258</ele>
        <time>2018-06-07T09:55:21Z</time>
      </trkpt>
      <trkpt lat="46.0008" lon="4.84461">
        <ele>258</ele>
        <time>2018-06-07T09:55:36Z</time>
      </trkpt>
      <trkpt lat="46.0008" lon="4.84461">
        <ele>258</ele>
        <time>2018-06-07T09:55:37Z</time>
      </trkpt>
      <trkpt lat="46.0008" lon="4.84461">
        <ele>258</ele>
        <time>2018-06-07T09:55:38Z</time>
      </trkpt>
      <trkpt lat="46.0008" lon="4.84462">
        <ele>258</ele>
        <time>2018-06-07T09:55:39Z</time>
      </trkpt>
      <trkpt lat="46.00086" lon="4.84469">
        <ele>260</ele>
        <time>2018-06-07T09:55:48Z</time>
      </trkpt>
      <trkpt lat="46.00086" lon="4.84471">
        <ele>260</ele>
        <time>2018-06-07T09:55:49Z</time>
      </trkpt>
      <trkpt lat="46.00087" lon="4.84483">
        <ele>259</ele>
        <time>2018-06-07T09:55:53Z</time>
      </trkpt>
      <trkpt lat="46.00087" lon="4.84487">
        <ele>259</ele>
        <time>2018-06-07T09:55:54Z</time>
      </trkpt>
      <trkpt lat="46.00086" lon="4.84496">
        <ele>259</ele>
        <time>2018-06-07T09:55:56Z</time>
      </trkpt>
      <trkpt lat="46.00085" lon="4.84501">
        <ele>259</ele>
        <time>2018-06-07T09:55:57Z</time>
      </trkpt>
      <trkpt lat="46.00081" lon="4.84512">
        <ele>258</ele>
        <time>2018-06-07T09:55:58Z</time>
      </trkpt>
      <trkpt lat="46.00078" lon="4.84514">
        <ele>258</ele>
        <time>2018-06-07T09:55:59Z</time>
      </trkpt>
      <trkpt lat="46.00076" lon="4.84514">
        <ele>258</ele>
        <time>2018-06-07T09:56:00Z</time>
      </trkpt>
      <trkpt lat="46.00074" lon="4.84502">
        <ele>258</ele>
        <time>2018-06-07T09:56:01Z</time>
      </trkpt>
      <trkpt lat="46.00071" lon="4.84493">
        <ele>259</ele>
        <time>2018-06-07T09:56:03Z</time>
      </trkpt>
      <trkpt lat="46.0007" lon="4.84487">
        <ele>258</ele>
        <time>2018-06-07T09:56:04Z</time>
      </trkpt>
      <trkpt lat="46.00069" lon="4.84476">
        <ele>258</ele>
        <time>2018-06-07T09:56:06Z</time>
      </trkpt>
      <trkpt lat="46.00068" lon="4.84471">
        <ele>258</ele>
        <time>2018-06-07T09:56:07Z</time>
      </trkpt>
      <trkpt lat="46.00066" lon="4.8446">
        <ele>258</ele>
        <time>2018-06-07T09:56:09Z</time>
      </trkpt>
      <trkpt lat="46.00066" lon="4.84455">
        <ele>258</ele>
        <time>2018-06-07T09:56:10Z</time>
      </trkpt>
      <trkpt lat="46.00064" lon="4.84445">
        <ele>258</ele>
        <time>2018-06-07T09:56:12Z</time>
      </trkpt>
      <trkpt lat="46.00064" lon="4.8444">
        <ele>258</ele>
        <time>2018-06-07T09:56:13Z</time>
      </trkpt>
      <trkpt lat="46.00062" lon="4.84428">
        <ele>258</ele>
        <time>2018-06-07T09:56:15Z</time>
      </trkpt>
      <trkpt lat="46.0006" lon="4.84422">
        <ele>258</ele>
        <time>2018-06-07T09:56:16Z</time>
      </trkpt>
      <trkpt lat="46.00058" lon="4.8441">
        <ele>259</ele>
        <time>2018-06-07T09:56:18Z</time>
      </trkpt>
      <trkpt lat="46.00057" lon="4.84405">
        <ele>259</ele>
        <time>2018-06-07T09:56:19Z</time>
      </trkpt>
      <trkpt lat="46.00055" lon="4.84393">
        <ele>259</ele>
        <time>2018-06-07T09:56:21Z</time>
      </trkpt>
      <trkpt lat="46.00055" lon="4.84387">
        <ele>259</ele>
        <time>2018-06-07T09:56:22Z</time>
      </trkpt>
      <trkpt lat="46.00053" lon="4.84376">
        <ele>259</ele>
        <time>2018-06-07T09:56:24Z</time>
      </trkpt>
      <trkpt lat="46.00052" lon="4.84371">
        <ele>259</ele>
        <time>2018-06-07T09:56:25Z</time>
      </trkpt>
      <trkpt lat="46.00049" lon="4.84361">
        <ele>259</ele>
        <time>2018-06-07T09:56:27Z</time>
      </trkpt>
      <trkpt lat="46.00048" lon="4.84355">
        <ele>259</ele>
        <time>2018-06-07T09:56:28Z</time>
      </trkpt>
      <trkpt lat="46.00046" lon="4.84345">
        <ele>259</ele>
        <time>2018-06-07T09:56:30Z</time>
      </trkpt>
      <trkpt lat="46.00045" lon="4.8434">
        <ele>259</ele>
        <time>2018-06-07T09:56:31Z</time>
      </trkpt>
      <trkpt lat="46.00042" lon="4.84329">
        <ele>260</ele>
        <time>2018-06-07T09:56:33Z</time>
      </trkpt>
      <trkpt lat="46.0004" lon="4.84324">
        <ele>259</ele>
        <time>2018-06-07T09:56:34Z</time>
      </trkpt>
      <trkpt lat="46.00038" lon="4.84313">
        <ele>259</ele>
        <time>2018-06-07T09:56:36Z</time>
      </trkpt>
      <trkpt lat="46.00036" lon="4.84308">
        <ele>259</ele>
        <time>2018-06-07T09:56:37Z</time>
      </trkpt>
      <trkpt lat="46.00033" lon="4.84296">
        <ele>259</ele>
        <time>2018-06-07T09:56:39Z</time>
      </trkpt>
      <trkpt lat="46.00032" lon="4.8429">
        <ele>260</ele>
        <time>2018-06-07T09:56:40Z</time>
      </trkpt>
      <trkpt lat="46.00029" lon="4.84283">
        <ele>260</ele>
        <time>2018-06-07T09:56:41Z</time>
      </trkpt>
      <trkpt lat="46.00027" lon="4.84276">
        <ele>260</ele>
        <time>2018-06-07T09:56:42Z</time>
      </trkpt>
      <trkpt lat="46.00026" lon="4.84269">
        <ele>260</ele>
        <time>2018-06-07T09:56:43Z</time>
      </trkpt>
      <trkpt lat="46.00024" lon="4.84262">
        <ele>260</ele>
        <time>2018-06-07T09:56:44Z</time>
      </trkpt>
      <trkpt lat="46.00022" lon="4.84255">
        <ele>260</ele>
        <time>2018-06-07T09:56:45Z</time>
      </trkpt>
      <trkpt lat="46.00018" lon="4.84249">
        <ele>259</ele>
        <time>2018-06-07T09:56:46Z</time>
      </trkpt>
      <trkpt lat="46.00017" lon="4.84242">
        <ele>259</ele>
        <time>2018-06-07T09:56:47Z</time>
      </trkpt>
      <trkpt lat="46.00016" lon="4.84235">
        <ele>259</ele>
        <time>2018-06-07T09:56:48Z</time>
      </trkpt>
      <trkpt lat="46.00015" lon="4.84229">
        <ele>259</ele>
        <time>2018-06-07T09:56:49Z</time>
      </trkpt>
      <trkpt lat="46.00012" lon="4.84221">
        <ele>259</ele>
        <time>2018-06-07T09:56:50Z</time>
      </trkpt>
      <trkpt lat="46.00011" lon="4.84215">
        <ele>259</ele>
        <time>2018-06-07T09:56:51Z</time>
      </trkpt>
      <trkpt lat="46.0001" lon="4.84208">
        <ele>259</ele>
        <time>2018-06-07T09:56:52Z</time>
      </trkpt>
      <trkpt lat="46.00008" lon="4.84201">
        <ele>258</ele>
        <time>2018-06-07T09:56:53Z</time>
      </trkpt>
      <trkpt lat="46.00007" lon="4.84194">
        <ele>258</ele>
        <time>2018-06-07T09:56:54Z</time>
      </trkpt>
      <trkpt lat="46.00005" lon="4.84188">
        <ele>258</ele>
        <time>2018-06-07T09:56:55Z</time>
      </trkpt>
      <trkpt lat="46.00002" lon="4.84182">
        <ele>258</ele>
        <time>2018-06-07T09:56:56Z</time>
      </trkpt>
      <trkpt lat="46" lon="4.84173">
        <ele>257</ele>
        <time>2018-06-07T09:56:57Z</time>
      </trkpt>
      <trkpt lat="45.99998" lon="4.84166">
        <ele>257</ele>
        <time>2018-06-07T09:56:58Z</time>
      </trkpt>
      <trkpt lat="45.99994" lon="4.84159">
        <ele>257</ele>
        <time>2018-06-07T09:56:59Z</time>
      </trkpt>
      <trkpt lat="45.99993" lon="4.84152">
        <ele>257</ele>
        <time>2018-06-07T09:57:00Z</time>
      </trkpt>
      <trkpt lat="45.99991" lon="4.84145">
        <ele>257</ele>
        <time>2018-06-07T09:57:01Z</time>
      </trkpt>
      <trkpt lat="45.99989" lon="4.84137">
        <ele>257</ele>
        <time>2018-06-07T09:57:02Z</time>
      </trkpt>
      <trkpt lat="45.99986" lon="4.84131">
        <ele>257</ele>
        <time>2018-06-07T09:57:03Z</time>
      </trkpt>
      <trkpt lat="45.99984" lon="4.84124">
        <ele>257</ele>
        <time>2018-06-07T09:57:04Z</time>
      </trkpt>
      <trkpt lat="45.99983" lon="4.84116">
        <ele>258</ele>
        <time>2018-06-07T09:57:05Z</time>
      </trkpt>
      <trkpt lat="45.99981" lon="4.8411">
        <ele>258</ele>
        <time>2018-06-07T09:57:06Z</time>
      </trkpt>
      <trkpt lat="45.99978" lon="4.84097">
        <ele>258</ele>
        <time>2018-06-07T09:57:08Z</time>
      </trkpt>
      <trkpt lat="45.99976" lon="4.84089">
        <ele>258</ele>
        <time>2018-06-07T09:57:09Z</time>
      </trkpt>
      <trkpt lat="45.99972" lon="4.84081">
        <ele>259</ele>
        <time>2018-06-07T09:57:10Z</time>
      </trkpt>
      <trkpt lat="45.99971" lon="4.84074">
        <ele>259</ele>
        <time>2018-06-07T09:57:11Z</time>
      </trkpt>
      <trkpt lat="45.9997" lon="4.84068">
        <ele>259</ele>
        <time>2018-06-07T09:57:12Z</time>
      </trkpt>
      <trkpt lat="45.99968" lon="4.8406">
        <ele>259</ele>
        <time>2018-06-07T09:57:13Z</time>
      </trkpt>
      <trkpt lat="45.99966" lon="4.84054">
        <ele>259</ele>
        <time>2018-06-07T09:57:14Z</time>
      </trkpt>
      <trkpt lat="45.99964" lon="4.84047">
        <ele>259</ele>
        <time>2018-06-07T09:57:15Z</time>
      </trkpt>
      <trkpt lat="45.99963" lon="4.8404">
        <ele>259</ele>
        <time>2018-06-07T09:57:16Z</time>
      </trkpt>
      <trkpt lat="45.99961" lon="4.84034">
        <ele>259</ele>
        <time>2018-06-07T09:57:17Z</time>
      </trkpt>
      <trkpt lat="45.99959" lon="4.84026">
        <ele>259</ele>
        <time>2018-06-07T09:57:18Z</time>
      </trkpt>
      <trkpt lat="45.99957" lon="4.8402">
        <ele>259</ele>
        <time>2018-06-07T09:57:19Z</time>
      </trkpt>
      <trkpt lat="45.99955" lon="4.84013">
        <ele>259</ele>
        <time>2018-06-07T09:57:20Z</time>
      </trkpt>
      <trkpt lat="45.99951" lon="4.84007">
        <ele>259</ele>
        <time>2018-06-07T09:57:21Z</time>
      </trkpt>
      <trkpt lat="45.99948" lon="4.83995">
        <ele>259</ele>
        <time>2018-06-07T09:57:23Z</time>
      </trkpt>
      <trkpt lat="45.99945" lon="4.83987">
        <ele>259</ele>
        <time>2018-06-07T09:57:24Z</time>
      </trkpt>
      <trkpt lat="45.99943" lon="4.8398">
        <ele>259</ele>
        <time>2018-06-07T09:57:25Z</time>
      </trkpt>
      <trkpt lat="45.99942" lon="4.83973">
        <ele>259</ele>
        <time>2018-06-07T09:57:26Z</time>
      </trkpt>
      <trkpt lat="45.9994" lon="4.83967">
        <ele>259</ele>
        <time>2018-06-07T09:57:27Z</time>
      </trkpt>
      <trkpt lat="45.99937" lon="4.83961">
        <ele>259</ele>
        <time>2018-06-07T09:57:28Z</time>
      </trkpt>
      <trkpt lat="45.99934" lon="4.83949">
        <ele>259</ele>
        <time>2018-06-07T09:57:30Z</time>
      </trkpt>
      <trkpt lat="45.99933" lon="4.83942">
        <ele>259</ele>
        <time>2018-06-07T09:57:31Z</time>
      </trkpt>
      <trkpt lat="45.99932" lon="4.83935">
        <ele>259</ele>
        <time>2018-06-07T09:57:32Z</time>
      </trkpt>
      <trkpt lat="45.9993" lon="4.83927">
        <ele>259</ele>
        <time>2018-06-07T09:57:33Z</time>
      </trkpt>
      <trkpt lat="45.99927" lon="4.83919">
        <ele>259</ele>
        <time>2018-06-07T09:57:34Z</time>
      </trkpt>
      <trkpt lat="45.99926" lon="4.83912">
        <ele>259</ele>
        <time>2018-06-07T09:57:35Z</time>
      </trkpt>
      <trkpt lat="45.99923" lon="4.83905">
        <ele>259</ele>
        <time>2018-06-07T09:57:36Z</time>
      </trkpt>
      <trkpt lat="45.9992" lon="4.83897">
        <ele>259</ele>
        <time>2018-06-07T09:57:37Z</time>
      </trkpt>
      <trkpt lat="45.99917" lon="4.83888">
        <ele>259</ele>
        <time>2018-06-07T09:57:38Z</time>
      </trkpt>
      <trkpt lat="45.99915" lon="4.8388">
        <ele>258</ele>
        <time>2018-06-07T09:57:39Z</time>
      </trkpt>
      <trkpt lat="45.99913" lon="4.83873">
        <ele>258</ele>
        <time>2018-06-07T09:57:40Z</time>
      </trkpt>
      <trkpt lat="45.99911" lon="4.83866">
        <ele>258</ele>
        <time>2018-06-07T09:57:41Z</time>
      </trkpt>
      <trkpt lat="45.99908" lon="4.83856">
        <ele>258</ele>
        <time>2018-06-07T09:57:43Z</time>
      </trkpt>
      <trkpt lat="45.99906" lon="4.83847">
        <ele>258</ele>
        <time>2018-06-07T09:57:44Z</time>
      </trkpt>
      <trkpt lat="45.99904" lon="4.8384">
        <ele>258</ele>
        <time>2018-06-07T09:57:45Z</time>
      </trkpt>
      <trkpt lat="45.99902" lon="4.83831">
        <ele>257</ele>
        <time>2018-06-07T09:57:46Z</time>
      </trkpt>
      <trkpt lat="45.999" lon="4.83824">
        <ele>257</ele>
        <time>2018-06-07T09:57:47Z</time>
      </trkpt>
      <trkpt lat="45.999" lon="4.83818">
        <ele>257</ele>
        <time>2018-06-07T09:57:48Z</time>
      </trkpt>
      <trkpt lat="45.99896" lon="4.83806">
        <ele>257</ele>
        <time>2018-06-07T09:57:50Z</time>
      </trkpt>
      <trkpt lat="45.99894" lon="4.83799">
        <ele>257</ele>
        <time>2018-06-07T09:57:51Z</time>
      </trkpt>
      <trkpt lat="45.99891" lon="4.83791">
        <ele>257</ele>
        <time>2018-06-07T09:57:52Z</time>
      </trkpt>
      <trkpt lat="45.99887" lon="4.83783">
        <ele>257</ele>
        <time>2018-06-07T09:57:53Z</time>
      </trkpt>
      <trkpt lat="45.99884" lon="4.83774">
        <ele>257</ele>
        <time>2018-06-07T09:57:54Z</time>
      </trkpt>
      <trkpt lat="45.99883" lon="4.83768">
        <ele>256</ele>
        <time>2018-06-07T09:57:55Z</time>
      </trkpt>
      <trkpt lat="45.99881" lon="4.83759">
        <ele>256</ele>
        <time>2018-06-07T09:57:56Z</time>
      </trkpt>
      <trkpt lat="45.9988" lon="4.83749">
        <ele>256</ele>
        <time>2018-06-07T09:57:57Z</time>
      </trkpt>
      <trkpt lat="45.99878" lon="4.83742">
        <ele>256</ele>
        <time>2018-06-07T09:57:58Z</time>
      </trkpt>
      <trkpt lat="45.99875" lon="4.83733">
        <ele>256</ele>
        <time>2018-06-07T09:57:59Z</time>
      </trkpt>
      <trkpt lat="45.99872" lon="4.83723">
        <ele>256</ele>
        <time>2018-06-07T09:58:00Z</time>
      </trkpt>
      <trkpt lat="45.99871" lon="4.83715">
        <ele>256</ele>
        <time>2018-06-07T09:58:01Z</time>
      </trkpt>
      <trkpt lat="45.99869" lon="4.83707">
        <ele>256</ele>
        <time>2018-06-07T09:58:02Z</time>
      </trkpt>
      <trkpt lat="45.99867" lon="4.83699">
        <ele>256</ele>
        <time>2018-06-07T09:58:03Z</time>
      </trkpt>
      <trkpt lat="45.99865" lon="4.8369">
        <ele>256</ele>
        <time>2018-06-07T09:58:04Z</time>
      </trkpt>
      <trkpt lat="45.99863" lon="4.83684">
        <ele>256</ele>
        <time>2018-06-07T09:58:05Z</time>
      </trkpt>
      <trkpt lat="45.99861" lon="4.83675">
        <ele>256</ele>
        <time>2018-06-07T09:58:06Z</time>
      </trkpt>
      <trkpt lat="45.99856" lon="4.83666">
        <ele>257</ele>
        <time>2018-06-07T09:58:07Z</time>
      </trkpt>
      <trkpt lat="45.99855" lon="4.83657">
        <ele>257</ele>
        <time>2018-06-07T09:58:08Z</time>
      </trkpt>
      <trkpt lat="45.99852" lon="4.83648">
        <ele>257</ele>
        <time>2018-06-07T09:58:09Z</time>
      </trkpt>
      <trkpt lat="45.99851" lon="4.83639">
        <ele>257</ele>
        <time>2018-06-07T09:58:10Z</time>
      </trkpt>
      <trkpt lat="45.9985" lon="4.8363">
        <ele>257</ele>
        <time>2018-06-07T09:58:11Z</time>
      </trkpt>
      <trkpt lat="45.99847" lon="4.83621">
        <ele>257</ele>
        <time>2018-06-07T09:58:12Z</time>
      </trkpt>
      <trkpt lat="45.99844" lon="4.83611">
        <ele>257</ele>
        <time>2018-06-07T09:58:13Z</time>
      </trkpt>
      <trkpt lat="45.99843" lon="4.83603">
        <ele>257</ele>
        <time>2018-06-07T09:58:14Z</time>
      </trkpt>
      <trkpt lat="45.99841" lon="4.83594">
        <ele>257</ele>
        <time>2018-06-07T09:58:15Z</time>
      </trkpt>
      <trkpt lat="45.9984" lon="4.83588">
        <ele>257</ele>
        <time>2018-06-07T09:58:16Z</time>
      </trkpt>
      <trkpt lat="45.99838" lon="4.83581">
        <ele>257</ele>
        <time>2018-06-07T09:58:17Z</time>
      </trkpt>
      <trkpt lat="45.99837" lon="4.83575">
        <ele>257</ele>
        <time>2018-06-07T09:58:18Z</time>
      </trkpt>
      <trkpt lat="45.99835" lon="4.83567">
        <ele>258</ele>
        <time>2018-06-07T09:58:19Z</time>
      </trkpt>
      <trkpt lat="45.99834" lon="4.8356">
        <ele>258</ele>
        <time>2018-06-07T09:58:20Z</time>
      </trkpt>
      <trkpt lat="45.99833" lon="4.83552">
        <ele>258</ele>
        <time>2018-06-07T09:58:21Z</time>
      </trkpt>
      <trkpt lat="45.99831" lon="4.83545">
        <ele>259</ele>
        <time>2018-06-07T09:58:22Z</time>
      </trkpt>
      <trkpt lat="45.99828" lon="4.83538">
        <ele>259</ele>
        <time>2018-06-07T09:58:23Z</time>
      </trkpt>
      <trkpt lat="45.99827" lon="4.83531">
        <ele>259</ele>
        <time>2018-06-07T09:58:24Z</time>
      </trkpt>
      <trkpt lat="45.99825" lon="4.83523">
        <ele>259</ele>
        <time>2018-06-07T09:58:25Z</time>
      </trkpt>
      <trkpt lat="45.99824" lon="4.83517">
        <ele>259</ele>
        <time>2018-06-07T09:58:26Z</time>
      </trkpt>
      <trkpt lat="45.99823" lon="4.8351">
        <ele>259</ele>
        <time>2018-06-07T09:58:27Z</time>
      </trkpt>
      <trkpt lat="45.99819" lon="4.83503">
        <ele>259</ele>
        <time>2018-06-07T09:58:28Z</time>
      </trkpt>
      <trkpt lat="45.99819" lon="4.83497">
        <ele>260</ele>
        <time>2018-06-07T09:58:29Z</time>
      </trkpt>
      <trkpt lat="45.99817" lon="4.83485">
        <ele>260</ele>
        <time>2018-06-07T09:58:31Z</time>
      </trkpt>
      <trkpt lat="45.99816" lon="4.83477">
        <ele>260</ele>
        <time>2018-06-07T09:58:32Z</time>
      </trkpt>
      <trkpt lat="45.99814" lon="4.83471">
        <ele>260</ele>
        <time>2018-06-07T09:58:33Z</time>
      </trkpt>
      <trkpt lat="45.99812" lon="4.83464">
        <ele>261</ele>
        <time>2018-06-07T09:58:34Z</time>
      </trkpt>
      <trkpt lat="45.99808" lon="4.83454">
        <ele>261</ele>
        <time>2018-06-07T09:58:36Z</time>
      </trkpt>
      <trkpt lat="45.99807" lon="4.83448">
        <ele>261</ele>
        <time>2018-06-07T09:58:37Z</time>
      </trkpt>
      <trkpt lat="45.99806" lon="4.83441">
        <ele>261</ele>
        <time>2018-06-07T09:58:38Z</time>
      </trkpt>
      <trkpt lat="45.99804" lon="4.83436">
        <ele>261</ele>
        <time>2018-06-07T09:58:39Z</time>
      </trkpt>
      <trkpt lat="45.99803" lon="4.83428">
        <ele>261</ele>
        <time>2018-06-07T09:58:40Z</time>
      </trkpt>
      <trkpt lat="45.99801" lon="4.83423">
        <ele>261</ele>
        <time>2018-06-07T09:58:41Z</time>
      </trkpt>
      <trkpt lat="45.99799" lon="4.83411">
        <ele>262</ele>
        <time>2018-06-07T09:58:43Z</time>
      </trkpt>
      <trkpt lat="45.99798" lon="4.83406">
        <ele>262</ele>
        <time>2018-06-07T09:58:44Z</time>
      </trkpt>
      <trkpt lat="45.99794" lon="4.83395">
        <ele>262</ele>
        <time>2018-06-07T09:58:46Z</time>
      </trkpt>
      <trkpt lat="45.99793" lon="4.83389">
        <ele>262</ele>
        <time>2018-06-07T09:58:47Z</time>
      </trkpt>
      <trkpt lat="45.99789" lon="4.83378">
        <ele>262</ele>
        <time>2018-06-07T09:58:49Z</time>
      </trkpt>
      <trkpt lat="45.99789" lon="4.83372">
        <ele>262</ele>
        <time>2018-06-07T09:58:50Z</time>
      </trkpt>
      <trkpt lat="45.99786" lon="4.8336">
        <ele>262</ele>
        <time>2018-06-07T09:58:52Z</time>
      </trkpt>
      <trkpt lat="45.99785" lon="4.83354">
        <ele>262</ele>
        <time>2018-06-07T09:58:53Z</time>
      </trkpt>
      <trkpt lat="45.99783" lon="4.83342">
        <ele>263</ele>
        <time>2018-06-07T09:58:55Z</time>
      </trkpt>
      <trkpt lat="45.99783" lon="4.83335">
        <ele>263</ele>
        <time>2018-06-07T09:58:56Z</time>
      </trkpt>
      <trkpt lat="45.99781" lon="4.83324">
        <ele>264</ele>
        <time>2018-06-07T09:58:58Z</time>
      </trkpt>
      <trkpt lat="45.9978" lon="4.83321">
        <ele>264</ele>
        <time>2018-06-07T09:58:59Z</time>
      </trkpt>
      <trkpt lat="45.99779" lon="4.83313">
        <ele>264</ele>
        <time>2018-06-07T09:59:00Z</time>
      </trkpt>
      <trkpt lat="45.99778" lon="4.83308">
        <ele>264</ele>
        <time>2018-06-07T09:59:01Z</time>
      </trkpt>
      <trkpt lat="45.99777" lon="4.83296">
        <ele>264</ele>
        <time>2018-06-07T09:59:03Z</time>
      </trkpt>
      <trkpt lat="45.99777" lon="4.8329">
        <ele>264</ele>
        <time>2018-06-07T09:59:04Z</time>
      </trkpt>
      <trkpt lat="45.99775" lon="4.83279">
        <ele>265</ele>
        <time>2018-06-07T09:59:06Z</time>
      </trkpt>
      <trkpt lat="45.99775" lon="4.83273">
        <ele>265</ele>
        <time>2018-06-07T09:59:07Z</time>
      </trkpt>
      <trkpt lat="45.99774" lon="4.83261">
        <ele>265</ele>
        <time>2018-06-07T09:59:09Z</time>
      </trkpt>
      <trkpt lat="45.99773" lon="4.83255">
        <ele>265</ele>
        <time>2018-06-07T09:59:10Z</time>
      </trkpt>
      <trkpt lat="45.99772" lon="4.83243">
        <ele>267</ele>
        <time>2018-06-07T09:59:12Z</time>
      </trkpt>
      <trkpt lat="45.99771" lon="4.83237">
        <ele>267</ele>
        <time>2018-06-07T09:59:13Z</time>
      </trkpt>
      <trkpt lat="45.99769" lon="4.83226">
        <ele>267</ele>
        <time>2018-06-07T09:59:15Z</time>
      </trkpt>
      <trkpt lat="45.99769" lon="4.8322">
        <ele>268</ele>
        <time>2018-06-07T09:59:16Z</time>
      </trkpt>
      <trkpt lat="45.99768" lon="4.8321">
        <ele>268</ele>
        <time>2018-06-07T09:59:18Z</time>
      </trkpt>
      <trkpt lat="45.99767" lon="4.83204">
        <ele>268</ele>
        <time>2018-06-07T09:59:19Z</time>
      </trkpt>
      <trkpt lat="45.99766" lon="4.83193">
        <ele>269</ele>
        <time>2018-06-07T09:59:21Z</time>
      </trkpt>
      <trkpt lat="45.99765" lon="4.83188">
        <ele>269</ele>
        <time>2018-06-07T09:59:22Z</time>
      </trkpt>
      <trkpt lat="45.99765" lon="4.83177">
        <ele>269</ele>
        <time>2018-06-07T09:59:24Z</time>
      </trkpt>
      <trkpt lat="45.99765" lon="4.83171">
        <ele>269</ele>
        <time>2018-06-07T09:59:25Z</time>
      </trkpt>
      <trkpt lat="45.99764" lon="4.8316">
        <ele>271</ele>
        <time>2018-06-07T09:59:27Z</time>
      </trkpt>
      <trkpt lat="45.99763" lon="4.83157">
        <ele>271</ele>
        <time>2018-06-07T09:59:28Z</time>
      </trkpt>
      <trkpt lat="45.99763" lon="4.8315">
        <ele>271</ele>
        <time>2018-06-07T09:59:29Z</time>
      </trkpt>
      <trkpt lat="45.99762" lon="4.83144">
        <ele>271</ele>
        <time>2018-06-07T09:59:30Z</time>
      </trkpt>
      <trkpt lat="45.99762" lon="4.83133">
        <ele>271</ele>
        <time>2018-06-07T09:59:33Z</time>
      </trkpt>
      <trkpt lat="45.99762" lon="4.83129">
        <ele>271</ele>
        <time>2018-06-07T09:59:34Z</time>
      </trkpt>
      <trkpt lat="45.99761" lon="4.8312">
        <ele>271</ele>
        <time>2018-06-07T09:59:36Z</time>
      </trkpt>
      <trkpt lat="45.99761" lon="4.83116">
        <ele>271</ele>
        <time>2018-06-07T09:59:37Z</time>
      </trkpt>
      <trkpt lat="45.9976" lon="4.83106">
        <ele>271</ele>
        <time>2018-06-07T09:59:39Z</time>
      </trkpt>
      <trkpt lat="45.99759" lon="4.83093">
        <ele>272</ele>
        <time>2018-06-07T09:59:40Z</time>
      </trkpt>
      <trkpt lat="45.99757" lon="4.8308">
        <ele>272</ele>
        <time>2018-06-07T09:59:44Z</time>
      </trkpt>
      <trkpt lat="45.99754" lon="4.8307">
        <ele>272</ele>
        <time>2018-06-07T09:59:45Z</time>
      </trkpt>
      <trkpt lat="45.99753" lon="4.83064">
        <ele>272</ele>
        <time>2018-06-07T09:59:47Z</time>
      </trkpt>
      <trkpt lat="45.99752" lon="4.83055">
        <ele>272</ele>
        <time>2018-06-07T09:59:48Z</time>
      </trkpt>
      <trkpt lat="45.99749" lon="4.83046">
        <ele>271</ele>
        <time>2018-06-07T09:59:51Z</time>
      </trkpt>
      <trkpt lat="45.99746" lon="4.83037">
        <ele>271</ele>
        <time>2018-06-07T09:59:52Z</time>
      </trkpt>
      <trkpt lat="45.99743" lon="4.83027">
        <ele>271</ele>
        <time>2018-06-07T09:59:54Z</time>
      </trkpt>
      <trkpt lat="45.99742" lon="4.83024">
        <ele>271</ele>
        <time>2018-06-07T09:59:55Z</time>
      </trkpt>
      <trkpt lat="45.99739" lon="4.83013">
        <ele>271</ele>
        <time>2018-06-07T09:59:57Z</time>
      </trkpt>
      <trkpt lat="45.99738" lon="4.83008">
        <ele>271</ele>
        <time>2018-06-07T09:59:58Z</time>
      </trkpt>
      <trkpt lat="45.99734" lon="4.82998">
        <ele>271</ele>
        <time>2018-06-07T10:00:00Z</time>
      </trkpt>
      <trkpt lat="45.99733" lon="4.82992">
        <ele>271</ele>
        <time>2018-06-07T10:00:01Z</time>
      </trkpt>
      <trkpt lat="45.9973" lon="4.82986">
        <ele>271</ele>
        <time>2018-06-07T10:00:02Z</time>
      </trkpt>
      <trkpt lat="45.99728" lon="4.8298">
        <ele>271</ele>
        <time>2018-06-07T10:00:03Z</time>
      </trkpt>
      <trkpt lat="45.99724" lon="4.82969">
        <ele>271</ele>
        <time>2018-06-07T10:00:05Z</time>
      </trkpt>
      <trkpt lat="45.99723" lon="4.82963">
        <ele>271</ele>
        <time>2018-06-07T10:00:06Z</time>
      </trkpt>
      <trkpt lat="45.9972" lon="4.82954">
        <ele>271</ele>
        <time>2018-06-07T10:00:08Z</time>
      </trkpt>
      <trkpt lat="45.99718" lon="4.82948">
        <ele>271</ele>
        <time>2018-06-07T10:00:09Z</time>
      </trkpt>
      <trkpt lat="45.99716" lon="4.82941">
        <ele>271</ele>
        <time>2018-06-07T10:00:10Z</time>
      </trkpt>
      <trkpt lat="45.99715" lon="4.82934">
        <ele>271</ele>
        <time>2018-06-07T10:00:11Z</time>
      </trkpt>
      <trkpt lat="45.99711" lon="4.82922">
        <ele>271</ele>
        <time>2018-06-07T10:00:13Z</time>
      </trkpt>
      <trkpt lat="45.99709" lon="4.82915">
        <ele>271</ele>
        <time>2018-06-07T10:00:14Z</time>
      </trkpt>
      <trkpt lat="45.99708" lon="4.82903">
        <ele>271</ele>
        <time>2018-06-07T10:00:16Z</time>
      </trkpt>
      <trkpt lat="45.99706" lon="4.82895">
        <ele>271</ele>
        <time>2018-06-07T10:00:17Z</time>
      </trkpt>
      <trkpt lat="45.99704" lon="4.82887">
        <ele>271</ele>
        <time>2018-06-07T10:00:18Z</time>
      </trkpt>
      <trkpt lat="45.99701" lon="4.82879">
        <ele>271</ele>
        <time>2018-06-07T10:00:19Z</time>
      </trkpt>
      <trkpt lat="45.99699" lon="4.82872">
        <ele>270</ele>
        <time>2018-06-07T10:00:20Z</time>
      </trkpt>
      <trkpt lat="45.99697" lon="4.82865">
        <ele>270</ele>
        <time>2018-06-07T10:00:21Z</time>
      </trkpt>
      <trkpt lat="45.99694" lon="4.82858">
        <ele>270</ele>
        <time>2018-06-07T10:00:22Z</time>
      </trkpt>
      <trkpt lat="45.99692" lon="4.82851">
        <ele>270</ele>
        <time>2018-06-07T10:00:23Z</time>
      </trkpt>
      <trkpt lat="45.9969" lon="4.82844">
        <ele>270</ele>
        <time>2018-06-07T10:00:24Z</time>
      </trkpt>
      <trkpt lat="45.99685" lon="4.82837">
        <ele>270</ele>
        <time>2018-06-07T10:00:25Z</time>
      </trkpt>
      <trkpt lat="45.99684" lon="4.8283">
        <ele>270</ele>
        <time>2018-06-07T10:00:26Z</time>
      </trkpt>
      <trkpt lat="45.99682" lon="4.82823">
        <ele>270</ele>
        <time>2018-06-07T10:00:27Z</time>
      </trkpt>
      <trkpt lat="45.99681" lon="4.82814">
        <ele>270</ele>
        <time>2018-06-07T10:00:28Z</time>
      </trkpt>
      <trkpt lat="45.99677" lon="4.82807">
        <ele>270</ele>
        <time>2018-06-07T10:00:29Z</time>
      </trkpt>
      <trkpt lat="45.99674" lon="4.82798">
        <ele>270</ele>
        <time>2018-06-07T10:00:30Z</time>
      </trkpt>
      <trkpt lat="45.99675" lon="4.82789">
        <ele>269</ele>
        <time>2018-06-07T10:00:31Z</time>
      </trkpt>
      <trkpt lat="45.99671" lon="4.8278">
        <ele>269</ele>
        <time>2018-06-07T10:00:32Z</time>
      </trkpt>
      <trkpt lat="45.99671" lon="4.82772">
        <ele>269</ele>
        <time>2018-06-07T10:00:33Z</time>
      </trkpt>
      <trkpt lat="45.99669" lon="4.82763">
        <ele>269</ele>
        <time>2018-06-07T10:00:34Z</time>
      </trkpt>
      <trkpt lat="45.99668" lon="4.82755">
        <ele>269</ele>
        <time>2018-06-07T10:00:35Z</time>
      </trkpt>
      <trkpt lat="45.99667" lon="4.82746">
        <ele>269</ele>
        <time>2018-06-07T10:00:36Z</time>
      </trkpt>
      <trkpt lat="45.99666" lon="4.82738">
        <ele>268</ele>
        <time>2018-06-07T10:00:37Z</time>
      </trkpt>
      <trkpt lat="45.99667" lon="4.8273">
        <ele>269</ele>
        <time>2018-06-07T10:00:38Z</time>
      </trkpt>
      <trkpt lat="45.99667" lon="4.82722">
        <ele>269</ele>
        <time>2018-06-07T10:00:39Z</time>
      </trkpt>
      <trkpt lat="45.99665" lon="4.82713">
        <ele>268</ele>
        <time>2018-06-07T10:00:40Z</time>
      </trkpt>
      <trkpt lat="45.99664" lon="4.82707">
        <ele>268</ele>
        <time>2018-06-07T10:00:41Z</time>
      </trkpt>
      <trkpt lat="45.99662" lon="4.827">
        <ele>268</ele>
        <time>2018-06-07T10:00:42Z</time>
      </trkpt>
      <trkpt lat="45.99661" lon="4.82692">
        <ele>268</ele>
        <time>2018-06-07T10:00:43Z</time>
      </trkpt>
      <trkpt lat="45.9966" lon="4.82684">
        <ele>268</ele>
        <time>2018-06-07T10:00:44Z</time>
      </trkpt>
      <trkpt lat="45.99659" lon="4.82678">
        <ele>268</ele>
        <time>2018-06-07T10:00:45Z</time>
      </trkpt>
      <trkpt lat="45.99657" lon="4.8267">
        <ele>268</ele>
        <time>2018-06-07T10:00:46Z</time>
      </trkpt>
      <trkpt lat="45.99656" lon="4.82664">
        <ele>268</ele>
        <time>2018-06-07T10:00:47Z</time>
      </trkpt>
      <trkpt lat="45.99656" lon="4.82657">
        <ele>268</ele>
        <time>2018-06-07T10:00:48Z</time>
      </trkpt>
      <trkpt lat="45.99654" lon="4.8265">
        <ele>267</ele>
        <time>2018-06-07T10:00:49Z</time>
      </trkpt>
      <trkpt lat="45.99653" lon="4.82644">
        <ele>267</ele>
        <time>2018-06-07T10:00:50Z</time>
      </trkpt>
      <trkpt lat="45.99652" lon="4.82637">
        <ele>267</ele>
        <time>2018-06-07T10:00:51Z</time>
      </trkpt>
      <trkpt lat="45.99651" lon="4.8263">
        <ele>267</ele>
        <time>2018-06-07T10:00:52Z</time>
      </trkpt>
      <trkpt lat="45.9965" lon="4.82623">
        <ele>267</ele>
        <time>2018-06-07T10:00:53Z</time>
      </trkpt>
      <trkpt lat="45.99648" lon="4.82614">
        <ele>267</ele>
        <time>2018-06-07T10:00:54Z</time>
      </trkpt>
      <trkpt lat="45.99647" lon="4.82605">
        <ele>267</ele>
        <time>2018-06-07T10:00:55Z</time>
      </trkpt>
      <trkpt lat="45.99645" lon="4.82596">
        <ele>267</ele>
        <time>2018-06-07T10:00:56Z</time>
      </trkpt>
      <trkpt lat="45.99643" lon="4.82587">
        <ele>267</ele>
        <time>2018-06-07T10:00:57Z</time>
      </trkpt>
      <trkpt lat="45.9964" lon="4.82578">
        <ele>266</ele>
        <time>2018-06-07T10:00:58Z</time>
      </trkpt>
      <trkpt lat="45.99636" lon="4.82571">
        <ele>266</ele>
        <time>2018-06-07T10:00:59Z</time>
      </trkpt>
      <trkpt lat="45.99634" lon="4.82562">
        <ele>266</ele>
        <time>2018-06-07T10:01:00Z</time>
      </trkpt>
      <trkpt lat="45.99631" lon="4.82554">
        <ele>266</ele>
        <time>2018-06-07T10:01:01Z</time>
      </trkpt>
      <trkpt lat="45.99628" lon="4.82545">
        <ele>266</ele>
        <time>2018-06-07T10:01:02Z</time>
      </trkpt>
      <trkpt lat="45.99626" lon="4.82539">
        <ele>266</ele>
        <time>2018-06-07T10:01:03Z</time>
      </trkpt>
      <trkpt lat="45.99624" lon="4.8253">
        <ele>265</ele>
        <time>2018-06-07T10:01:04Z</time>
      </trkpt>
      <trkpt lat="45.99623" lon="4.82521">
        <ele>265</ele>
        <time>2018-06-07T10:01:05Z</time>
      </trkpt>
      <trkpt lat="45.99621" lon="4.82514">
        <ele>265</ele>
        <time>2018-06-07T10:01:06Z</time>
      </trkpt>
      <trkpt lat="45.99619" lon="4.82504">
        <ele>265</ele>
        <time>2018-06-07T10:01:07Z</time>
      </trkpt>
      <trkpt lat="45.99617" lon="4.82495">
        <ele>265</ele>
        <time>2018-06-07T10:01:08Z</time>
      </trkpt>
      <trkpt lat="45.99616" lon="4.82487">
        <ele>265</ele>
        <time>2018-06-07T10:01:09Z</time>
      </trkpt>
      <trkpt lat="45.99613" lon="4.82479">
        <ele>265</ele>
        <time>2018-06-07T10:01:10Z</time>
      </trkpt>
      <trkpt lat="45.99611" lon="4.8247">
        <ele>265</ele>
        <time>2018-06-07T10:01:11Z</time>
      </trkpt>
      <trkpt lat="45.99608" lon="4.8246">
        <ele>265</ele>
        <time>2018-06-07T10:01:12Z</time>
      </trkpt>
      <trkpt lat="45.99605" lon="4.82452">
        <ele>264</ele>
        <time>2018-06-07T10:01:13Z</time>
      </trkpt>
      <trkpt lat="45.99601" lon="4.82444">
        <ele>264</ele>
        <time>2018-06-07T10:01:14Z</time>
      </trkpt>
      <trkpt lat="45.99598" lon="4.82436">
        <ele>264</ele>
        <time>2018-06-07T10:01:15Z</time>
      </trkpt>
      <trkpt lat="45.99595" lon="4.82427">
        <ele>263</ele>
        <time>2018-06-07T10:01:16Z</time>
      </trkpt>
      <trkpt lat="45.99592" lon="4.82418">
        <ele>263</ele>
        <time>2018-06-07T10:01:17Z</time>
      </trkpt>
      <trkpt lat="45.99589" lon="4.82408">
        <ele>263</ele>
        <time>2018-06-07T10:01:18Z</time>
      </trkpt>
      <trkpt lat="45.99587" lon="4.82398">
        <ele>264</ele>
        <time>2018-06-07T10:01:19Z</time>
      </trkpt>
      <trkpt lat="45.99586" lon="4.82386">
        <ele>264</ele>
        <time>2018-06-07T10:01:20Z</time>
      </trkpt>
      <trkpt lat="45.99584" lon="4.82375">
        <ele>264</ele>
        <time>2018-06-07T10:01:21Z</time>
      </trkpt>
      <trkpt lat="45.99583" lon="4.82365">
        <ele>264</ele>
        <time>2018-06-07T10:01:22Z</time>
      </trkpt>
      <trkpt lat="45.99582" lon="4.82353">
        <ele>261</ele>
        <time>2018-06-07T10:01:23Z</time>
      </trkpt>
      <trkpt lat="45.99581" lon="4.82342">
        <ele>262</ele>
        <time>2018-06-07T10:01:24Z</time>
      </trkpt>
      <trkpt lat="45.9958" lon="4.82331">
        <ele>263</ele>
        <time>2018-06-07T10:01:25Z</time>
      </trkpt>
      <trkpt lat="45.99578" lon="4.82319">
        <ele>262</ele>
        <time>2018-06-07T10:01:26Z</time>
      </trkpt>
      <trkpt lat="45.99576" lon="4.82308">
        <ele>262</ele>
        <time>2018-06-07T10:01:27Z</time>
      </trkpt>
      <trkpt lat="45.99576" lon="4.82297">
        <ele>262</ele>
        <time>2018-06-07T10:01:28Z</time>
      </trkpt>
      <trkpt lat="45.99574" lon="4.82287">
        <ele>262</ele>
        <time>2018-06-07T10:01:29Z</time>
      </trkpt>
      <trkpt lat="45.99573" lon="4.82276">
        <ele>262</ele>
        <time>2018-06-07T10:01:30Z</time>
      </trkpt>
      <trkpt lat="45.99569" lon="4.82268">
        <ele>262</ele>
        <time>2018-06-07T10:01:31Z</time>
      </trkpt>
      <trkpt lat="45.99566" lon="4.8226">
        <ele>262</ele>
        <time>2018-06-07T10:01:32Z</time>
      </trkpt>
      <trkpt lat="45.99563" lon="4.82252">
        <ele>262</ele>
        <time>2018-06-07T10:01:33Z</time>
      </trkpt>
      <trkpt lat="45.99561" lon="4.82245">
        <ele>262</ele>
        <time>2018-06-07T10:01:34Z</time>
      </trkpt>
      <trkpt lat="45.99558" lon="4.82236">
        <ele>262</ele>
        <time>2018-06-07T10:01:35Z</time>
      </trkpt>
      <trkpt lat="45.99555" lon="4.82227">
        <ele>262</ele>
        <time>2018-06-07T10:01:36Z</time>
      </trkpt>
      <trkpt lat="45.99552" lon="4.82219">
        <ele>262</ele>
        <time>2018-06-07T10:01:37Z</time>
      </trkpt>
      <trkpt lat="45.9955" lon="4.8221">
        <ele>262</ele>
        <time>2018-06-07T10:01:38Z</time>
      </trkpt>
      <trkpt lat="45.99547" lon="4.82203">
        <ele>262</ele>
        <time>2018-06-07T10:01:39Z</time>
      </trkpt>
      <trkpt lat="45.99544" lon="4.82194">
        <ele>262</ele>
        <time>2018-06-07T10:01:40Z</time>
      </trkpt>
      <trkpt lat="45.99542" lon="4.82185">
        <ele>262</ele>
        <time>2018-06-07T10:01:41Z</time>
      </trkpt>
      <trkpt lat="45.99541" lon="4.82176">
        <ele>262</ele>
        <time>2018-06-07T10:01:42Z</time>
      </trkpt>
      <trkpt lat="45.99539" lon="4.82164">
        <ele>263</ele>
        <time>2018-06-07T10:01:43Z</time>
      </trkpt>
      <trkpt lat="45.99539" lon="4.82155">
        <ele>263</ele>
        <time>2018-06-07T10:01:44Z</time>
      </trkpt>
      <trkpt lat="45.99537" lon="4.82145">
        <ele>263</ele>
        <time>2018-06-07T10:01:45Z</time>
      </trkpt>
      <trkpt lat="45.99536" lon="4.82135">
        <ele>263</ele>
        <time>2018-06-07T10:01:46Z</time>
      </trkpt>
      <trkpt lat="45.99535" lon="4.82125">
        <ele>263</ele>
        <time>2018-06-07T10:01:47Z</time>
      </trkpt>
      <trkpt lat="45.99533" lon="4.82116">
        <ele>263</ele>
        <time>2018-06-07T10:01:48Z</time>
      </trkpt>
      <trkpt lat="45.99532" lon="4.82108">
        <ele>263</ele>
        <time>2018-06-07T10:01:49Z</time>
      </trkpt>
      <trkpt lat="45.99531" lon="4.82099">
        <ele>263</ele>
        <time>2018-06-07T10:01:50Z</time>
      </trkpt>
      <trkpt lat="45.99531" lon="4.82091">
        <ele>262</ele>
        <time>2018-06-07T10:01:51Z</time>
      </trkpt>
      <trkpt lat="45.9953" lon="4.82081">
        <ele>262</ele>
        <time>2018-06-07T10:01:52Z</time>
      </trkpt>
      <trkpt lat="45.9953" lon="4.82073">
        <ele>262</ele>
        <time>2018-06-07T10:01:53Z</time>
      </trkpt>
      <trkpt lat="45.99529" lon="4.82064">
        <ele>262</ele>
        <time>2018-06-07T10:01:54Z</time>
      </trkpt>
      <trkpt lat="45.99528" lon="4.82056">
        <ele>262</ele>
        <time>2018-06-07T10:01:55Z</time>
      </trkpt>
      <trkpt lat="45.99527" lon="4.82047">
        <ele>262</ele>
        <time>2018-06-07T10:01:56Z</time>
      </trkpt>
      <trkpt lat="45.99526" lon="4.8204">
        <ele>262</ele>
        <time>2018-06-07T10:01:57Z</time>
      </trkpt>
      <trkpt lat="45.99525" lon="4.82031">
        <ele>262</ele>
        <time>2018-06-07T10:01:58Z</time>
      </trkpt>
      <trkpt lat="45.99523" lon="4.82022">
        <ele>261</ele>
        <time>2018-06-07T10:01:59Z</time>
      </trkpt>
      <trkpt lat="45.99522" lon="4.82013">
        <ele>261</ele>
        <time>2018-06-07T10:02:00Z</time>
      </trkpt>
      <trkpt lat="45.99522" lon="4.82004">
        <ele>261</ele>
        <time>2018-06-07T10:02:01Z</time>
      </trkpt>
      <trkpt lat="45.9952" lon="4.81995">
        <ele>260</ele>
        <time>2018-06-07T10:02:02Z</time>
      </trkpt>
      <trkpt lat="45.99519" lon="4.81986">
        <ele>261</ele>
        <time>2018-06-07T10:02:03Z</time>
      </trkpt>
      <trkpt lat="45.99517" lon="4.81977">
        <ele>261</ele>
        <time>2018-06-07T10:02:04Z</time>
      </trkpt>
      <trkpt lat="45.99516" lon="4.81971">
        <ele>261</ele>
        <time>2018-06-07T10:02:05Z</time>
      </trkpt>
      <trkpt lat="45.99516" lon="4.81962">
        <ele>261</ele>
        <time>2018-06-07T10:02:06Z</time>
      </trkpt>
      <trkpt lat="45.99515" lon="4.81954">
        <ele>261</ele>
        <time>2018-06-07T10:02:07Z</time>
      </trkpt>
      <trkpt lat="45.99514" lon="4.81945">
        <ele>261</ele>
        <time>2018-06-07T10:02:08Z</time>
      </trkpt>
      <trkpt lat="45.99513" lon="4.81936">
        <ele>260</ele>
        <time>2018-06-07T10:02:09Z</time>
      </trkpt>
      <trkpt lat="45.99511" lon="4.81929">
        <ele>260</ele>
        <time>2018-06-07T10:02:10Z</time>
      </trkpt>
      <trkpt lat="45.9951" lon="4.8192">
        <ele>260</ele>
        <time>2018-06-07T10:02:11Z</time>
      </trkpt>
      <trkpt lat="45.9951" lon="4.81913">
        <ele>260</ele>
        <time>2018-06-07T10:02:12Z</time>
      </trkpt>
      <trkpt lat="45.99508" lon="4.81906">
        <ele>260</ele>
        <time>2018-06-07T10:02:13Z</time>
      </trkpt>
      <trkpt lat="45.99507" lon="4.81898">
        <ele>261</ele>
        <time>2018-06-07T10:02:14Z</time>
      </trkpt>
      <trkpt lat="45.99506" lon="4.8189">
        <ele>261</ele>
        <time>2018-06-07T10:02:15Z</time>
      </trkpt>
      <trkpt lat="45.99505" lon="4.81883">
        <ele>261</ele>
        <time>2018-06-07T10:02:16Z</time>
      </trkpt>
      <trkpt lat="45.99504" lon="4.81874">
        <ele>261</ele>
        <time>2018-06-07T10:02:17Z</time>
      </trkpt>
      <trkpt lat="45.99503" lon="4.81866">
        <ele>262</ele>
        <time>2018-06-07T10:02:18Z</time>
      </trkpt>
      <trkpt lat="45.99502" lon="4.81858">
        <ele>262</ele>
        <time>2018-06-07T10:02:19Z</time>
      </trkpt>
      <trkpt lat="45.99501" lon="4.8185">
        <ele>262</ele>
        <time>2018-06-07T10:02:20Z</time>
      </trkpt>
      <trkpt lat="45.99499" lon="4.81842">
        <ele>261</ele>
        <time>2018-06-07T10:02:21Z</time>
      </trkpt>
      <trkpt lat="45.99498" lon="4.81835">
        <ele>262</ele>
        <time>2018-06-07T10:02:22Z</time>
      </trkpt>
      <trkpt lat="45.99496" lon="4.81828">
        <ele>262</ele>
        <time>2018-06-07T10:02:23Z</time>
      </trkpt>
      <trkpt lat="45.99495" lon="4.8182">
        <ele>262</ele>
        <time>2018-06-07T10:02:24Z</time>
      </trkpt>
      <trkpt lat="45.99493" lon="4.81812">
        <ele>262</ele>
        <time>2018-06-07T10:02:25Z</time>
      </trkpt>
      <trkpt lat="45.99492" lon="4.81805">
        <ele>262</ele>
        <time>2018-06-07T10:02:26Z</time>
      </trkpt>
      <trkpt lat="45.99491" lon="4.81797">
        <ele>262</ele>
        <time>2018-06-07T10:02:27Z</time>
      </trkpt>
      <trkpt lat="45.99489" lon="4.81788">
        <ele>262</ele>
        <time>2018-06-07T10:02:28Z</time>
      </trkpt>
      <trkpt lat="45.99488" lon="4.81779">
        <ele>262</ele>
        <time>2018-06-07T10:02:29Z</time>
      </trkpt>
      <trkpt lat="45.99487" lon="4.81771">
        <ele>262</ele>
        <time>2018-06-07T10:02:30Z</time>
      </trkpt>
      <trkpt lat="45.99485" lon="4.81763">
        <ele>262</ele>
        <time>2018-06-07T10:02:31Z</time>
      </trkpt>
      <trkpt lat="45.99489" lon="4.81756">
        <ele>262</ele>
        <time>2018-06-07T10:02:32Z</time>
      </trkpt>
      <trkpt lat="45.99488" lon="4.81749">
        <ele>262</ele>
        <time>2018-06-07T10:02:33Z</time>
      </trkpt>
      <trkpt lat="45.99487" lon="4.81741">
        <ele>262</ele>
        <time>2018-06-07T10:02:34Z</time>
      </trkpt>
      <trkpt lat="45.99486" lon="4.81733">
        <ele>261</ele>
        <time>2018-06-07T10:02:35Z</time>
      </trkpt>
      <trkpt lat="45.99485" lon="4.81725">
        <ele>261</ele>
        <time>2018-06-07T10:02:36Z</time>
      </trkpt>
      <trkpt lat="45.99484" lon="4.81715">
        <ele>261</ele>
        <time>2018-06-07T10:02:37Z</time>
      </trkpt>
      <trkpt lat="45.99484" lon="4.81707">
        <ele>261</ele>
        <time>2018-06-07T10:02:38Z</time>
      </trkpt>
      <trkpt lat="45.99483" lon="4.81698">
        <ele>261</ele>
        <time>2018-06-07T10:02:39Z</time>
      </trkpt>
      <trkpt lat="45.99482" lon="4.81688">
        <ele>261</ele>
        <time>2018-06-07T10:02:40Z</time>
      </trkpt>
      <trkpt lat="45.9948" lon="4.81679">
        <ele>261</ele>
        <time>2018-06-07T10:02:41Z</time>
      </trkpt>
      <trkpt lat="45.99479" lon="4.8167">
        <ele>261</ele>
        <time>2018-06-07T10:02:42Z</time>
      </trkpt>
      <trkpt lat="45.99478" lon="4.81661">
        <ele>259</ele>
        <time>2018-06-07T10:02:43Z</time>
      </trkpt>
      <trkpt lat="45.99477" lon="4.81652">
        <ele>259</ele>
        <time>2018-06-07T10:02:44Z</time>
      </trkpt>
      <trkpt lat="45.99476" lon="4.81643">
        <ele>258</ele>
        <time>2018-06-07T10:02:45Z</time>
      </trkpt>
      <trkpt lat="45.99474" lon="4.81635">
        <ele>258</ele>
        <time>2018-06-07T10:02:46Z</time>
      </trkpt>
      <trkpt lat="45.99469" lon="4.81627">
        <ele>258</ele>
        <time>2018-06-07T10:02:47Z</time>
      </trkpt>
      <trkpt lat="45.99468" lon="4.81618">
        <ele>258</ele>
        <time>2018-06-07T10:02:48Z</time>
      </trkpt>
      <trkpt lat="45.99467" lon="4.81611">
        <ele>258</ele>
        <time>2018-06-07T10:02:49Z</time>
      </trkpt>
      <trkpt lat="45.99466" lon="4.81603">
        <ele>257</ele>
        <time>2018-06-07T10:02:50Z</time>
      </trkpt>
      <trkpt lat="45.99465" lon="4.81594">
        <ele>257</ele>
        <time>2018-06-07T10:02:51Z</time>
      </trkpt>
      <trkpt lat="45.99462" lon="4.81584">
        <ele>257</ele>
        <time>2018-06-07T10:02:52Z</time>
      </trkpt>
      <trkpt lat="45.99461" lon="4.81575">
        <ele>255</ele>
        <time>2018-06-07T10:02:53Z</time>
      </trkpt>
      <trkpt lat="45.99461" lon="4.81567">
        <ele>255</ele>
        <time>2018-06-07T10:02:54Z</time>
      </trkpt>
      <trkpt lat="45.99459" lon="4.81558">
        <ele>255</ele>
        <time>2018-06-07T10:02:55Z</time>
      </trkpt>
      <trkpt lat="45.99456" lon="4.81549">
        <ele>255</ele>
        <time>2018-06-07T10:02:56Z</time>
      </trkpt>
      <trkpt lat="45.99455" lon="4.8154">
        <ele>255</ele>
        <time>2018-06-07T10:02:57Z</time>
      </trkpt>
      <trkpt lat="45.99454" lon="4.81531">
        <ele>255</ele>
        <time>2018-06-07T10:02:58Z</time>
      </trkpt>
      <trkpt lat="45.99452" lon="4.81521">
        <ele>255</ele>
        <time>2018-06-07T10:02:59Z</time>
      </trkpt>
      <trkpt lat="45.99451" lon="4.81513">
        <ele>255</ele>
        <time>2018-06-07T10:03:00Z</time>
      </trkpt>
      <trkpt lat="45.99449" lon="4.81505">
        <ele>255</ele>
        <time>2018-06-07T10:03:01Z</time>
      </trkpt>
      <trkpt lat="45.99448" lon="4.81495">
        <ele>254</ele>
        <time>2018-06-07T10:03:02Z</time>
      </trkpt>
      <trkpt lat="45.99446" lon="4.81485">
        <ele>254</ele>
        <time>2018-06-07T10:03:03Z</time>
      </trkpt>
      <trkpt lat="45.99446" lon="4.81476">
        <ele>254</ele>
        <time>2018-06-07T10:03:04Z</time>
      </trkpt>
      <trkpt lat="45.99444" lon="4.81467">
        <ele>254</ele>
        <time>2018-06-07T10:03:05Z</time>
      </trkpt>
      <trkpt lat="45.99442" lon="4.81458">
        <ele>254</ele>
        <time>2018-06-07T10:03:06Z</time>
      </trkpt>
      <trkpt lat="45.99442" lon="4.81449">
        <ele>254</ele>
        <time>2018-06-07T10:03:07Z</time>
      </trkpt>
      <trkpt lat="45.99441" lon="4.8144">
        <ele>254</ele>
        <time>2018-06-07T10:03:08Z</time>
      </trkpt>
      <trkpt lat="45.9944" lon="4.81431">
        <ele>254</ele>
        <time>2018-06-07T10:03:09Z</time>
      </trkpt>
      <trkpt lat="45.99438" lon="4.81422">
        <ele>254</ele>
        <time>2018-06-07T10:03:10Z</time>
      </trkpt>
      <trkpt lat="45.99437" lon="4.81413">
        <ele>254</ele>
        <time>2018-06-07T10:03:11Z</time>
      </trkpt>
      <trkpt lat="45.99436" lon="4.81404">
        <ele>254</ele>
        <time>2018-06-07T10:03:12Z</time>
      </trkpt>
      <trkpt lat="45.99435" lon="4.81396">
        <ele>254</ele>
        <time>2018-06-07T10:03:13Z</time>
      </trkpt>
      <trkpt lat="45.99434" lon="4.81386">
        <ele>254</ele>
        <time>2018-06-07T10:03:14Z</time>
      </trkpt>
      <trkpt lat="45.99434" lon="4.81378">
        <ele>254</ele>
        <time>2018-06-07T10:03:15Z</time>
      </trkpt>
      <trkpt lat="45.99432" lon="4.8137">
        <ele>254</ele>
        <time>2018-06-07T10:03:16Z</time>
      </trkpt>
      <trkpt lat="45.99431" lon="4.8136">
        <ele>254</ele>
        <time>2018-06-07T10:03:17Z</time>
      </trkpt>
      <trkpt lat="45.9943" lon="4.81351">
        <ele>254</ele>
        <time>2018-06-07T10:03:18Z</time>
      </trkpt>
      <trkpt lat="45.99429" lon="4.81341">
        <ele>254</ele>
        <time>2018-06-07T10:03:19Z</time>
      </trkpt>
      <trkpt lat="45.99428" lon="4.81332">
        <ele>254</ele>
        <time>2018-06-07T10:03:20Z</time>
      </trkpt>
      <trkpt lat="45.99427" lon="4.81322">
        <ele>254</ele>
        <time>2018-06-07T10:03:21Z</time>
      </trkpt>
      <trkpt lat="45.99426" lon="4.81313">
        <ele>254</ele>
        <time>2018-06-07T10:03:22Z</time>
      </trkpt>
      <trkpt lat="45.99425" lon="4.81304">
        <ele>253</ele>
        <time>2018-06-07T10:03:23Z</time>
      </trkpt>
      <trkpt lat="45.99424" lon="4.81295">
        <ele>253</ele>
        <time>2018-06-07T10:03:24Z</time>
      </trkpt>
      <trkpt lat="45.99422" lon="4.81284">
        <ele>253</ele>
        <time>2018-06-07T10:03:25Z</time>
      </trkpt>
      <trkpt lat="45.99421" lon="4.81274">
        <ele>253</ele>
        <time>2018-06-07T10:03:26Z</time>
      </trkpt>
      <trkpt lat="45.9942" lon="4.81264">
        <ele>252</ele>
        <time>2018-06-07T10:03:27Z</time>
      </trkpt>
      <trkpt lat="45.99419" lon="4.81253">
        <ele>252</ele>
        <time>2018-06-07T10:03:28Z</time>
      </trkpt>
      <trkpt lat="45.99418" lon="4.81244">
        <ele>252</ele>
        <time>2018-06-07T10:03:29Z</time>
      </trkpt>
      <trkpt lat="45.99417" lon="4.81235">
        <ele>252</ele>
        <time>2018-06-07T10:03:30Z</time>
      </trkpt>
      <trkpt lat="45.99415" lon="4.81226">
        <ele>252</ele>
        <time>2018-06-07T10:03:31Z</time>
      </trkpt>
      <trkpt lat="45.99414" lon="4.81216">
        <ele>252</ele>
        <time>2018-06-07T10:03:32Z</time>
      </trkpt>
      <trkpt lat="45.99411" lon="4.81206">
        <ele>252</ele>
        <time>2018-06-07T10:03:33Z</time>
      </trkpt>
      <trkpt lat="45.99409" lon="4.81197">
        <ele>252</ele>
        <time>2018-06-07T10:03:34Z</time>
      </trkpt>
      <trkpt lat="45.99408" lon="4.8119">
        <ele>251</ele>
        <time>2018-06-07T10:03:35Z</time>
      </trkpt>
      <trkpt lat="45.99407" lon="4.8118">
        <ele>251</ele>
        <time>2018-06-07T10:03:36Z</time>
      </trkpt>
      <trkpt lat="45.99407" lon="4.81173">
        <ele>251</ele>
        <time>2018-06-07T10:03:37Z</time>
      </trkpt>
      <trkpt lat="45.99406" lon="4.81164">
        <ele>251</ele>
        <time>2018-06-07T10:03:38Z</time>
      </trkpt>
      <trkpt lat="45.99405" lon="4.81155">
        <ele>251</ele>
        <time>2018-06-07T10:03:39Z</time>
      </trkpt>
      <trkpt lat="45.99404" lon="4.81146">
        <ele>251</ele>
        <time>2018-06-07T10:03:40Z</time>
      </trkpt>
      <trkpt lat="45.99401" lon="4.81136">
        <ele>251</ele>
        <time>2018-06-07T10:03:41Z</time>
      </trkpt>
      <trkpt lat="45.994" lon="4.81127">
        <ele>251</ele>
        <time>2018-06-07T10:03:42Z</time>
      </trkpt>
      <trkpt lat="45.99399" lon="4.81121">
        <ele>251</ele>
        <time>2018-06-07T10:03:43Z</time>
      </trkpt>
      <trkpt lat="45.99398" lon="4.81112">
        <ele>251</ele>
        <time>2018-06-07T10:03:44Z</time>
      </trkpt>
      <trkpt lat="45.99397" lon="4.81104">
        <ele>251</ele>
        <time>2018-06-07T10:03:45Z</time>
      </trkpt>
      <trkpt lat="45.99396" lon="4.81095">
        <ele>251</ele>
        <time>2018-06-07T10:03:46Z</time>
      </trkpt>
      <trkpt lat="45.99393" lon="4.81088">
        <ele>251</ele>
        <time>2018-06-07T10:03:47Z</time>
      </trkpt>
      <trkpt lat="45.99392" lon="4.81079">
        <ele>251</ele>
        <time>2018-06-07T10:03:48Z</time>
      </trkpt>
      <trkpt lat="45.99391" lon="4.81071">
        <ele>251</ele>
        <time>2018-06-07T10:03:49Z</time>
      </trkpt>
      <trkpt lat="45.99389" lon="4.81062">
        <ele>251</ele>
        <time>2018-06-07T10:03:50Z</time>
      </trkpt>
      <trkpt lat="45.99387" lon="4.81053">
        <ele>251</ele>
        <time>2018-06-07T10:03:51Z</time>
      </trkpt>
      <trkpt lat="45.99386" lon="4.81044">
        <ele>251</ele>
        <time>2018-06-07T10:03:52Z</time>
      </trkpt>
      <trkpt lat="45.99386" lon="4.81034">
        <ele>251</ele>
        <time>2018-06-07T10:03:53Z</time>
      </trkpt>
      <trkpt lat="45.99384" lon="4.81024">
        <ele>251</ele>
        <time>2018-06-07T10:03:54Z</time>
      </trkpt>
      <trkpt lat="45.99383" lon="4.81015">
        <ele>251</ele>
        <time>2018-06-07T10:03:55Z</time>
      </trkpt>
      <trkpt lat="45.99382" lon="4.81006">
        <ele>251</ele>
        <time>2018-06-07T10:03:56Z</time>
      </trkpt>
      <trkpt lat="45.9938" lon="4.80997">
        <ele>250</ele>
        <time>2018-06-07T10:03:57Z</time>
      </trkpt>
      <trkpt lat="45.99379" lon="4.80989">
        <ele>250</ele>
        <time>2018-06-07T10:03:58Z</time>
      </trkpt>
      <trkpt lat="45.99377" lon="4.80981">
        <ele>250</ele>
        <time>2018-06-07T10:03:59Z</time>
      </trkpt>
      <trkpt lat="45.99376" lon="4.80971">
        <ele>250</ele>
        <time>2018-06-07T10:04:00Z</time>
      </trkpt>
      <trkpt lat="45.99374" lon="4.80963">
        <ele>250</ele>
        <time>2018-06-07T10:04:01Z</time>
      </trkpt>
      <trkpt lat="45.99371" lon="4.80954">
        <ele>250</ele>
        <time>2018-06-07T10:04:02Z</time>
      </trkpt>
      <trkpt lat="45.9937" lon="4.80945">
        <ele>250</ele>
        <time>2018-06-07T10:04:03Z</time>
      </trkpt>
      <trkpt lat="45.99369" lon="4.80936">
        <ele>250</ele>
        <time>2018-06-07T10:04:04Z</time>
      </trkpt>
      <trkpt lat="45.99368" lon="4.80928">
        <ele>250</ele>
        <time>2018-06-07T10:04:05Z</time>
      </trkpt>
      <trkpt lat="45.99367" lon="4.8092">
        <ele>250</ele>
        <time>2018-06-07T10:04:06Z</time>
      </trkpt>
      <trkpt lat="45.99366" lon="4.80911">
        <ele>249</ele>
        <time>2018-06-07T10:04:07Z</time>
      </trkpt>
      <trkpt lat="45.99364" lon="4.80902">
        <ele>248</ele>
        <time>2018-06-07T10:04:08Z</time>
      </trkpt>
      <trkpt lat="45.99362" lon="4.80892">
        <ele>248</ele>
        <time>2018-06-07T10:04:09Z</time>
      </trkpt>
      <trkpt lat="45.9936" lon="4.80882">
        <ele>248</ele>
        <time>2018-06-07T10:04:10Z</time>
      </trkpt>
      <trkpt lat="45.99359" lon="4.80872">
        <ele>248</ele>
        <time>2018-06-07T10:04:11Z</time>
      </trkpt>
      <trkpt lat="45.99359" lon="4.8086">
        <ele>248</ele>
        <time>2018-06-07T10:04:12Z</time>
      </trkpt>
      <trkpt lat="45.99358" lon="4.8085">
        <ele>248</ele>
        <time>2018-06-07T10:04:13Z</time>
      </trkpt>
      <trkpt lat="45.99358" lon="4.80841">
        <ele>247</ele>
        <time>2018-06-07T10:04:14Z</time>
      </trkpt>
      <trkpt lat="45.99357" lon="4.80831">
        <ele>246</ele>
        <time>2018-06-07T10:04:15Z</time>
      </trkpt>
      <trkpt lat="45.99356" lon="4.80821">
        <ele>246</ele>
        <time>2018-06-07T10:04:16Z</time>
      </trkpt>
      <trkpt lat="45.99356" lon="4.8081">
        <ele>246</ele>
        <time>2018-06-07T10:04:17Z</time>
      </trkpt>
      <trkpt lat="45.99354" lon="4.80799">
        <ele>246</ele>
        <time>2018-06-07T10:04:18Z</time>
      </trkpt>
      <trkpt lat="45.99354" lon="4.80788">
        <ele>246</ele>
        <time>2018-06-07T10:04:19Z</time>
      </trkpt>
      <trkpt lat="45.99352" lon="4.80777">
        <ele>245</ele>
        <time>2018-06-07T10:04:20Z</time>
      </trkpt>
      <trkpt lat="45.99352" lon="4.80767">
        <ele>245</ele>
        <time>2018-06-07T10:04:21Z</time>
      </trkpt>
      <trkpt lat="45.9935" lon="4.80756">
        <ele>245</ele>
        <time>2018-06-07T10:04:22Z</time>
      </trkpt>
      <trkpt lat="45.99349" lon="4.80745">
        <ele>245</ele>
        <time>2018-06-07T10:04:23Z</time>
      </trkpt>
      <trkpt lat="45.99348" lon="4.80734">
        <ele>245</ele>
        <time>2018-06-07T10:04:24Z</time>
      </trkpt>
      <trkpt lat="45.99346" lon="4.80722">
        <ele>244</ele>
        <time>2018-06-07T10:04:25Z</time>
      </trkpt>
      <trkpt lat="45.99345" lon="4.80711">
        <ele>244</ele>
        <time>2018-06-07T10:04:26Z</time>
      </trkpt>
      <trkpt lat="45.99343" lon="4.80699">
        <ele>244</ele>
        <time>2018-06-07T10:04:27Z</time>
      </trkpt>
      <trkpt lat="45.99342" lon="4.80687">
        <ele>244</ele>
        <time>2018-06-07T10:04:28Z</time>
      </trkpt>
      <trkpt lat="45.9934" lon="4.80676">
        <ele>244</ele>
        <time>2018-06-07T10:04:29Z</time>
      </trkpt>
      <trkpt lat="45.9934" lon="4.80666">
        <ele>244</ele>
        <time>2018-06-07T10:04:30Z</time>
      </trkpt>
      <trkpt lat="45.99337" lon="4.80654">
        <ele>244</ele>
        <time>2018-06-07T10:04:31Z</time>
      </trkpt>
      <trkpt lat="45.99336" lon="4.80643">
        <ele>244</ele>
        <time>2018-06-07T10:04:32Z</time>
      </trkpt>
      <trkpt lat="45.99336" lon="4.80632">
        <ele>243</ele>
        <time>2018-06-07T10:04:33Z</time>
      </trkpt>
      <trkpt lat="45.99334" lon="4.80621">
        <ele>243</ele>
        <time>2018-06-07T10:04:34Z</time>
      </trkpt>
      <trkpt lat="45.99333" lon="4.80611">
        <ele>243</ele>
        <time>2018-06-07T10:04:35Z</time>
      </trkpt>
      <trkpt lat="45.99332" lon="4.806">
        <ele>243</ele>
        <time>2018-06-07T10:04:36Z</time>
      </trkpt>
      <trkpt lat="45.9933" lon="4.80589">
        <ele>242</ele>
        <time>2018-06-07T10:04:37Z</time>
      </trkpt>
      <trkpt lat="45.9933" lon="4.8058">
        <ele>242</ele>
        <time>2018-06-07T10:04:38Z</time>
      </trkpt>
      <trkpt lat="45.99329" lon="4.8057">
        <ele>242</ele>
        <time>2018-06-07T10:04:39Z</time>
      </trkpt>
      <trkpt lat="45.99328" lon="4.8056">
        <ele>242</ele>
        <time>2018-06-07T10:04:40Z</time>
      </trkpt>
      <trkpt lat="45.99327" lon="4.80549">
        <ele>241</ele>
        <time>2018-06-07T10:04:41Z</time>
      </trkpt>
      <trkpt lat="45.99326" lon="4.80539">
        <ele>241</ele>
        <time>2018-06-07T10:04:42Z</time>
      </trkpt>
      <trkpt lat="45.99325" lon="4.80529">
        <ele>241</ele>
        <time>2018-06-07T10:04:43Z</time>
      </trkpt>
      <trkpt lat="45.99324" lon="4.8052">
        <ele>241</ele>
        <time>2018-06-07T10:04:44Z</time>
      </trkpt>
      <trkpt lat="45.99321" lon="4.8051">
        <ele>241</ele>
        <time>2018-06-07T10:04:45Z</time>
      </trkpt>
      <trkpt lat="45.99318" lon="4.80499">
        <ele>241</ele>
        <time>2018-06-07T10:04:46Z</time>
      </trkpt>
      <trkpt lat="45.99314" lon="4.80491">
        <ele>241</ele>
        <time>2018-06-07T10:04:47Z</time>
      </trkpt>
      <trkpt lat="45.99313" lon="4.80482">
        <ele>241</ele>
        <time>2018-06-07T10:04:48Z</time>
      </trkpt>
      <trkpt lat="45.99312" lon="4.80474">
        <ele>241</ele>
        <time>2018-06-07T10:04:49Z</time>
      </trkpt>
      <trkpt lat="45.99311" lon="4.80466">
        <ele>241</ele>
        <time>2018-06-07T10:04:50Z</time>
      </trkpt>
      <trkpt lat="45.9931" lon="4.80455">
        <ele>241</ele>
        <time>2018-06-07T10:04:51Z</time>
      </trkpt>
      <trkpt lat="45.99311" lon="4.80447">
        <ele>241</ele>
        <time>2018-06-07T10:04:52Z</time>
      </trkpt>
      <trkpt lat="45.99311" lon="4.80441">
        <ele>241</ele>
        <time>2018-06-07T10:04:53Z</time>
      </trkpt>
      <trkpt lat="45.99312" lon="4.80432">
        <ele>241</ele>
        <time>2018-06-07T10:04:54Z</time>
      </trkpt>
      <trkpt lat="45.99316" lon="4.80425">
        <ele>241</ele>
        <time>2018-06-07T10:04:55Z</time>
      </trkpt>
      <trkpt lat="45.99317" lon="4.80418">
        <ele>241</ele>
        <time>2018-06-07T10:04:56Z</time>
      </trkpt>
      <trkpt lat="45.99319" lon="4.8041">
        <ele>242</ele>
        <time>2018-06-07T10:04:57Z</time>
      </trkpt>
      <trkpt lat="45.9932" lon="4.80403">
        <ele>242</ele>
        <time>2018-06-07T10:04:58Z</time>
      </trkpt>
      <trkpt lat="45.9932" lon="4.80396">
        <ele>242</ele>
        <time>2018-06-07T10:04:59Z</time>
      </trkpt>
      <trkpt lat="45.99319" lon="4.80388">
        <ele>242</ele>
        <time>2018-06-07T10:05:00Z</time>
      </trkpt>
      <trkpt lat="45.99312" lon="4.80384">
        <ele>242</ele>
        <time>2018-06-07T10:05:01Z</time>
      </trkpt>
      <trkpt lat="45.99307" lon="4.80381">
        <ele>242</ele>
        <time>2018-06-07T10:05:02Z</time>
      </trkpt>
      <trkpt lat="45.99302" lon="4.8038">
        <ele>242</ele>
        <time>2018-06-07T10:05:03Z</time>
      </trkpt>
      <trkpt lat="45.99296" lon="4.80382">
        <ele>242</ele>
        <time>2018-06-07T10:05:04Z</time>
      </trkpt>
      <trkpt lat="45.99291" lon="4.80384">
        <ele>242</ele>
        <time>2018-06-07T10:05:05Z</time>
      </trkpt>
      <trkpt lat="45.99286" lon="4.80383">
        <ele>242</ele>
        <time>2018-06-07T10:05:06Z</time>
      </trkpt>
      <trkpt lat="45.99281" lon="4.80383">
        <ele>242</ele>
        <time>2018-06-07T10:05:07Z</time>
      </trkpt>
      <trkpt lat="45.99275" lon="4.8038">
        <ele>242</ele>
        <time>2018-06-07T10:05:08Z</time>
      </trkpt>
      <trkpt lat="45.9927" lon="4.80377">
        <ele>242</ele>
        <time>2018-06-07T10:05:09Z</time>
      </trkpt>
      <trkpt lat="45.99265" lon="4.80372">
        <ele>243</ele>
        <time>2018-06-07T10:05:10Z</time>
      </trkpt>
      <trkpt lat="45.99261" lon="4.80366">
        <ele>243</ele>
        <time>2018-06-07T10:05:11Z</time>
      </trkpt>
      <trkpt lat="45.99257" lon="4.80359">
        <ele>243</ele>
        <time>2018-06-07T10:05:12Z</time>
      </trkpt>
      <trkpt lat="45.99251" lon="4.80354">
        <ele>243</ele>
        <time>2018-06-07T10:05:13Z</time>
      </trkpt>
      <trkpt lat="45.99246" lon="4.80348">
        <ele>242</ele>
        <time>2018-06-07T10:05:14Z</time>
      </trkpt>
      <trkpt lat="45.99242" lon="4.80341">
        <ele>242</ele>
        <time>2018-06-07T10:05:15Z</time>
      </trkpt>
      <trkpt lat="45.99237" lon="4.80334">
        <ele>242</ele>
        <time>2018-06-07T10:05:16Z</time>
      </trkpt>
      <trkpt lat="45.99234" lon="4.80327">
        <ele>243</ele>
        <time>2018-06-07T10:05:17Z</time>
      </trkpt>
      <trkpt lat="45.9923" lon="4.80319">
        <ele>243</ele>
        <time>2018-06-07T10:05:18Z</time>
      </trkpt>
      <trkpt lat="45.99227" lon="4.80316">
        <ele>242</ele>
        <time>2018-06-07T10:05:19Z</time>
      </trkpt>
      <trkpt lat="45.99223" lon="4.8031">
        <ele>242</ele>
        <time>2018-06-07T10:05:20Z</time>
      </trkpt>
      <trkpt lat="45.99219" lon="4.80303">
        <ele>242</ele>
        <time>2018-06-07T10:05:21Z</time>
      </trkpt>
      <trkpt lat="45.99216" lon="4.80298">
        <ele>242</ele>
        <time>2018-06-07T10:05:22Z</time>
      </trkpt>
      <trkpt lat="45.99211" lon="4.80291">
        <ele>242</ele>
        <time>2018-06-07T10:05:23Z</time>
      </trkpt>
      <trkpt lat="45.99207" lon="4.80285">
        <ele>242</ele>
        <time>2018-06-07T10:05:24Z</time>
      </trkpt>
      <trkpt lat="45.99203" lon="4.80279">
        <ele>242</ele>
        <time>2018-06-07T10:05:25Z</time>
      </trkpt>
      <trkpt lat="45.99199" lon="4.80272">
        <ele>242</ele>
        <time>2018-06-07T10:05:26Z</time>
      </trkpt>
      <trkpt lat="45.99196" lon="4.80268">
        <ele>242</ele>
        <time>2018-06-07T10:05:27Z</time>
      </trkpt>
      <trkpt lat="45.99193" lon="4.80262">
        <ele>242</ele>
        <time>2018-06-07T10:05:28Z</time>
      </trkpt>
      <trkpt lat="45.99188" lon="4.80256">
        <ele>242</ele>
        <time>2018-06-07T10:05:29Z</time>
      </trkpt>
      <trkpt lat="45.99183" lon="4.8025">
        <ele>242</ele>
        <time>2018-06-07T10:05:30Z</time>
      </trkpt>
      <trkpt lat="45.99179" lon="4.80245">
        <ele>242</ele>
        <time>2018-06-07T10:05:31Z</time>
      </trkpt>
      <trkpt lat="45.99174" lon="4.80238">
        <ele>242</ele>
        <time>2018-06-07T10:05:32Z</time>
      </trkpt>
      <trkpt lat="45.9917" lon="4.80233">
        <ele>242</ele>
        <time>2018-06-07T10:05:33Z</time>
      </trkpt>
      <trkpt lat="45.99167" lon="4.80227">
        <ele>243</ele>
        <time>2018-06-07T10:05:34Z</time>
      </trkpt>
      <trkpt lat="45.99163" lon="4.80222">
        <ele>241</ele>
        <time>2018-06-07T10:05:35Z</time>
      </trkpt>
      <trkpt lat="45.99156" lon="4.80215">
        <ele>242</ele>
        <time>2018-06-07T10:05:37Z</time>
      </trkpt>
      <trkpt lat="45.9915" lon="4.80214">
        <ele>242</ele>
        <time>2018-06-07T10:05:38Z</time>
      </trkpt>
      <trkpt lat="45.99147" lon="4.80209">
        <ele>242</ele>
        <time>2018-06-07T10:05:39Z</time>
      </trkpt>
      <trkpt lat="45.99143" lon="4.80204">
        <ele>242</ele>
        <time>2018-06-07T10:05:40Z</time>
      </trkpt>
      <trkpt lat="45.99139" lon="4.80199">
        <ele>242</ele>
        <time>2018-06-07T10:05:41Z</time>
      </trkpt>
      <trkpt lat="45.99135" lon="4.80194">
        <ele>242</ele>
        <time>2018-06-07T10:05:42Z</time>
      </trkpt>
      <trkpt lat="45.99131" lon="4.80189">
        <ele>242</ele>
        <time>2018-06-07T10:05:43Z</time>
      </trkpt>
      <trkpt lat="45.99127" lon="4.80185">
        <ele>242</ele>
        <time>2018-06-07T10:05:44Z</time>
      </trkpt>
      <trkpt lat="45.99124" lon="4.80178">
        <ele>242</ele>
        <time>2018-06-07T10:05:45Z</time>
      </trkpt>
      <trkpt lat="45.99119" lon="4.80173">
        <ele>242</ele>
        <time>2018-06-07T10:05:46Z</time>
      </trkpt>
      <trkpt lat="45.99114" lon="4.80168">
        <ele>242</ele>
        <time>2018-06-07T10:05:47Z</time>
      </trkpt>
      <trkpt lat="45.99109" lon="4.80165">
        <ele>243</ele>
        <time>2018-06-07T10:05:48Z</time>
      </trkpt>
      <trkpt lat="45.99104" lon="4.80159">
        <ele>243</ele>
        <time>2018-06-07T10:05:49Z</time>
      </trkpt>
      <trkpt lat="45.99099" lon="4.80154">
        <ele>243</ele>
        <time>2018-06-07T10:05:50Z</time>
      </trkpt>
      <trkpt lat="45.99095" lon="4.80149">
        <ele>243</ele>
        <time>2018-06-07T10:05:51Z</time>
      </trkpt>
      <trkpt lat="45.99091" lon="4.80144">
        <ele>243</ele>
        <time>2018-06-07T10:05:52Z</time>
      </trkpt>
      <trkpt lat="45.99086" lon="4.80139">
        <ele>243</ele>
        <time>2018-06-07T10:05:53Z</time>
      </trkpt>
      <trkpt lat="45.99083" lon="4.80135">
        <ele>242</ele>
        <time>2018-06-07T10:05:54Z</time>
      </trkpt>
      <trkpt lat="45.99077" lon="4.80132">
        <ele>242</ele>
        <time>2018-06-07T10:05:55Z</time>
      </trkpt>
      <trkpt lat="45.99072" lon="4.80127">
        <ele>242</ele>
        <time>2018-06-07T10:05:56Z</time>
      </trkpt>
      <trkpt lat="45.99067" lon="4.80122">
        <ele>242</ele>
        <time>2018-06-07T10:05:57Z</time>
      </trkpt>
      <trkpt lat="45.99063" lon="4.80117">
        <ele>242</ele>
        <time>2018-06-07T10:05:58Z</time>
      </trkpt>
      <trkpt lat="45.9906" lon="4.80115">
        <ele>242</ele>
        <time>2018-06-07T10:05:59Z</time>
      </trkpt>
      <trkpt lat="45.99055" lon="4.8011">
        <ele>242</ele>
        <time>2018-06-07T10:06:00Z</time>
      </trkpt>
      <trkpt lat="45.9905" lon="4.80105">
        <ele>242</ele>
        <time>2018-06-07T10:06:01Z</time>
      </trkpt>
      <trkpt lat="45.99043" lon="4.80105">
        <ele>242</ele>
        <time>2018-06-07T10:06:02Z</time>
      </trkpt>
      <trkpt lat="45.9904" lon="4.801">
        <ele>242</ele>
        <time>2018-06-07T10:06:03Z</time>
      </trkpt>
      <trkpt lat="45.99037" lon="4.80094">
        <ele>242</ele>
        <time>2018-06-07T10:06:04Z</time>
      </trkpt>
      <trkpt lat="45.99033" lon="4.80089">
        <ele>242</ele>
        <time>2018-06-07T10:06:05Z</time>
      </trkpt>
      <trkpt lat="45.99029" lon="4.80084">
        <ele>242</ele>
        <time>2018-06-07T10:06:06Z</time>
      </trkpt>
      <trkpt lat="45.99025" lon="4.80078">
        <ele>243</ele>
        <time>2018-06-07T10:06:07Z</time>
      </trkpt>
      <trkpt lat="45.99022" lon="4.80071">
        <ele>243</ele>
        <time>2018-06-07T10:06:08Z</time>
      </trkpt>
      <trkpt lat="45.99018" lon="4.80067">
        <ele>243</ele>
        <time>2018-06-07T10:06:09Z</time>
      </trkpt>
      <trkpt lat="45.99014" lon="4.80062">
        <ele>243</ele>
        <time>2018-06-07T10:06:10Z</time>
      </trkpt>
      <trkpt lat="45.9901" lon="4.80057">
        <ele>243</ele>
        <time>2018-06-07T10:06:11Z</time>
      </trkpt>
      <trkpt lat="45.99006" lon="4.8005">
        <ele>244</ele>
        <time>2018-06-07T10:06:12Z</time>
      </trkpt>
      <trkpt lat="45.99002" lon="4.80047">
        <ele>244</ele>
        <time>2018-06-07T10:06:13Z</time>
      </trkpt>
      <trkpt lat="45.98997" lon="4.80042">
        <ele>242</ele>
        <time>2018-06-07T10:06:14Z</time>
      </trkpt>
      <trkpt lat="45.98993" lon="4.80036">
        <ele>242</ele>
        <time>2018-06-07T10:06:15Z</time>
      </trkpt>
      <trkpt lat="45.98989" lon="4.8003">
        <ele>242</ele>
        <time>2018-06-07T10:06:16Z</time>
      </trkpt>
      <trkpt lat="45.98985" lon="4.80025">
        <ele>243</ele>
        <time>2018-06-07T10:06:17Z</time>
      </trkpt>
      <trkpt lat="45.98981" lon="4.80021">
        <ele>243</ele>
        <time>2018-06-07T10:06:18Z</time>
      </trkpt>
      <trkpt lat="45.98977" lon="4.80016">
        <ele>243</ele>
        <time>2018-06-07T10:06:19Z</time>
      </trkpt>
      <trkpt lat="45.98974" lon="4.80012">
        <ele>243</ele>
        <time>2018-06-07T10:06:20Z</time>
      </trkpt>
      <trkpt lat="45.98967" lon="4.80003">
        <ele>243</ele>
        <time>2018-06-07T10:06:22Z</time>
      </trkpt>
      <trkpt lat="45.98964" lon="4.79999">
        <ele>245</ele>
        <time>2018-06-07T10:06:23Z</time>
      </trkpt>
      <trkpt lat="45.98958" lon="4.80002">
        <ele>242</ele>
        <time>2018-06-07T10:06:24Z</time>
      </trkpt>
      <trkpt lat="45.98954" lon="4.79998">
        <ele>244</ele>
        <time>2018-06-07T10:06:25Z</time>
      </trkpt>
      <trkpt lat="45.98951" lon="4.79993">
        <ele>244</ele>
        <time>2018-06-07T10:06:26Z</time>
      </trkpt>
      <trkpt lat="45.98948" lon="4.79987">
        <ele>244</ele>
        <time>2018-06-07T10:06:27Z</time>
      </trkpt>
      <trkpt lat="45.98941" lon="4.7998">
        <ele>244</ele>
        <time>2018-06-07T10:06:29Z</time>
      </trkpt>
      <trkpt lat="45.98937" lon="4.79974">
        <ele>244</ele>
        <time>2018-06-07T10:06:30Z</time>
      </trkpt>
      <trkpt lat="45.98933" lon="4.79969">
        <ele>244</ele>
        <time>2018-06-07T10:06:31Z</time>
      </trkpt>
      <trkpt lat="45.98929" lon="4.79964">
        <ele>245</ele>
        <time>2018-06-07T10:06:32Z</time>
      </trkpt>
      <trkpt lat="45.98925" lon="4.79959">
        <ele>245</ele>
        <time>2018-06-07T10:06:33Z</time>
      </trkpt>
      <trkpt lat="45.98921" lon="4.79954">
        <ele>245</ele>
        <time>2018-06-07T10:06:34Z</time>
      </trkpt>
      <trkpt lat="45.98917" lon="4.79951">
        <ele>245</ele>
        <time>2018-06-07T10:06:35Z</time>
      </trkpt>
      <trkpt lat="45.98913" lon="4.79946">
        <ele>243</ele>
        <time>2018-06-07T10:06:36Z</time>
      </trkpt>
      <trkpt lat="45.98909" lon="4.79941">
        <ele>243</ele>
        <time>2018-06-07T10:06:37Z</time>
      </trkpt>
      <trkpt lat="45.98905" lon="4.79936">
        <ele>244</ele>
        <time>2018-06-07T10:06:38Z</time>
      </trkpt>
      <trkpt lat="45.98901" lon="4.79932">
        <ele>244</ele>
        <time>2018-06-07T10:06:39Z</time>
      </trkpt>
      <trkpt lat="45.98896" lon="4.79927">
        <ele>244</ele>
        <time>2018-06-07T10:06:40Z</time>
      </trkpt>
      <trkpt lat="45.98892" lon="4.79922">
        <ele>243</ele>
        <time>2018-06-07T10:06:41Z</time>
      </trkpt>
      <trkpt lat="45.98888" lon="4.79917">
        <ele>243</ele>
        <time>2018-06-07T10:06:42Z</time>
      </trkpt>
      <trkpt lat="45.98883" lon="4.79912">
        <ele>244</ele>
        <time>2018-06-07T10:06:43Z</time>
      </trkpt>
      <trkpt lat="45.98879" lon="4.79907">
        <ele>244</ele>
        <time>2018-06-07T10:06:44Z</time>
      </trkpt>
      <trkpt lat="45.98876" lon="4.79899">
        <ele>244</ele>
        <time>2018-06-07T10:06:45Z</time>
      </trkpt>
      <trkpt lat="45.98871" lon="4.79894">
        <ele>243</ele>
        <time>2018-06-07T10:06:46Z</time>
      </trkpt>
      <trkpt lat="45.98867" lon="4.79889">
        <ele>243</ele>
        <time>2018-06-07T10:06:47Z</time>
      </trkpt>
      <trkpt lat="45.98862" lon="4.79884">
        <ele>243</ele>
        <time>2018-06-07T10:06:48Z</time>
      </trkpt>
      <trkpt lat="45.98857" lon="4.79878">
        <ele>243</ele>
        <time>2018-06-07T10:06:49Z</time>
      </trkpt>
      <trkpt lat="45.98853" lon="4.79873">
        <ele>243</ele>
        <time>2018-06-07T10:06:50Z</time>
      </trkpt>
      <trkpt lat="45.98848" lon="4.79867">
        <ele>244</ele>
        <time>2018-06-07T10:06:51Z</time>
      </trkpt>
      <trkpt lat="45.98843" lon="4.79862">
        <ele>244</ele>
        <time>2018-06-07T10:06:52Z</time>
      </trkpt>
      <trkpt lat="45.98838" lon="4.79856">
        <ele>244</ele>
        <time>2018-06-07T10:06:53Z</time>
      </trkpt>
      <trkpt lat="45.98834" lon="4.79851">
        <ele>244</ele>
        <time>2018-06-07T10:06:54Z</time>
      </trkpt>
      <trkpt lat="45.98829" lon="4.79845">
        <ele>243</ele>
        <time>2018-06-07T10:06:55Z</time>
      </trkpt>
      <trkpt lat="45.98825" lon="4.7984">
        <ele>244</ele>
        <time>2018-06-07T10:06:56Z</time>
      </trkpt>
      <trkpt lat="45.9882" lon="4.79835">
        <ele>244</ele>
        <time>2018-06-07T10:06:57Z</time>
      </trkpt>
      <trkpt lat="45.98815" lon="4.79829">
        <ele>245</ele>
        <time>2018-06-07T10:06:58Z</time>
      </trkpt>
      <trkpt lat="45.9881" lon="4.79822">
        <ele>245</ele>
        <time>2018-06-07T10:06:59Z</time>
      </trkpt>
      <trkpt lat="45.98806" lon="4.79816">
        <ele>245</ele>
        <time>2018-06-07T10:07:00Z</time>
      </trkpt>
      <trkpt lat="45.98801" lon="4.7981">
        <ele>245</ele>
        <time>2018-06-07T10:07:01Z</time>
      </trkpt>
      <trkpt lat="45.98796" lon="4.79805">
        <ele>245</ele>
        <time>2018-06-07T10:07:02Z</time>
      </trkpt>
      <trkpt lat="45.9879" lon="4.79799">
        <ele>245</ele>
        <time>2018-06-07T10:07:03Z</time>
      </trkpt>
      <trkpt lat="45.98786" lon="4.79794">
        <ele>245</ele>
        <time>2018-06-07T10:07:04Z</time>
      </trkpt>
      <trkpt lat="45.98781" lon="4.79789">
        <ele>245</ele>
        <time>2018-06-07T10:07:05Z</time>
      </trkpt>
      <trkpt lat="45.98777" lon="4.79784">
        <ele>245</ele>
        <time>2018-06-07T10:07:06Z</time>
      </trkpt>
      <trkpt lat="45.98772" lon="4.79779">
        <ele>245</ele>
        <time>2018-06-07T10:07:07Z</time>
      </trkpt>
      <trkpt lat="45.98768" lon="4.79774">
        <ele>245</ele>
        <time>2018-06-07T10:07:08Z</time>
      </trkpt>
      <trkpt lat="45.98763" lon="4.79769">
        <ele>245</ele>
        <time>2018-06-07T10:07:09Z</time>
      </trkpt>
      <trkpt lat="45.98759" lon="4.79764">
        <ele>245</ele>
        <time>2018-06-07T10:07:10Z</time>
      </trkpt>
      <trkpt lat="45.98754" lon="4.7976">
        <ele>245</ele>
        <time>2018-06-07T10:07:11Z</time>
      </trkpt>
      <trkpt lat="45.98749" lon="4.79756">
        <ele>245</ele>
        <time>2018-06-07T10:07:12Z</time>
      </trkpt>
      <trkpt lat="45.98744" lon="4.79752">
        <ele>245</ele>
        <time>2018-06-07T10:07:13Z</time>
      </trkpt>
      <trkpt lat="45.98739" lon="4.79748">
        <ele>245</ele>
        <time>2018-06-07T10:07:14Z</time>
      </trkpt>
      <trkpt lat="45.98734" lon="4.79743">
        <ele>245</ele>
        <time>2018-06-07T10:07:15Z</time>
      </trkpt>
      <trkpt lat="45.98729" lon="4.79739">
        <ele>245</ele>
        <time>2018-06-07T10:07:16Z</time>
      </trkpt>
      <trkpt lat="45.98724" lon="4.79735">
        <ele>245</ele>
        <time>2018-06-07T10:07:17Z</time>
      </trkpt>
      <trkpt lat="45.98718" lon="4.79732">
        <ele>245</ele>
        <time>2018-06-07T10:07:18Z</time>
      </trkpt>
      <trkpt lat="45.98713" lon="4.79729">
        <ele>245</ele>
        <time>2018-06-07T10:07:19Z</time>
      </trkpt>
      <trkpt lat="45.98707" lon="4.79726">
        <ele>245</ele>
        <time>2018-06-07T10:07:20Z</time>
      </trkpt>
      <trkpt lat="45.98702" lon="4.79723">
        <ele>245</ele>
        <time>2018-06-07T10:07:21Z</time>
      </trkpt>
      <trkpt lat="45.98696" lon="4.79721">
        <ele>245</ele>
        <time>2018-06-07T10:07:22Z</time>
      </trkpt>
      <trkpt lat="45.98691" lon="4.79718">
        <ele>245</ele>
        <time>2018-06-07T10:07:23Z</time>
      </trkpt>
      <trkpt lat="45.98686" lon="4.79714">
        <ele>245</ele>
        <time>2018-06-07T10:07:24Z</time>
      </trkpt>
      <trkpt lat="45.9868" lon="4.79711">
        <ele>245</ele>
        <time>2018-06-07T10:07:25Z</time>
      </trkpt>
      <trkpt lat="45.98674" lon="4.79707">
        <ele>245</ele>
        <time>2018-06-07T10:07:26Z</time>
      </trkpt>
      <trkpt lat="45.98669" lon="4.79703">
        <ele>245</ele>
        <time>2018-06-07T10:07:27Z</time>
      </trkpt>
      <trkpt lat="45.98664" lon="4.79698">
        <ele>245</ele>
        <time>2018-06-07T10:07:28Z</time>
      </trkpt>
      <trkpt lat="45.98659" lon="4.79693">
        <ele>245</ele>
        <time>2018-06-07T10:07:29Z</time>
      </trkpt>
      <trkpt lat="45.98654" lon="4.79686">
        <ele>245</ele>
        <time>2018-06-07T10:07:30Z</time>
      </trkpt>
      <trkpt lat="45.98651" lon="4.7968">
        <ele>245</ele>
        <time>2018-06-07T10:07:31Z</time>
      </trkpt>
      <trkpt lat="45.98647" lon="4.79675">
        <ele>245</ele>
        <time>2018-06-07T10:07:32Z</time>
      </trkpt>
      <trkpt lat="45.98643" lon="4.79668">
        <ele>245</ele>
        <time>2018-06-07T10:07:33Z</time>
      </trkpt>
      <trkpt lat="45.98639" lon="4.79662">
        <ele>245</ele>
        <time>2018-06-07T10:07:34Z</time>
      </trkpt>
      <trkpt lat="45.98636" lon="4.79656">
        <ele>245</ele>
        <time>2018-06-07T10:07:35Z</time>
      </trkpt>
      <trkpt lat="45.98635" lon="4.79647">
        <ele>245</ele>
        <time>2018-06-07T10:07:36Z</time>
      </trkpt>
      <trkpt lat="45.98632" lon="4.79642">
        <ele>245</ele>
        <time>2018-06-07T10:07:37Z</time>
      </trkpt>
      <trkpt lat="45.9863" lon="4.79635">
        <ele>245</ele>
        <time>2018-06-07T10:07:38Z</time>
      </trkpt>
      <trkpt lat="45.98628" lon="4.79628">
        <ele>245</ele>
        <time>2018-06-07T10:07:39Z</time>
      </trkpt>
      <trkpt lat="45.98625" lon="4.7962">
        <ele>245</ele>
        <time>2018-06-07T10:07:40Z</time>
      </trkpt>
      <trkpt lat="45.98624" lon="4.79612">
        <ele>245</ele>
        <time>2018-06-07T10:07:41Z</time>
      </trkpt>
      <trkpt lat="45.98623" lon="4.79605">
        <ele>245</ele>
        <time>2018-06-07T10:07:42Z</time>
      </trkpt>
      <trkpt lat="45.98622" lon="4.79597">
        <ele>245</ele>
        <time>2018-06-07T10:07:43Z</time>
      </trkpt>
      <trkpt lat="45.9862" lon="4.7959">
        <ele>245</ele>
        <time>2018-06-07T10:07:44Z</time>
      </trkpt>
      <trkpt lat="45.98616" lon="4.79583">
        <ele>245</ele>
        <time>2018-06-07T10:07:45Z</time>
      </trkpt>
      <trkpt lat="45.98612" lon="4.7958">
        <ele>245</ele>
        <time>2018-06-07T10:07:46Z</time>
      </trkpt>
      <trkpt lat="45.98606" lon="4.79579">
        <ele>245</ele>
        <time>2018-06-07T10:07:47Z</time>
      </trkpt>
      <trkpt lat="45.98601" lon="4.79579">
        <ele>245</ele>
        <time>2018-06-07T10:07:48Z</time>
      </trkpt>
      <trkpt lat="45.98595" lon="4.79581">
        <ele>245</ele>
        <time>2018-06-07T10:07:49Z</time>
      </trkpt>
      <trkpt lat="45.9859" lon="4.79582">
        <ele>245</ele>
        <time>2018-06-07T10:07:50Z</time>
      </trkpt>
      <trkpt lat="45.98584" lon="4.79582">
        <ele>245</ele>
        <time>2018-06-07T10:07:51Z</time>
      </trkpt>
      <trkpt lat="45.98579" lon="4.79581">
        <ele>245</ele>
        <time>2018-06-07T10:07:52Z</time>
      </trkpt>
      <trkpt lat="45.98574" lon="4.79579">
        <ele>245</ele>
        <time>2018-06-07T10:07:53Z</time>
      </trkpt>
      <trkpt lat="45.98569" lon="4.79576">
        <ele>245</ele>
        <time>2018-06-07T10:07:54Z</time>
      </trkpt>
      <trkpt lat="45.98564" lon="4.79575">
        <ele>244</ele>
        <time>2018-06-07T10:07:55Z</time>
      </trkpt>
      <trkpt lat="45.98559" lon="4.7957">
        <ele>244</ele>
        <time>2018-06-07T10:07:56Z</time>
      </trkpt>
      <trkpt lat="45.98554" lon="4.79566">
        <ele>244</ele>
        <time>2018-06-07T10:07:57Z</time>
      </trkpt>
      <trkpt lat="45.98549" lon="4.79559">
        <ele>244</ele>
        <time>2018-06-07T10:07:58Z</time>
      </trkpt>
      <trkpt lat="45.98545" lon="4.79552">
        <ele>244</ele>
        <time>2018-06-07T10:07:59Z</time>
      </trkpt>
      <trkpt lat="45.98542" lon="4.79544">
        <ele>244</ele>
        <time>2018-06-07T10:08:00Z</time>
      </trkpt>
      <trkpt lat="45.98538" lon="4.79537">
        <ele>244</ele>
        <time>2018-06-07T10:08:01Z</time>
      </trkpt>
      <trkpt lat="45.98534" lon="4.79527">
        <ele>244</ele>
        <time>2018-06-07T10:08:02Z</time>
      </trkpt>
      <trkpt lat="45.98531" lon="4.79519">
        <ele>244</ele>
        <time>2018-06-07T10:08:03Z</time>
      </trkpt>
      <trkpt lat="45.98528" lon="4.79511">
        <ele>244</ele>
        <time>2018-06-07T10:08:04Z</time>
      </trkpt>
      <trkpt lat="45.98527" lon="4.79502">
        <ele>244</ele>
        <time>2018-06-07T10:08:05Z</time>
      </trkpt>
      <trkpt lat="45.98525" lon="4.79493">
        <ele>244</ele>
        <time>2018-06-07T10:08:06Z</time>
      </trkpt>
      <trkpt lat="45.98522" lon="4.79484">
        <ele>244</ele>
        <time>2018-06-07T10:08:07Z</time>
      </trkpt>
      <trkpt lat="45.98522" lon="4.79476">
        <ele>244</ele>
        <time>2018-06-07T10:08:08Z</time>
      </trkpt>
      <trkpt lat="45.98522" lon="4.79468">
        <ele>244</ele>
        <time>2018-06-07T10:08:09Z</time>
      </trkpt>
      <trkpt lat="45.98521" lon="4.7946">
        <ele>244</ele>
        <time>2018-06-07T10:08:10Z</time>
      </trkpt>
      <trkpt lat="45.98521" lon="4.79452">
        <ele>244</ele>
        <time>2018-06-07T10:08:11Z</time>
      </trkpt>
      <trkpt lat="45.9852" lon="4.79443">
        <ele>244</ele>
        <time>2018-06-07T10:08:12Z</time>
      </trkpt>
      <trkpt lat="45.9852" lon="4.79433">
        <ele>244</ele>
        <time>2018-06-07T10:08:13Z</time>
      </trkpt>
      <trkpt lat="45.98519" lon="4.79424">
        <ele>244</ele>
        <time>2018-06-07T10:08:14Z</time>
      </trkpt>
      <trkpt lat="45.98519" lon="4.79414">
        <ele>244</ele>
        <time>2018-06-07T10:08:15Z</time>
      </trkpt>
      <trkpt lat="45.98516" lon="4.79407">
        <ele>244</ele>
        <time>2018-06-07T10:08:16Z</time>
      </trkpt>
      <trkpt lat="45.98516" lon="4.79399">
        <ele>244</ele>
        <time>2018-06-07T10:08:17Z</time>
      </trkpt>
      <trkpt lat="45.98516" lon="4.79392">
        <ele>244</ele>
        <time>2018-06-07T10:08:18Z</time>
      </trkpt>
      <trkpt lat="45.98515" lon="4.79384">
        <ele>244</ele>
        <time>2018-06-07T10:08:19Z</time>
      </trkpt>
      <trkpt lat="45.98514" lon="4.79376">
        <ele>244</ele>
        <time>2018-06-07T10:08:20Z</time>
      </trkpt>
      <trkpt lat="45.98513" lon="4.79367">
        <ele>243</ele>
        <time>2018-06-07T10:08:21Z</time>
      </trkpt>
      <trkpt lat="45.98512" lon="4.79359">
        <ele>243</ele>
        <time>2018-06-07T10:08:22Z</time>
      </trkpt>
      <trkpt lat="45.98511" lon="4.79353">
        <ele>243</ele>
        <time>2018-06-07T10:08:23Z</time>
      </trkpt>
      <trkpt lat="45.9851" lon="4.79345">
        <ele>243</ele>
        <time>2018-06-07T10:08:24Z</time>
      </trkpt>
      <trkpt lat="45.98508" lon="4.79338">
        <ele>243</ele>
        <time>2018-06-07T10:08:25Z</time>
      </trkpt>
      <trkpt lat="45.98505" lon="4.79329">
        <ele>243</ele>
        <time>2018-06-07T10:08:26Z</time>
      </trkpt>
      <trkpt lat="45.98503" lon="4.79321">
        <ele>243</ele>
        <time>2018-06-07T10:08:27Z</time>
      </trkpt>
      <trkpt lat="45.98501" lon="4.79314">
        <ele>243</ele>
        <time>2018-06-07T10:08:28Z</time>
      </trkpt>
      <trkpt lat="45.98498" lon="4.79307">
        <ele>243</ele>
        <time>2018-06-07T10:08:29Z</time>
      </trkpt>
      <trkpt lat="45.98495" lon="4.793">
        <ele>243</ele>
        <time>2018-06-07T10:08:30Z</time>
      </trkpt>
      <trkpt lat="45.98492" lon="4.79293">
        <ele>243</ele>
        <time>2018-06-07T10:08:31Z</time>
      </trkpt>
      <trkpt lat="45.98489" lon="4.79287">
        <ele>243</ele>
        <time>2018-06-07T10:08:32Z</time>
      </trkpt>
      <trkpt lat="45.98486" lon="4.79281">
        <ele>243</ele>
        <time>2018-06-07T10:08:33Z</time>
      </trkpt>
      <trkpt lat="45.98483" lon="4.79273">
        <ele>243</ele>
        <time>2018-06-07T10:08:34Z</time>
      </trkpt>
      <trkpt lat="45.9848" lon="4.79266">
        <ele>243</ele>
        <time>2018-06-07T10:08:35Z</time>
      </trkpt>
      <trkpt lat="45.98477" lon="4.7926">
        <ele>243</ele>
        <time>2018-06-07T10:08:36Z</time>
      </trkpt>
      <trkpt lat="45.98474" lon="4.79252">
        <ele>243</ele>
        <time>2018-06-07T10:08:37Z</time>
      </trkpt>
      <trkpt lat="45.9847" lon="4.79245">
        <ele>243</ele>
        <time>2018-06-07T10:08:38Z</time>
      </trkpt>
      <trkpt lat="45.98466" lon="4.79238">
        <ele>243</ele>
        <time>2018-06-07T10:08:39Z</time>
      </trkpt>
      <trkpt lat="45.98464" lon="4.79232">
        <ele>243</ele>
        <time>2018-06-07T10:08:40Z</time>
      </trkpt>
      <trkpt lat="45.9846" lon="4.79225">
        <ele>243</ele>
        <time>2018-06-07T10:08:41Z</time>
      </trkpt>
      <trkpt lat="45.98456" lon="4.79219">
        <ele>243</ele>
        <time>2018-06-07T10:08:42Z</time>
      </trkpt>
      <trkpt lat="45.98453" lon="4.79212">
        <ele>242</ele>
        <time>2018-06-07T10:08:43Z</time>
      </trkpt>
      <trkpt lat="45.9845" lon="4.79207">
        <ele>242</ele>
        <time>2018-06-07T10:08:44Z</time>
      </trkpt>
      <trkpt lat="45.98444" lon="4.79197">
        <ele>242</ele>
        <time>2018-06-07T10:08:46Z</time>
      </trkpt>
      <trkpt lat="45.98441" lon="4.79191">
        <ele>242</ele>
        <time>2018-06-07T10:08:47Z</time>
      </trkpt>
      <trkpt lat="45.98439" lon="4.79185">
        <ele>242</ele>
        <time>2018-06-07T10:08:48Z</time>
      </trkpt>
      <trkpt lat="45.98434" lon="4.79178">
        <ele>242</ele>
        <time>2018-06-07T10:08:49Z</time>
      </trkpt>
      <trkpt lat="45.98431" lon="4.79172">
        <ele>242</ele>
        <time>2018-06-07T10:08:50Z</time>
      </trkpt>
      <trkpt lat="45.98428" lon="4.79165">
        <ele>242</ele>
        <time>2018-06-07T10:08:51Z</time>
      </trkpt>
      <trkpt lat="45.98424" lon="4.79158">
        <ele>242</ele>
        <time>2018-06-07T10:08:52Z</time>
      </trkpt>
      <trkpt lat="45.98419" lon="4.79151">
        <ele>242</ele>
        <time>2018-06-07T10:08:53Z</time>
      </trkpt>
      <trkpt lat="45.98415" lon="4.79144">
        <ele>242</ele>
        <time>2018-06-07T10:08:54Z</time>
      </trkpt>
      <trkpt lat="45.9841" lon="4.79134">
        <ele>242</ele>
        <time>2018-06-07T10:08:55Z</time>
      </trkpt>
      <trkpt lat="45.98408" lon="4.79129">
        <ele>242</ele>
        <time>2018-06-07T10:08:56Z</time>
      </trkpt>
      <trkpt lat="45.98404" lon="4.79123">
        <ele>242</ele>
        <time>2018-06-07T10:08:57Z</time>
      </trkpt>
      <trkpt lat="45.98401" lon="4.79118">
        <ele>242</ele>
        <time>2018-06-07T10:08:58Z</time>
      </trkpt>
      <trkpt lat="45.98398" lon="4.79111">
        <ele>242</ele>
        <time>2018-06-07T10:08:59Z</time>
      </trkpt>
      <trkpt lat="45.98393" lon="4.79104">
        <ele>242</ele>
        <time>2018-06-07T10:09:00Z</time>
      </trkpt>
      <trkpt lat="45.9839" lon="4.79098">
        <ele>242</ele>
        <time>2018-06-07T10:09:01Z</time>
      </trkpt>
      <trkpt lat="45.98387" lon="4.79091">
        <ele>242</ele>
        <time>2018-06-07T10:09:02Z</time>
      </trkpt>
      <trkpt lat="45.98384" lon="4.79085">
        <ele>242</ele>
        <time>2018-06-07T10:09:03Z</time>
      </trkpt>
      <trkpt lat="45.98381" lon="4.79079">
        <ele>242</ele>
        <time>2018-06-07T10:09:04Z</time>
      </trkpt>
      <trkpt lat="45.98381" lon="4.79071">
        <ele>242</ele>
        <time>2018-06-07T10:09:05Z</time>
      </trkpt>
      <trkpt lat="45.98377" lon="4.79065">
        <ele>242</ele>
        <time>2018-06-07T10:09:06Z</time>
      </trkpt>
      <trkpt lat="45.98373" lon="4.79058">
        <ele>242</ele>
        <time>2018-06-07T10:09:07Z</time>
      </trkpt>
      <trkpt lat="45.98369" lon="4.79052">
        <ele>242</ele>
        <time>2018-06-07T10:09:08Z</time>
      </trkpt>
      <trkpt lat="45.98369" lon="4.79045">
        <ele>242</ele>
        <time>2018-06-07T10:09:09Z</time>
      </trkpt>
      <trkpt lat="45.98365" lon="4.79039">
        <ele>242</ele>
        <time>2018-06-07T10:09:10Z</time>
      </trkpt>
      <trkpt lat="45.98361" lon="4.79035">
        <ele>242</ele>
        <time>2018-06-07T10:09:11Z</time>
      </trkpt>
      <trkpt lat="45.98357" lon="4.79029">
        <ele>242</ele>
        <time>2018-06-07T10:09:12Z</time>
      </trkpt>
      <trkpt lat="45.98351" lon="4.79022">
        <ele>242</ele>
        <time>2018-06-07T10:09:13Z</time>
      </trkpt>
      <trkpt lat="45.98347" lon="4.79016">
        <ele>242</ele>
        <time>2018-06-07T10:09:14Z</time>
      </trkpt>
      <trkpt lat="45.9834" lon="4.79011">
        <ele>242</ele>
        <time>2018-06-07T10:09:15Z</time>
      </trkpt>
      <trkpt lat="45.98335" lon="4.79006">
        <ele>242</ele>
        <time>2018-06-07T10:09:16Z</time>
      </trkpt>
      <trkpt lat="45.9833" lon="4.79002">
        <ele>242</ele>
        <time>2018-06-07T10:09:17Z</time>
      </trkpt>
      <trkpt lat="45.98324" lon="4.78999">
        <ele>242</ele>
        <time>2018-06-07T10:09:18Z</time>
      </trkpt>
      <trkpt lat="45.98317" lon="4.78996">
        <ele>242</ele>
        <time>2018-06-07T10:09:19Z</time>
      </trkpt>
      <trkpt lat="45.9831" lon="4.78993">
        <ele>241</ele>
        <time>2018-06-07T10:09:20Z</time>
      </trkpt>
      <trkpt lat="45.98303" lon="4.7899">
        <ele>241</ele>
        <time>2018-06-07T10:09:21Z</time>
      </trkpt>
      <trkpt lat="45.98297" lon="4.78986">
        <ele>241</ele>
        <time>2018-06-07T10:09:22Z</time>
      </trkpt>
      <trkpt lat="45.9829" lon="4.78983">
        <ele>241</ele>
        <time>2018-06-07T10:09:23Z</time>
      </trkpt>
      <trkpt lat="45.98284" lon="4.78979">
        <ele>241</ele>
        <time>2018-06-07T10:09:24Z</time>
      </trkpt>
      <trkpt lat="45.98277" lon="4.78977">
        <ele>241</ele>
        <time>2018-06-07T10:09:25Z</time>
      </trkpt>
      <trkpt lat="45.98271" lon="4.78973">
        <ele>241</ele>
        <time>2018-06-07T10:09:26Z</time>
      </trkpt>
      <trkpt lat="45.98265" lon="4.78969">
        <ele>241</ele>
        <time>2018-06-07T10:09:27Z</time>
      </trkpt>
      <trkpt lat="45.98259" lon="4.78965">
        <ele>241</ele>
        <time>2018-06-07T10:09:28Z</time>
      </trkpt>
      <trkpt lat="45.98253" lon="4.78962">
        <ele>241</ele>
        <time>2018-06-07T10:09:29Z</time>
      </trkpt>
      <trkpt lat="45.98247" lon="4.7896">
        <ele>241</ele>
        <time>2018-06-07T10:09:30Z</time>
      </trkpt>
      <trkpt lat="45.98242" lon="4.78955">
        <ele>241</ele>
        <time>2018-06-07T10:09:31Z</time>
      </trkpt>
      <trkpt lat="45.98237" lon="4.78952">
        <ele>241</ele>
        <time>2018-06-07T10:09:32Z</time>
      </trkpt>
      <trkpt lat="45.9823" lon="4.78948">
        <ele>241</ele>
        <time>2018-06-07T10:09:33Z</time>
      </trkpt>
      <trkpt lat="45.98224" lon="4.78945">
        <ele>241</ele>
        <time>2018-06-07T10:09:34Z</time>
      </trkpt>
      <trkpt lat="45.98217" lon="4.78943">
        <ele>241</ele>
        <time>2018-06-07T10:09:35Z</time>
      </trkpt>
      <trkpt lat="45.98211" lon="4.7894">
        <ele>241</ele>
        <time>2018-06-07T10:09:36Z</time>
      </trkpt>
      <trkpt lat="45.98206" lon="4.78936">
        <ele>241</ele>
        <time>2018-06-07T10:09:37Z</time>
      </trkpt>
      <trkpt lat="45.982" lon="4.78932">
        <ele>241</ele>
        <time>2018-06-07T10:09:38Z</time>
      </trkpt>
      <trkpt lat="45.98193" lon="4.78929">
        <ele>241</ele>
        <time>2018-06-07T10:09:39Z</time>
      </trkpt>
      <trkpt lat="45.98188" lon="4.78926">
        <ele>241</ele>
        <time>2018-06-07T10:09:40Z</time>
      </trkpt>
      <trkpt lat="45.98182" lon="4.78923">
        <ele>240</ele>
        <time>2018-06-07T10:09:41Z</time>
      </trkpt>
      <trkpt lat="45.98176" lon="4.78921">
        <ele>240</ele>
        <time>2018-06-07T10:09:42Z</time>
      </trkpt>
      <trkpt lat="45.9817" lon="4.78919">
        <ele>240</ele>
        <time>2018-06-07T10:09:43Z</time>
      </trkpt>
      <trkpt lat="45.98166" lon="4.78917">
        <ele>240</ele>
        <time>2018-06-07T10:09:44Z</time>
      </trkpt>
      <trkpt lat="45.98161" lon="4.78917">
        <ele>240</ele>
        <time>2018-06-07T10:09:45Z</time>
      </trkpt>
      <trkpt lat="45.98155" lon="4.78909">
        <ele>240</ele>
        <time>2018-06-07T10:09:46Z</time>
      </trkpt>
      <trkpt lat="45.98149" lon="4.78908">
        <ele>240</ele>
        <time>2018-06-07T10:09:47Z</time>
      </trkpt>
      <trkpt lat="45.98144" lon="4.78905">
        <ele>240</ele>
        <time>2018-06-07T10:09:48Z</time>
      </trkpt>
      <trkpt lat="45.98139" lon="4.78901">
        <ele>240</ele>
        <time>2018-06-07T10:09:49Z</time>
      </trkpt>
      <trkpt lat="45.98134" lon="4.78898">
        <ele>240</ele>
        <time>2018-06-07T10:09:50Z</time>
      </trkpt>
      <trkpt lat="45.98127" lon="4.78893">
        <ele>240</ele>
        <time>2018-06-07T10:09:51Z</time>
      </trkpt>
      <trkpt lat="45.98122" lon="4.7889">
        <ele>240</ele>
        <time>2018-06-07T10:09:52Z</time>
      </trkpt>
      <trkpt lat="45.98118" lon="4.78888">
        <ele>240</ele>
        <time>2018-06-07T10:09:53Z</time>
      </trkpt>
      <trkpt lat="45.98113" lon="4.78885">
        <ele>240</ele>
        <time>2018-06-07T10:09:54Z</time>
      </trkpt>
      <trkpt lat="45.98106" lon="4.78883">
        <ele>240</ele>
        <time>2018-06-07T10:09:55Z</time>
      </trkpt>
      <trkpt lat="45.98101" lon="4.78878">
        <ele>240</ele>
        <time>2018-06-07T10:09:56Z</time>
      </trkpt>
      <trkpt lat="45.98096" lon="4.78875">
        <ele>239</ele>
        <time>2018-06-07T10:09:57Z</time>
      </trkpt>
      <trkpt lat="45.98088" lon="4.78871">
        <ele>239</ele>
        <time>2018-06-07T10:09:58Z</time>
      </trkpt>
      <trkpt lat="45.98083" lon="4.78867">
        <ele>239</ele>
        <time>2018-06-07T10:09:59Z</time>
      </trkpt>
      <trkpt lat="45.98078" lon="4.78863">
        <ele>239</ele>
        <time>2018-06-07T10:10:00Z</time>
      </trkpt>
      <trkpt lat="45.98073" lon="4.7886">
        <ele>239</ele>
        <time>2018-06-07T10:10:01Z</time>
      </trkpt>
      <trkpt lat="45.98068" lon="4.78855">
        <ele>239</ele>
        <time>2018-06-07T10:10:02Z</time>
      </trkpt>
      <trkpt lat="45.98065" lon="4.7885">
        <ele>239</ele>
        <time>2018-06-07T10:10:03Z</time>
      </trkpt>
      <trkpt lat="45.98058" lon="4.78847">
        <ele>239</ele>
        <time>2018-06-07T10:10:04Z</time>
      </trkpt>
      <trkpt lat="45.98051" lon="4.78845">
        <ele>239</ele>
        <time>2018-06-07T10:10:05Z</time>
      </trkpt>
      <trkpt lat="45.98046" lon="4.7884">
        <ele>238</ele>
        <time>2018-06-07T10:10:06Z</time>
      </trkpt>
      <trkpt lat="45.98041" lon="4.78835">
        <ele>238</ele>
        <time>2018-06-07T10:10:07Z</time>
      </trkpt>
      <trkpt lat="45.98036" lon="4.78832">
        <ele>238</ele>
        <time>2018-06-07T10:10:08Z</time>
      </trkpt>
      <trkpt lat="45.9803" lon="4.78827">
        <ele>238</ele>
        <time>2018-06-07T10:10:09Z</time>
      </trkpt>
      <trkpt lat="45.98024" lon="4.78823">
        <ele>238</ele>
        <time>2018-06-07T10:10:10Z</time>
      </trkpt>
      <trkpt lat="45.98019" lon="4.78818">
        <ele>238</ele>
        <time>2018-06-07T10:10:11Z</time>
      </trkpt>
      <trkpt lat="45.98013" lon="4.78813">
        <ele>238</ele>
        <time>2018-06-07T10:10:12Z</time>
      </trkpt>
      <trkpt lat="45.98007" lon="4.78809">
        <ele>238</ele>
        <time>2018-06-07T10:10:13Z</time>
      </trkpt>
      <trkpt lat="45.98001" lon="4.78805">
        <ele>238</ele>
        <time>2018-06-07T10:10:14Z</time>
      </trkpt>
      <trkpt lat="45.97996" lon="4.78803">
        <ele>238</ele>
        <time>2018-06-07T10:10:15Z</time>
      </trkpt>
      <trkpt lat="45.97991" lon="4.78799">
        <ele>238</ele>
        <time>2018-06-07T10:10:16Z</time>
      </trkpt>
      <trkpt lat="45.97984" lon="4.78797">
        <ele>238</ele>
        <time>2018-06-07T10:10:17Z</time>
      </trkpt>
      <trkpt lat="45.97979" lon="4.78793">
        <ele>238</ele>
        <time>2018-06-07T10:10:18Z</time>
      </trkpt>
      <trkpt lat="45.97974" lon="4.78788">
        <ele>238</ele>
        <time>2018-06-07T10:10:19Z</time>
      </trkpt>
      <trkpt lat="45.97968" lon="4.78784">
        <ele>238</ele>
        <time>2018-06-07T10:10:20Z</time>
      </trkpt>
      <trkpt lat="45.97964" lon="4.78781">
        <ele>238</ele>
        <time>2018-06-07T10:10:21Z</time>
      </trkpt>
      <trkpt lat="45.97959" lon="4.78777">
        <ele>238</ele>
        <time>2018-06-07T10:10:22Z</time>
      </trkpt>
      <trkpt lat="45.97953" lon="4.78774">
        <ele>238</ele>
        <time>2018-06-07T10:10:23Z</time>
      </trkpt>
      <trkpt lat="45.97947" lon="4.78773">
        <ele>238</ele>
        <time>2018-06-07T10:10:24Z</time>
      </trkpt>
      <trkpt lat="45.97941" lon="4.78768">
        <ele>238</ele>
        <time>2018-06-07T10:10:25Z</time>
      </trkpt>
      <trkpt lat="45.97935" lon="4.78764">
        <ele>238</ele>
        <time>2018-06-07T10:10:26Z</time>
      </trkpt>
      <trkpt lat="45.97929" lon="4.78759">
        <ele>238</ele>
        <time>2018-06-07T10:10:27Z</time>
      </trkpt>
      <trkpt lat="45.97923" lon="4.78755">
        <ele>237</ele>
        <time>2018-06-07T10:10:28Z</time>
      </trkpt>
      <trkpt lat="45.97917" lon="4.7875">
        <ele>237</ele>
        <time>2018-06-07T10:10:29Z</time>
      </trkpt>
      <trkpt lat="45.9791" lon="4.78745">
        <ele>237</ele>
        <time>2018-06-07T10:10:30Z</time>
      </trkpt>
      <trkpt lat="45.97903" lon="4.78741">
        <ele>237</ele>
        <time>2018-06-07T10:10:31Z</time>
      </trkpt>
      <trkpt lat="45.97898" lon="4.78737">
        <ele>237</ele>
        <time>2018-06-07T10:10:32Z</time>
      </trkpt>
      <trkpt lat="45.97892" lon="4.78733">
        <ele>236</ele>
        <time>2018-06-07T10:10:33Z</time>
      </trkpt>
      <trkpt lat="45.97887" lon="4.78729">
        <ele>236</ele>
        <time>2018-06-07T10:10:34Z</time>
      </trkpt>
      <trkpt lat="45.97881" lon="4.78724">
        <ele>236</ele>
        <time>2018-06-07T10:10:35Z</time>
      </trkpt>
      <trkpt lat="45.97876" lon="4.7872">
        <ele>236</ele>
        <time>2018-06-07T10:10:36Z</time>
      </trkpt>
      <trkpt lat="45.97871" lon="4.78714">
        <ele>236</ele>
        <time>2018-06-07T10:10:37Z</time>
      </trkpt>
      <trkpt lat="45.97866" lon="4.7871">
        <ele>236</ele>
        <time>2018-06-07T10:10:38Z</time>
      </trkpt>
      <trkpt lat="45.97861" lon="4.78707">
        <ele>236</ele>
        <time>2018-06-07T10:10:39Z</time>
      </trkpt>
      <trkpt lat="45.97854" lon="4.78705">
        <ele>236</ele>
        <time>2018-06-07T10:10:40Z</time>
      </trkpt>
      <trkpt lat="45.97849" lon="4.78702">
        <ele>236</ele>
        <time>2018-06-07T10:10:41Z</time>
      </trkpt>
      <trkpt lat="45.97844" lon="4.78697">
        <ele>236</ele>
        <time>2018-06-07T10:10:42Z</time>
      </trkpt>
      <trkpt lat="45.97836" lon="4.78694">
        <ele>236</ele>
        <time>2018-06-07T10:10:43Z</time>
      </trkpt>
      <trkpt lat="45.9783" lon="4.7869">
        <ele>235</ele>
        <time>2018-06-07T10:10:44Z</time>
      </trkpt>
      <trkpt lat="45.97826" lon="4.78687">
        <ele>235</ele>
        <time>2018-06-07T10:10:45Z</time>
      </trkpt>
      <trkpt lat="45.97819" lon="4.78684">
        <ele>235</ele>
        <time>2018-06-07T10:10:46Z</time>
      </trkpt>
      <trkpt lat="45.97813" lon="4.78681">
        <ele>235</ele>
        <time>2018-06-07T10:10:47Z</time>
      </trkpt>
      <trkpt lat="45.97807" lon="4.78679">
        <ele>235</ele>
        <time>2018-06-07T10:10:48Z</time>
      </trkpt>
      <trkpt lat="45.978" lon="4.78677">
        <ele>235</ele>
        <time>2018-06-07T10:10:49Z</time>
      </trkpt>
      <trkpt lat="45.97795" lon="4.78674">
        <ele>235</ele>
        <time>2018-06-07T10:10:50Z</time>
      </trkpt>
      <trkpt lat="45.9779" lon="4.78672">
        <ele>235</ele>
        <time>2018-06-07T10:10:51Z</time>
      </trkpt>
      <trkpt lat="45.97784" lon="4.78669">
        <ele>235</ele>
        <time>2018-06-07T10:10:52Z</time>
      </trkpt>
      <trkpt lat="45.97779" lon="4.78667">
        <ele>235</ele>
        <time>2018-06-07T10:10:53Z</time>
      </trkpt>
      <trkpt lat="45.97773" lon="4.78665">
        <ele>235</ele>
        <time>2018-06-07T10:10:54Z</time>
      </trkpt>
      <trkpt lat="45.97767" lon="4.7866">
        <ele>235</ele>
        <time>2018-06-07T10:10:55Z</time>
      </trkpt>
      <trkpt lat="45.9776" lon="4.78657">
        <ele>235</ele>
        <time>2018-06-07T10:10:56Z</time>
      </trkpt>
      <trkpt lat="45.97755" lon="4.78652">
        <ele>235</ele>
        <time>2018-06-07T10:10:57Z</time>
      </trkpt>
      <trkpt lat="45.97748" lon="4.78651">
        <ele>234</ele>
        <time>2018-06-07T10:10:58Z</time>
      </trkpt>
      <trkpt lat="45.97742" lon="4.78648">
        <ele>234</ele>
        <time>2018-06-07T10:10:59Z</time>
      </trkpt>
      <trkpt lat="45.97736" lon="4.78644">
        <ele>234</ele>
        <time>2018-06-07T10:11:00Z</time>
      </trkpt>
      <trkpt lat="45.9773" lon="4.78642">
        <ele>234</ele>
        <time>2018-06-07T10:11:01Z</time>
      </trkpt>
      <trkpt lat="45.97724" lon="4.7864">
        <ele>234</ele>
        <time>2018-06-07T10:11:02Z</time>
      </trkpt>
      <trkpt lat="45.97719" lon="4.78638">
        <ele>234</ele>
        <time>2018-06-07T10:11:03Z</time>
      </trkpt>
      <trkpt lat="45.97713" lon="4.78635">
        <ele>234</ele>
        <time>2018-06-07T10:11:04Z</time>
      </trkpt>
      <trkpt lat="45.97707" lon="4.78634">
        <ele>234</ele>
        <time>2018-06-07T10:11:05Z</time>
      </trkpt>
      <trkpt lat="45.97702" lon="4.78631">
        <ele>234</ele>
        <time>2018-06-07T10:11:06Z</time>
      </trkpt>
      <trkpt lat="45.97696" lon="4.78628">
        <ele>234</ele>
        <time>2018-06-07T10:11:07Z</time>
      </trkpt>
      <trkpt lat="45.97691" lon="4.78626">
        <ele>234</ele>
        <time>2018-06-07T10:11:08Z</time>
      </trkpt>
      <trkpt lat="45.97685" lon="4.78623">
        <ele>234</ele>
        <time>2018-06-07T10:11:09Z</time>
      </trkpt>
      <trkpt lat="45.97679" lon="4.78621">
        <ele>234</ele>
        <time>2018-06-07T10:11:10Z</time>
      </trkpt>
      <trkpt lat="45.97673" lon="4.78618">
        <ele>234</ele>
        <time>2018-06-07T10:11:11Z</time>
      </trkpt>
      <trkpt lat="45.97668" lon="4.78615">
        <ele>234</ele>
        <time>2018-06-07T10:11:12Z</time>
      </trkpt>
      <trkpt lat="45.97661" lon="4.78613">
        <ele>233</ele>
        <time>2018-06-07T10:11:13Z</time>
      </trkpt>
      <trkpt lat="45.97655" lon="4.78609">
        <ele>233</ele>
        <time>2018-06-07T10:11:14Z</time>
      </trkpt>
      <trkpt lat="45.97649" lon="4.78606">
        <ele>233</ele>
        <time>2018-06-07T10:11:15Z</time>
      </trkpt>
      <trkpt lat="45.97642" lon="4.78603">
        <ele>233</ele>
        <time>2018-06-07T10:11:16Z</time>
      </trkpt>
      <trkpt lat="45.97637" lon="4.78601">
        <ele>233</ele>
        <time>2018-06-07T10:11:17Z</time>
      </trkpt>
      <trkpt lat="45.97631" lon="4.78598">
        <ele>233</ele>
        <time>2018-06-07T10:11:18Z</time>
      </trkpt>
      <trkpt lat="45.97625" lon="4.78596">
        <ele>233</ele>
        <time>2018-06-07T10:11:19Z</time>
      </trkpt>
      <trkpt lat="45.9762" lon="4.78594">
        <ele>233</ele>
        <time>2018-06-07T10:11:20Z</time>
      </trkpt>
      <trkpt lat="45.97613" lon="4.78592">
        <ele>233</ele>
        <time>2018-06-07T10:11:21Z</time>
      </trkpt>
      <trkpt lat="45.97608" lon="4.7859">
        <ele>233</ele>
        <time>2018-06-07T10:11:22Z</time>
      </trkpt>
      <trkpt lat="45.97603" lon="4.78588">
        <ele>233</ele>
        <time>2018-06-07T10:11:23Z</time>
      </trkpt>
      <trkpt lat="45.97597" lon="4.78592">
        <ele>233</ele>
        <time>2018-06-07T10:11:24Z</time>
      </trkpt>
      <trkpt lat="45.9759" lon="4.78589">
        <ele>233</ele>
        <time>2018-06-07T10:11:25Z</time>
      </trkpt>
      <trkpt lat="45.97584" lon="4.78587">
        <ele>233</ele>
        <time>2018-06-07T10:11:26Z</time>
      </trkpt>
      <trkpt lat="45.97579" lon="4.78585">
        <ele>233</ele>
        <time>2018-06-07T10:11:27Z</time>
      </trkpt>
      <trkpt lat="45.97573" lon="4.78582">
        <ele>233</ele>
        <time>2018-06-07T10:11:28Z</time>
      </trkpt>
      <trkpt lat="45.97567" lon="4.7858">
        <ele>233</ele>
        <time>2018-06-07T10:11:29Z</time>
      </trkpt>
      <trkpt lat="45.97561" lon="4.78577">
        <ele>233</ele>
        <time>2018-06-07T10:11:30Z</time>
      </trkpt>
      <trkpt lat="45.97556" lon="4.78575">
        <ele>233</ele>
        <time>2018-06-07T10:11:31Z</time>
      </trkpt>
      <trkpt lat="45.9755" lon="4.78572">
        <ele>234</ele>
        <time>2018-06-07T10:11:32Z</time>
      </trkpt>
      <trkpt lat="45.97544" lon="4.78569">
        <ele>234</ele>
        <time>2018-06-07T10:11:33Z</time>
      </trkpt>
      <trkpt lat="45.97538" lon="4.78566">
        <ele>234</ele>
        <time>2018-06-07T10:11:34Z</time>
      </trkpt>
      <trkpt lat="45.97532" lon="4.78563">
        <ele>234</ele>
        <time>2018-06-07T10:11:35Z</time>
      </trkpt>
      <trkpt lat="45.97526" lon="4.7856">
        <ele>234</ele>
        <time>2018-06-07T10:11:36Z</time>
      </trkpt>
      <trkpt lat="45.9752" lon="4.78556">
        <ele>234</ele>
        <time>2018-06-07T10:11:37Z</time>
      </trkpt>
      <trkpt lat="45.97514" lon="4.78552">
        <ele>234</ele>
        <time>2018-06-07T10:11:38Z</time>
      </trkpt>
      <trkpt lat="45.97509" lon="4.78549">
        <ele>234</ele>
        <time>2018-06-07T10:11:39Z</time>
      </trkpt>
      <trkpt lat="45.97503" lon="4.78546">
        <ele>234</ele>
        <time>2018-06-07T10:11:40Z</time>
      </trkpt>
      <trkpt lat="45.97497" lon="4.78542">
        <ele>233</ele>
        <time>2018-06-07T10:11:41Z</time>
      </trkpt>
      <trkpt lat="45.97491" lon="4.78537">
        <ele>233</ele>
        <time>2018-06-07T10:11:42Z</time>
      </trkpt>
      <trkpt lat="45.97485" lon="4.78533">
        <ele>233</ele>
        <time>2018-06-07T10:11:43Z</time>
      </trkpt>
      <trkpt lat="45.97479" lon="4.78528">
        <ele>233</ele>
        <time>2018-06-07T10:11:44Z</time>
      </trkpt>
      <trkpt lat="45.97474" lon="4.78524">
        <ele>233</ele>
        <time>2018-06-07T10:11:45Z</time>
      </trkpt>
      <trkpt lat="45.97468" lon="4.78519">
        <ele>233</ele>
        <time>2018-06-07T10:11:46Z</time>
      </trkpt>
      <trkpt lat="45.97461" lon="4.78514">
        <ele>233</ele>
        <time>2018-06-07T10:11:47Z</time>
      </trkpt>
      <trkpt lat="45.97456" lon="4.78509">
        <ele>233</ele>
        <time>2018-06-07T10:11:48Z</time>
      </trkpt>
      <trkpt lat="45.9745" lon="4.78505">
        <ele>234</ele>
        <time>2018-06-07T10:11:49Z</time>
      </trkpt>
      <trkpt lat="45.97445" lon="4.78499">
        <ele>234</ele>
        <time>2018-06-07T10:11:50Z</time>
      </trkpt>
      <trkpt lat="45.9744" lon="4.78494">
        <ele>234</ele>
        <time>2018-06-07T10:11:51Z</time>
      </trkpt>
      <trkpt lat="45.97434" lon="4.78493">
        <ele>234</ele>
        <time>2018-06-07T10:11:52Z</time>
      </trkpt>
      <trkpt lat="45.97429" lon="4.78489">
        <ele>234</ele>
        <time>2018-06-07T10:11:53Z</time>
      </trkpt>
      <trkpt lat="45.97424" lon="4.78484">
        <ele>234</ele>
        <time>2018-06-07T10:11:54Z</time>
      </trkpt>
      <trkpt lat="45.9742" lon="4.78478">
        <ele>234</ele>
        <time>2018-06-07T10:11:55Z</time>
      </trkpt>
      <trkpt lat="45.97415" lon="4.78473">
        <ele>233</ele>
        <time>2018-06-07T10:11:56Z</time>
      </trkpt>
      <trkpt lat="45.97409" lon="4.78467">
        <ele>233</ele>
        <time>2018-06-07T10:11:57Z</time>
      </trkpt>
      <trkpt lat="45.97401" lon="4.78465">
        <ele>233</ele>
        <time>2018-06-07T10:11:58Z</time>
      </trkpt>
      <trkpt lat="45.97396" lon="4.7846">
        <ele>233</ele>
        <time>2018-06-07T10:11:59Z</time>
      </trkpt>
      <trkpt lat="45.97391" lon="4.78458">
        <ele>233</ele>
        <time>2018-06-07T10:12:00Z</time>
      </trkpt>
      <trkpt lat="45.97385" lon="4.78453">
        <ele>233</ele>
        <time>2018-06-07T10:12:01Z</time>
      </trkpt>
      <trkpt lat="45.9738" lon="4.78448">
        <ele>233</ele>
        <time>2018-06-07T10:12:02Z</time>
      </trkpt>
      <trkpt lat="45.97375" lon="4.78443">
        <ele>233</ele>
        <time>2018-06-07T10:12:03Z</time>
      </trkpt>
      <trkpt lat="45.97371" lon="4.78438">
        <ele>233</ele>
        <time>2018-06-07T10:12:04Z</time>
      </trkpt>
      <trkpt lat="45.97366" lon="4.78433">
        <ele>233</ele>
        <time>2018-06-07T10:12:05Z</time>
      </trkpt>
      <trkpt lat="45.97362" lon="4.78427">
        <ele>233</ele>
        <time>2018-06-07T10:12:06Z</time>
      </trkpt>
      <trkpt lat="45.97358" lon="4.78421">
        <ele>233</ele>
        <time>2018-06-07T10:12:07Z</time>
      </trkpt>
      <trkpt lat="45.97353" lon="4.78416">
        <ele>232</ele>
        <time>2018-06-07T10:12:08Z</time>
      </trkpt>
      <trkpt lat="45.97349" lon="4.7841">
        <ele>232</ele>
        <time>2018-06-07T10:12:09Z</time>
      </trkpt>
      <trkpt lat="45.97344" lon="4.78406">
        <ele>232</ele>
        <time>2018-06-07T10:12:10Z</time>
      </trkpt>
      <trkpt lat="45.9734" lon="4.78401">
        <ele>232</ele>
        <time>2018-06-07T10:12:11Z</time>
      </trkpt>
      <trkpt lat="45.97336" lon="4.78396">
        <ele>232</ele>
        <time>2018-06-07T10:12:12Z</time>
      </trkpt>
      <trkpt lat="45.97331" lon="4.7839">
        <ele>232</ele>
        <time>2018-06-07T10:12:13Z</time>
      </trkpt>
      <trkpt lat="45.97327" lon="4.78386">
        <ele>232</ele>
        <time>2018-06-07T10:12:14Z</time>
      </trkpt>
      <trkpt lat="45.97323" lon="4.7838">
        <ele>232</ele>
        <time>2018-06-07T10:12:15Z</time>
      </trkpt>
      <trkpt lat="45.97318" lon="4.78374">
        <ele>232</ele>
        <time>2018-06-07T10:12:16Z</time>
      </trkpt>
      <trkpt lat="45.97313" lon="4.78369">
        <ele>232</ele>
        <time>2018-06-07T10:12:17Z</time>
      </trkpt>
      <trkpt lat="45.9731" lon="4.78362">
        <ele>232</ele>
        <time>2018-06-07T10:12:18Z</time>
      </trkpt>
      <trkpt lat="45.97306" lon="4.78356">
        <ele>232</ele>
        <time>2018-06-07T10:12:19Z</time>
      </trkpt>
      <trkpt lat="45.97301" lon="4.78351">
        <ele>232</ele>
        <time>2018-06-07T10:12:20Z</time>
      </trkpt>
      <trkpt lat="45.97297" lon="4.78345">
        <ele>232</ele>
        <time>2018-06-07T10:12:21Z</time>
      </trkpt>
      <trkpt lat="45.97293" lon="4.78339">
        <ele>232</ele>
        <time>2018-06-07T10:12:22Z</time>
      </trkpt>
      <trkpt lat="45.9729" lon="4.78333">
        <ele>232</ele>
        <time>2018-06-07T10:12:23Z</time>
      </trkpt>
      <trkpt lat="45.97287" lon="4.78325">
        <ele>232</ele>
        <time>2018-06-07T10:12:24Z</time>
      </trkpt>
      <trkpt lat="45.97283" lon="4.78319">
        <ele>232</ele>
        <time>2018-06-07T10:12:25Z</time>
      </trkpt>
      <trkpt lat="45.97279" lon="4.78313">
        <ele>232</ele>
        <time>2018-06-07T10:12:26Z</time>
      </trkpt>
      <trkpt lat="45.97274" lon="4.78307">
        <ele>232</ele>
        <time>2018-06-07T10:12:27Z</time>
      </trkpt>
      <trkpt lat="45.97269" lon="4.78299">
        <ele>232</ele>
        <time>2018-06-07T10:12:28Z</time>
      </trkpt>
      <trkpt lat="45.97265" lon="4.78291">
        <ele>232</ele>
        <time>2018-06-07T10:12:29Z</time>
      </trkpt>
      <trkpt lat="45.97262" lon="4.78285">
        <ele>232</ele>
        <time>2018-06-07T10:12:30Z</time>
      </trkpt>
      <trkpt lat="45.97257" lon="4.78279">
        <ele>232</ele>
        <time>2018-06-07T10:12:31Z</time>
      </trkpt>
      <trkpt lat="45.97252" lon="4.78272">
        <ele>232</ele>
        <time>2018-06-07T10:12:32Z</time>
      </trkpt>
      <trkpt lat="45.97247" lon="4.78265">
        <ele>231</ele>
        <time>2018-06-07T10:12:33Z</time>
      </trkpt>
      <trkpt lat="45.97243" lon="4.78258">
        <ele>231</ele>
        <time>2018-06-07T10:12:34Z</time>
      </trkpt>
      <trkpt lat="45.97238" lon="4.78253">
        <ele>231</ele>
        <time>2018-06-07T10:12:35Z</time>
      </trkpt>
      <trkpt lat="45.97235" lon="4.78244">
        <ele>231</ele>
        <time>2018-06-07T10:12:36Z</time>
      </trkpt>
      <trkpt lat="45.97231" lon="4.78238">
        <ele>231</ele>
        <time>2018-06-07T10:12:37Z</time>
      </trkpt>
      <trkpt lat="45.97227" lon="4.78232">
        <ele>231</ele>
        <time>2018-06-07T10:12:38Z</time>
      </trkpt>
      <trkpt lat="45.97223" lon="4.78225">
        <ele>231</ele>
        <time>2018-06-07T10:12:39Z</time>
      </trkpt>
      <trkpt lat="45.9722" lon="4.78219">
        <ele>231</ele>
        <time>2018-06-07T10:12:40Z</time>
      </trkpt>
      <trkpt lat="45.97216" lon="4.78212">
        <ele>231</ele>
        <time>2018-06-07T10:12:41Z</time>
      </trkpt>
      <trkpt lat="45.97211" lon="4.78205">
        <ele>231</ele>
        <time>2018-06-07T10:12:42Z</time>
      </trkpt>
      <trkpt lat="45.97208" lon="4.78198">
        <ele>231</ele>
        <time>2018-06-07T10:12:43Z</time>
      </trkpt>
      <trkpt lat="45.97203" lon="4.78191">
        <ele>231</ele>
        <time>2018-06-07T10:12:44Z</time>
      </trkpt>
      <trkpt lat="45.972" lon="4.78185">
        <ele>231</ele>
        <time>2018-06-07T10:12:45Z</time>
      </trkpt>
      <trkpt lat="45.97196" lon="4.78178">
        <ele>231</ele>
        <time>2018-06-07T10:12:46Z</time>
      </trkpt>
      <trkpt lat="45.97193" lon="4.78171">
        <ele>231</ele>
        <time>2018-06-07T10:12:47Z</time>
      </trkpt>
      <trkpt lat="45.97189" lon="4.78165">
        <ele>231</ele>
        <time>2018-06-07T10:12:48Z</time>
      </trkpt>
      <trkpt lat="45.97186" lon="4.78159">
        <ele>231</ele>
        <time>2018-06-07T10:12:49Z</time>
      </trkpt>
      <trkpt lat="45.97183" lon="4.78154">
        <ele>231</ele>
        <time>2018-06-07T10:12:50Z</time>
      </trkpt>
      <trkpt lat="45.97179" lon="4.7815">
        <ele>231</ele>
        <time>2018-06-07T10:12:51Z</time>
      </trkpt>
      <trkpt lat="45.97176" lon="4.78146">
        <ele>231</ele>
        <time>2018-06-07T10:12:52Z</time>
      </trkpt>
      <trkpt lat="45.97173" lon="4.78139">
        <ele>231</ele>
        <time>2018-06-07T10:12:53Z</time>
      </trkpt>
      <trkpt lat="45.9717" lon="4.78134">
        <ele>231</ele>
        <time>2018-06-07T10:12:54Z</time>
      </trkpt>
      <trkpt lat="45.97166" lon="4.78127">
        <ele>230</ele>
        <time>2018-06-07T10:12:55Z</time>
      </trkpt>
      <trkpt lat="45.97162" lon="4.7812">
        <ele>230</ele>
        <time>2018-06-07T10:12:56Z</time>
      </trkpt>
      <trkpt lat="45.97159" lon="4.78113">
        <ele>230</ele>
        <time>2018-06-07T10:12:57Z</time>
      </trkpt>
      <trkpt lat="45.97154" lon="4.78106">
        <ele>230</ele>
        <time>2018-06-07T10:12:58Z</time>
      </trkpt>
      <trkpt lat="45.97151" lon="4.78097">
        <ele>230</ele>
        <time>2018-06-07T10:12:59Z</time>
      </trkpt>
      <trkpt lat="45.97147" lon="4.78089">
        <ele>230</ele>
        <time>2018-06-07T10:13:00Z</time>
      </trkpt>
      <trkpt lat="45.97143" lon="4.78081">
        <ele>230</ele>
        <time>2018-06-07T10:13:01Z</time>
      </trkpt>
      <trkpt lat="45.97137" lon="4.78074">
        <ele>230</ele>
        <time>2018-06-07T10:13:02Z</time>
      </trkpt>
      <trkpt lat="45.97132" lon="4.78067">
        <ele>230</ele>
        <time>2018-06-07T10:13:03Z</time>
      </trkpt>
      <trkpt lat="45.97126" lon="4.7806">
        <ele>230</ele>
        <time>2018-06-07T10:13:04Z</time>
      </trkpt>
      <trkpt lat="45.97121" lon="4.78054">
        <ele>229</ele>
        <time>2018-06-07T10:13:05Z</time>
      </trkpt>
      <trkpt lat="45.97115" lon="4.7805">
        <ele>229</ele>
        <time>2018-06-07T10:13:06Z</time>
      </trkpt>
      <trkpt lat="45.97108" lon="4.78044">
        <ele>229</ele>
        <time>2018-06-07T10:13:07Z</time>
      </trkpt>
      <trkpt lat="45.97103" lon="4.78039">
        <ele>229</ele>
        <time>2018-06-07T10:13:08Z</time>
      </trkpt>
      <trkpt lat="45.97098" lon="4.78034">
        <ele>229</ele>
        <time>2018-06-07T10:13:09Z</time>
      </trkpt>
      <trkpt lat="45.97093" lon="4.78031">
        <ele>229</ele>
        <time>2018-06-07T10:13:10Z</time>
      </trkpt>
      <trkpt lat="45.97089" lon="4.78027">
        <ele>229</ele>
        <time>2018-06-07T10:13:11Z</time>
      </trkpt>
      <trkpt lat="45.97083" lon="4.78021">
        <ele>229</ele>
        <time>2018-06-07T10:13:12Z</time>
      </trkpt>
      <trkpt lat="45.9708" lon="4.78012">
        <ele>229</ele>
        <time>2018-06-07T10:13:13Z</time>
      </trkpt>
      <trkpt lat="45.97075" lon="4.78007">
        <ele>229</ele>
        <time>2018-06-07T10:13:14Z</time>
      </trkpt>
      <trkpt lat="45.97069" lon="4.78003">
        <ele>229</ele>
        <time>2018-06-07T10:13:15Z</time>
      </trkpt>
      <trkpt lat="45.97065" lon="4.77997">
        <ele>229</ele>
        <time>2018-06-07T10:13:16Z</time>
      </trkpt>
      <trkpt lat="45.97059" lon="4.77992">
        <ele>229</ele>
        <time>2018-06-07T10:13:17Z</time>
      </trkpt>
      <trkpt lat="45.97053" lon="4.77986">
        <ele>229</ele>
        <time>2018-06-07T10:13:18Z</time>
      </trkpt>
      <trkpt lat="45.97048" lon="4.77979">
        <ele>229</ele>
        <time>2018-06-07T10:13:19Z</time>
      </trkpt>
      <trkpt lat="45.97043" lon="4.77973">
        <ele>229</ele>
        <time>2018-06-07T10:13:20Z</time>
      </trkpt>
      <trkpt lat="45.97038" lon="4.77968">
        <ele>229</ele>
        <time>2018-06-07T10:13:21Z</time>
      </trkpt>
      <trkpt lat="45.97033" lon="4.77962">
        <ele>228</ele>
        <time>2018-06-07T10:13:22Z</time>
      </trkpt>
      <trkpt lat="45.97028" lon="4.77956">
        <ele>228</ele>
        <time>2018-06-07T10:13:23Z</time>
      </trkpt>
      <trkpt lat="45.97024" lon="4.77951">
        <ele>228</ele>
        <time>2018-06-07T10:13:24Z</time>
      </trkpt>
      <trkpt lat="45.97019" lon="4.77946">
        <ele>228</ele>
        <time>2018-06-07T10:13:25Z</time>
      </trkpt>
      <trkpt lat="45.97014" lon="4.7794">
        <ele>228</ele>
        <time>2018-06-07T10:13:26Z</time>
      </trkpt>
      <trkpt lat="45.97009" lon="4.77934">
        <ele>228</ele>
        <time>2018-06-07T10:13:27Z</time>
      </trkpt>
      <trkpt lat="45.97005" lon="4.77928">
        <ele>228</ele>
        <time>2018-06-07T10:13:28Z</time>
      </trkpt>
      <trkpt lat="45.96999" lon="4.77921">
        <ele>227</ele>
        <time>2018-06-07T10:13:29Z</time>
      </trkpt>
      <trkpt lat="45.96995" lon="4.77916">
        <ele>227</ele>
        <time>2018-06-07T10:13:30Z</time>
      </trkpt>
      <trkpt lat="45.9699" lon="4.77908">
        <ele>227</ele>
        <time>2018-06-07T10:13:31Z</time>
      </trkpt>
      <trkpt lat="45.96983" lon="4.77902">
        <ele>227</ele>
        <time>2018-06-07T10:13:32Z</time>
      </trkpt>
      <trkpt lat="45.96978" lon="4.77897">
        <ele>228</ele>
        <time>2018-06-07T10:13:33Z</time>
      </trkpt>
      <trkpt lat="45.96974" lon="4.7789">
        <ele>228</ele>
        <time>2018-06-07T10:13:34Z</time>
      </trkpt>
      <trkpt lat="45.96969" lon="4.77884">
        <ele>228</ele>
        <time>2018-06-07T10:13:35Z</time>
      </trkpt>
      <trkpt lat="45.96962" lon="4.7788">
        <ele>228</ele>
        <time>2018-06-07T10:13:36Z</time>
      </trkpt>
      <trkpt lat="45.96957" lon="4.77874">
        <ele>228</ele>
        <time>2018-06-07T10:13:37Z</time>
      </trkpt>
      <trkpt lat="45.96952" lon="4.77868">
        <ele>228</ele>
        <time>2018-06-07T10:13:38Z</time>
      </trkpt>
      <trkpt lat="45.96947" lon="4.77862">
        <ele>228</ele>
        <time>2018-06-07T10:13:39Z</time>
      </trkpt>
      <trkpt lat="45.96943" lon="4.77862">
        <ele>228</ele>
        <time>2018-06-07T10:13:40Z</time>
      </trkpt>
      <trkpt lat="45.96938" lon="4.77856">
        <ele>228</ele>
        <time>2018-06-07T10:13:41Z</time>
      </trkpt>
      <trkpt lat="45.96933" lon="4.77851">
        <ele>228</ele>
        <time>2018-06-07T10:13:42Z</time>
      </trkpt>
      <trkpt lat="45.96928" lon="4.77845">
        <ele>228</ele>
        <time>2018-06-07T10:13:43Z</time>
      </trkpt>
      <trkpt lat="45.96922" lon="4.7784">
        <ele>228</ele>
        <time>2018-06-07T10:13:44Z</time>
      </trkpt>
      <trkpt lat="45.96916" lon="4.77836">
        <ele>228</ele>
        <time>2018-06-07T10:13:45Z</time>
      </trkpt>
      <trkpt lat="45.96911" lon="4.7783">
        <ele>228</ele>
        <time>2018-06-07T10:13:46Z</time>
      </trkpt>
      <trkpt lat="45.96907" lon="4.77826">
        <ele>228</ele>
        <time>2018-06-07T10:13:47Z</time>
      </trkpt>
      <trkpt lat="45.96902" lon="4.77821">
        <ele>228</ele>
        <time>2018-06-07T10:13:48Z</time>
      </trkpt>
      <trkpt lat="45.96897" lon="4.77813">
        <ele>228</ele>
        <time>2018-06-07T10:13:49Z</time>
      </trkpt>
      <trkpt lat="45.96893" lon="4.77807">
        <ele>228</ele>
        <time>2018-06-07T10:13:50Z</time>
      </trkpt>
      <trkpt lat="45.96888" lon="4.77803">
        <ele>228</ele>
        <time>2018-06-07T10:13:51Z</time>
      </trkpt>
      <trkpt lat="45.96883" lon="4.77799">
        <ele>228</ele>
        <time>2018-06-07T10:13:52Z</time>
      </trkpt>
      <trkpt lat="45.96878" lon="4.77794">
        <ele>228</ele>
        <time>2018-06-07T10:13:53Z</time>
      </trkpt>
      <trkpt lat="45.96874" lon="4.7779">
        <ele>228</ele>
        <time>2018-06-07T10:13:54Z</time>
      </trkpt>
      <trkpt lat="45.96869" lon="4.77785">
        <ele>228</ele>
        <time>2018-06-07T10:13:55Z</time>
      </trkpt>
      <trkpt lat="45.96865" lon="4.7778">
        <ele>228</ele>
        <time>2018-06-07T10:13:56Z</time>
      </trkpt>
      <trkpt lat="45.9686" lon="4.77776">
        <ele>228</ele>
        <time>2018-06-07T10:13:57Z</time>
      </trkpt>
      <trkpt lat="45.96856" lon="4.77772">
        <ele>228</ele>
        <time>2018-06-07T10:13:58Z</time>
      </trkpt>
      <trkpt lat="45.96853" lon="4.77765">
        <ele>228</ele>
        <time>2018-06-07T10:13:59Z</time>
      </trkpt>
      <trkpt lat="45.96848" lon="4.77759">
        <ele>228</ele>
        <time>2018-06-07T10:14:00Z</time>
      </trkpt>
      <trkpt lat="45.96843" lon="4.77753">
        <ele>228</ele>
        <time>2018-06-07T10:14:01Z</time>
      </trkpt>
      <trkpt lat="45.96838" lon="4.77749">
        <ele>228</ele>
        <time>2018-06-07T10:14:02Z</time>
      </trkpt>
      <trkpt lat="45.96834" lon="4.77744">
        <ele>228</ele>
        <time>2018-06-07T10:14:03Z</time>
      </trkpt>
      <trkpt lat="45.96829" lon="4.77738">
        <ele>228</ele>
        <time>2018-06-07T10:14:04Z</time>
      </trkpt>
      <trkpt lat="45.96825" lon="4.77733">
        <ele>228</ele>
        <time>2018-06-07T10:14:05Z</time>
      </trkpt>
      <trkpt lat="45.96819" lon="4.77728">
        <ele>228</ele>
        <time>2018-06-07T10:14:06Z</time>
      </trkpt>
      <trkpt lat="45.96814" lon="4.77724">
        <ele>228</ele>
        <time>2018-06-07T10:14:07Z</time>
      </trkpt>
      <trkpt lat="45.9681" lon="4.77718">
        <ele>228</ele>
        <time>2018-06-07T10:14:08Z</time>
      </trkpt>
      <trkpt lat="45.96805" lon="4.77713">
        <ele>228</ele>
        <time>2018-06-07T10:14:09Z</time>
      </trkpt>
      <trkpt lat="45.96801" lon="4.77708">
        <ele>228</ele>
        <time>2018-06-07T10:14:10Z</time>
      </trkpt>
      <trkpt lat="45.96797" lon="4.77703">
        <ele>228</ele>
        <time>2018-06-07T10:14:11Z</time>
      </trkpt>
      <trkpt lat="45.96792" lon="4.77698">
        <ele>228</ele>
        <time>2018-06-07T10:14:12Z</time>
      </trkpt>
      <trkpt lat="45.96785" lon="4.77697">
        <ele>227</ele>
        <time>2018-06-07T10:14:13Z</time>
      </trkpt>
      <trkpt lat="45.9678" lon="4.77692">
        <ele>227</ele>
        <time>2018-06-07T10:14:14Z</time>
      </trkpt>
      <trkpt lat="45.96776" lon="4.77688">
        <ele>227</ele>
        <time>2018-06-07T10:14:15Z</time>
      </trkpt>
      <trkpt lat="45.96771" lon="4.77683">
        <ele>227</ele>
        <time>2018-06-07T10:14:16Z</time>
      </trkpt>
      <trkpt lat="45.96767" lon="4.77677">
        <ele>227</ele>
        <time>2018-06-07T10:14:17Z</time>
      </trkpt>
      <trkpt lat="45.96762" lon="4.77672">
        <ele>227</ele>
        <time>2018-06-07T10:14:18Z</time>
      </trkpt>
      <trkpt lat="45.96758" lon="4.77666">
        <ele>227</ele>
        <time>2018-06-07T10:14:19Z</time>
      </trkpt>
      <trkpt lat="45.96753" lon="4.7766">
        <ele>227</ele>
        <time>2018-06-07T10:14:20Z</time>
      </trkpt>
      <trkpt lat="45.96747" lon="4.77655">
        <ele>227</ele>
        <time>2018-06-07T10:14:21Z</time>
      </trkpt>
      <trkpt lat="45.96742" lon="4.77649">
        <ele>227</ele>
        <time>2018-06-07T10:14:22Z</time>
      </trkpt>
      <trkpt lat="45.96738" lon="4.77643">
        <ele>227</ele>
        <time>2018-06-07T10:14:23Z</time>
      </trkpt>
      <trkpt lat="45.96733" lon="4.77637">
        <ele>226</ele>
        <time>2018-06-07T10:14:24Z</time>
      </trkpt>
      <trkpt lat="45.96728" lon="4.77631">
        <ele>226</ele>
        <time>2018-06-07T10:14:25Z</time>
      </trkpt>
      <trkpt lat="45.96723" lon="4.77624">
        <ele>226</ele>
        <time>2018-06-07T10:14:26Z</time>
      </trkpt>
      <trkpt lat="45.96718" lon="4.77618">
        <ele>226</ele>
        <time>2018-06-07T10:14:27Z</time>
      </trkpt>
      <trkpt lat="45.96714" lon="4.77613">
        <ele>226</ele>
        <time>2018-06-07T10:14:28Z</time>
      </trkpt>
      <trkpt lat="45.9671" lon="4.77607">
        <ele>226</ele>
        <time>2018-06-07T10:14:29Z</time>
      </trkpt>
      <trkpt lat="45.96706" lon="4.776">
        <ele>226</ele>
        <time>2018-06-07T10:14:30Z</time>
      </trkpt>
      <trkpt lat="45.96701" lon="4.77594">
        <ele>226</ele>
        <time>2018-06-07T10:14:31Z</time>
      </trkpt>
      <trkpt lat="45.96696" lon="4.77589">
        <ele>226</ele>
        <time>2018-06-07T10:14:32Z</time>
      </trkpt>
      <trkpt lat="45.96691" lon="4.77583">
        <ele>225</ele>
        <time>2018-06-07T10:14:33Z</time>
      </trkpt>
      <trkpt lat="45.96687" lon="4.77578">
        <ele>225</ele>
        <time>2018-06-07T10:14:34Z</time>
      </trkpt>
      <trkpt lat="45.96681" lon="4.77574">
        <ele>225</ele>
        <time>2018-06-07T10:14:35Z</time>
      </trkpt>
      <trkpt lat="45.96676" lon="4.7757">
        <ele>225</ele>
        <time>2018-06-07T10:14:36Z</time>
      </trkpt>
      <trkpt lat="45.96671" lon="4.77566">
        <ele>225</ele>
        <time>2018-06-07T10:14:37Z</time>
      </trkpt>
      <trkpt lat="45.96666" lon="4.7756">
        <ele>225</ele>
        <time>2018-06-07T10:14:38Z</time>
      </trkpt>
      <trkpt lat="45.96661" lon="4.77554">
        <ele>224</ele>
        <time>2018-06-07T10:14:39Z</time>
      </trkpt>
      <trkpt lat="45.96655" lon="4.77551">
        <ele>224</ele>
        <time>2018-06-07T10:14:40Z</time>
      </trkpt>
      <trkpt lat="45.96648" lon="4.77547">
        <ele>224</ele>
        <time>2018-06-07T10:14:41Z</time>
      </trkpt>
      <trkpt lat="45.96644" lon="4.77544">
        <ele>224</ele>
        <time>2018-06-07T10:14:42Z</time>
      </trkpt>
      <trkpt lat="45.96639" lon="4.77539">
        <ele>224</ele>
        <time>2018-06-07T10:14:43Z</time>
      </trkpt>
      <trkpt lat="45.96633" lon="4.77534">
        <ele>224</ele>
        <time>2018-06-07T10:14:44Z</time>
      </trkpt>
      <trkpt lat="45.96627" lon="4.7753">
        <ele>224</ele>
        <time>2018-06-07T10:14:45Z</time>
      </trkpt>
      <trkpt lat="45.9662" lon="4.77527">
        <ele>224</ele>
        <time>2018-06-07T10:14:46Z</time>
      </trkpt>
      <trkpt lat="45.96614" lon="4.77523">
        <ele>224</ele>
        <time>2018-06-07T10:14:47Z</time>
      </trkpt>
      <trkpt lat="45.96607" lon="4.77518">
        <ele>224</ele>
        <time>2018-06-07T10:14:48Z</time>
      </trkpt>
      <trkpt lat="45.96601" lon="4.77515">
        <ele>224</ele>
        <time>2018-06-07T10:14:49Z</time>
      </trkpt>
      <trkpt lat="45.96594" lon="4.77511">
        <ele>224</ele>
        <time>2018-06-07T10:14:50Z</time>
      </trkpt>
      <trkpt lat="45.96588" lon="4.77507">
        <ele>224</ele>
        <time>2018-06-07T10:14:51Z</time>
      </trkpt>
      <trkpt lat="45.96583" lon="4.77505">
        <ele>224</ele>
        <time>2018-06-07T10:14:52Z</time>
      </trkpt>
      <trkpt lat="45.96577" lon="4.77501">
        <ele>224</ele>
        <time>2018-06-07T10:14:53Z</time>
      </trkpt>
      <trkpt lat="45.96572" lon="4.77495">
        <ele>224</ele>
        <time>2018-06-07T10:14:54Z</time>
      </trkpt>
      <trkpt lat="45.96566" lon="4.77492">
        <ele>224</ele>
        <time>2018-06-07T10:14:55Z</time>
      </trkpt>
      <trkpt lat="45.9656" lon="4.77488">
        <ele>224</ele>
        <time>2018-06-07T10:14:56Z</time>
      </trkpt>
      <trkpt lat="45.96554" lon="4.77484">
        <ele>223</ele>
        <time>2018-06-07T10:14:57Z</time>
      </trkpt>
      <trkpt lat="45.96547" lon="4.77481">
        <ele>223</ele>
        <time>2018-06-07T10:14:58Z</time>
      </trkpt>
      <trkpt lat="45.96542" lon="4.77477">
        <ele>223</ele>
        <time>2018-06-07T10:14:59Z</time>
      </trkpt>
      <trkpt lat="45.96536" lon="4.77473">
        <ele>223</ele>
        <time>2018-06-07T10:15:00Z</time>
      </trkpt>
      <trkpt lat="45.9653" lon="4.77469">
        <ele>223</ele>
        <time>2018-06-07T10:15:01Z</time>
      </trkpt>
      <trkpt lat="45.96523" lon="4.77466">
        <ele>223</ele>
        <time>2018-06-07T10:15:02Z</time>
      </trkpt>
      <trkpt lat="45.96517" lon="4.77462">
        <ele>223</ele>
        <time>2018-06-07T10:15:03Z</time>
      </trkpt>
      <trkpt lat="45.96511" lon="4.77458">
        <ele>223</ele>
        <time>2018-06-07T10:15:04Z</time>
      </trkpt>
      <trkpt lat="45.96505" lon="4.77454">
        <ele>223</ele>
        <time>2018-06-07T10:15:05Z</time>
      </trkpt>
      <trkpt lat="45.96498" lon="4.77449">
        <ele>221</ele>
        <time>2018-06-07T10:15:06Z</time>
      </trkpt>
      <trkpt lat="45.96491" lon="4.77444">
        <ele>221</ele>
        <time>2018-06-07T10:15:07Z</time>
      </trkpt>
      <trkpt lat="45.96485" lon="4.7744">
        <ele>222</ele>
        <time>2018-06-07T10:15:08Z</time>
      </trkpt>
      <trkpt lat="45.96478" lon="4.77435">
        <ele>221</ele>
        <time>2018-06-07T10:15:09Z</time>
      </trkpt>
      <trkpt lat="45.96472" lon="4.77431">
        <ele>221</ele>
        <time>2018-06-07T10:15:10Z</time>
      </trkpt>
      <trkpt lat="45.96464" lon="4.7743">
        <ele>221</ele>
        <time>2018-06-07T10:15:11Z</time>
      </trkpt>
      <trkpt lat="45.96459" lon="4.77425">
        <ele>221</ele>
        <time>2018-06-07T10:15:12Z</time>
      </trkpt>
      <trkpt lat="45.96452" lon="4.77422">
        <ele>221</ele>
        <time>2018-06-07T10:15:13Z</time>
      </trkpt>
      <trkpt lat="45.96446" lon="4.77417">
        <ele>221</ele>
        <time>2018-06-07T10:15:14Z</time>
      </trkpt>
      <trkpt lat="45.9644" lon="4.77413">
        <ele>222</ele>
        <time>2018-06-07T10:15:15Z</time>
      </trkpt>
      <trkpt lat="45.96433" lon="4.77409">
        <ele>222</ele>
        <time>2018-06-07T10:15:16Z</time>
      </trkpt>
      <trkpt lat="45.96427" lon="4.77405">
        <ele>222</ele>
        <time>2018-06-07T10:15:17Z</time>
      </trkpt>
      <trkpt lat="45.96421" lon="4.77402">
        <ele>222</ele>
        <time>2018-06-07T10:15:18Z</time>
      </trkpt>
      <trkpt lat="45.96414" lon="4.77399">
        <ele>220</ele>
        <time>2018-06-07T10:15:19Z</time>
      </trkpt>
      <trkpt lat="45.96408" lon="4.77396">
        <ele>220</ele>
        <time>2018-06-07T10:15:20Z</time>
      </trkpt>
      <trkpt lat="45.96402" lon="4.77393">
        <ele>220</ele>
        <time>2018-06-07T10:15:21Z</time>
      </trkpt>
      <trkpt lat="45.96395" lon="4.77389">
        <ele>220</ele>
        <time>2018-06-07T10:15:22Z</time>
      </trkpt>
      <trkpt lat="45.96389" lon="4.77386">
        <ele>220</ele>
        <time>2018-06-07T10:15:23Z</time>
      </trkpt>
      <trkpt lat="45.96383" lon="4.77378">
        <ele>220</ele>
        <time>2018-06-07T10:15:24Z</time>
      </trkpt>
      <trkpt lat="45.96377" lon="4.77374">
        <ele>220</ele>
        <time>2018-06-07T10:15:25Z</time>
      </trkpt>
      <trkpt lat="45.9637" lon="4.77371">
        <ele>219</ele>
        <time>2018-06-07T10:15:26Z</time>
      </trkpt>
      <trkpt lat="45.96364" lon="4.77368">
        <ele>219</ele>
        <time>2018-06-07T10:15:27Z</time>
      </trkpt>
      <trkpt lat="45.96355" lon="4.77364">
        <ele>219</ele>
        <time>2018-06-07T10:15:28Z</time>
      </trkpt>
      <trkpt lat="45.96349" lon="4.77361">
        <ele>219</ele>
        <time>2018-06-07T10:15:29Z</time>
      </trkpt>
      <trkpt lat="45.96343" lon="4.77357">
        <ele>219</ele>
        <time>2018-06-07T10:15:30Z</time>
      </trkpt>
      <trkpt lat="45.96336" lon="4.77355">
        <ele>219</ele>
        <time>2018-06-07T10:15:31Z</time>
      </trkpt>
      <trkpt lat="45.9633" lon="4.77351">
        <ele>218</ele>
        <time>2018-06-07T10:15:32Z</time>
      </trkpt>
      <trkpt lat="45.96324" lon="4.77348">
        <ele>218</ele>
        <time>2018-06-07T10:15:33Z</time>
      </trkpt>
      <trkpt lat="45.96318" lon="4.77343">
        <ele>218</ele>
        <time>2018-06-07T10:15:34Z</time>
      </trkpt>
      <trkpt lat="45.96312" lon="4.7734">
        <ele>218</ele>
        <time>2018-06-07T10:15:35Z</time>
      </trkpt>
      <trkpt lat="45.96307" lon="4.77338">
        <ele>217</ele>
        <time>2018-06-07T10:15:36Z</time>
      </trkpt>
      <trkpt lat="45.96301" lon="4.77334">
        <ele>217</ele>
        <time>2018-06-07T10:15:37Z</time>
      </trkpt>
      <trkpt lat="45.96295" lon="4.7733">
        <ele>219</ele>
        <time>2018-06-07T10:15:38Z</time>
      </trkpt>
      <trkpt lat="45.96288" lon="4.77327">
        <ele>219</ele>
        <time>2018-06-07T10:15:39Z</time>
      </trkpt>
      <trkpt lat="45.96281" lon="4.77323">
        <ele>219</ele>
        <time>2018-06-07T10:15:40Z</time>
      </trkpt>
      <trkpt lat="45.96274" lon="4.7732">
        <ele>218</ele>
        <time>2018-06-07T10:15:41Z</time>
      </trkpt>
      <trkpt lat="45.96268" lon="4.77318">
        <ele>218</ele>
        <time>2018-06-07T10:15:42Z</time>
      </trkpt>
      <trkpt lat="45.96262" lon="4.77315">
        <ele>218</ele>
        <time>2018-06-07T10:15:43Z</time>
      </trkpt>
      <trkpt lat="45.96256" lon="4.77311">
        <ele>218</ele>
        <time>2018-06-07T10:15:44Z</time>
      </trkpt>
      <trkpt lat="45.9625" lon="4.77307">
        <ele>218</ele>
        <time>2018-06-07T10:15:45Z</time>
      </trkpt>
      <trkpt lat="45.96244" lon="4.77303">
        <ele>217</ele>
        <time>2018-06-07T10:15:46Z</time>
      </trkpt>
      <trkpt lat="45.96237" lon="4.773">
        <ele>217</ele>
        <time>2018-06-07T10:15:47Z</time>
      </trkpt>
      <trkpt lat="45.96231" lon="4.77296">
        <ele>217</ele>
        <time>2018-06-07T10:15:48Z</time>
      </trkpt>
      <trkpt lat="45.96224" lon="4.77292">
        <ele>217</ele>
        <time>2018-06-07T10:15:49Z</time>
      </trkpt>
      <trkpt lat="45.96218" lon="4.7729">
        <ele>217</ele>
        <time>2018-06-07T10:15:50Z</time>
      </trkpt>
      <trkpt lat="45.96211" lon="4.77286">
        <ele>216</ele>
        <time>2018-06-07T10:15:51Z</time>
      </trkpt>
      <trkpt lat="45.96205" lon="4.77284">
        <ele>216</ele>
        <time>2018-06-07T10:15:52Z</time>
      </trkpt>
      <trkpt lat="45.96199" lon="4.7728">
        <ele>216</ele>
        <time>2018-06-07T10:15:53Z</time>
      </trkpt>
      <trkpt lat="45.96192" lon="4.77276">
        <ele>216</ele>
        <time>2018-06-07T10:15:54Z</time>
      </trkpt>
      <trkpt lat="45.96185" lon="4.77271">
        <ele>216</ele>
        <time>2018-06-07T10:15:55Z</time>
      </trkpt>
      <trkpt lat="45.96178" lon="4.77268">
        <ele>216</ele>
        <time>2018-06-07T10:15:56Z</time>
      </trkpt>
      <trkpt lat="45.96171" lon="4.77264">
        <ele>216</ele>
        <time>2018-06-07T10:15:57Z</time>
      </trkpt>
      <trkpt lat="45.96164" lon="4.7726">
        <ele>214</ele>
        <time>2018-06-07T10:15:58Z</time>
      </trkpt>
      <trkpt lat="45.96158" lon="4.77257">
        <ele>214</ele>
        <time>2018-06-07T10:15:59Z</time>
      </trkpt>
      <trkpt lat="45.96153" lon="4.77254">
        <ele>214</ele>
        <time>2018-06-07T10:16:00Z</time>
      </trkpt>
      <trkpt lat="45.96145" lon="4.77251">
        <ele>213</ele>
        <time>2018-06-07T10:16:01Z</time>
      </trkpt>
      <trkpt lat="45.96138" lon="4.77248">
        <ele>215</ele>
        <time>2018-06-07T10:16:02Z</time>
      </trkpt>
      <trkpt lat="45.96131" lon="4.77245">
        <ele>215</ele>
        <time>2018-06-07T10:16:03Z</time>
      </trkpt>
      <trkpt lat="45.96124" lon="4.77244">
        <ele>214</ele>
        <time>2018-06-07T10:16:04Z</time>
      </trkpt>
      <trkpt lat="45.96117" lon="4.77243">
        <ele>214</ele>
        <time>2018-06-07T10:16:05Z</time>
      </trkpt>
      <trkpt lat="45.9611" lon="4.77243">
        <ele>213</ele>
        <time>2018-06-07T10:16:06Z</time>
      </trkpt>
      <trkpt lat="45.96104" lon="4.77242">
        <ele>213</ele>
        <time>2018-06-07T10:16:07Z</time>
      </trkpt>
      <trkpt lat="45.96096" lon="4.77244">
        <ele>212</ele>
        <time>2018-06-07T10:16:08Z</time>
      </trkpt>
      <trkpt lat="45.96088" lon="4.77244">
        <ele>211</ele>
        <time>2018-06-07T10:16:09Z</time>
      </trkpt>
      <trkpt lat="45.96079" lon="4.77245">
        <ele>210</ele>
        <time>2018-06-07T10:16:10Z</time>
      </trkpt>
      <trkpt lat="45.96071" lon="4.77246">
        <ele>210</ele>
        <time>2018-06-07T10:16:11Z</time>
      </trkpt>
      <trkpt lat="45.96062" lon="4.77247">
        <ele>209</ele>
        <time>2018-06-07T10:16:12Z</time>
      </trkpt>
      <trkpt lat="45.96054" lon="4.77248">
        <ele>209</ele>
        <time>2018-06-07T10:16:13Z</time>
      </trkpt>
      <trkpt lat="45.96047" lon="4.77248">
        <ele>209</ele>
        <time>2018-06-07T10:16:14Z</time>
      </trkpt>
      <trkpt lat="45.96039" lon="4.77248">
        <ele>208</ele>
        <time>2018-06-07T10:16:15Z</time>
      </trkpt>
      <trkpt lat="45.96031" lon="4.77249">
        <ele>207</ele>
        <time>2018-06-07T10:16:16Z</time>
      </trkpt>
      <trkpt lat="45.96022" lon="4.7725">
        <ele>207</ele>
        <time>2018-06-07T10:16:17Z</time>
      </trkpt>
      <trkpt lat="45.96013" lon="4.77249">
        <ele>206</ele>
        <time>2018-06-07T10:16:18Z</time>
      </trkpt>
      <trkpt lat="45.96004" lon="4.77248">
        <ele>204</ele>
        <time>2018-06-07T10:16:19Z</time>
      </trkpt>
      <trkpt lat="45.95996" lon="4.77246">
        <ele>203</ele>
        <time>2018-06-07T10:16:20Z</time>
      </trkpt>
      <trkpt lat="45.95987" lon="4.77243">
        <ele>202</ele>
        <time>2018-06-07T10:16:21Z</time>
      </trkpt>
      <trkpt lat="45.95978" lon="4.77238">
        <ele>202</ele>
        <time>2018-06-07T10:16:22Z</time>
      </trkpt>
      <trkpt lat="45.9597" lon="4.77231">
        <ele>202</ele>
        <time>2018-06-07T10:16:23Z</time>
      </trkpt>
      <trkpt lat="45.95962" lon="4.77224">
        <ele>201</ele>
        <time>2018-06-07T10:16:24Z</time>
      </trkpt>
      <trkpt lat="45.95956" lon="4.77212">
        <ele>201</ele>
        <time>2018-06-07T10:16:25Z</time>
      </trkpt>
      <trkpt lat="45.95951" lon="4.772">
        <ele>201</ele>
        <time>2018-06-07T10:16:26Z</time>
      </trkpt>
      <trkpt lat="45.95946" lon="4.77187">
        <ele>201</ele>
        <time>2018-06-07T10:16:27Z</time>
      </trkpt>
      <trkpt lat="45.95943" lon="4.77174">
        <ele>200</ele>
        <time>2018-06-07T10:16:28Z</time>
      </trkpt>
      <trkpt lat="45.95941" lon="4.77162">
        <ele>200</ele>
        <time>2018-06-07T10:16:29Z</time>
      </trkpt>
      <trkpt lat="45.9594" lon="4.77148">
        <ele>201</ele>
        <time>2018-06-07T10:16:30Z</time>
      </trkpt>
      <trkpt lat="45.95939" lon="4.77133">
        <ele>201</ele>
        <time>2018-06-07T10:16:31Z</time>
      </trkpt>
      <trkpt lat="45.95939" lon="4.7712">
        <ele>201</ele>
        <time>2018-06-07T10:16:32Z</time>
      </trkpt>
      <trkpt lat="45.95942" lon="4.77104">
        <ele>201</ele>
        <time>2018-06-07T10:16:33Z</time>
      </trkpt>
      <trkpt lat="45.95945" lon="4.7709">
        <ele>201</ele>
        <time>2018-06-07T10:16:34Z</time>
      </trkpt>
      <trkpt lat="45.95948" lon="4.77077">
        <ele>200</ele>
        <time>2018-06-07T10:16:35Z</time>
      </trkpt>
      <trkpt lat="45.95954" lon="4.77068">
        <ele>200</ele>
        <time>2018-06-07T10:16:36Z</time>
      </trkpt>
      <trkpt lat="45.95956" lon="4.77054">
        <ele>200</ele>
        <time>2018-06-07T10:16:37Z</time>
      </trkpt>
      <trkpt lat="45.95961" lon="4.77042">
        <ele>200</ele>
        <time>2018-06-07T10:16:38Z</time>
      </trkpt>
      <trkpt lat="45.95966" lon="4.77029">
        <ele>200</ele>
        <time>2018-06-07T10:16:39Z</time>
      </trkpt>
      <trkpt lat="45.95971" lon="4.77018">
        <ele>200</ele>
        <time>2018-06-07T10:16:40Z</time>
      </trkpt>
      <trkpt lat="45.95975" lon="4.77006">
        <ele>200</ele>
        <time>2018-06-07T10:16:41Z</time>
      </trkpt>
      <trkpt lat="45.95978" lon="4.76994">
        <ele>198</ele>
        <time>2018-06-07T10:16:42Z</time>
      </trkpt>
      <trkpt lat="45.9598" lon="4.76982">
        <ele>197</ele>
        <time>2018-06-07T10:16:43Z</time>
      </trkpt>
      <trkpt lat="45.9598" lon="4.76967">
        <ele>197</ele>
        <time>2018-06-07T10:16:44Z</time>
      </trkpt>
      <trkpt lat="45.95979" lon="4.76954">
        <ele>196</ele>
        <time>2018-06-07T10:16:45Z</time>
      </trkpt>
      <trkpt lat="45.95975" lon="4.76941">
        <ele>196</ele>
        <time>2018-06-07T10:16:46Z</time>
      </trkpt>
      <trkpt lat="45.9597" lon="4.76932">
        <ele>195</ele>
        <time>2018-06-07T10:16:47Z</time>
      </trkpt>
      <trkpt lat="45.95963" lon="4.76923">
        <ele>195</ele>
        <time>2018-06-07T10:16:48Z</time>
      </trkpt>
      <trkpt lat="45.95954" lon="4.76914">
        <ele>193</ele>
        <time>2018-06-07T10:16:49Z</time>
      </trkpt>
      <trkpt lat="45.95946" lon="4.76906">
        <ele>193</ele>
        <time>2018-06-07T10:16:50Z</time>
      </trkpt>
      <trkpt lat="45.95938" lon="4.76897">
        <ele>192</ele>
        <time>2018-06-07T10:16:51Z</time>
      </trkpt>
      <trkpt lat="45.9593" lon="4.76887">
        <ele>192</ele>
        <time>2018-06-07T10:16:52Z</time>
      </trkpt>
      <trkpt lat="45.95922" lon="4.76878">
        <ele>192</ele>
        <time>2018-06-07T10:16:53Z</time>
      </trkpt>
      <trkpt lat="45.95913" lon="4.7687">
        <ele>191</ele>
        <time>2018-06-07T10:16:54Z</time>
      </trkpt>
      <trkpt lat="45.95905" lon="4.76861">
        <ele>191</ele>
        <time>2018-06-07T10:16:55Z</time>
      </trkpt>
      <trkpt lat="45.95897" lon="4.76852">
        <ele>191</ele>
        <time>2018-06-07T10:16:56Z</time>
      </trkpt>
      <trkpt lat="45.9589" lon="4.76844">
        <ele>191</ele>
        <time>2018-06-07T10:16:57Z</time>
      </trkpt>
      <trkpt lat="45.95882" lon="4.76836">
        <ele>191</ele>
        <time>2018-06-07T10:16:58Z</time>
      </trkpt>
      <trkpt lat="45.95873" lon="4.76828">
        <ele>191</ele>
        <time>2018-06-07T10:16:59Z</time>
      </trkpt>
      <trkpt lat="45.95866" lon="4.7682">
        <ele>191</ele>
        <time>2018-06-07T10:17:00Z</time>
      </trkpt>
      <trkpt lat="45.95858" lon="4.76812">
        <ele>191</ele>
        <time>2018-06-07T10:17:01Z</time>
      </trkpt>
      <trkpt lat="45.95852" lon="4.76805">
        <ele>191</ele>
        <time>2018-06-07T10:17:02Z</time>
      </trkpt>
      <trkpt lat="45.95846" lon="4.76798">
        <ele>191</ele>
        <time>2018-06-07T10:17:03Z</time>
      </trkpt>
      <trkpt lat="45.9584" lon="4.7679">
        <ele>191</ele>
        <time>2018-06-07T10:17:04Z</time>
      </trkpt>
      <trkpt lat="45.95836" lon="4.7678">
        <ele>191</ele>
        <time>2018-06-07T10:17:05Z</time>
      </trkpt>
      <trkpt lat="45.95832" lon="4.76772">
        <ele>190</ele>
        <time>2018-06-07T10:17:06Z</time>
      </trkpt>
      <trkpt lat="45.9583" lon="4.76762">
        <ele>190</ele>
        <time>2018-06-07T10:17:07Z</time>
      </trkpt>
      <trkpt lat="45.95828" lon="4.76752">
        <ele>191</ele>
        <time>2018-06-07T10:17:08Z</time>
      </trkpt>
      <trkpt lat="45.95826" lon="4.76742">
        <ele>190</ele>
        <time>2018-06-07T10:17:09Z</time>
      </trkpt>
      <trkpt lat="45.95824" lon="4.76731">
        <ele>190</ele>
        <time>2018-06-07T10:17:10Z</time>
      </trkpt>
      <trkpt lat="45.95822" lon="4.76722">
        <ele>189</ele>
        <time>2018-06-07T10:17:11Z</time>
      </trkpt>
      <trkpt lat="45.95822" lon="4.76713">
        <ele>189</ele>
        <time>2018-06-07T10:17:12Z</time>
      </trkpt>
      <trkpt lat="45.95821" lon="4.76703">
        <ele>189</ele>
        <time>2018-06-07T10:17:13Z</time>
      </trkpt>
      <trkpt lat="45.9582" lon="4.76693">
        <ele>189</ele>
        <time>2018-06-07T10:17:14Z</time>
      </trkpt>
      <trkpt lat="45.95819" lon="4.76684">
        <ele>189</ele>
        <time>2018-06-07T10:17:15Z</time>
      </trkpt>
      <trkpt lat="45.95816" lon="4.76677">
        <ele>189</ele>
        <time>2018-06-07T10:17:16Z</time>
      </trkpt>
      <trkpt lat="45.95813" lon="4.76666">
        <ele>188</ele>
        <time>2018-06-07T10:17:17Z</time>
      </trkpt>
      <trkpt lat="45.95812" lon="4.76657">
        <ele>188</ele>
        <time>2018-06-07T10:17:18Z</time>
      </trkpt>
      <trkpt lat="45.95811" lon="4.76645">
        <ele>188</ele>
        <time>2018-06-07T10:17:19Z</time>
      </trkpt>
      <trkpt lat="45.95809" lon="4.76636">
        <ele>188</ele>
        <time>2018-06-07T10:17:20Z</time>
      </trkpt>
      <trkpt lat="45.95806" lon="4.76627">
        <ele>188</ele>
        <time>2018-06-07T10:17:21Z</time>
      </trkpt>
      <trkpt lat="45.95805" lon="4.76619">
        <ele>188</ele>
        <time>2018-06-07T10:17:22Z</time>
      </trkpt>
      <trkpt lat="45.95803" lon="4.76609">
        <ele>188</ele>
        <time>2018-06-07T10:17:23Z</time>
      </trkpt>
      <trkpt lat="45.95802" lon="4.76599">
        <ele>187</ele>
        <time>2018-06-07T10:17:24Z</time>
      </trkpt>
      <trkpt lat="45.95802" lon="4.76591">
        <ele>187</ele>
        <time>2018-06-07T10:17:25Z</time>
      </trkpt>
      <trkpt lat="45.95801" lon="4.76582">
        <ele>187</ele>
        <time>2018-06-07T10:17:26Z</time>
      </trkpt>
      <trkpt lat="45.95798" lon="4.76571">
        <ele>187</ele>
        <time>2018-06-07T10:17:27Z</time>
      </trkpt>
      <trkpt lat="45.95798" lon="4.76563">
        <ele>187</ele>
        <time>2018-06-07T10:17:28Z</time>
      </trkpt>
      <trkpt lat="45.95798" lon="4.76554">
        <ele>187</ele>
        <time>2018-06-07T10:17:29Z</time>
      </trkpt>
      <trkpt lat="45.95795" lon="4.76543">
        <ele>187</ele>
        <time>2018-06-07T10:17:30Z</time>
      </trkpt>
      <trkpt lat="45.95794" lon="4.76534">
        <ele>187</ele>
        <time>2018-06-07T10:17:31Z</time>
      </trkpt>
      <trkpt lat="45.95792" lon="4.76525">
        <ele>187</ele>
        <time>2018-06-07T10:17:32Z</time>
      </trkpt>
      <trkpt lat="45.95791" lon="4.76515">
        <ele>187</ele>
        <time>2018-06-07T10:17:33Z</time>
      </trkpt>
      <trkpt lat="45.95789" lon="4.76507">
        <ele>187</ele>
        <time>2018-06-07T10:17:34Z</time>
      </trkpt>
      <trkpt lat="45.95786" lon="4.76497">
        <ele>186</ele>
        <time>2018-06-07T10:17:35Z</time>
      </trkpt>
      <trkpt lat="45.95784" lon="4.76488">
        <ele>186</ele>
        <time>2018-06-07T10:17:36Z</time>
      </trkpt>
      <trkpt lat="45.95784" lon="4.7648">
        <ele>186</ele>
        <time>2018-06-07T10:17:37Z</time>
      </trkpt>
      <trkpt lat="45.95783" lon="4.76471">
        <ele>186</ele>
        <time>2018-06-07T10:17:38Z</time>
      </trkpt>
      <trkpt lat="45.95781" lon="4.76462">
        <ele>186</ele>
        <time>2018-06-07T10:17:39Z</time>
      </trkpt>
      <trkpt lat="45.95781" lon="4.76454">
        <ele>186</ele>
        <time>2018-06-07T10:17:40Z</time>
      </trkpt>
      <trkpt lat="45.95779" lon="4.76445">
        <ele>186</ele>
        <time>2018-06-07T10:17:41Z</time>
      </trkpt>
      <trkpt lat="45.95778" lon="4.76436">
        <ele>186</ele>
        <time>2018-06-07T10:17:42Z</time>
      </trkpt>
      <trkpt lat="45.95777" lon="4.76428">
        <ele>186</ele>
        <time>2018-06-07T10:17:43Z</time>
      </trkpt>
      <trkpt lat="45.95777" lon="4.7642">
        <ele>186</ele>
        <time>2018-06-07T10:17:44Z</time>
      </trkpt>
      <trkpt lat="45.95776" lon="4.76412">
        <ele>186</ele>
        <time>2018-06-07T10:17:45Z</time>
      </trkpt>
      <trkpt lat="45.95777" lon="4.76404">
        <ele>186</ele>
        <time>2018-06-07T10:17:46Z</time>
      </trkpt>
      <trkpt lat="45.95777" lon="4.76396">
        <ele>186</ele>
        <time>2018-06-07T10:17:47Z</time>
      </trkpt>
      <trkpt lat="45.95776" lon="4.76387">
        <ele>186</ele>
        <time>2018-06-07T10:17:48Z</time>
      </trkpt>
      <trkpt lat="45.95775" lon="4.76378">
        <ele>186</ele>
        <time>2018-06-07T10:17:49Z</time>
      </trkpt>
      <trkpt lat="45.95776" lon="4.7637">
        <ele>186</ele>
        <time>2018-06-07T10:17:50Z</time>
      </trkpt>
      <trkpt lat="45.95775" lon="4.76361">
        <ele>186</ele>
        <time>2018-06-07T10:17:51Z</time>
      </trkpt>
      <trkpt lat="45.95775" lon="4.76351">
        <ele>186</ele>
        <time>2018-06-07T10:17:52Z</time>
      </trkpt>
      <trkpt lat="45.95774" lon="4.76344">
        <ele>186</ele>
        <time>2018-06-07T10:17:53Z</time>
      </trkpt>
      <trkpt lat="45.95772" lon="4.76335">
        <ele>186</ele>
        <time>2018-06-07T10:17:54Z</time>
      </trkpt>
      <trkpt lat="45.95772" lon="4.76326">
        <ele>185</ele>
        <time>2018-06-07T10:17:55Z</time>
      </trkpt>
      <trkpt lat="45.95772" lon="4.76316">
        <ele>185</ele>
        <time>2018-06-07T10:17:56Z</time>
      </trkpt>
      <trkpt lat="45.95772" lon="4.76307">
        <ele>186</ele>
        <time>2018-06-07T10:17:57Z</time>
      </trkpt>
      <trkpt lat="45.95772" lon="4.76297">
        <ele>186</ele>
        <time>2018-06-07T10:17:58Z</time>
      </trkpt>
      <trkpt lat="45.95772" lon="4.76289">
        <ele>186</ele>
        <time>2018-06-07T10:17:59Z</time>
      </trkpt>
      <trkpt lat="45.95772" lon="4.76282">
        <ele>186</ele>
        <time>2018-06-07T10:18:00Z</time>
      </trkpt>
      <trkpt lat="45.9577" lon="4.76273">
        <ele>186</ele>
        <time>2018-06-07T10:18:01Z</time>
      </trkpt>
      <trkpt lat="45.95768" lon="4.76265">
        <ele>185</ele>
        <time>2018-06-07T10:18:02Z</time>
      </trkpt>
      <trkpt lat="45.95768" lon="4.76256">
        <ele>185</ele>
        <time>2018-06-07T10:18:03Z</time>
      </trkpt>
      <trkpt lat="45.95766" lon="4.76247">
        <ele>185</ele>
        <time>2018-06-07T10:18:04Z</time>
      </trkpt>
      <trkpt lat="45.95765" lon="4.76239">
        <ele>186</ele>
        <time>2018-06-07T10:18:05Z</time>
      </trkpt>
      <trkpt lat="45.95765" lon="4.7623">
        <ele>186</ele>
        <time>2018-06-07T10:18:06Z</time>
      </trkpt>
      <trkpt lat="45.95765" lon="4.76222">
        <ele>186</ele>
        <time>2018-06-07T10:18:07Z</time>
      </trkpt>
      <trkpt lat="45.95763" lon="4.76213">
        <ele>186</ele>
        <time>2018-06-07T10:18:08Z</time>
      </trkpt>
      <trkpt lat="45.95765" lon="4.76206">
        <ele>186</ele>
        <time>2018-06-07T10:18:09Z</time>
      </trkpt>
      <trkpt lat="45.95765" lon="4.76198">
        <ele>186</ele>
        <time>2018-06-07T10:18:10Z</time>
      </trkpt>
      <trkpt lat="45.95763" lon="4.7619">
        <ele>186</ele>
        <time>2018-06-07T10:18:11Z</time>
      </trkpt>
      <trkpt lat="45.95763" lon="4.76181">
        <ele>186</ele>
        <time>2018-06-07T10:18:12Z</time>
      </trkpt>
      <trkpt lat="45.95761" lon="4.76173">
        <ele>185</ele>
        <time>2018-06-07T10:18:13Z</time>
      </trkpt>
      <trkpt lat="45.95761" lon="4.76164">
        <ele>186</ele>
        <time>2018-06-07T10:18:14Z</time>
      </trkpt>
      <trkpt lat="45.9576" lon="4.76156">
        <ele>186</ele>
        <time>2018-06-07T10:18:15Z</time>
      </trkpt>
      <trkpt lat="45.9576" lon="4.76147">
        <ele>186</ele>
        <time>2018-06-07T10:18:16Z</time>
      </trkpt>
      <trkpt lat="45.95759" lon="4.76138">
        <ele>186</ele>
        <time>2018-06-07T10:18:17Z</time>
      </trkpt>
      <trkpt lat="45.95759" lon="4.7613">
        <ele>186</ele>
        <time>2018-06-07T10:18:18Z</time>
      </trkpt>
      <trkpt lat="45.95759" lon="4.76122">
        <ele>186</ele>
        <time>2018-06-07T10:18:19Z</time>
      </trkpt>
      <trkpt lat="45.95758" lon="4.76114">
        <ele>186</ele>
        <time>2018-06-07T10:18:20Z</time>
      </trkpt>
      <trkpt lat="45.95755" lon="4.76105">
        <ele>186</ele>
        <time>2018-06-07T10:18:21Z</time>
      </trkpt>
      <trkpt lat="45.95753" lon="4.76097">
        <ele>186</ele>
        <time>2018-06-07T10:18:22Z</time>
      </trkpt>
      <trkpt lat="45.95749" lon="4.76088">
        <ele>185</ele>
        <time>2018-06-07T10:18:23Z</time>
      </trkpt>
      <trkpt lat="45.95746" lon="4.7608">
        <ele>185</ele>
        <time>2018-06-07T10:18:24Z</time>
      </trkpt>
      <trkpt lat="45.95745" lon="4.76072">
        <ele>185</ele>
        <time>2018-06-07T10:18:25Z</time>
      </trkpt>
      <trkpt lat="45.95742" lon="4.76065">
        <ele>185</ele>
        <time>2018-06-07T10:18:26Z</time>
      </trkpt>
      <trkpt lat="45.95739" lon="4.76057">
        <ele>184</ele>
        <time>2018-06-07T10:18:27Z</time>
      </trkpt>
      <trkpt lat="45.95736" lon="4.7605">
        <ele>184</ele>
        <time>2018-06-07T10:18:28Z</time>
      </trkpt>
      <trkpt lat="45.95732" lon="4.76042">
        <ele>184</ele>
        <time>2018-06-07T10:18:29Z</time>
      </trkpt>
      <trkpt lat="45.9573" lon="4.76037">
        <ele>184</ele>
        <time>2018-06-07T10:18:30Z</time>
      </trkpt>
      <trkpt lat="45.95728" lon="4.76033">
        <ele>184</ele>
        <time>2018-06-07T10:18:31Z</time>
      </trkpt>
      <trkpt lat="45.95725" lon="4.76026">
        <ele>184</ele>
        <time>2018-06-07T10:18:32Z</time>
      </trkpt>
      <trkpt lat="45.95722" lon="4.76018">
        <ele>184</ele>
        <time>2018-06-07T10:18:33Z</time>
      </trkpt>
      <trkpt lat="45.95719" lon="4.76012">
        <ele>184</ele>
        <time>2018-06-07T10:18:34Z</time>
      </trkpt>
      <trkpt lat="45.95717" lon="4.76005">
        <ele>184</ele>
        <time>2018-06-07T10:18:35Z</time>
      </trkpt>
      <trkpt lat="45.95714" lon="4.75998">
        <ele>185</ele>
        <time>2018-06-07T10:18:36Z</time>
      </trkpt>
      <trkpt lat="45.95711" lon="4.75991">
        <ele>185</ele>
        <time>2018-06-07T10:18:37Z</time>
      </trkpt>
      <trkpt lat="45.95707" lon="4.75984">
        <ele>185</ele>
        <time>2018-06-07T10:18:38Z</time>
      </trkpt>
      <trkpt lat="45.95704" lon="4.75976">
        <ele>185</ele>
        <time>2018-06-07T10:18:39Z</time>
      </trkpt>
      <trkpt lat="45.95701" lon="4.75968">
        <ele>185</ele>
        <time>2018-06-07T10:18:40Z</time>
      </trkpt>
      <trkpt lat="45.95698" lon="4.75961">
        <ele>185</ele>
        <time>2018-06-07T10:18:41Z</time>
      </trkpt>
      <trkpt lat="45.95694" lon="4.75956">
        <ele>185</ele>
        <time>2018-06-07T10:18:42Z</time>
      </trkpt>
      <trkpt lat="45.95691" lon="4.75948">
        <ele>185</ele>
        <time>2018-06-07T10:18:43Z</time>
      </trkpt>
      <trkpt lat="45.95686" lon="4.75942">
        <ele>185</ele>
        <time>2018-06-07T10:18:44Z</time>
      </trkpt>
      <trkpt lat="45.95684" lon="4.75934">
        <ele>185</ele>
        <time>2018-06-07T10:18:45Z</time>
      </trkpt>
      <trkpt lat="45.9568" lon="4.75925">
        <ele>185</ele>
        <time>2018-06-07T10:18:46Z</time>
      </trkpt>
      <trkpt lat="45.95677" lon="4.75918">
        <ele>184</ele>
        <time>2018-06-07T10:18:47Z</time>
      </trkpt>
      <trkpt lat="45.95675" lon="4.75912">
        <ele>185</ele>
        <time>2018-06-07T10:18:48Z</time>
      </trkpt>
      <trkpt lat="45.95673" lon="4.75904">
        <ele>185</ele>
        <time>2018-06-07T10:18:49Z</time>
      </trkpt>
      <trkpt lat="45.95671" lon="4.75896">
        <ele>186</ele>
        <time>2018-06-07T10:18:50Z</time>
      </trkpt>
      <trkpt lat="45.95668" lon="4.75889">
        <ele>186</ele>
        <time>2018-06-07T10:18:51Z</time>
      </trkpt>
      <trkpt lat="45.95666" lon="4.75881">
        <ele>184</ele>
        <time>2018-06-07T10:18:52Z</time>
      </trkpt>
      <trkpt lat="45.95664" lon="4.75869">
        <ele>184</ele>
        <time>2018-06-07T10:18:54Z</time>
      </trkpt>
      <trkpt lat="45.9566" lon="4.75859">
        <ele>184</ele>
        <time>2018-06-07T10:18:55Z</time>
      </trkpt>
      <trkpt lat="45.95657" lon="4.75851">
        <ele>185</ele>
        <time>2018-06-07T10:18:56Z</time>
      </trkpt>
      <trkpt lat="45.95653" lon="4.75844">
        <ele>185</ele>
        <time>2018-06-07T10:18:57Z</time>
      </trkpt>
      <trkpt lat="45.9565" lon="4.75836">
        <ele>185</ele>
        <time>2018-06-07T10:18:58Z</time>
      </trkpt>
      <trkpt lat="45.95649" lon="4.75829">
        <ele>185</ele>
        <time>2018-06-07T10:18:59Z</time>
      </trkpt>
      <trkpt lat="45.95648" lon="4.75822">
        <ele>185</ele>
        <time>2018-06-07T10:19:00Z</time>
      </trkpt>
      <trkpt lat="45.95647" lon="4.75814">
        <ele>185</ele>
        <time>2018-06-07T10:19:01Z</time>
      </trkpt>
      <trkpt lat="45.95647" lon="4.75807">
        <ele>185</ele>
        <time>2018-06-07T10:19:02Z</time>
      </trkpt>
      <trkpt lat="45.95646" lon="4.758">
        <ele>185</ele>
        <time>2018-06-07T10:19:03Z</time>
      </trkpt>
      <trkpt lat="45.95645" lon="4.75792">
        <ele>185</ele>
        <time>2018-06-07T10:19:04Z</time>
      </trkpt>
      <trkpt lat="45.95644" lon="4.75784">
        <ele>186</ele>
        <time>2018-06-07T10:19:05Z</time>
      </trkpt>
      <trkpt lat="45.95643" lon="4.75776">
        <ele>186</ele>
        <time>2018-06-07T10:19:06Z</time>
      </trkpt>
      <trkpt lat="45.95642" lon="4.75769">
        <ele>186</ele>
        <time>2018-06-07T10:19:07Z</time>
      </trkpt>
      <trkpt lat="45.9564" lon="4.75761">
        <ele>186</ele>
        <time>2018-06-07T10:19:08Z</time>
      </trkpt>
      <trkpt lat="45.95639" lon="4.75753">
        <ele>186</ele>
        <time>2018-06-07T10:19:09Z</time>
      </trkpt>
      <trkpt lat="45.95638" lon="4.75745">
        <ele>187</ele>
        <time>2018-06-07T10:19:10Z</time>
      </trkpt>
      <trkpt lat="45.95638" lon="4.75736">
        <ele>187</ele>
        <time>2018-06-07T10:19:11Z</time>
      </trkpt>
      <trkpt lat="45.95637" lon="4.75729">
        <ele>187</ele>
        <time>2018-06-07T10:19:12Z</time>
      </trkpt>
      <trkpt lat="45.95634" lon="4.75721">
        <ele>187</ele>
        <time>2018-06-07T10:19:13Z</time>
      </trkpt>
      <trkpt lat="45.95633" lon="4.75714">
        <ele>187</ele>
        <time>2018-06-07T10:19:14Z</time>
      </trkpt>
      <trkpt lat="45.95631" lon="4.75705">
        <ele>187</ele>
        <time>2018-06-07T10:19:15Z</time>
      </trkpt>
      <trkpt lat="45.9563" lon="4.75697">
        <ele>187</ele>
        <time>2018-06-07T10:19:16Z</time>
      </trkpt>
      <trkpt lat="45.95629" lon="4.75689">
        <ele>187</ele>
        <time>2018-06-07T10:19:17Z</time>
      </trkpt>
      <trkpt lat="45.95627" lon="4.75681">
        <ele>187</ele>
        <time>2018-06-07T10:19:18Z</time>
      </trkpt>
      <trkpt lat="45.95626" lon="4.75673">
        <ele>187</ele>
        <time>2018-06-07T10:19:19Z</time>
      </trkpt>
      <trkpt lat="45.95625" lon="4.75665">
        <ele>188</ele>
        <time>2018-06-07T10:19:20Z</time>
      </trkpt>
      <trkpt lat="45.95625" lon="4.75658">
        <ele>188</ele>
        <time>2018-06-07T10:19:21Z</time>
      </trkpt>
      <trkpt lat="45.95623" lon="4.7565">
        <ele>188</ele>
        <time>2018-06-07T10:19:22Z</time>
      </trkpt>
      <trkpt lat="45.9562" lon="4.75644">
        <ele>188</ele>
        <time>2018-06-07T10:19:23Z</time>
      </trkpt>
      <trkpt lat="45.95618" lon="4.75638">
        <ele>188</ele>
        <time>2018-06-07T10:19:24Z</time>
      </trkpt>
      <trkpt lat="45.95615" lon="4.75631">
        <ele>188</ele>
        <time>2018-06-07T10:19:25Z</time>
      </trkpt>
      <trkpt lat="45.95614" lon="4.75624">
        <ele>188</ele>
        <time>2018-06-07T10:19:26Z</time>
      </trkpt>
      <trkpt lat="45.95612" lon="4.75616">
        <ele>188</ele>
        <time>2018-06-07T10:19:27Z</time>
      </trkpt>
      <trkpt lat="45.9561" lon="4.7561">
        <ele>188</ele>
        <time>2018-06-07T10:19:28Z</time>
      </trkpt>
      <trkpt lat="45.95607" lon="4.75602">
        <ele>187</ele>
        <time>2018-06-07T10:19:29Z</time>
      </trkpt>
      <trkpt lat="45.95604" lon="4.75595">
        <ele>187</ele>
        <time>2018-06-07T10:19:30Z</time>
      </trkpt>
      <trkpt lat="45.95601" lon="4.75586">
        <ele>187</ele>
        <time>2018-06-07T10:19:31Z</time>
      </trkpt>
      <trkpt lat="45.95598" lon="4.75578">
        <ele>188</ele>
        <time>2018-06-07T10:19:32Z</time>
      </trkpt>
      <trkpt lat="45.95595" lon="4.75571">
        <ele>188</ele>
        <time>2018-06-07T10:19:33Z</time>
      </trkpt>
      <trkpt lat="45.95591" lon="4.75564">
        <ele>188</ele>
        <time>2018-06-07T10:19:34Z</time>
      </trkpt>
      <trkpt lat="45.95587" lon="4.75556">
        <ele>188</ele>
        <time>2018-06-07T10:19:35Z</time>
      </trkpt>
      <trkpt lat="45.95582" lon="4.7555">
        <ele>186</ele>
        <time>2018-06-07T10:19:36Z</time>
      </trkpt>
      <trkpt lat="45.95576" lon="4.75541">
        <ele>186</ele>
        <time>2018-06-07T10:19:37Z</time>
      </trkpt>
      <trkpt lat="45.95571" lon="4.75535">
        <ele>186</ele>
        <time>2018-06-07T10:19:38Z</time>
      </trkpt>
      <trkpt lat="45.95564" lon="4.75528">
        <ele>186</ele>
        <time>2018-06-07T10:19:39Z</time>
      </trkpt>
      <trkpt lat="45.95559" lon="4.75523">
        <ele>186</ele>
        <time>2018-06-07T10:19:40Z</time>
      </trkpt>
      <trkpt lat="45.95555" lon="4.75516">
        <ele>186</ele>
        <time>2018-06-07T10:19:41Z</time>
      </trkpt>
      <trkpt lat="45.95549" lon="4.7551">
        <ele>186</ele>
        <time>2018-06-07T10:19:42Z</time>
      </trkpt>
      <trkpt lat="45.95542" lon="4.75501">
        <ele>186</ele>
        <time>2018-06-07T10:19:43Z</time>
      </trkpt>
      <trkpt lat="45.95539" lon="4.75493">
        <ele>187</ele>
        <time>2018-06-07T10:19:44Z</time>
      </trkpt>
      <trkpt lat="45.95536" lon="4.75483">
        <ele>187</ele>
        <time>2018-06-07T10:19:45Z</time>
      </trkpt>
      <trkpt lat="45.95536" lon="4.75473">
        <ele>187</ele>
        <time>2018-06-07T10:19:46Z</time>
      </trkpt>
      <trkpt lat="45.95536" lon="4.75465">
        <ele>187</ele>
        <time>2018-06-07T10:19:47Z</time>
      </trkpt>
      <trkpt lat="45.95534" lon="4.75458">
        <ele>187</ele>
        <time>2018-06-07T10:19:48Z</time>
      </trkpt>
      <trkpt lat="45.95532" lon="4.7545">
        <ele>187</ele>
        <time>2018-06-07T10:19:49Z</time>
      </trkpt>
      <trkpt lat="45.95525" lon="4.75443">
        <ele>187</ele>
        <time>2018-06-07T10:19:50Z</time>
      </trkpt>
      <trkpt lat="45.95522" lon="4.75436">
        <ele>187</ele>
        <time>2018-06-07T10:19:51Z</time>
      </trkpt>
      <trkpt lat="45.95517" lon="4.7543">
        <ele>187</ele>
        <time>2018-06-07T10:19:52Z</time>
      </trkpt>
      <trkpt lat="45.95513" lon="4.75423">
        <ele>186</ele>
        <time>2018-06-07T10:19:53Z</time>
      </trkpt>
      <trkpt lat="45.9551" lon="4.75415">
        <ele>187</ele>
        <time>2018-06-07T10:19:54Z</time>
      </trkpt>
      <trkpt lat="45.95507" lon="4.75408">
        <ele>187</ele>
        <time>2018-06-07T10:19:55Z</time>
      </trkpt>
      <trkpt lat="45.95505" lon="4.754">
        <ele>187</ele>
        <time>2018-06-07T10:19:56Z</time>
      </trkpt>
      <trkpt lat="45.95504" lon="4.75394">
        <ele>188</ele>
        <time>2018-06-07T10:19:57Z</time>
      </trkpt>
      <trkpt lat="45.95502" lon="4.75387">
        <ele>188</ele>
        <time>2018-06-07T10:19:58Z</time>
      </trkpt>
      <trkpt lat="45.95499" lon="4.7538">
        <ele>185</ele>
        <time>2018-06-07T10:19:59Z</time>
      </trkpt>
      <trkpt lat="45.95494" lon="4.75374">
        <ele>185</ele>
        <time>2018-06-07T10:20:00Z</time>
      </trkpt>
      <trkpt lat="45.95491" lon="4.75368">
        <ele>186</ele>
        <time>2018-06-07T10:20:01Z</time>
      </trkpt>
      <trkpt lat="45.95489" lon="4.75362">
        <ele>186</ele>
        <time>2018-06-07T10:20:02Z</time>
      </trkpt>
      <trkpt lat="45.95485" lon="4.75357">
        <ele>186</ele>
        <time>2018-06-07T10:20:03Z</time>
      </trkpt>
      <trkpt lat="45.95481" lon="4.75351">
        <ele>186</ele>
        <time>2018-06-07T10:20:04Z</time>
      </trkpt>
      <trkpt lat="45.95479" lon="4.75346">
        <ele>186</ele>
        <time>2018-06-07T10:20:05Z</time>
      </trkpt>
      <trkpt lat="45.95475" lon="4.75338">
        <ele>186</ele>
        <time>2018-06-07T10:20:06Z</time>
      </trkpt>
      <trkpt lat="45.95472" lon="4.75332">
        <ele>188</ele>
        <time>2018-06-07T10:20:07Z</time>
      </trkpt>
      <trkpt lat="45.95469" lon="4.75326">
        <ele>188</ele>
        <time>2018-06-07T10:20:08Z</time>
      </trkpt>
      <trkpt lat="45.95467" lon="4.7532">
        <ele>188</ele>
        <time>2018-06-07T10:20:09Z</time>
      </trkpt>
      <trkpt lat="45.95463" lon="4.75309">
        <ele>188</ele>
        <time>2018-06-07T10:20:11Z</time>
      </trkpt>
      <trkpt lat="45.9546" lon="4.75304">
        <ele>188</ele>
        <time>2018-06-07T10:20:12Z</time>
      </trkpt>
      <trkpt lat="45.95455" lon="4.75298">
        <ele>188</ele>
        <time>2018-06-07T10:20:13Z</time>
      </trkpt>
      <trkpt lat="45.95452" lon="4.75292">
        <ele>188</ele>
        <time>2018-06-07T10:20:14Z</time>
      </trkpt>
      <trkpt lat="45.95449" lon="4.75288">
        <ele>188</ele>
        <time>2018-06-07T10:20:15Z</time>
      </trkpt>
      <trkpt lat="45.95445" lon="4.75283">
        <ele>188</ele>
        <time>2018-06-07T10:20:16Z</time>
      </trkpt>
      <trkpt lat="45.95443" lon="4.75273">
        <ele>189</ele>
        <time>2018-06-07T10:20:18Z</time>
      </trkpt>
      <trkpt lat="45.95438" lon="4.75269">
        <ele>189</ele>
        <time>2018-06-07T10:20:19Z</time>
      </trkpt>
      <trkpt lat="45.95434" lon="4.75259">
        <ele>189</ele>
        <time>2018-06-07T10:20:21Z</time>
      </trkpt>
      <trkpt lat="45.9543" lon="4.75254">
        <ele>189</ele>
        <time>2018-06-07T10:20:22Z</time>
      </trkpt>
      <trkpt lat="45.95427" lon="4.75249">
        <ele>190</ele>
        <time>2018-06-07T10:20:23Z</time>
      </trkpt>
      <trkpt lat="45.95424" lon="4.75244">
        <ele>190</ele>
        <time>2018-06-07T10:20:24Z</time>
      </trkpt>
      <trkpt lat="45.95422" lon="4.75232">
        <ele>190</ele>
        <time>2018-06-07T10:20:26Z</time>
      </trkpt>
      <trkpt lat="45.95418" lon="4.75226">
        <ele>191</ele>
        <time>2018-06-07T10:20:27Z</time>
      </trkpt>
      <trkpt lat="45.95412" lon="4.75217">
        <ele>189</ele>
        <time>2018-06-07T10:20:29Z</time>
      </trkpt>
      <trkpt lat="45.95409" lon="4.75213">
        <ele>189</ele>
        <time>2018-06-07T10:20:30Z</time>
      </trkpt>
      <trkpt lat="45.95404" lon="4.75203">
        <ele>189</ele>
        <time>2018-06-07T10:20:32Z</time>
      </trkpt>
      <trkpt lat="45.95401" lon="4.75197">
        <ele>189</ele>
        <time>2018-06-07T10:20:33Z</time>
      </trkpt>
      <trkpt lat="45.95395" lon="4.75188">
        <ele>189</ele>
        <time>2018-06-07T10:20:35Z</time>
      </trkpt>
      <trkpt lat="45.95392" lon="4.75183">
        <ele>189</ele>
        <time>2018-06-07T10:20:36Z</time>
      </trkpt>
      <trkpt lat="45.95386" lon="4.75173">
        <ele>189</ele>
        <time>2018-06-07T10:20:38Z</time>
      </trkpt>
      <trkpt lat="45.95383" lon="4.75168">
        <ele>189</ele>
        <time>2018-06-07T10:20:39Z</time>
      </trkpt>
      <trkpt lat="45.95379" lon="4.75162">
        <ele>191</ele>
        <time>2018-06-07T10:20:40Z</time>
      </trkpt>
      <trkpt lat="45.95376" lon="4.75157">
        <ele>191</ele>
        <time>2018-06-07T10:20:41Z</time>
      </trkpt>
      <trkpt lat="45.95373" lon="4.75149">
        <ele>191</ele>
        <time>2018-06-07T10:20:42Z</time>
      </trkpt>
      <trkpt lat="45.95371" lon="4.75144">
        <ele>191</ele>
        <time>2018-06-07T10:20:43Z</time>
      </trkpt>
      <trkpt lat="45.95366" lon="4.75134">
        <ele>191</ele>
        <time>2018-06-07T10:20:45Z</time>
      </trkpt>
      <trkpt lat="45.95363" lon="4.75128">
        <ele>191</ele>
        <time>2018-06-07T10:20:46Z</time>
      </trkpt>
      <trkpt lat="45.95356" lon="4.75121">
        <ele>191</ele>
        <time>2018-06-07T10:20:48Z</time>
      </trkpt>
      <trkpt lat="45.95353" lon="4.75115">
        <ele>192</ele>
        <time>2018-06-07T10:20:49Z</time>
      </trkpt>
      <trkpt lat="45.95349" lon="4.75105">
        <ele>192</ele>
        <time>2018-06-07T10:20:51Z</time>
      </trkpt>
      <trkpt lat="45.95346" lon="4.751">
        <ele>192</ele>
        <time>2018-06-07T10:20:52Z</time>
      </trkpt>
      <trkpt lat="45.95341" lon="4.7509">
        <ele>192</ele>
        <time>2018-06-07T10:20:54Z</time>
      </trkpt>
      <trkpt lat="45.95337" lon="4.75086">
        <ele>193</ele>
        <time>2018-06-07T10:20:55Z</time>
      </trkpt>
      <trkpt lat="45.95332" lon="4.75077">
        <ele>193</ele>
        <time>2018-06-07T10:20:57Z</time>
      </trkpt>
      <trkpt lat="45.95328" lon="4.75073">
        <ele>192</ele>
        <time>2018-06-07T10:20:58Z</time>
      </trkpt>
      <trkpt lat="45.95324" lon="4.75066">
        <ele>192</ele>
        <time>2018-06-07T10:20:59Z</time>
      </trkpt>
      <trkpt lat="45.95321" lon="4.75061">
        <ele>192</ele>
        <time>2018-06-07T10:21:00Z</time>
      </trkpt>
      <trkpt lat="45.95318" lon="4.75056">
        <ele>192</ele>
        <time>2018-06-07T10:21:01Z</time>
      </trkpt>
      <trkpt lat="45.95314" lon="4.7505">
        <ele>192</ele>
        <time>2018-06-07T10:21:02Z</time>
      </trkpt>
      <trkpt lat="45.95309" lon="4.75045">
        <ele>192</ele>
        <time>2018-06-07T10:21:03Z</time>
      </trkpt>
      <trkpt lat="45.95306" lon="4.75039">
        <ele>192</ele>
        <time>2018-06-07T10:21:04Z</time>
      </trkpt>
      <trkpt lat="45.95299" lon="4.75031">
        <ele>191</ele>
        <time>2018-06-07T10:21:06Z</time>
      </trkpt>
      <trkpt lat="45.95296" lon="4.75026">
        <ele>191</ele>
        <time>2018-06-07T10:21:07Z</time>
      </trkpt>
      <trkpt lat="45.95292" lon="4.7502">
        <ele>191</ele>
        <time>2018-06-07T10:21:08Z</time>
      </trkpt>
      <trkpt lat="45.95289" lon="4.75014">
        <ele>191</ele>
        <time>2018-06-07T10:21:09Z</time>
      </trkpt>
      <trkpt lat="45.95285" lon="4.75009">
        <ele>191</ele>
        <time>2018-06-07T10:21:10Z</time>
      </trkpt>
      <trkpt lat="45.95281" lon="4.75002">
        <ele>191</ele>
        <time>2018-06-07T10:21:11Z</time>
      </trkpt>
      <trkpt lat="45.95275" lon="4.74992">
        <ele>192</ele>
        <time>2018-06-07T10:21:13Z</time>
      </trkpt>
      <trkpt lat="45.95273" lon="4.74987">
        <ele>192</ele>
        <time>2018-06-07T10:21:14Z</time>
      </trkpt>
      <trkpt lat="45.95266" lon="4.74978">
        <ele>192</ele>
        <time>2018-06-07T10:21:16Z</time>
      </trkpt>
      <trkpt lat="45.95263" lon="4.74972">
        <ele>192</ele>
        <time>2018-06-07T10:21:17Z</time>
      </trkpt>
      <trkpt lat="45.95259" lon="4.74967">
        <ele>192</ele>
        <time>2018-06-07T10:21:18Z</time>
      </trkpt>
      <trkpt lat="45.95257" lon="4.74961">
        <ele>192</ele>
        <time>2018-06-07T10:21:19Z</time>
      </trkpt>
      <trkpt lat="45.95253" lon="4.74956">
        <ele>192</ele>
        <time>2018-06-07T10:21:20Z</time>
      </trkpt>
      <trkpt lat="45.9525" lon="4.7495">
        <ele>192</ele>
        <time>2018-06-07T10:21:21Z</time>
      </trkpt>
      <trkpt lat="45.95247" lon="4.74947">
        <ele>192</ele>
        <time>2018-06-07T10:21:22Z</time>
      </trkpt>
      <trkpt lat="45.95243" lon="4.74941">
        <ele>192</ele>
        <time>2018-06-07T10:21:23Z</time>
      </trkpt>
      <trkpt lat="45.9524" lon="4.74935">
        <ele>192</ele>
        <time>2018-06-07T10:21:24Z</time>
      </trkpt>
      <trkpt lat="45.95235" lon="4.7493">
        <ele>192</ele>
        <time>2018-06-07T10:21:25Z</time>
      </trkpt>
      <trkpt lat="45.95232" lon="4.74924">
        <ele>192</ele>
        <time>2018-06-07T10:21:26Z</time>
      </trkpt>
      <trkpt lat="45.95228" lon="4.74922">
        <ele>192</ele>
        <time>2018-06-07T10:21:27Z</time>
      </trkpt>
      <trkpt lat="45.95225" lon="4.74917">
        <ele>192</ele>
        <time>2018-06-07T10:21:28Z</time>
      </trkpt>
      <trkpt lat="45.95221" lon="4.74912">
        <ele>193</ele>
        <time>2018-06-07T10:21:29Z</time>
      </trkpt>
      <trkpt lat="45.95217" lon="4.74906">
        <ele>193</ele>
        <time>2018-06-07T10:21:30Z</time>
      </trkpt>
      <trkpt lat="45.95213" lon="4.749">
        <ele>193</ele>
        <time>2018-06-07T10:21:31Z</time>
      </trkpt>
      <trkpt lat="45.9521" lon="4.74896">
        <ele>193</ele>
        <time>2018-06-07T10:21:32Z</time>
      </trkpt>
      <trkpt lat="45.95207" lon="4.7489">
        <ele>194</ele>
        <time>2018-06-07T10:21:33Z</time>
      </trkpt>
      <trkpt lat="45.95202" lon="4.74882">
        <ele>194</ele>
        <time>2018-06-07T10:21:34Z</time>
      </trkpt>
      <trkpt lat="45.95198" lon="4.74876">
        <ele>194</ele>
        <time>2018-06-07T10:21:35Z</time>
      </trkpt>
      <trkpt lat="45.95193" lon="4.7487">
        <ele>194</ele>
        <time>2018-06-07T10:21:36Z</time>
      </trkpt>
      <trkpt lat="45.9519" lon="4.74863">
        <ele>194</ele>
        <time>2018-06-07T10:21:37Z</time>
      </trkpt>
      <trkpt lat="45.95186" lon="4.74857">
        <ele>194</ele>
        <time>2018-06-07T10:21:38Z</time>
      </trkpt>
      <trkpt lat="45.95182" lon="4.74851">
        <ele>194</ele>
        <time>2018-06-07T10:21:39Z</time>
      </trkpt>
      <trkpt lat="45.95178" lon="4.74843">
        <ele>194</ele>
        <time>2018-06-07T10:21:40Z</time>
      </trkpt>
      <trkpt lat="45.95173" lon="4.74838">
        <ele>194</ele>
        <time>2018-06-07T10:21:41Z</time>
      </trkpt>
      <trkpt lat="45.9517" lon="4.74833">
        <ele>194</ele>
        <time>2018-06-07T10:21:42Z</time>
      </trkpt>
      <trkpt lat="45.95166" lon="4.74827">
        <ele>194</ele>
        <time>2018-06-07T10:21:43Z</time>
      </trkpt>
      <trkpt lat="45.95163" lon="4.7482">
        <ele>194</ele>
        <time>2018-06-07T10:21:44Z</time>
      </trkpt>
      <trkpt lat="45.95158" lon="4.74814">
        <ele>194</ele>
        <time>2018-06-07T10:21:45Z</time>
      </trkpt>
      <trkpt lat="45.95155" lon="4.74808">
        <ele>194</ele>
        <time>2018-06-07T10:21:46Z</time>
      </trkpt>
      <trkpt lat="45.95151" lon="4.74802">
        <ele>194</ele>
        <time>2018-06-07T10:21:47Z</time>
      </trkpt>
      <trkpt lat="45.95148" lon="4.74795">
        <ele>194</ele>
        <time>2018-06-07T10:21:48Z</time>
      </trkpt>
      <trkpt lat="45.95143" lon="4.74788">
        <ele>194</ele>
        <time>2018-06-07T10:21:49Z</time>
      </trkpt>
      <trkpt lat="45.95139" lon="4.74782">
        <ele>194</ele>
        <time>2018-06-07T10:21:50Z</time>
      </trkpt>
      <trkpt lat="45.95135" lon="4.74776">
        <ele>194</ele>
        <time>2018-06-07T10:21:51Z</time>
      </trkpt>
      <trkpt lat="45.95131" lon="4.74769">
        <ele>194</ele>
        <time>2018-06-07T10:21:52Z</time>
      </trkpt>
      <trkpt lat="45.95128" lon="4.74764">
        <ele>194</ele>
        <time>2018-06-07T10:21:53Z</time>
      </trkpt>
      <trkpt lat="45.95124" lon="4.74758">
        <ele>194</ele>
        <time>2018-06-07T10:21:54Z</time>
      </trkpt>
      <trkpt lat="45.9512" lon="4.74752">
        <ele>194</ele>
        <time>2018-06-07T10:21:55Z</time>
      </trkpt>
      <trkpt lat="45.95116" lon="4.74746">
        <ele>194</ele>
        <time>2018-06-07T10:21:56Z</time>
      </trkpt>
      <trkpt lat="45.95113" lon="4.74741">
        <ele>194</ele>
        <time>2018-06-07T10:21:57Z</time>
      </trkpt>
      <trkpt lat="45.95109" lon="4.74735">
        <ele>194</ele>
        <time>2018-06-07T10:21:58Z</time>
      </trkpt>
      <trkpt lat="45.95106" lon="4.74728">
        <ele>194</ele>
        <time>2018-06-07T10:21:59Z</time>
      </trkpt>
      <trkpt lat="45.95102" lon="4.74722">
        <ele>194</ele>
        <time>2018-06-07T10:22:00Z</time>
      </trkpt>
      <trkpt lat="45.95098" lon="4.74715">
        <ele>194</ele>
        <time>2018-06-07T10:22:01Z</time>
      </trkpt>
      <trkpt lat="45.95095" lon="4.7471">
        <ele>194</ele>
        <time>2018-06-07T10:22:02Z</time>
      </trkpt>
      <trkpt lat="45.95092" lon="4.74705">
        <ele>194</ele>
        <time>2018-06-07T10:22:03Z</time>
      </trkpt>
      <trkpt lat="45.95088" lon="4.74699">
        <ele>194</ele>
        <time>2018-06-07T10:22:04Z</time>
      </trkpt>
      <trkpt lat="45.95085" lon="4.74693">
        <ele>194</ele>
        <time>2018-06-07T10:22:05Z</time>
      </trkpt>
      <trkpt lat="45.9508" lon="4.74687">
        <ele>194</ele>
        <time>2018-06-07T10:22:06Z</time>
      </trkpt>
      <trkpt lat="45.95077" lon="4.74681">
        <ele>194</ele>
        <time>2018-06-07T10:22:07Z</time>
      </trkpt>
      <trkpt lat="45.95073" lon="4.74675">
        <ele>194</ele>
        <time>2018-06-07T10:22:08Z</time>
      </trkpt>
      <trkpt lat="45.9507" lon="4.74668">
        <ele>194</ele>
        <time>2018-06-07T10:22:09Z</time>
      </trkpt>
      <trkpt lat="45.95067" lon="4.74661">
        <ele>195</ele>
        <time>2018-06-07T10:22:10Z</time>
      </trkpt>
      <trkpt lat="45.95064" lon="4.74655">
        <ele>195</ele>
        <time>2018-06-07T10:22:11Z</time>
      </trkpt>
      <trkpt lat="45.95061" lon="4.74651">
        <ele>194</ele>
        <time>2018-06-07T10:22:12Z</time>
      </trkpt>
      <trkpt lat="45.95058" lon="4.74645">
        <ele>194</ele>
        <time>2018-06-07T10:22:13Z</time>
      </trkpt>
      <trkpt lat="45.95055" lon="4.74639">
        <ele>194</ele>
        <time>2018-06-07T10:22:14Z</time>
      </trkpt>
      <trkpt lat="45.95051" lon="4.74633">
        <ele>194</ele>
        <time>2018-06-07T10:22:15Z</time>
      </trkpt>
      <trkpt lat="45.95047" lon="4.74627">
        <ele>194</ele>
        <time>2018-06-07T10:22:16Z</time>
      </trkpt>
      <trkpt lat="45.95043" lon="4.74621">
        <ele>194</ele>
        <time>2018-06-07T10:22:17Z</time>
      </trkpt>
      <trkpt lat="45.9504" lon="4.74615">
        <ele>194</ele>
        <time>2018-06-07T10:22:18Z</time>
      </trkpt>
      <trkpt lat="45.95037" lon="4.74609">
        <ele>194</ele>
        <time>2018-06-07T10:22:19Z</time>
      </trkpt>
      <trkpt lat="45.95033" lon="4.746">
        <ele>194</ele>
        <time>2018-06-07T10:22:20Z</time>
      </trkpt>
      <trkpt lat="45.9503" lon="4.74595">
        <ele>194</ele>
        <time>2018-06-07T10:22:21Z</time>
      </trkpt>
      <trkpt lat="45.95026" lon="4.74588">
        <ele>194</ele>
        <time>2018-06-07T10:22:22Z</time>
      </trkpt>
      <trkpt lat="45.95023" lon="4.74581">
        <ele>194</ele>
        <time>2018-06-07T10:22:23Z</time>
      </trkpt>
      <trkpt lat="45.95018" lon="4.74574">
        <ele>194</ele>
        <time>2018-06-07T10:22:24Z</time>
      </trkpt>
      <trkpt lat="45.95014" lon="4.74568">
        <ele>194</ele>
        <time>2018-06-07T10:22:25Z</time>
      </trkpt>
      <trkpt lat="45.9501" lon="4.74562">
        <ele>194</ele>
        <time>2018-06-07T10:22:26Z</time>
      </trkpt>
      <trkpt lat="45.95008" lon="4.74555">
        <ele>194</ele>
        <time>2018-06-07T10:22:27Z</time>
      </trkpt>
      <trkpt lat="45.95004" lon="4.74547">
        <ele>194</ele>
        <time>2018-06-07T10:22:28Z</time>
      </trkpt>
      <trkpt lat="45.95" lon="4.74539">
        <ele>194</ele>
        <time>2018-06-07T10:22:29Z</time>
      </trkpt>
      <trkpt lat="45.94996" lon="4.74532">
        <ele>193</ele>
        <time>2018-06-07T10:22:30Z</time>
      </trkpt>
      <trkpt lat="45.94993" lon="4.74524">
        <ele>193</ele>
        <time>2018-06-07T10:22:31Z</time>
      </trkpt>
      <trkpt lat="45.9499" lon="4.74516">
        <ele>193</ele>
        <time>2018-06-07T10:22:32Z</time>
      </trkpt>
      <trkpt lat="45.94986" lon="4.7451">
        <ele>193</ele>
        <time>2018-06-07T10:22:33Z</time>
      </trkpt>
      <trkpt lat="45.94982" lon="4.74503">
        <ele>193</ele>
        <time>2018-06-07T10:22:34Z</time>
      </trkpt>
      <trkpt lat="45.94978" lon="4.74496">
        <ele>193</ele>
        <time>2018-06-07T10:22:35Z</time>
      </trkpt>
      <trkpt lat="45.94975" lon="4.74489">
        <ele>193</ele>
        <time>2018-06-07T10:22:36Z</time>
      </trkpt>
      <trkpt lat="45.94973" lon="4.74479">
        <ele>193</ele>
        <time>2018-06-07T10:22:37Z</time>
      </trkpt>
      <trkpt lat="45.94968" lon="4.74471">
        <ele>193</ele>
        <time>2018-06-07T10:22:38Z</time>
      </trkpt>
      <trkpt lat="45.94963" lon="4.74466">
        <ele>193</ele>
        <time>2018-06-07T10:22:39Z</time>
      </trkpt>
      <trkpt lat="45.94959" lon="4.74458">
        <ele>193</ele>
        <time>2018-06-07T10:22:40Z</time>
      </trkpt>
      <trkpt lat="45.94955" lon="4.74451">
        <ele>192</ele>
        <time>2018-06-07T10:22:41Z</time>
      </trkpt>
      <trkpt lat="45.94951" lon="4.74444">
        <ele>192</ele>
        <time>2018-06-07T10:22:42Z</time>
      </trkpt>
      <trkpt lat="45.94948" lon="4.74437">
        <ele>192</ele>
        <time>2018-06-07T10:22:43Z</time>
      </trkpt>
      <trkpt lat="45.94944" lon="4.74429">
        <ele>192</ele>
        <time>2018-06-07T10:22:44Z</time>
      </trkpt>
      <trkpt lat="45.9494" lon="4.74421">
        <ele>192</ele>
        <time>2018-06-07T10:22:45Z</time>
      </trkpt>
      <trkpt lat="45.94936" lon="4.74414">
        <ele>192</ele>
        <time>2018-06-07T10:22:46Z</time>
      </trkpt>
      <trkpt lat="45.94931" lon="4.74406">
        <ele>192</ele>
        <time>2018-06-07T10:22:47Z</time>
      </trkpt>
      <trkpt lat="45.94927" lon="4.74399">
        <ele>192</ele>
        <time>2018-06-07T10:22:48Z</time>
      </trkpt>
      <trkpt lat="45.94924" lon="4.7439">
        <ele>192</ele>
        <time>2018-06-07T10:22:49Z</time>
      </trkpt>
      <trkpt lat="45.9492" lon="4.74383">
        <ele>192</ele>
        <time>2018-06-07T10:22:50Z</time>
      </trkpt>
      <trkpt lat="45.94917" lon="4.74375">
        <ele>191</ele>
        <time>2018-06-07T10:22:51Z</time>
      </trkpt>
      <trkpt lat="45.94913" lon="4.74367">
        <ele>191</ele>
        <time>2018-06-07T10:22:52Z</time>
      </trkpt>
      <trkpt lat="45.94909" lon="4.7436">
        <ele>191</ele>
        <time>2018-06-07T10:22:53Z</time>
      </trkpt>
      <trkpt lat="45.94905" lon="4.74354">
        <ele>191</ele>
        <time>2018-06-07T10:22:54Z</time>
      </trkpt>
      <trkpt lat="45.94902" lon="4.74348">
        <ele>191</ele>
        <time>2018-06-07T10:22:55Z</time>
      </trkpt>
      <trkpt lat="45.94898" lon="4.74343">
        <ele>191</ele>
        <time>2018-06-07T10:22:56Z</time>
      </trkpt>
      <trkpt lat="45.94895" lon="4.74336">
        <ele>191</ele>
        <time>2018-06-07T10:22:57Z</time>
      </trkpt>
      <trkpt lat="45.94893" lon="4.74329">
        <ele>191</ele>
        <time>2018-06-07T10:22:58Z</time>
      </trkpt>
      <trkpt lat="45.94888" lon="4.74319">
        <ele>191</ele>
        <time>2018-06-07T10:22:59Z</time>
      </trkpt>
      <trkpt lat="45.94885" lon="4.74312">
        <ele>191</ele>
        <time>2018-06-07T10:23:00Z</time>
      </trkpt>
      <trkpt lat="45.94882" lon="4.74305">
        <ele>191</ele>
        <time>2018-06-07T10:23:01Z</time>
      </trkpt>
      <trkpt lat="45.94878" lon="4.74298">
        <ele>191</ele>
        <time>2018-06-07T10:23:02Z</time>
      </trkpt>
      <trkpt lat="45.94874" lon="4.74291">
        <ele>191</ele>
        <time>2018-06-07T10:23:03Z</time>
      </trkpt>
      <trkpt lat="45.9487" lon="4.74283">
        <ele>191</ele>
        <time>2018-06-07T10:23:04Z</time>
      </trkpt>
      <trkpt lat="45.94867" lon="4.74275">
        <ele>191</ele>
        <time>2018-06-07T10:23:05Z</time>
      </trkpt>
      <trkpt lat="45.94863" lon="4.74268">
        <ele>190</ele>
        <time>2018-06-07T10:23:06Z</time>
      </trkpt>
      <trkpt lat="45.94859" lon="4.7426">
        <ele>190</ele>
        <time>2018-06-07T10:23:07Z</time>
      </trkpt>
      <trkpt lat="45.94856" lon="4.74253">
        <ele>190</ele>
        <time>2018-06-07T10:23:08Z</time>
      </trkpt>
      <trkpt lat="45.94852" lon="4.74246">
        <ele>190</ele>
        <time>2018-06-07T10:23:09Z</time>
      </trkpt>
      <trkpt lat="45.94849" lon="4.74239">
        <ele>190</ele>
        <time>2018-06-07T10:23:10Z</time>
      </trkpt>
      <trkpt lat="45.94846" lon="4.74231">
        <ele>190</ele>
        <time>2018-06-07T10:23:11Z</time>
      </trkpt>
      <trkpt lat="45.94843" lon="4.74224">
        <ele>190</ele>
        <time>2018-06-07T10:23:12Z</time>
      </trkpt>
      <trkpt lat="45.94839" lon="4.74218">
        <ele>190</ele>
        <time>2018-06-07T10:23:13Z</time>
      </trkpt>
      <trkpt lat="45.94835" lon="4.74211">
        <ele>190</ele>
        <time>2018-06-07T10:23:14Z</time>
      </trkpt>
      <trkpt lat="45.94832" lon="4.74205">
        <ele>189</ele>
        <time>2018-06-07T10:23:15Z</time>
      </trkpt>
      <trkpt lat="45.94828" lon="4.74199">
        <ele>189</ele>
        <time>2018-06-07T10:23:16Z</time>
      </trkpt>
      <trkpt lat="45.94825" lon="4.74193">
        <ele>189</ele>
        <time>2018-06-07T10:23:17Z</time>
      </trkpt>
      <trkpt lat="45.9482" lon="4.74186">
        <ele>189</ele>
        <time>2018-06-07T10:23:18Z</time>
      </trkpt>
      <trkpt lat="45.94817" lon="4.74181">
        <ele>189</ele>
        <time>2018-06-07T10:23:19Z</time>
      </trkpt>
      <trkpt lat="45.94813" lon="4.74174">
        <ele>189</ele>
        <time>2018-06-07T10:23:20Z</time>
      </trkpt>
      <trkpt lat="45.94809" lon="4.74168">
        <ele>189</ele>
        <time>2018-06-07T10:23:21Z</time>
      </trkpt>
      <trkpt lat="45.94804" lon="4.7416">
        <ele>189</ele>
        <time>2018-06-07T10:23:22Z</time>
      </trkpt>
      <trkpt lat="45.94798" lon="4.74152">
        <ele>189</ele>
        <time>2018-06-07T10:23:23Z</time>
      </trkpt>
      <trkpt lat="45.94794" lon="4.74143">
        <ele>189</ele>
        <time>2018-06-07T10:23:24Z</time>
      </trkpt>
      <trkpt lat="45.9479" lon="4.74137">
        <ele>189</ele>
        <time>2018-06-07T10:23:25Z</time>
      </trkpt>
      <trkpt lat="45.94786" lon="4.7413">
        <ele>189</ele>
        <time>2018-06-07T10:23:26Z</time>
      </trkpt>
      <trkpt lat="45.94782" lon="4.74123">
        <ele>189</ele>
        <time>2018-06-07T10:23:27Z</time>
      </trkpt>
      <trkpt lat="45.94777" lon="4.74116">
        <ele>189</ele>
        <time>2018-06-07T10:23:28Z</time>
      </trkpt>
      <trkpt lat="45.94772" lon="4.7411">
        <ele>189</ele>
        <time>2018-06-07T10:23:29Z</time>
      </trkpt>
      <trkpt lat="45.94768" lon="4.74106">
        <ele>189</ele>
        <time>2018-06-07T10:23:30Z</time>
      </trkpt>
      <trkpt lat="45.94764" lon="4.74101">
        <ele>189</ele>
        <time>2018-06-07T10:23:31Z</time>
      </trkpt>
      <trkpt lat="45.94761" lon="4.74095">
        <ele>189</ele>
        <time>2018-06-07T10:23:32Z</time>
      </trkpt>
      <trkpt lat="45.94756" lon="4.74089">
        <ele>189</ele>
        <time>2018-06-07T10:23:33Z</time>
      </trkpt>
      <trkpt lat="45.94753" lon="4.74085">
        <ele>189</ele>
        <time>2018-06-07T10:23:34Z</time>
      </trkpt>
      <trkpt lat="45.94748" lon="4.74079">
        <ele>189</ele>
        <time>2018-06-07T10:23:35Z</time>
      </trkpt>
      <trkpt lat="45.94744" lon="4.74073">
        <ele>188</ele>
        <time>2018-06-07T10:23:36Z</time>
      </trkpt>
      <trkpt lat="45.9474" lon="4.74069">
        <ele>188</ele>
        <time>2018-06-07T10:23:37Z</time>
      </trkpt>
      <trkpt lat="45.94736" lon="4.74064">
        <ele>188</ele>
        <time>2018-06-07T10:23:38Z</time>
      </trkpt>
      <trkpt lat="45.94732" lon="4.74059">
        <ele>188</ele>
        <time>2018-06-07T10:23:39Z</time>
      </trkpt>
      <trkpt lat="45.94727" lon="4.74053">
        <ele>188</ele>
        <time>2018-06-07T10:23:40Z</time>
      </trkpt>
      <trkpt lat="45.94723" lon="4.74047">
        <ele>187</ele>
        <time>2018-06-07T10:23:41Z</time>
      </trkpt>
      <trkpt lat="45.94719" lon="4.74041">
        <ele>187</ele>
        <time>2018-06-07T10:23:42Z</time>
      </trkpt>
      <trkpt lat="45.94714" lon="4.74035">
        <ele>187</ele>
        <time>2018-06-07T10:23:43Z</time>
      </trkpt>
      <trkpt lat="45.9471" lon="4.74029">
        <ele>187</ele>
        <time>2018-06-07T10:23:44Z</time>
      </trkpt>
      <trkpt lat="45.94708" lon="4.74024">
        <ele>187</ele>
        <time>2018-06-07T10:23:45Z</time>
      </trkpt>
      <trkpt lat="45.94704" lon="4.74018">
        <ele>187</ele>
        <time>2018-06-07T10:23:46Z</time>
      </trkpt>
      <trkpt lat="45.94699" lon="4.74012">
        <ele>187</ele>
        <time>2018-06-07T10:23:47Z</time>
      </trkpt>
      <trkpt lat="45.94694" lon="4.74006">
        <ele>187</ele>
        <time>2018-06-07T10:23:48Z</time>
      </trkpt>
      <trkpt lat="45.94689" lon="4.74001">
        <ele>187</ele>
        <time>2018-06-07T10:23:49Z</time>
      </trkpt>
      <trkpt lat="45.94684" lon="4.73994">
        <ele>187</ele>
        <time>2018-06-07T10:23:50Z</time>
      </trkpt>
      <trkpt lat="45.9468" lon="4.73989">
        <ele>187</ele>
        <time>2018-06-07T10:23:51Z</time>
      </trkpt>
      <trkpt lat="45.94675" lon="4.73983">
        <ele>187</ele>
        <time>2018-06-07T10:23:52Z</time>
      </trkpt>
      <trkpt lat="45.94671" lon="4.73977">
        <ele>187</ele>
        <time>2018-06-07T10:23:53Z</time>
      </trkpt>
      <trkpt lat="45.94666" lon="4.73971">
        <ele>187</ele>
        <time>2018-06-07T10:23:54Z</time>
      </trkpt>
      <trkpt lat="45.94662" lon="4.73967">
        <ele>187</ele>
        <time>2018-06-07T10:23:55Z</time>
      </trkpt>
      <trkpt lat="45.94657" lon="4.73961">
        <ele>187</ele>
        <time>2018-06-07T10:23:56Z</time>
      </trkpt>
      <trkpt lat="45.94653" lon="4.73952">
        <ele>187</ele>
        <time>2018-06-07T10:23:57Z</time>
      </trkpt>
      <trkpt lat="45.94649" lon="4.73948">
        <ele>187</ele>
        <time>2018-06-07T10:23:58Z</time>
      </trkpt>
      <trkpt lat="45.94644" lon="4.73942">
        <ele>187</ele>
        <time>2018-06-07T10:23:59Z</time>
      </trkpt>
      <trkpt lat="45.9464" lon="4.73936">
        <ele>187</ele>
        <time>2018-06-07T10:24:00Z</time>
      </trkpt>
      <trkpt lat="45.94635" lon="4.7393">
        <ele>187</ele>
        <time>2018-06-07T10:24:01Z</time>
      </trkpt>
      <trkpt lat="45.94631" lon="4.73923">
        <ele>187</ele>
        <time>2018-06-07T10:24:02Z</time>
      </trkpt>
      <trkpt lat="45.94627" lon="4.73917">
        <ele>187</ele>
        <time>2018-06-07T10:24:03Z</time>
      </trkpt>
      <trkpt lat="45.94621" lon="4.73911">
        <ele>187</ele>
        <time>2018-06-07T10:24:04Z</time>
      </trkpt>
      <trkpt lat="45.94616" lon="4.73905">
        <ele>187</ele>
        <time>2018-06-07T10:24:05Z</time>
      </trkpt>
      <trkpt lat="45.94612" lon="4.73899">
        <ele>187</ele>
        <time>2018-06-07T10:24:06Z</time>
      </trkpt>
      <trkpt lat="45.94607" lon="4.73893">
        <ele>187</ele>
        <time>2018-06-07T10:24:07Z</time>
      </trkpt>
      <trkpt lat="45.94603" lon="4.73886">
        <ele>187</ele>
        <time>2018-06-07T10:24:08Z</time>
      </trkpt>
      <trkpt lat="45.94598" lon="4.73881">
        <ele>187</ele>
        <time>2018-06-07T10:24:09Z</time>
      </trkpt>
      <trkpt lat="45.94592" lon="4.73875">
        <ele>187</ele>
        <time>2018-06-07T10:24:10Z</time>
      </trkpt>
      <trkpt lat="45.94587" lon="4.73869">
        <ele>187</ele>
        <time>2018-06-07T10:24:11Z</time>
      </trkpt>
      <trkpt lat="45.94581" lon="4.73863">
        <ele>186</ele>
        <time>2018-06-07T10:24:12Z</time>
      </trkpt>
      <trkpt lat="45.94576" lon="4.73857">
        <ele>186</ele>
        <time>2018-06-07T10:24:13Z</time>
      </trkpt>
      <trkpt lat="45.9457" lon="4.7385">
        <ele>186</ele>
        <time>2018-06-07T10:24:14Z</time>
      </trkpt>
      <trkpt lat="45.94564" lon="4.73844">
        <ele>186</ele>
        <time>2018-06-07T10:24:15Z</time>
      </trkpt>
      <trkpt lat="45.94559" lon="4.7384">
        <ele>186</ele>
        <time>2018-06-07T10:24:16Z</time>
      </trkpt>
      <trkpt lat="45.94553" lon="4.73835">
        <ele>186</ele>
        <time>2018-06-07T10:24:17Z</time>
      </trkpt>
      <trkpt lat="45.94547" lon="4.73829">
        <ele>186</ele>
        <time>2018-06-07T10:24:18Z</time>
      </trkpt>
      <trkpt lat="45.94542" lon="4.73824">
        <ele>186</ele>
        <time>2018-06-07T10:24:19Z</time>
      </trkpt>
      <trkpt lat="45.94537" lon="4.73819">
        <ele>186</ele>
        <time>2018-06-07T10:24:20Z</time>
      </trkpt>
      <trkpt lat="45.94532" lon="4.73813">
        <ele>186</ele>
        <time>2018-06-07T10:24:21Z</time>
      </trkpt>
      <trkpt lat="45.94528" lon="4.73808">
        <ele>186</ele>
        <time>2018-06-07T10:24:22Z</time>
      </trkpt>
      <trkpt lat="45.94523" lon="4.73803">
        <ele>186</ele>
        <time>2018-06-07T10:24:23Z</time>
      </trkpt>
      <trkpt lat="45.94518" lon="4.73797">
        <ele>186</ele>
        <time>2018-06-07T10:24:24Z</time>
      </trkpt>
      <trkpt lat="45.94514" lon="4.73793">
        <ele>186</ele>
        <time>2018-06-07T10:24:25Z</time>
      </trkpt>
      <trkpt lat="45.9451" lon="4.73788">
        <ele>186</ele>
        <time>2018-06-07T10:24:26Z</time>
      </trkpt>
      <trkpt lat="45.94505" lon="4.73783">
        <ele>186</ele>
        <time>2018-06-07T10:24:27Z</time>
      </trkpt>
      <trkpt lat="45.94501" lon="4.73779">
        <ele>186</ele>
        <time>2018-06-07T10:24:28Z</time>
      </trkpt>
      <trkpt lat="45.94497" lon="4.73774">
        <ele>186</ele>
        <time>2018-06-07T10:24:29Z</time>
      </trkpt>
      <trkpt lat="45.94493" lon="4.73769">
        <ele>186</ele>
        <time>2018-06-07T10:24:30Z</time>
      </trkpt>
      <trkpt lat="45.94489" lon="4.73763">
        <ele>186</ele>
        <time>2018-06-07T10:24:31Z</time>
      </trkpt>
      <trkpt lat="45.94486" lon="4.73757">
        <ele>186</ele>
        <time>2018-06-07T10:24:32Z</time>
      </trkpt>
      <trkpt lat="45.94486" lon="4.73749">
        <ele>186</ele>
        <time>2018-06-07T10:24:33Z</time>
      </trkpt>
      <trkpt lat="45.94486" lon="4.73742">
        <ele>186</ele>
        <time>2018-06-07T10:24:34Z</time>
      </trkpt>
      <trkpt lat="45.94486" lon="4.73733">
        <ele>186</ele>
        <time>2018-06-07T10:24:35Z</time>
      </trkpt>
      <trkpt lat="45.94488" lon="4.73725">
        <ele>186</ele>
        <time>2018-06-07T10:24:36Z</time>
      </trkpt>
      <trkpt lat="45.9449" lon="4.73717">
        <ele>186</ele>
        <time>2018-06-07T10:24:37Z</time>
      </trkpt>
      <trkpt lat="45.94491" lon="4.7371">
        <ele>186</ele>
        <time>2018-06-07T10:24:38Z</time>
      </trkpt>
      <trkpt lat="45.94492" lon="4.73702">
        <ele>186</ele>
        <time>2018-06-07T10:24:39Z</time>
      </trkpt>
      <trkpt lat="45.94493" lon="4.73693">
        <ele>186</ele>
        <time>2018-06-07T10:24:40Z</time>
      </trkpt>
      <trkpt lat="45.94495" lon="4.73684">
        <ele>186</ele>
        <time>2018-06-07T10:24:41Z</time>
      </trkpt>
      <trkpt lat="45.94496" lon="4.73672">
        <ele>185</ele>
        <time>2018-06-07T10:24:42Z</time>
      </trkpt>
      <trkpt lat="45.94499" lon="4.73663">
        <ele>185</ele>
        <time>2018-06-07T10:24:43Z</time>
      </trkpt>
      <trkpt lat="45.94498" lon="4.73652">
        <ele>185</ele>
        <time>2018-06-07T10:24:44Z</time>
      </trkpt>
      <trkpt lat="45.94499" lon="4.73644">
        <ele>186</ele>
        <time>2018-06-07T10:24:45Z</time>
      </trkpt>
      <trkpt lat="45.945" lon="4.73634">
        <ele>184</ele>
        <time>2018-06-07T10:24:46Z</time>
      </trkpt>
      <trkpt lat="45.94501" lon="4.73625">
        <ele>184</ele>
        <time>2018-06-07T10:24:47Z</time>
      </trkpt>
      <trkpt lat="45.94501" lon="4.73617">
        <ele>184</ele>
        <time>2018-06-07T10:24:48Z</time>
      </trkpt>
      <trkpt lat="45.94502" lon="4.73607">
        <ele>184</ele>
        <time>2018-06-07T10:24:49Z</time>
      </trkpt>
      <trkpt lat="45.94502" lon="4.73599">
        <ele>184</ele>
        <time>2018-06-07T10:24:50Z</time>
      </trkpt>
      <trkpt lat="45.94503" lon="4.73591">
        <ele>185</ele>
        <time>2018-06-07T10:24:51Z</time>
      </trkpt>
      <trkpt lat="45.94504" lon="4.73582">
        <ele>185</ele>
        <time>2018-06-07T10:24:52Z</time>
      </trkpt>
      <trkpt lat="45.94504" lon="4.73572">
        <ele>184</ele>
        <time>2018-06-07T10:24:53Z</time>
      </trkpt>
      <trkpt lat="45.94504" lon="4.73562">
        <ele>184</ele>
        <time>2018-06-07T10:24:54Z</time>
      </trkpt>
      <trkpt lat="45.94505" lon="4.73553">
        <ele>183</ele>
        <time>2018-06-07T10:24:55Z</time>
      </trkpt>
      <trkpt lat="45.94505" lon="4.73544">
        <ele>183</ele>
        <time>2018-06-07T10:24:56Z</time>
      </trkpt>
      <trkpt lat="45.94506" lon="4.73534">
        <ele>183</ele>
        <time>2018-06-07T10:24:57Z</time>
      </trkpt>
      <trkpt lat="45.94507" lon="4.73523">
        <ele>183</ele>
        <time>2018-06-07T10:24:58Z</time>
      </trkpt>
      <trkpt lat="45.94507" lon="4.73514">
        <ele>183</ele>
        <time>2018-06-07T10:24:59Z</time>
      </trkpt>
      <trkpt lat="45.94508" lon="4.73504">
        <ele>183</ele>
        <time>2018-06-07T10:25:00Z</time>
      </trkpt>
      <trkpt lat="45.94506" lon="4.73494">
        <ele>182</ele>
        <time>2018-06-07T10:25:01Z</time>
      </trkpt>
      <trkpt lat="45.94506" lon="4.73482">
        <ele>182</ele>
        <time>2018-06-07T10:25:02Z</time>
      </trkpt>
      <trkpt lat="45.94504" lon="4.73472">
        <ele>182</ele>
        <time>2018-06-07T10:25:03Z</time>
      </trkpt>
      <trkpt lat="45.94504" lon="4.73462">
        <ele>181</ele>
        <time>2018-06-07T10:25:04Z</time>
      </trkpt>
      <trkpt lat="45.94505" lon="4.73451">
        <ele>181</ele>
        <time>2018-06-07T10:25:05Z</time>
      </trkpt>
      <trkpt lat="45.94505" lon="4.7344">
        <ele>181</ele>
        <time>2018-06-07T10:25:06Z</time>
      </trkpt>
      <trkpt lat="45.94506" lon="4.73429">
        <ele>180</ele>
        <time>2018-06-07T10:25:07Z</time>
      </trkpt>
      <trkpt lat="45.94505" lon="4.73418">
        <ele>180</ele>
        <time>2018-06-07T10:25:08Z</time>
      </trkpt>
      <trkpt lat="45.94505" lon="4.73407">
        <ele>179</ele>
        <time>2018-06-07T10:25:09Z</time>
      </trkpt>
      <trkpt lat="45.94506" lon="4.73397">
        <ele>179</ele>
        <time>2018-06-07T10:25:10Z</time>
      </trkpt>
      <trkpt lat="45.94506" lon="4.73387">
        <ele>179</ele>
        <time>2018-06-07T10:25:11Z</time>
      </trkpt>
      <trkpt lat="45.94505" lon="4.73376">
        <ele>178</ele>
        <time>2018-06-07T10:25:12Z</time>
      </trkpt>
      <trkpt lat="45.94504" lon="4.73365">
        <ele>178</ele>
        <time>2018-06-07T10:25:13Z</time>
      </trkpt>
      <trkpt lat="45.94503" lon="4.73354">
        <ele>178</ele>
        <time>2018-06-07T10:25:14Z</time>
      </trkpt>
      <trkpt lat="45.945" lon="4.73343">
        <ele>177</ele>
        <time>2018-06-07T10:25:15Z</time>
      </trkpt>
      <trkpt lat="45.94499" lon="4.73331">
        <ele>177</ele>
        <time>2018-06-07T10:25:16Z</time>
      </trkpt>
      <trkpt lat="45.94498" lon="4.7332">
        <ele>177</ele>
        <time>2018-06-07T10:25:17Z</time>
      </trkpt>
      <trkpt lat="45.94496" lon="4.73309">
        <ele>177</ele>
        <time>2018-06-07T10:25:18Z</time>
      </trkpt>
      <trkpt lat="45.94494" lon="4.73298">
        <ele>177</ele>
        <time>2018-06-07T10:25:19Z</time>
      </trkpt>
      <trkpt lat="45.94493" lon="4.73286">
        <ele>177</ele>
        <time>2018-06-07T10:25:20Z</time>
      </trkpt>
      <trkpt lat="45.9449" lon="4.73276">
        <ele>177</ele>
        <time>2018-06-07T10:25:21Z</time>
      </trkpt>
      <trkpt lat="45.94488" lon="4.73265">
        <ele>176</ele>
        <time>2018-06-07T10:25:22Z</time>
      </trkpt>
      <trkpt lat="45.94486" lon="4.73254">
        <ele>176</ele>
        <time>2018-06-07T10:25:23Z</time>
      </trkpt>
      <trkpt lat="45.94485" lon="4.73243">
        <ele>175</ele>
        <time>2018-06-07T10:25:24Z</time>
      </trkpt>
      <trkpt lat="45.94484" lon="4.73232">
        <ele>175</ele>
        <time>2018-06-07T10:25:25Z</time>
      </trkpt>
      <trkpt lat="45.94482" lon="4.73221">
        <ele>175</ele>
        <time>2018-06-07T10:25:26Z</time>
      </trkpt>
      <trkpt lat="45.94481" lon="4.73208">
        <ele>175</ele>
        <time>2018-06-07T10:25:27Z</time>
      </trkpt>
      <trkpt lat="45.94479" lon="4.73196">
        <ele>174</ele>
        <time>2018-06-07T10:25:28Z</time>
      </trkpt>
      <trkpt lat="45.94477" lon="4.73183">
        <ele>174</ele>
        <time>2018-06-07T10:25:29Z</time>
      </trkpt>
      <trkpt lat="45.94473" lon="4.73174">
        <ele>174</ele>
        <time>2018-06-07T10:25:30Z</time>
      </trkpt>
      <trkpt lat="45.94473" lon="4.73163">
        <ele>173</ele>
        <time>2018-06-07T10:25:31Z</time>
      </trkpt>
      <trkpt lat="45.94471" lon="4.73151">
        <ele>172</ele>
        <time>2018-06-07T10:25:32Z</time>
      </trkpt>
      <trkpt lat="45.9447" lon="4.73139">
        <ele>172</ele>
        <time>2018-06-07T10:25:33Z</time>
      </trkpt>
      <trkpt lat="45.94468" lon="4.73129">
        <ele>172</ele>
        <time>2018-06-07T10:25:34Z</time>
      </trkpt>
      <trkpt lat="45.94466" lon="4.73118">
        <ele>172</ele>
        <time>2018-06-07T10:25:35Z</time>
      </trkpt>
      <trkpt lat="45.94464" lon="4.73107">
        <ele>172</ele>
        <time>2018-06-07T10:25:36Z</time>
      </trkpt>
      <trkpt lat="45.94463" lon="4.73096">
        <ele>171</ele>
        <time>2018-06-07T10:25:37Z</time>
      </trkpt>
      <trkpt lat="45.94461" lon="4.73084">
        <ele>171</ele>
        <time>2018-06-07T10:25:38Z</time>
      </trkpt>
      <trkpt lat="45.94459" lon="4.73073">
        <ele>170</ele>
        <time>2018-06-07T10:25:39Z</time>
      </trkpt>
      <trkpt lat="45.9446" lon="4.73065">
        <ele>170</ele>
        <time>2018-06-07T10:25:40Z</time>
      </trkpt>
      <trkpt lat="45.94458" lon="4.73055">
        <ele>170</ele>
        <time>2018-06-07T10:25:41Z</time>
      </trkpt>
      <trkpt lat="45.94456" lon="4.73042">
        <ele>169</ele>
        <time>2018-06-07T10:25:42Z</time>
      </trkpt>
      <trkpt lat="45.94454" lon="4.73034">
        <ele>169</ele>
        <time>2018-06-07T10:25:43Z</time>
      </trkpt>
      <trkpt lat="45.94453" lon="4.73025">
        <ele>169</ele>
        <time>2018-06-07T10:25:44Z</time>
      </trkpt>
      <trkpt lat="45.94452" lon="4.73016">
        <ele>169</ele>
        <time>2018-06-07T10:25:45Z</time>
      </trkpt>
      <trkpt lat="45.94451" lon="4.73008">
        <ele>169</ele>
        <time>2018-06-07T10:25:46Z</time>
      </trkpt>
      <trkpt lat="45.9445" lon="4.72999">
        <ele>167</ele>
        <time>2018-06-07T10:25:47Z</time>
      </trkpt>
      <trkpt lat="45.94449" lon="4.72991">
        <ele>167</ele>
        <time>2018-06-07T10:25:48Z</time>
      </trkpt>
      <trkpt lat="45.94447" lon="4.72983">
        <ele>167</ele>
        <time>2018-06-07T10:25:49Z</time>
      </trkpt>
      <trkpt lat="45.94446" lon="4.72975">
        <ele>167</ele>
        <time>2018-06-07T10:25:50Z</time>
      </trkpt>
      <trkpt lat="45.94445" lon="4.72968">
        <ele>167</ele>
        <time>2018-06-07T10:25:51Z</time>
      </trkpt>
      <trkpt lat="45.94444" lon="4.7296">
        <ele>167</ele>
        <time>2018-06-07T10:25:52Z</time>
      </trkpt>
      <trkpt lat="45.94442" lon="4.72952">
        <ele>167</ele>
        <time>2018-06-07T10:25:53Z</time>
      </trkpt>
      <trkpt lat="45.94442" lon="4.72943">
        <ele>167</ele>
        <time>2018-06-07T10:25:54Z</time>
      </trkpt>
      <trkpt lat="45.94441" lon="4.72937">
        <ele>167</ele>
        <time>2018-06-07T10:25:55Z</time>
      </trkpt>
      <trkpt lat="45.9444" lon="4.72929">
        <ele>167</ele>
        <time>2018-06-07T10:25:56Z</time>
      </trkpt>
      <trkpt lat="45.9444" lon="4.72923">
        <ele>167</ele>
        <time>2018-06-07T10:25:57Z</time>
      </trkpt>
      <trkpt lat="45.94439" lon="4.72914">
        <ele>166</ele>
        <time>2018-06-07T10:25:58Z</time>
      </trkpt>
      <trkpt lat="45.94438" lon="4.72906">
        <ele>166</ele>
        <time>2018-06-07T10:25:59Z</time>
      </trkpt>
      <trkpt lat="45.94437" lon="4.72897">
        <ele>166</ele>
        <time>2018-06-07T10:26:00Z</time>
      </trkpt>
      <trkpt lat="45.94436" lon="4.72889">
        <ele>166</ele>
        <time>2018-06-07T10:26:01Z</time>
      </trkpt>
      <trkpt lat="45.94435" lon="4.72882">
        <ele>166</ele>
        <time>2018-06-07T10:26:02Z</time>
      </trkpt>
      <trkpt lat="45.94434" lon="4.72873">
        <ele>166</ele>
        <time>2018-06-07T10:26:03Z</time>
      </trkpt>
      <trkpt lat="45.94433" lon="4.72866">
        <ele>166</ele>
        <time>2018-06-07T10:26:04Z</time>
      </trkpt>
      <trkpt lat="45.94432" lon="4.72857">
        <ele>166</ele>
        <time>2018-06-07T10:26:05Z</time>
      </trkpt>
      <trkpt lat="45.94431" lon="4.72848">
        <ele>166</ele>
        <time>2018-06-07T10:26:06Z</time>
      </trkpt>
      <trkpt lat="45.9443" lon="4.72839">
        <ele>166</ele>
        <time>2018-06-07T10:26:07Z</time>
      </trkpt>
      <trkpt lat="45.94429" lon="4.7283">
        <ele>167</ele>
        <time>2018-06-07T10:26:08Z</time>
      </trkpt>
      <trkpt lat="45.94428" lon="4.72822">
        <ele>167</ele>
        <time>2018-06-07T10:26:09Z</time>
      </trkpt>
      <trkpt lat="45.94427" lon="4.72814">
        <ele>167</ele>
        <time>2018-06-07T10:26:10Z</time>
      </trkpt>
      <trkpt lat="45.94426" lon="4.72803">
        <ele>167</ele>
        <time>2018-06-07T10:26:11Z</time>
      </trkpt>
      <trkpt lat="45.94425" lon="4.72793">
        <ele>168</ele>
        <time>2018-06-07T10:26:12Z</time>
      </trkpt>
      <trkpt lat="45.94425" lon="4.72784">
        <ele>168</ele>
        <time>2018-06-07T10:26:13Z</time>
      </trkpt>
      <trkpt lat="45.94423" lon="4.72773">
        <ele>169</ele>
        <time>2018-06-07T10:26:14Z</time>
      </trkpt>
      <trkpt lat="45.94422" lon="4.72763">
        <ele>169</ele>
        <time>2018-06-07T10:26:15Z</time>
      </trkpt>
      <trkpt lat="45.94421" lon="4.72752">
        <ele>170</ele>
        <time>2018-06-07T10:26:16Z</time>
      </trkpt>
      <trkpt lat="45.94419" lon="4.72743">
        <ele>171</ele>
        <time>2018-06-07T10:26:17Z</time>
      </trkpt>
      <trkpt lat="45.94417" lon="4.72732">
        <ele>171</ele>
        <time>2018-06-07T10:26:18Z</time>
      </trkpt>
      <trkpt lat="45.94417" lon="4.72722">
        <ele>171</ele>
        <time>2018-06-07T10:26:19Z</time>
      </trkpt>
      <trkpt lat="45.94416" lon="4.72711">
        <ele>172</ele>
        <time>2018-06-07T10:26:20Z</time>
      </trkpt>
      <trkpt lat="45.94416" lon="4.72701">
        <ele>172</ele>
        <time>2018-06-07T10:26:21Z</time>
      </trkpt>
      <trkpt lat="45.94414" lon="4.72692">
        <ele>173</ele>
        <time>2018-06-07T10:26:22Z</time>
      </trkpt>
      <trkpt lat="45.94412" lon="4.72683">
        <ele>173</ele>
        <time>2018-06-07T10:26:23Z</time>
      </trkpt>
      <trkpt lat="45.94411" lon="4.72672">
        <ele>173</ele>
        <time>2018-06-07T10:26:24Z</time>
      </trkpt>
      <trkpt lat="45.9441" lon="4.72662">
        <ele>174</ele>
        <time>2018-06-07T10:26:25Z</time>
      </trkpt>
      <trkpt lat="45.94408" lon="4.72651">
        <ele>174</ele>
        <time>2018-06-07T10:26:26Z</time>
      </trkpt>
      <trkpt lat="45.94407" lon="4.72641">
        <ele>174</ele>
        <time>2018-06-07T10:26:27Z</time>
      </trkpt>
      <trkpt lat="45.94407" lon="4.72631">
        <ele>174</ele>
        <time>2018-06-07T10:26:28Z</time>
      </trkpt>
      <trkpt lat="45.94406" lon="4.72621">
        <ele>173</ele>
        <time>2018-06-07T10:26:29Z</time>
      </trkpt>
      <trkpt lat="45.94405" lon="4.72612">
        <ele>173</ele>
        <time>2018-06-07T10:26:30Z</time>
      </trkpt>
      <trkpt lat="45.94403" lon="4.72603">
        <ele>173</ele>
        <time>2018-06-07T10:26:31Z</time>
      </trkpt>
      <trkpt lat="45.94403" lon="4.72595">
        <ele>173</ele>
        <time>2018-06-07T10:26:32Z</time>
      </trkpt>
      <trkpt lat="45.94401" lon="4.72585">
        <ele>173</ele>
        <time>2018-06-07T10:26:33Z</time>
      </trkpt>
      <trkpt lat="45.94399" lon="4.72577">
        <ele>173</ele>
        <time>2018-06-07T10:26:34Z</time>
      </trkpt>
      <trkpt lat="45.94397" lon="4.72569">
        <ele>173</ele>
        <time>2018-06-07T10:26:35Z</time>
      </trkpt>
      <trkpt lat="45.94395" lon="4.72561">
        <ele>173</ele>
        <time>2018-06-07T10:26:36Z</time>
      </trkpt>
      <trkpt lat="45.94393" lon="4.72553">
        <ele>173</ele>
        <time>2018-06-07T10:26:37Z</time>
      </trkpt>
      <trkpt lat="45.94391" lon="4.72545">
        <ele>173</ele>
        <time>2018-06-07T10:26:38Z</time>
      </trkpt>
      <trkpt lat="45.94391" lon="4.72536">
        <ele>174</ele>
        <time>2018-06-07T10:26:39Z</time>
      </trkpt>
      <trkpt lat="45.9439" lon="4.72528">
        <ele>174</ele>
        <time>2018-06-07T10:26:40Z</time>
      </trkpt>
      <trkpt lat="45.94387" lon="4.72522">
        <ele>174</ele>
        <time>2018-06-07T10:26:41Z</time>
      </trkpt>
      <trkpt lat="45.94386" lon="4.72515">
        <ele>174</ele>
        <time>2018-06-07T10:26:42Z</time>
      </trkpt>
      <trkpt lat="45.94384" lon="4.72506">
        <ele>174</ele>
        <time>2018-06-07T10:26:43Z</time>
      </trkpt>
      <trkpt lat="45.94381" lon="4.72499">
        <ele>173</ele>
        <time>2018-06-07T10:26:44Z</time>
      </trkpt>
      <trkpt lat="45.94377" lon="4.72491">
        <ele>173</ele>
        <time>2018-06-07T10:26:45Z</time>
      </trkpt>
      <trkpt lat="45.94376" lon="4.72485">
        <ele>173</ele>
        <time>2018-06-07T10:26:46Z</time>
      </trkpt>
      <trkpt lat="45.94374" lon="4.72478">
        <ele>173</ele>
        <time>2018-06-07T10:26:47Z</time>
      </trkpt>
      <trkpt lat="45.94372" lon="4.72468">
        <ele>173</ele>
        <time>2018-06-07T10:26:48Z</time>
      </trkpt>
      <trkpt lat="45.94368" lon="4.72461">
        <ele>173</ele>
        <time>2018-06-07T10:26:49Z</time>
      </trkpt>
      <trkpt lat="45.94365" lon="4.72454">
        <ele>173</ele>
        <time>2018-06-07T10:26:50Z</time>
      </trkpt>
      <trkpt lat="45.94361" lon="4.72447">
        <ele>173</ele>
        <time>2018-06-07T10:26:51Z</time>
      </trkpt>
      <trkpt lat="45.94359" lon="4.7244">
        <ele>173</ele>
        <time>2018-06-07T10:26:52Z</time>
      </trkpt>
      <trkpt lat="45.94355" lon="4.72435">
        <ele>173</ele>
        <time>2018-06-07T10:26:53Z</time>
      </trkpt>
      <trkpt lat="45.94352" lon="4.72429">
        <ele>173</ele>
        <time>2018-06-07T10:26:54Z</time>
      </trkpt>
      <trkpt lat="45.94348" lon="4.72422">
        <ele>173</ele>
        <time>2018-06-07T10:26:55Z</time>
      </trkpt>
      <trkpt lat="45.94346" lon="4.72413">
        <ele>173</ele>
        <time>2018-06-07T10:26:56Z</time>
      </trkpt>
      <trkpt lat="45.94343" lon="4.72409">
        <ele>173</ele>
        <time>2018-06-07T10:26:57Z</time>
      </trkpt>
      <trkpt lat="45.9434" lon="4.72403">
        <ele>173</ele>
        <time>2018-06-07T10:26:58Z</time>
      </trkpt>
      <trkpt lat="45.94337" lon="4.72396">
        <ele>172</ele>
        <time>2018-06-07T10:26:59Z</time>
      </trkpt>
      <trkpt lat="45.94334" lon="4.72389">
        <ele>172</ele>
        <time>2018-06-07T10:27:00Z</time>
      </trkpt>
      <trkpt lat="45.94331" lon="4.72382">
        <ele>172</ele>
        <time>2018-06-07T10:27:01Z</time>
      </trkpt>
      <trkpt lat="45.94327" lon="4.72375">
        <ele>172</ele>
        <time>2018-06-07T10:27:02Z</time>
      </trkpt>
      <trkpt lat="45.94324" lon="4.7237">
        <ele>172</ele>
        <time>2018-06-07T10:27:03Z</time>
      </trkpt>
      <trkpt lat="45.94321" lon="4.72362">
        <ele>172</ele>
        <time>2018-06-07T10:27:04Z</time>
      </trkpt>
      <trkpt lat="45.94319" lon="4.72355">
        <ele>172</ele>
        <time>2018-06-07T10:27:05Z</time>
      </trkpt>
      <trkpt lat="45.94316" lon="4.72348">
        <ele>172</ele>
        <time>2018-06-07T10:27:06Z</time>
      </trkpt>
      <trkpt lat="45.94313" lon="4.7234">
        <ele>172</ele>
        <time>2018-06-07T10:27:07Z</time>
      </trkpt>
      <trkpt lat="45.94308" lon="4.72334">
        <ele>172</ele>
        <time>2018-06-07T10:27:08Z</time>
      </trkpt>
      <trkpt lat="45.94305" lon="4.72326">
        <ele>171</ele>
        <time>2018-06-07T10:27:09Z</time>
      </trkpt>
      <trkpt lat="45.94298" lon="4.72318">
        <ele>171</ele>
        <time>2018-06-07T10:27:10Z</time>
      </trkpt>
      <trkpt lat="45.94295" lon="4.72309">
        <ele>171</ele>
        <time>2018-06-07T10:27:11Z</time>
      </trkpt>
      <trkpt lat="45.94292" lon="4.72301">
        <ele>171</ele>
        <time>2018-06-07T10:27:12Z</time>
      </trkpt>
      <trkpt lat="45.94289" lon="4.72294">
        <ele>171</ele>
        <time>2018-06-07T10:27:13Z</time>
      </trkpt>
      <trkpt lat="45.94284" lon="4.72284">
        <ele>171</ele>
        <time>2018-06-07T10:27:16Z</time>
      </trkpt>
      <trkpt lat="45.94283" lon="4.72282">
        <ele>171</ele>
        <time>2018-06-07T10:27:17Z</time>
      </trkpt>
      <trkpt lat="45.94279" lon="4.72276">
        <ele>171</ele>
        <time>2018-06-07T10:27:19Z</time>
      </trkpt>
      <trkpt lat="45.94272" lon="4.7227">
        <ele>171</ele>
        <time>2018-06-07T10:27:20Z</time>
      </trkpt>
      <trkpt lat="45.94264" lon="4.7227">
        <ele>171</ele>
        <time>2018-06-07T10:27:22Z</time>
      </trkpt>
      <trkpt lat="45.9426" lon="4.72272">
        <ele>171</ele>
        <time>2018-06-07T10:27:23Z</time>
      </trkpt>
      <trkpt lat="45.94254" lon="4.72273">
        <ele>171</ele>
        <time>2018-06-07T10:27:24Z</time>
      </trkpt>
      <trkpt lat="45.9425" lon="4.72275">
        <ele>171</ele>
        <time>2018-06-07T10:27:25Z</time>
      </trkpt>
      <trkpt lat="45.94243" lon="4.72278">
        <ele>171</ele>
        <time>2018-06-07T10:27:27Z</time>
      </trkpt>
      <trkpt lat="45.94238" lon="4.7228">
        <ele>171</ele>
        <time>2018-06-07T10:27:28Z</time>
      </trkpt>
      <trkpt lat="45.94233" lon="4.72281">
        <ele>171</ele>
        <time>2018-06-07T10:27:29Z</time>
      </trkpt>
      <trkpt lat="45.94228" lon="4.72283">
        <ele>171</ele>
        <time>2018-06-07T10:27:30Z</time>
      </trkpt>
      <trkpt lat="45.94221" lon="4.72285">
        <ele>171</ele>
        <time>2018-06-07T10:27:31Z</time>
      </trkpt>
      <trkpt lat="45.94217" lon="4.72285">
        <ele>171</ele>
        <time>2018-06-07T10:27:32Z</time>
      </trkpt>
      <trkpt lat="45.94212" lon="4.72285">
        <ele>171</ele>
        <time>2018-06-07T10:27:33Z</time>
      </trkpt>
      <trkpt lat="45.94207" lon="4.72286">
        <ele>171</ele>
        <time>2018-06-07T10:27:34Z</time>
      </trkpt>
      <trkpt lat="45.94202" lon="4.72286">
        <ele>171</ele>
        <time>2018-06-07T10:27:35Z</time>
      </trkpt>
      <trkpt lat="45.94198" lon="4.72284">
        <ele>171</ele>
        <time>2018-06-07T10:27:36Z</time>
      </trkpt>
      <trkpt lat="45.94192" lon="4.72286">
        <ele>171</ele>
        <time>2018-06-07T10:27:37Z</time>
      </trkpt>
      <trkpt lat="45.94187" lon="4.72287">
        <ele>171</ele>
        <time>2018-06-07T10:27:38Z</time>
      </trkpt>
      <trkpt lat="45.94182" lon="4.72286">
        <ele>171</ele>
        <time>2018-06-07T10:27:39Z</time>
      </trkpt>
      <trkpt lat="45.94177" lon="4.72286">
        <ele>171</ele>
        <time>2018-06-07T10:27:40Z</time>
      </trkpt>
      <trkpt lat="45.94171" lon="4.72285">
        <ele>171</ele>
        <time>2018-06-07T10:27:41Z</time>
      </trkpt>
      <trkpt lat="45.94165" lon="4.72284">
        <ele>171</ele>
        <time>2018-06-07T10:27:42Z</time>
      </trkpt>
      <trkpt lat="45.9416" lon="4.72284">
        <ele>171</ele>
        <time>2018-06-07T10:27:43Z</time>
      </trkpt>
      <trkpt lat="45.94155" lon="4.72283">
        <ele>171</ele>
        <time>2018-06-07T10:27:44Z</time>
      </trkpt>
      <trkpt lat="45.94149" lon="4.72281">
        <ele>171</ele>
        <time>2018-06-07T10:27:45Z</time>
      </trkpt>
      <trkpt lat="45.94145" lon="4.72278">
        <ele>171</ele>
        <time>2018-06-07T10:27:46Z</time>
      </trkpt>
      <trkpt lat="45.94139" lon="4.72275">
        <ele>171</ele>
        <time>2018-06-07T10:27:47Z</time>
      </trkpt>
      <trkpt lat="45.94134" lon="4.72274">
        <ele>171</ele>
        <time>2018-06-07T10:27:48Z</time>
      </trkpt>
      <trkpt lat="45.94129" lon="4.72272">
        <ele>171</ele>
        <time>2018-06-07T10:27:49Z</time>
      </trkpt>
      <trkpt lat="45.94125" lon="4.72269">
        <ele>171</ele>
        <time>2018-06-07T10:27:50Z</time>
      </trkpt>
      <trkpt lat="45.9412" lon="4.72266">
        <ele>171</ele>
        <time>2018-06-07T10:27:51Z</time>
      </trkpt>
      <trkpt lat="45.94115" lon="4.72265">
        <ele>171</ele>
        <time>2018-06-07T10:27:52Z</time>
      </trkpt>
      <trkpt lat="45.9411" lon="4.72263">
        <ele>171</ele>
        <time>2018-06-07T10:27:53Z</time>
      </trkpt>
      <trkpt lat="45.94105" lon="4.72262">
        <ele>171</ele>
        <time>2018-06-07T10:27:54Z</time>
      </trkpt>
      <trkpt lat="45.941" lon="4.72262">
        <ele>171</ele>
        <time>2018-06-07T10:27:55Z</time>
      </trkpt>
      <trkpt lat="45.94095" lon="4.72262">
        <ele>171</ele>
        <time>2018-06-07T10:27:56Z</time>
      </trkpt>
      <trkpt lat="45.9409" lon="4.72264">
        <ele>171</ele>
        <time>2018-06-07T10:27:57Z</time>
      </trkpt>
      <trkpt lat="45.94085" lon="4.72266">
        <ele>171</ele>
        <time>2018-06-07T10:27:58Z</time>
      </trkpt>
      <trkpt lat="45.9408" lon="4.72268">
        <ele>171</ele>
        <time>2018-06-07T10:27:59Z</time>
      </trkpt>
      <trkpt lat="45.94074" lon="4.72272">
        <ele>171</ele>
        <time>2018-06-07T10:28:00Z</time>
      </trkpt>
      <trkpt lat="45.94069" lon="4.72277">
        <ele>171</ele>
        <time>2018-06-07T10:28:01Z</time>
      </trkpt>
      <trkpt lat="45.94064" lon="4.72282">
        <ele>171</ele>
        <time>2018-06-07T10:28:02Z</time>
      </trkpt>
      <trkpt lat="45.94059" lon="4.72287">
        <ele>171</ele>
        <time>2018-06-07T10:28:03Z</time>
      </trkpt>
      <trkpt lat="45.94055" lon="4.72293">
        <ele>171</ele>
        <time>2018-06-07T10:28:04Z</time>
      </trkpt>
      <trkpt lat="45.9405" lon="4.72299">
        <ele>171</ele>
        <time>2018-06-07T10:28:05Z</time>
      </trkpt>
      <trkpt lat="45.94046" lon="4.72305">
        <ele>171</ele>
        <time>2018-06-07T10:28:06Z</time>
      </trkpt>
      <trkpt lat="45.94041" lon="4.72311">
        <ele>171</ele>
        <time>2018-06-07T10:28:07Z</time>
      </trkpt>
      <trkpt lat="45.94036" lon="4.72316">
        <ele>171</ele>
        <time>2018-06-07T10:28:08Z</time>
      </trkpt>
      <trkpt lat="45.94031" lon="4.72322">
        <ele>171</ele>
        <time>2018-06-07T10:28:09Z</time>
      </trkpt>
      <trkpt lat="45.94027" lon="4.72329">
        <ele>171</ele>
        <time>2018-06-07T10:28:10Z</time>
      </trkpt>
      <trkpt lat="45.94023" lon="4.72336">
        <ele>171</ele>
        <time>2018-06-07T10:28:11Z</time>
      </trkpt>
      <trkpt lat="45.94018" lon="4.72342">
        <ele>171</ele>
        <time>2018-06-07T10:28:12Z</time>
      </trkpt>
      <trkpt lat="45.94014" lon="4.72351">
        <ele>171</ele>
        <time>2018-06-07T10:28:13Z</time>
      </trkpt>
      <trkpt lat="45.94009" lon="4.72357">
        <ele>171</ele>
        <time>2018-06-07T10:28:14Z</time>
      </trkpt>
      <trkpt lat="45.94004" lon="4.72363">
        <ele>171</ele>
        <time>2018-06-07T10:28:15Z</time>
      </trkpt>
      <trkpt lat="45.93999" lon="4.7237">
        <ele>171</ele>
        <time>2018-06-07T10:28:16Z</time>
      </trkpt>
      <trkpt lat="45.93995" lon="4.72376">
        <ele>171</ele>
        <time>2018-06-07T10:28:17Z</time>
      </trkpt>
      <trkpt lat="45.9399" lon="4.72382">
        <ele>171</ele>
        <time>2018-06-07T10:28:18Z</time>
      </trkpt>
      <trkpt lat="45.93985" lon="4.72388">
        <ele>171</ele>
        <time>2018-06-07T10:28:19Z</time>
      </trkpt>
      <trkpt lat="45.93981" lon="4.72393">
        <ele>171</ele>
        <time>2018-06-07T10:28:20Z</time>
      </trkpt>
      <trkpt lat="45.93975" lon="4.724">
        <ele>171</ele>
        <time>2018-06-07T10:28:21Z</time>
      </trkpt>
      <trkpt lat="45.93971" lon="4.72406">
        <ele>171</ele>
        <time>2018-06-07T10:28:22Z</time>
      </trkpt>
      <trkpt lat="45.93966" lon="4.72411">
        <ele>171</ele>
        <time>2018-06-07T10:28:23Z</time>
      </trkpt>
      <trkpt lat="45.93963" lon="4.72415">
        <ele>171</ele>
        <time>2018-06-07T10:28:24Z</time>
      </trkpt>
      <trkpt lat="45.93959" lon="4.72419">
        <ele>171</ele>
        <time>2018-06-07T10:28:25Z</time>
      </trkpt>
      <trkpt lat="45.93956" lon="4.72425">
        <ele>171</ele>
        <time>2018-06-07T10:28:26Z</time>
      </trkpt>
      <trkpt lat="45.93948" lon="4.72431">
        <ele>171</ele>
        <time>2018-06-07T10:28:28Z</time>
      </trkpt>
      <trkpt lat="45.93944" lon="4.72434">
        <ele>171</ele>
        <time>2018-06-07T10:28:29Z</time>
      </trkpt>
      <trkpt lat="45.9394" lon="4.7244">
        <ele>171</ele>
        <time>2018-06-07T10:28:30Z</time>
      </trkpt>
      <trkpt lat="45.93936" lon="4.72445">
        <ele>171</ele>
        <time>2018-06-07T10:28:31Z</time>
      </trkpt>
      <trkpt lat="45.93932" lon="4.72449">
        <ele>171</ele>
        <time>2018-06-07T10:28:32Z</time>
      </trkpt>
      <trkpt lat="45.93928" lon="4.72455">
        <ele>171</ele>
        <time>2018-06-07T10:28:33Z</time>
      </trkpt>
      <trkpt lat="45.93924" lon="4.7246">
        <ele>171</ele>
        <time>2018-06-07T10:28:34Z</time>
      </trkpt>
      <trkpt lat="45.9392" lon="4.72465">
        <ele>171</ele>
        <time>2018-06-07T10:28:35Z</time>
      </trkpt>
      <trkpt lat="45.93916" lon="4.7247">
        <ele>172</ele>
        <time>2018-06-07T10:28:36Z</time>
      </trkpt>
      <trkpt lat="45.93911" lon="4.72477">
        <ele>172</ele>
        <time>2018-06-07T10:28:37Z</time>
      </trkpt>
      <trkpt lat="45.93907" lon="4.7248">
        <ele>172</ele>
        <time>2018-06-07T10:28:38Z</time>
      </trkpt>
      <trkpt lat="45.93903" lon="4.72485">
        <ele>172</ele>
        <time>2018-06-07T10:28:39Z</time>
      </trkpt>
      <trkpt lat="45.93899" lon="4.7249">
        <ele>172</ele>
        <time>2018-06-07T10:28:40Z</time>
      </trkpt>
      <trkpt lat="45.93895" lon="4.72495">
        <ele>172</ele>
        <time>2018-06-07T10:28:41Z</time>
      </trkpt>
      <trkpt lat="45.93891" lon="4.72501">
        <ele>173</ele>
        <time>2018-06-07T10:28:42Z</time>
      </trkpt>
      <trkpt lat="45.93887" lon="4.72504">
        <ele>173</ele>
        <time>2018-06-07T10:28:43Z</time>
      </trkpt>
      <trkpt lat="45.93879" lon="4.7251">
        <ele>173</ele>
        <time>2018-06-07T10:28:45Z</time>
      </trkpt>
      <trkpt lat="45.93875" lon="4.72513">
        <ele>173</ele>
        <time>2018-06-07T10:28:46Z</time>
      </trkpt>
      <trkpt lat="45.93868" lon="4.72512">
        <ele>173</ele>
        <time>2018-06-07T10:28:47Z</time>
      </trkpt>
      <trkpt lat="45.93863" lon="4.72511">
        <ele>173</ele>
        <time>2018-06-07T10:28:48Z</time>
      </trkpt>
      <trkpt lat="45.93858" lon="4.72507">
        <ele>173</ele>
        <time>2018-06-07T10:28:49Z</time>
      </trkpt>
      <trkpt lat="45.93853" lon="4.72503">
        <ele>173</ele>
        <time>2018-06-07T10:28:50Z</time>
      </trkpt>
      <trkpt lat="45.93848" lon="4.72498">
        <ele>173</ele>
        <time>2018-06-07T10:28:52Z</time>
      </trkpt>
      <trkpt lat="45.93844" lon="4.72495">
        <ele>173</ele>
        <time>2018-06-07T10:28:53Z</time>
      </trkpt>
      <trkpt lat="45.93838" lon="4.7249">
        <ele>173</ele>
        <time>2018-06-07T10:28:55Z</time>
      </trkpt>
      <trkpt lat="45.93833" lon="4.72469">
        <ele>172</ele>
        <time>2018-06-07T10:28:57Z</time>
      </trkpt>
      <trkpt lat="45.93822" lon="4.72471">
        <ele>172</ele>
        <time>2018-06-07T10:28:58Z</time>
      </trkpt>
      <trkpt lat="45.93821" lon="4.72464">
        <ele>172</ele>
        <time>2018-06-07T10:28:59Z</time>
      </trkpt>
      <trkpt lat="45.93816" lon="4.72459">
        <ele>172</ele>
        <time>2018-06-07T10:29:00Z</time>
      </trkpt>
      <trkpt lat="45.93812" lon="4.72454">
        <ele>172</ele>
        <time>2018-06-07T10:29:01Z</time>
      </trkpt>
      <trkpt lat="45.93803" lon="4.72453">
        <ele>172</ele>
        <time>2018-06-07T10:29:02Z</time>
      </trkpt>
      <trkpt lat="45.93799" lon="4.72447">
        <ele>172</ele>
        <time>2018-06-07T10:29:03Z</time>
      </trkpt>
      <trkpt lat="45.93795" lon="4.7244">
        <ele>172</ele>
        <time>2018-06-07T10:29:04Z</time>
      </trkpt>
      <trkpt lat="45.93789" lon="4.72436">
        <ele>172</ele>
        <time>2018-06-07T10:29:05Z</time>
      </trkpt>
      <trkpt lat="45.93785" lon="4.72432">
        <ele>172</ele>
        <time>2018-06-07T10:29:06Z</time>
      </trkpt>
      <trkpt lat="45.93781" lon="4.72429">
        <ele>172</ele>
        <time>2018-06-07T10:29:07Z</time>
      </trkpt>
      <trkpt lat="45.93777" lon="4.72426">
        <ele>171</ele>
        <time>2018-06-07T10:29:08Z</time>
      </trkpt>
      <trkpt lat="45.9377" lon="4.72419">
        <ele>171</ele>
        <time>2018-06-07T10:29:10Z</time>
      </trkpt>
      <trkpt lat="45.93766" lon="4.72416">
        <ele>171</ele>
        <time>2018-06-07T10:29:11Z</time>
      </trkpt>
      <trkpt lat="45.93759" lon="4.7241">
        <ele>171</ele>
        <time>2018-06-07T10:29:13Z</time>
      </trkpt>
      <trkpt lat="45.93755" lon="4.72406">
        <ele>171</ele>
        <time>2018-06-07T10:29:14Z</time>
      </trkpt>
      <trkpt lat="45.93749" lon="4.72398">
        <ele>171</ele>
        <time>2018-06-07T10:29:16Z</time>
      </trkpt>
      <trkpt lat="45.93744" lon="4.72395">
        <ele>171</ele>
        <time>2018-06-07T10:29:17Z</time>
      </trkpt>
      <trkpt lat="45.93741" lon="4.7239">
        <ele>171</ele>
        <time>2018-06-07T10:29:18Z</time>
      </trkpt>
      <trkpt lat="45.93737" lon="4.72387">
        <ele>171</ele>
        <time>2018-06-07T10:29:19Z</time>
      </trkpt>
      <trkpt lat="45.93733" lon="4.72385">
        <ele>171</ele>
        <time>2018-06-07T10:29:20Z</time>
      </trkpt>
      <trkpt lat="45.93728" lon="4.72383">
        <ele>171</ele>
        <time>2018-06-07T10:29:21Z</time>
      </trkpt>
      <trkpt lat="45.93723" lon="4.72379">
        <ele>171</ele>
        <time>2018-06-07T10:29:22Z</time>
      </trkpt>
      <trkpt lat="45.9372" lon="4.72373">
        <ele>172</ele>
        <time>2018-06-07T10:29:23Z</time>
      </trkpt>
      <trkpt lat="45.93715" lon="4.72369">
        <ele>172</ele>
        <time>2018-06-07T10:29:24Z</time>
      </trkpt>
      <trkpt lat="45.9371" lon="4.72365">
        <ele>172</ele>
        <time>2018-06-07T10:29:25Z</time>
      </trkpt>
      <trkpt lat="45.93706" lon="4.7236">
        <ele>171</ele>
        <time>2018-06-07T10:29:26Z</time>
      </trkpt>
      <trkpt lat="45.93701" lon="4.72356">
        <ele>171</ele>
        <time>2018-06-07T10:29:27Z</time>
      </trkpt>
      <trkpt lat="45.93696" lon="4.72351">
        <ele>171</ele>
        <time>2018-06-07T10:29:28Z</time>
      </trkpt>
      <trkpt lat="45.93692" lon="4.72347">
        <ele>171</ele>
        <time>2018-06-07T10:29:29Z</time>
      </trkpt>
      <trkpt lat="45.93683" lon="4.72343">
        <ele>171</ele>
        <time>2018-06-07T10:29:31Z</time>
      </trkpt>
      <trkpt lat="45.93678" lon="4.72338">
        <ele>171</ele>
        <time>2018-06-07T10:29:32Z</time>
      </trkpt>
      <trkpt lat="45.93671" lon="4.72332">
        <ele>171</ele>
        <time>2018-06-07T10:29:34Z</time>
      </trkpt>
      <trkpt lat="45.93668" lon="4.72325">
        <ele>171</ele>
        <time>2018-06-07T10:29:35Z</time>
      </trkpt>
      <trkpt lat="45.93664" lon="4.72321">
        <ele>172</ele>
        <time>2018-06-07T10:29:36Z</time>
      </trkpt>
      <trkpt lat="45.93661" lon="4.72317">
        <ele>172</ele>
        <time>2018-06-07T10:29:37Z</time>
      </trkpt>
      <trkpt lat="45.93657" lon="4.72312">
        <ele>172</ele>
        <time>2018-06-07T10:29:38Z</time>
      </trkpt>
      <trkpt lat="45.93653" lon="4.72308">
        <ele>172</ele>
        <time>2018-06-07T10:29:39Z</time>
      </trkpt>
      <trkpt lat="45.93647" lon="4.72304">
        <ele>172</ele>
        <time>2018-06-07T10:29:40Z</time>
      </trkpt>
      <trkpt lat="45.93642" lon="4.72299">
        <ele>172</ele>
        <time>2018-06-07T10:29:41Z</time>
      </trkpt>
      <trkpt lat="45.93638" lon="4.72294">
        <ele>172</ele>
        <time>2018-06-07T10:29:42Z</time>
      </trkpt>
      <trkpt lat="45.93634" lon="4.72288">
        <ele>172</ele>
        <time>2018-06-07T10:29:43Z</time>
      </trkpt>
      <trkpt lat="45.93629" lon="4.72284">
        <ele>172</ele>
        <time>2018-06-07T10:29:44Z</time>
      </trkpt>
      <trkpt lat="45.93626" lon="4.7228">
        <ele>172</ele>
        <time>2018-06-07T10:29:45Z</time>
      </trkpt>
      <trkpt lat="45.9362" lon="4.72276">
        <ele>172</ele>
        <time>2018-06-07T10:29:47Z</time>
      </trkpt>
      <trkpt lat="45.93616" lon="4.72271">
        <ele>172</ele>
        <time>2018-06-07T10:29:48Z</time>
      </trkpt>
      <trkpt lat="45.93612" lon="4.72268">
        <ele>172</ele>
        <time>2018-06-07T10:29:49Z</time>
      </trkpt>
      <trkpt lat="45.93608" lon="4.72263">
        <ele>172</ele>
        <time>2018-06-07T10:29:50Z</time>
      </trkpt>
      <trkpt lat="45.93602" lon="4.72255">
        <ele>173</ele>
        <time>2018-06-07T10:29:52Z</time>
      </trkpt>
      <trkpt lat="45.93597" lon="4.72253">
        <ele>173</ele>
        <time>2018-06-07T10:29:53Z</time>
      </trkpt>
      <trkpt lat="45.9359" lon="4.72246">
        <ele>173</ele>
        <time>2018-06-07T10:29:55Z</time>
      </trkpt>
      <trkpt lat="45.93589" lon="4.72241">
        <ele>173</ele>
        <time>2018-06-07T10:29:56Z</time>
      </trkpt>
      <trkpt lat="45.93581" lon="4.72235">
        <ele>173</ele>
        <time>2018-06-07T10:29:58Z</time>
      </trkpt>
      <trkpt lat="45.93577" lon="4.72233">
        <ele>173</ele>
        <time>2018-06-07T10:29:59Z</time>
      </trkpt>
      <trkpt lat="45.9357" lon="4.72227">
        <ele>173</ele>
        <time>2018-06-07T10:30:02Z</time>
      </trkpt>
      <trkpt lat="45.93568" lon="4.72225">
        <ele>173</ele>
        <time>2018-06-07T10:30:03Z</time>
      </trkpt>
      <trkpt lat="45.9356" lon="4.72219">
        <ele>173</ele>
        <time>2018-06-07T10:30:09Z</time>
      </trkpt>
      <trkpt lat="45.9356" lon="4.72218">
        <ele>173</ele>
        <time>2018-06-07T10:30:10Z</time>
      </trkpt>
      <trkpt lat="45.93552" lon="4.72216">
        <ele>173</ele>
        <time>2018-06-07T10:30:19Z</time>
      </trkpt>
      <trkpt lat="45.93551" lon="4.72217">
        <ele>173</ele>
        <time>2018-06-07T10:30:20Z</time>
      </trkpt>
      <trkpt lat="45.93546" lon="4.72223">
        <ele>172</ele>
        <time>2018-06-07T10:30:23Z</time>
      </trkpt>
      <trkpt lat="45.93544" lon="4.72226">
        <ele>172</ele>
        <time>2018-06-07T10:30:24Z</time>
      </trkpt>
      <trkpt lat="45.9354" lon="4.72236">
        <ele>172</ele>
        <time>2018-06-07T10:30:27Z</time>
      </trkpt>
      <trkpt lat="45.93539" lon="4.72239">
        <ele>172</ele>
        <time>2018-06-07T10:30:28Z</time>
      </trkpt>
      <trkpt lat="45.93536" lon="4.72246">
        <ele>172</ele>
        <time>2018-06-07T10:30:30Z</time>
      </trkpt>
      <trkpt lat="45.93531" lon="4.72258">
        <ele>172</ele>
        <time>2018-06-07T10:30:31Z</time>
      </trkpt>
      <trkpt lat="45.93527" lon="4.72267">
        <ele>172</ele>
        <time>2018-06-07T10:30:33Z</time>
      </trkpt>
      <trkpt lat="45.93525" lon="4.72273">
        <ele>172</ele>
        <time>2018-06-07T10:30:34Z</time>
      </trkpt>
      <trkpt lat="45.93523" lon="4.72279">
        <ele>172</ele>
        <time>2018-06-07T10:30:35Z</time>
      </trkpt>
      <trkpt lat="45.9352" lon="4.72285">
        <ele>172</ele>
        <time>2018-06-07T10:30:36Z</time>
      </trkpt>
      <trkpt lat="45.93518" lon="4.7229">
        <ele>172</ele>
        <time>2018-06-07T10:30:37Z</time>
      </trkpt>
      <trkpt lat="45.93514" lon="4.72296">
        <ele>172</ele>
        <time>2018-06-07T10:30:38Z</time>
      </trkpt>
      <trkpt lat="45.9351" lon="4.72303">
        <ele>172</ele>
        <time>2018-06-07T10:30:39Z</time>
      </trkpt>
      <trkpt lat="45.93506" lon="4.7231">
        <ele>173</ele>
        <time>2018-06-07T10:30:40Z</time>
      </trkpt>
      <trkpt lat="45.93502" lon="4.72315">
        <ele>173</ele>
        <time>2018-06-07T10:30:41Z</time>
      </trkpt>
      <trkpt lat="45.93498" lon="4.72321">
        <ele>173</ele>
        <time>2018-06-07T10:30:42Z</time>
      </trkpt>
      <trkpt lat="45.93493" lon="4.72327">
        <ele>173</ele>
        <time>2018-06-07T10:30:43Z</time>
      </trkpt>
      <trkpt lat="45.93488" lon="4.72334">
        <ele>173</ele>
        <time>2018-06-07T10:30:44Z</time>
      </trkpt>
      <trkpt lat="45.93484" lon="4.7234">
        <ele>173</ele>
        <time>2018-06-07T10:30:45Z</time>
      </trkpt>
      <trkpt lat="45.93479" lon="4.72344">
        <ele>173</ele>
        <time>2018-06-07T10:30:46Z</time>
      </trkpt>
      <trkpt lat="45.93476" lon="4.72349">
        <ele>173</ele>
        <time>2018-06-07T10:30:47Z</time>
      </trkpt>
      <trkpt lat="45.93472" lon="4.72355">
        <ele>173</ele>
        <time>2018-06-07T10:30:48Z</time>
      </trkpt>
      <trkpt lat="45.93468" lon="4.72362">
        <ele>173</ele>
        <time>2018-06-07T10:30:49Z</time>
      </trkpt>
      <trkpt lat="45.93464" lon="4.72368">
        <ele>173</ele>
        <time>2018-06-07T10:30:50Z</time>
      </trkpt>
      <trkpt lat="45.93461" lon="4.72373">
        <ele>173</ele>
        <time>2018-06-07T10:30:51Z</time>
      </trkpt>
      <trkpt lat="45.93456" lon="4.72377">
        <ele>173</ele>
        <time>2018-06-07T10:30:52Z</time>
      </trkpt>
      <trkpt lat="45.93452" lon="4.72381">
        <ele>173</ele>
        <time>2018-06-07T10:30:53Z</time>
      </trkpt>
      <trkpt lat="45.93448" lon="4.72385">
        <ele>173</ele>
        <time>2018-06-07T10:30:54Z</time>
      </trkpt>
      <trkpt lat="45.93443" lon="4.7239">
        <ele>173</ele>
        <time>2018-06-07T10:30:55Z</time>
      </trkpt>
      <trkpt lat="45.93439" lon="4.72393">
        <ele>173</ele>
        <time>2018-06-07T10:30:56Z</time>
      </trkpt>
      <trkpt lat="45.93434" lon="4.72398">
        <ele>173</ele>
        <time>2018-06-07T10:30:57Z</time>
      </trkpt>
      <trkpt lat="45.93427" lon="4.72397">
        <ele>174</ele>
        <time>2018-06-07T10:30:58Z</time>
      </trkpt>
      <trkpt lat="45.93422" lon="4.724">
        <ele>174</ele>
        <time>2018-06-07T10:30:59Z</time>
      </trkpt>
      <trkpt lat="45.93416" lon="4.72404">
        <ele>174</ele>
        <time>2018-06-07T10:31:00Z</time>
      </trkpt>
      <trkpt lat="45.93411" lon="4.72405">
        <ele>174</ele>
        <time>2018-06-07T10:31:01Z</time>
      </trkpt>
      <trkpt lat="45.93406" lon="4.72406">
        <ele>174</ele>
        <time>2018-06-07T10:31:02Z</time>
      </trkpt>
      <trkpt lat="45.93401" lon="4.72406">
        <ele>174</ele>
        <time>2018-06-07T10:31:03Z</time>
      </trkpt>
      <trkpt lat="45.93395" lon="4.72405">
        <ele>174</ele>
        <time>2018-06-07T10:31:04Z</time>
      </trkpt>
      <trkpt lat="45.93391" lon="4.72405">
        <ele>174</ele>
        <time>2018-06-07T10:31:05Z</time>
      </trkpt>
      <trkpt lat="45.93386" lon="4.72406">
        <ele>174</ele>
        <time>2018-06-07T10:31:06Z</time>
      </trkpt>
      <trkpt lat="45.93383" lon="4.72411">
        <ele>174</ele>
        <time>2018-06-07T10:31:07Z</time>
      </trkpt>
      <trkpt lat="45.9338" lon="4.72418">
        <ele>173</ele>
        <time>2018-06-07T10:31:08Z</time>
      </trkpt>
      <trkpt lat="45.9338" lon="4.72422">
        <ele>173</ele>
        <time>2018-06-07T10:31:09Z</time>
      </trkpt>
      <trkpt lat="45.93384" lon="4.72431">
        <ele>173</ele>
        <time>2018-06-07T10:31:10Z</time>
      </trkpt>
      <trkpt lat="45.93387" lon="4.72437">
        <ele>173</ele>
        <time>2018-06-07T10:31:11Z</time>
      </trkpt>
      <trkpt lat="45.93389" lon="4.72445">
        <ele>173</ele>
        <time>2018-06-07T10:31:12Z</time>
      </trkpt>
      <trkpt lat="45.93389" lon="4.72453">
        <ele>173</ele>
        <time>2018-06-07T10:31:13Z</time>
      </trkpt>
      <trkpt lat="45.93387" lon="4.72461">
        <ele>173</ele>
        <time>2018-06-07T10:31:14Z</time>
      </trkpt>
      <trkpt lat="45.93384" lon="4.72466">
        <ele>173</ele>
        <time>2018-06-07T10:31:15Z</time>
      </trkpt>
      <trkpt lat="45.93381" lon="4.72472">
        <ele>173</ele>
        <time>2018-06-07T10:31:16Z</time>
      </trkpt>
      <trkpt lat="45.93377" lon="4.72477">
        <ele>173</ele>
        <time>2018-06-07T10:31:17Z</time>
      </trkpt>
      <trkpt lat="45.93373" lon="4.72482">
        <ele>173</ele>
        <time>2018-06-07T10:31:18Z</time>
      </trkpt>
      <trkpt lat="45.93367" lon="4.72488">
        <ele>173</ele>
        <time>2018-06-07T10:31:19Z</time>
      </trkpt>
      <trkpt lat="45.93362" lon="4.72495">
        <ele>173</ele>
        <time>2018-06-07T10:31:20Z</time>
      </trkpt>
      <trkpt lat="45.93358" lon="4.725">
        <ele>173</ele>
        <time>2018-06-07T10:31:21Z</time>
      </trkpt>
      <trkpt lat="45.93353" lon="4.72506">
        <ele>172</ele>
        <time>2018-06-07T10:31:22Z</time>
      </trkpt>
      <trkpt lat="45.9335" lon="4.72513">
        <ele>172</ele>
        <time>2018-06-07T10:31:23Z</time>
      </trkpt>
      <trkpt lat="45.93345" lon="4.72517">
        <ele>172</ele>
        <time>2018-06-07T10:31:24Z</time>
      </trkpt>
      <trkpt lat="45.93341" lon="4.72523">
        <ele>172</ele>
        <time>2018-06-07T10:31:25Z</time>
      </trkpt>
      <trkpt lat="45.93336" lon="4.72528">
        <ele>172</ele>
        <time>2018-06-07T10:31:26Z</time>
      </trkpt>
      <trkpt lat="45.93331" lon="4.72533">
        <ele>172</ele>
        <time>2018-06-07T10:31:27Z</time>
      </trkpt>
      <trkpt lat="45.93326" lon="4.72539">
        <ele>172</ele>
        <time>2018-06-07T10:31:28Z</time>
      </trkpt>
      <trkpt lat="45.93319" lon="4.72546">
        <ele>172</ele>
        <time>2018-06-07T10:31:30Z</time>
      </trkpt>
      <trkpt lat="45.93315" lon="4.72552">
        <ele>172</ele>
        <time>2018-06-07T10:31:31Z</time>
      </trkpt>
      <trkpt lat="45.9331" lon="4.72557">
        <ele>172</ele>
        <time>2018-06-07T10:31:32Z</time>
      </trkpt>
      <trkpt lat="45.93306" lon="4.72562">
        <ele>172</ele>
        <time>2018-06-07T10:31:33Z</time>
      </trkpt>
      <trkpt lat="45.93302" lon="4.72566">
        <ele>171</ele>
        <time>2018-06-07T10:31:34Z</time>
      </trkpt>
      <trkpt lat="45.93299" lon="4.72572">
        <ele>171</ele>
        <time>2018-06-07T10:31:35Z</time>
      </trkpt>
      <trkpt lat="45.93293" lon="4.72577">
        <ele>171</ele>
        <time>2018-06-07T10:31:36Z</time>
      </trkpt>
      <trkpt lat="45.93289" lon="4.72581">
        <ele>171</ele>
        <time>2018-06-07T10:31:37Z</time>
      </trkpt>
      <trkpt lat="45.93285" lon="4.72586">
        <ele>170</ele>
        <time>2018-06-07T10:31:38Z</time>
      </trkpt>
      <trkpt lat="45.93281" lon="4.72591">
        <ele>170</ele>
        <time>2018-06-07T10:31:39Z</time>
      </trkpt>
      <trkpt lat="45.93276" lon="4.72596">
        <ele>170</ele>
        <time>2018-06-07T10:31:40Z</time>
      </trkpt>
      <trkpt lat="45.93272" lon="4.72601">
        <ele>170</ele>
        <time>2018-06-07T10:31:41Z</time>
      </trkpt>
      <trkpt lat="45.93268" lon="4.72605">
        <ele>170</ele>
        <time>2018-06-07T10:31:42Z</time>
      </trkpt>
      <trkpt lat="45.93264" lon="4.7261">
        <ele>170</ele>
        <time>2018-06-07T10:31:43Z</time>
      </trkpt>
      <trkpt lat="45.9326" lon="4.72615">
        <ele>170</ele>
        <time>2018-06-07T10:31:44Z</time>
      </trkpt>
      <trkpt lat="45.93257" lon="4.7262">
        <ele>170</ele>
        <time>2018-06-07T10:31:45Z</time>
      </trkpt>
      <trkpt lat="45.93252" lon="4.72625">
        <ele>170</ele>
        <time>2018-06-07T10:31:46Z</time>
      </trkpt>
      <trkpt lat="45.93248" lon="4.72629">
        <ele>170</ele>
        <time>2018-06-07T10:31:47Z</time>
      </trkpt>
      <trkpt lat="45.93244" lon="4.72633">
        <ele>170</ele>
        <time>2018-06-07T10:31:48Z</time>
      </trkpt>
      <trkpt lat="45.9324" lon="4.72638">
        <ele>170</ele>
        <time>2018-06-07T10:31:49Z</time>
      </trkpt>
      <trkpt lat="45.93235" lon="4.72643">
        <ele>170</ele>
        <time>2018-06-07T10:31:50Z</time>
      </trkpt>
      <trkpt lat="45.93232" lon="4.72648">
        <ele>170</ele>
        <time>2018-06-07T10:31:51Z</time>
      </trkpt>
      <trkpt lat="45.93227" lon="4.72653">
        <ele>170</ele>
        <time>2018-06-07T10:31:52Z</time>
      </trkpt>
      <trkpt lat="45.93223" lon="4.72659">
        <ele>170</ele>
        <time>2018-06-07T10:31:53Z</time>
      </trkpt>
      <trkpt lat="45.93218" lon="4.72665">
        <ele>170</ele>
        <time>2018-06-07T10:31:54Z</time>
      </trkpt>
      <trkpt lat="45.93213" lon="4.72669">
        <ele>169</ele>
        <time>2018-06-07T10:31:55Z</time>
      </trkpt>
      <trkpt lat="45.93208" lon="4.72674">
        <ele>169</ele>
        <time>2018-06-07T10:31:56Z</time>
      </trkpt>
      <trkpt lat="45.93203" lon="4.7268">
        <ele>169</ele>
        <time>2018-06-07T10:31:57Z</time>
      </trkpt>
      <trkpt lat="45.93199" lon="4.72686">
        <ele>169</ele>
        <time>2018-06-07T10:31:58Z</time>
      </trkpt>
      <trkpt lat="45.93194" lon="4.72691">
        <ele>169</ele>
        <time>2018-06-07T10:31:59Z</time>
      </trkpt>
      <trkpt lat="45.9319" lon="4.72695">
        <ele>169</ele>
        <time>2018-06-07T10:32:00Z</time>
      </trkpt>
      <trkpt lat="45.93186" lon="4.727">
        <ele>169</ele>
        <time>2018-06-07T10:32:01Z</time>
      </trkpt>
      <trkpt lat="45.93184" lon="4.72704">
        <ele>169</ele>
        <time>2018-06-07T10:32:02Z</time>
      </trkpt>
      <trkpt lat="45.93179" lon="4.7271">
        <ele>169</ele>
        <time>2018-06-07T10:32:03Z</time>
      </trkpt>
      <trkpt lat="45.93175" lon="4.72714">
        <ele>170</ele>
        <time>2018-06-07T10:32:04Z</time>
      </trkpt>
      <trkpt lat="45.93171" lon="4.7272">
        <ele>170</ele>
        <time>2018-06-07T10:32:05Z</time>
      </trkpt>
      <trkpt lat="45.93166" lon="4.72725">
        <ele>170</ele>
        <time>2018-06-07T10:32:06Z</time>
      </trkpt>
      <trkpt lat="45.93163" lon="4.7273">
        <ele>170</ele>
        <time>2018-06-07T10:32:07Z</time>
      </trkpt>
      <trkpt lat="45.93158" lon="4.72734">
        <ele>170</ele>
        <time>2018-06-07T10:32:08Z</time>
      </trkpt>
      <trkpt lat="45.93154" lon="4.72738">
        <ele>170</ele>
        <time>2018-06-07T10:32:09Z</time>
      </trkpt>
      <trkpt lat="45.93149" lon="4.72744">
        <ele>170</ele>
        <time>2018-06-07T10:32:10Z</time>
      </trkpt>
      <trkpt lat="45.93145" lon="4.72749">
        <ele>170</ele>
        <time>2018-06-07T10:32:11Z</time>
      </trkpt>
      <trkpt lat="45.9314" lon="4.72754">
        <ele>171</ele>
        <time>2018-06-07T10:32:12Z</time>
      </trkpt>
      <trkpt lat="45.93135" lon="4.72761">
        <ele>171</ele>
        <time>2018-06-07T10:32:13Z</time>
      </trkpt>
      <trkpt lat="45.9313" lon="4.72766">
        <ele>171</ele>
        <time>2018-06-07T10:32:14Z</time>
      </trkpt>
      <trkpt lat="45.93127" lon="4.72773">
        <ele>171</ele>
        <time>2018-06-07T10:32:15Z</time>
      </trkpt>
      <trkpt lat="45.93123" lon="4.72778">
        <ele>171</ele>
        <time>2018-06-07T10:32:16Z</time>
      </trkpt>
      <trkpt lat="45.93119" lon="4.72783">
        <ele>171</ele>
        <time>2018-06-07T10:32:17Z</time>
      </trkpt>
      <trkpt lat="45.93114" lon="4.72791">
        <ele>171</ele>
        <time>2018-06-07T10:32:18Z</time>
      </trkpt>
      <trkpt lat="45.93109" lon="4.72796">
        <ele>171</ele>
        <time>2018-06-07T10:32:19Z</time>
      </trkpt>
      <trkpt lat="45.93104" lon="4.728">
        <ele>171</ele>
        <time>2018-06-07T10:32:20Z</time>
      </trkpt>
      <trkpt lat="45.931" lon="4.72806">
        <ele>171</ele>
        <time>2018-06-07T10:32:21Z</time>
      </trkpt>
      <trkpt lat="45.93095" lon="4.72811">
        <ele>172</ele>
        <time>2018-06-07T10:32:22Z</time>
      </trkpt>
      <trkpt lat="45.93092" lon="4.72815">
        <ele>172</ele>
        <time>2018-06-07T10:32:23Z</time>
      </trkpt>
      <trkpt lat="45.93087" lon="4.72821">
        <ele>172</ele>
        <time>2018-06-07T10:32:24Z</time>
      </trkpt>
      <trkpt lat="45.93051" lon="4.72848">
        <ele>172</ele>
        <time>2018-06-07T10:32:33Z</time>
      </trkpt>
      <trkpt lat="45.93047" lon="4.7286">
        <ele>172</ele>
        <time>2018-06-07T10:32:34Z</time>
      </trkpt>
      <trkpt lat="45.93043" lon="4.72867">
        <ele>172</ele>
        <time>2018-06-07T10:32:35Z</time>
      </trkpt>
      <trkpt lat="45.93039" lon="4.72872">
        <ele>172</ele>
        <time>2018-06-07T10:32:36Z</time>
      </trkpt>
      <trkpt lat="45.93035" lon="4.72877">
        <ele>172</ele>
        <time>2018-06-07T10:32:37Z</time>
      </trkpt>
      <trkpt lat="45.9303" lon="4.72884">
        <ele>172</ele>
        <time>2018-06-07T10:32:38Z</time>
      </trkpt>
      <trkpt lat="45.93025" lon="4.72889">
        <ele>172</ele>
        <time>2018-06-07T10:32:39Z</time>
      </trkpt>
      <trkpt lat="45.93021" lon="4.72894">
        <ele>172</ele>
        <time>2018-06-07T10:32:40Z</time>
      </trkpt>
      <trkpt lat="45.93016" lon="4.72901">
        <ele>172</ele>
        <time>2018-06-07T10:32:41Z</time>
      </trkpt>
      <trkpt lat="45.93011" lon="4.72905">
        <ele>171</ele>
        <time>2018-06-07T10:32:42Z</time>
      </trkpt>
      <trkpt lat="45.93007" lon="4.7291">
        <ele>171</ele>
        <time>2018-06-07T10:32:43Z</time>
      </trkpt>
      <trkpt lat="45.93002" lon="4.72915">
        <ele>171</ele>
        <time>2018-06-07T10:32:44Z</time>
      </trkpt>
      <trkpt lat="45.92997" lon="4.72921">
        <ele>171</ele>
        <time>2018-06-07T10:32:45Z</time>
      </trkpt>
      <trkpt lat="45.92993" lon="4.72927">
        <ele>171</ele>
        <time>2018-06-07T10:32:46Z</time>
      </trkpt>
      <trkpt lat="45.9299" lon="4.72931">
        <ele>171</ele>
        <time>2018-06-07T10:32:47Z</time>
      </trkpt>
      <trkpt lat="45.92985" lon="4.72935">
        <ele>171</ele>
        <time>2018-06-07T10:32:48Z</time>
      </trkpt>
      <trkpt lat="45.92981" lon="4.72941">
        <ele>171</ele>
        <time>2018-06-07T10:32:49Z</time>
      </trkpt>
      <trkpt lat="45.92976" lon="4.72946">
        <ele>171</ele>
        <time>2018-06-07T10:32:50Z</time>
      </trkpt>
      <trkpt lat="45.92971" lon="4.72951">
        <ele>171</ele>
        <time>2018-06-07T10:32:51Z</time>
      </trkpt>
      <trkpt lat="45.92966" lon="4.72956">
        <ele>171</ele>
        <time>2018-06-07T10:32:52Z</time>
      </trkpt>
      <trkpt lat="45.92962" lon="4.72961">
        <ele>171</ele>
        <time>2018-06-07T10:32:53Z</time>
      </trkpt>
      <trkpt lat="45.92957" lon="4.72966">
        <ele>171</ele>
        <time>2018-06-07T10:32:54Z</time>
      </trkpt>
      <trkpt lat="45.92952" lon="4.72971">
        <ele>171</ele>
        <time>2018-06-07T10:32:55Z</time>
      </trkpt>
      <trkpt lat="45.92947" lon="4.72975">
        <ele>171</ele>
        <time>2018-06-07T10:32:56Z</time>
      </trkpt>
      <trkpt lat="45.92943" lon="4.7298">
        <ele>171</ele>
        <time>2018-06-07T10:32:57Z</time>
      </trkpt>
      <trkpt lat="45.92938" lon="4.72985">
        <ele>171</ele>
        <time>2018-06-07T10:32:58Z</time>
      </trkpt>
      <trkpt lat="45.92934" lon="4.7299">
        <ele>172</ele>
        <time>2018-06-07T10:32:59Z</time>
      </trkpt>
      <trkpt lat="45.92929" lon="4.72997">
        <ele>172</ele>
        <time>2018-06-07T10:33:00Z</time>
      </trkpt>
      <trkpt lat="45.92923" lon="4.73005">
        <ele>172</ele>
        <time>2018-06-07T10:33:02Z</time>
      </trkpt>
      <trkpt lat="45.9292" lon="4.73011">
        <ele>172</ele>
        <time>2018-06-07T10:33:03Z</time>
      </trkpt>
      <trkpt lat="45.92916" lon="4.73017">
        <ele>172</ele>
        <time>2018-06-07T10:33:04Z</time>
      </trkpt>
      <trkpt lat="45.92912" lon="4.73022">
        <ele>172</ele>
        <time>2018-06-07T10:33:05Z</time>
      </trkpt>
      <trkpt lat="45.92908" lon="4.73028">
        <ele>172</ele>
        <time>2018-06-07T10:33:06Z</time>
      </trkpt>
      <trkpt lat="45.92904" lon="4.73035">
        <ele>172</ele>
        <time>2018-06-07T10:33:07Z</time>
      </trkpt>
      <trkpt lat="45.92899" lon="4.73042">
        <ele>172</ele>
        <time>2018-06-07T10:33:08Z</time>
      </trkpt>
      <trkpt lat="45.92896" lon="4.73047">
        <ele>172</ele>
        <time>2018-06-07T10:33:09Z</time>
      </trkpt>
      <trkpt lat="45.92892" lon="4.73051">
        <ele>172</ele>
        <time>2018-06-07T10:33:10Z</time>
      </trkpt>
      <trkpt lat="45.92888" lon="4.7306">
        <ele>172</ele>
        <time>2018-06-07T10:33:11Z</time>
      </trkpt>
      <trkpt lat="45.92884" lon="4.73065">
        <ele>172</ele>
        <time>2018-06-07T10:33:12Z</time>
      </trkpt>
      <trkpt lat="45.92881" lon="4.73071">
        <ele>172</ele>
        <time>2018-06-07T10:33:13Z</time>
      </trkpt>
      <trkpt lat="45.92878" lon="4.73076">
        <ele>172</ele>
        <time>2018-06-07T10:33:14Z</time>
      </trkpt>
      <trkpt lat="45.92874" lon="4.7308">
        <ele>172</ele>
        <time>2018-06-07T10:33:15Z</time>
      </trkpt>
      <trkpt lat="45.9287" lon="4.73084">
        <ele>172</ele>
        <time>2018-06-07T10:33:16Z</time>
      </trkpt>
      <trkpt lat="45.92866" lon="4.73089">
        <ele>172</ele>
        <time>2018-06-07T10:33:17Z</time>
      </trkpt>
      <trkpt lat="45.92859" lon="4.73097">
        <ele>171</ele>
        <time>2018-06-07T10:33:19Z</time>
      </trkpt>
      <trkpt lat="45.92856" lon="4.73098">
        <ele>171</ele>
        <time>2018-06-07T10:33:20Z</time>
      </trkpt>
      <trkpt lat="45.9285" lon="4.73097">
        <ele>171</ele>
        <time>2018-06-07T10:33:22Z</time>
      </trkpt>
      <trkpt lat="45.92846" lon="4.7309">
        <ele>171</ele>
        <time>2018-06-07T10:33:23Z</time>
      </trkpt>
      <trkpt lat="45.92845" lon="4.73082">
        <ele>171</ele>
        <time>2018-06-07T10:33:24Z</time>
      </trkpt>
      <trkpt lat="45.92844" lon="4.73075">
        <ele>171</ele>
        <time>2018-06-07T10:33:25Z</time>
      </trkpt>
      <trkpt lat="45.92843" lon="4.73065">
        <ele>171</ele>
        <time>2018-06-07T10:33:27Z</time>
      </trkpt>
      <trkpt lat="45.92841" lon="4.73056">
        <ele>171</ele>
        <time>2018-06-07T10:33:28Z</time>
      </trkpt>
      <trkpt lat="45.9284" lon="4.7305">
        <ele>171</ele>
        <time>2018-06-07T10:33:29Z</time>
      </trkpt>
      <trkpt lat="45.92838" lon="4.73042">
        <ele>171</ele>
        <time>2018-06-07T10:33:30Z</time>
      </trkpt>
      <trkpt lat="45.92837" lon="4.73035">
        <ele>171</ele>
        <time>2018-06-07T10:33:31Z</time>
      </trkpt>
      <trkpt lat="45.92836" lon="4.73028">
        <ele>171</ele>
        <time>2018-06-07T10:33:32Z</time>
      </trkpt>
      <trkpt lat="45.92835" lon="4.7302">
        <ele>171</ele>
        <time>2018-06-07T10:33:33Z</time>
      </trkpt>
      <trkpt lat="45.92833" lon="4.73012">
        <ele>170</ele>
        <time>2018-06-07T10:33:34Z</time>
      </trkpt>
      <trkpt lat="45.92832" lon="4.73004">
        <ele>170</ele>
        <time>2018-06-07T10:33:35Z</time>
      </trkpt>
      <trkpt lat="45.92831" lon="4.72995">
        <ele>170</ele>
        <time>2018-06-07T10:33:36Z</time>
      </trkpt>
      <trkpt lat="45.9283" lon="4.72988">
        <ele>170</ele>
        <time>2018-06-07T10:33:37Z</time>
      </trkpt>
      <trkpt lat="45.92829" lon="4.7298">
        <ele>170</ele>
        <time>2018-06-07T10:33:38Z</time>
      </trkpt>
      <trkpt lat="45.92828" lon="4.72973">
        <ele>170</ele>
        <time>2018-06-07T10:33:39Z</time>
      </trkpt>
      <trkpt lat="45.92828" lon="4.72966">
        <ele>170</ele>
        <time>2018-06-07T10:33:40Z</time>
      </trkpt>
      <trkpt lat="45.92828" lon="4.72959">
        <ele>170</ele>
        <time>2018-06-07T10:33:41Z</time>
      </trkpt>
      <trkpt lat="45.92829" lon="4.72951">
        <ele>170</ele>
        <time>2018-06-07T10:33:42Z</time>
      </trkpt>
      <trkpt lat="45.92829" lon="4.72945">
        <ele>170</ele>
        <time>2018-06-07T10:33:43Z</time>
      </trkpt>
      <trkpt lat="45.92828" lon="4.72939">
        <ele>170</ele>
        <time>2018-06-07T10:33:44Z</time>
      </trkpt>
      <trkpt lat="45.92828" lon="4.7293">
        <ele>170</ele>
        <time>2018-06-07T10:33:45Z</time>
      </trkpt>
      <trkpt lat="45.92827" lon="4.72923">
        <ele>170</ele>
        <time>2018-06-07T10:33:46Z</time>
      </trkpt>
      <trkpt lat="45.92826" lon="4.72914">
        <ele>170</ele>
        <time>2018-06-07T10:33:47Z</time>
      </trkpt>
      <trkpt lat="45.92824" lon="4.72907">
        <ele>170</ele>
        <time>2018-06-07T10:33:48Z</time>
      </trkpt>
      <trkpt lat="45.92823" lon="4.729">
        <ele>170</ele>
        <time>2018-06-07T10:33:49Z</time>
      </trkpt>
      <trkpt lat="45.92822" lon="4.72892">
        <ele>170</ele>
        <time>2018-06-07T10:33:50Z</time>
      </trkpt>
      <trkpt lat="45.9282" lon="4.72884">
        <ele>170</ele>
        <time>2018-06-07T10:33:51Z</time>
      </trkpt>
      <trkpt lat="45.92819" lon="4.72877">
        <ele>170</ele>
        <time>2018-06-07T10:33:52Z</time>
      </trkpt>
      <trkpt lat="45.92817" lon="4.7287">
        <ele>170</ele>
        <time>2018-06-07T10:33:53Z</time>
      </trkpt>
      <trkpt lat="45.92817" lon="4.72864">
        <ele>170</ele>
        <time>2018-06-07T10:33:54Z</time>
      </trkpt>
      <trkpt lat="45.92812" lon="4.72853">
        <ele>170</ele>
        <time>2018-06-07T10:33:56Z</time>
      </trkpt>
      <trkpt lat="45.92812" lon="4.72846">
        <ele>170</ele>
        <time>2018-06-07T10:33:57Z</time>
      </trkpt>
      <trkpt lat="45.92811" lon="4.7284">
        <ele>170</ele>
        <time>2018-06-07T10:33:58Z</time>
      </trkpt>
      <trkpt lat="45.9281" lon="4.72833">
        <ele>171</ele>
        <time>2018-06-07T10:33:59Z</time>
      </trkpt>
      <trkpt lat="45.92809" lon="4.72826">
        <ele>171</ele>
        <time>2018-06-07T10:34:00Z</time>
      </trkpt>
      <trkpt lat="45.92807" lon="4.72819">
        <ele>171</ele>
        <time>2018-06-07T10:34:01Z</time>
      </trkpt>
      <trkpt lat="45.92805" lon="4.72809">
        <ele>171</ele>
        <time>2018-06-07T10:34:03Z</time>
      </trkpt>
      <trkpt lat="45.92804" lon="4.72802">
        <ele>171</ele>
        <time>2018-06-07T10:34:04Z</time>
      </trkpt>
      <trkpt lat="45.92803" lon="4.72795">
        <ele>171</ele>
        <time>2018-06-07T10:34:05Z</time>
      </trkpt>
      <trkpt lat="45.92801" lon="4.7279">
        <ele>171</ele>
        <time>2018-06-07T10:34:06Z</time>
      </trkpt>
      <trkpt lat="45.92792" lon="4.72789">
        <ele>171</ele>
        <time>2018-06-07T10:34:09Z</time>
      </trkpt>
      <trkpt lat="45.92791" lon="4.72789">
        <ele>171</ele>
        <time>2018-06-07T10:34:10Z</time>
      </trkpt>
      <trkpt lat="45.92789" lon="4.72789">
        <ele>171</ele>
        <time>2018-06-07T10:34:11Z</time>
      </trkpt>
      <trkpt lat="45.92782" lon="4.72795">
        <ele>170</ele>
        <time>2018-06-07T10:34:12Z</time>
      </trkpt>
      <trkpt lat="45.92778" lon="4.72796">
        <ele>170</ele>
        <time>2018-06-07T10:34:13Z</time>
      </trkpt>
      <trkpt lat="45.92773" lon="4.72797">
        <ele>170</ele>
        <time>2018-06-07T10:34:14Z</time>
      </trkpt>
      <trkpt lat="45.92767" lon="4.72801">
        <ele>170</ele>
        <time>2018-06-07T10:34:15Z</time>
      </trkpt>
      <trkpt lat="45.92764" lon="4.72805">
        <ele>170</ele>
        <time>2018-06-07T10:34:16Z</time>
      </trkpt>
      <trkpt lat="45.92759" lon="4.72809">
        <ele>170</ele>
        <time>2018-06-07T10:34:17Z</time>
      </trkpt>
      <trkpt lat="45.92755" lon="4.72813">
        <ele>170</ele>
        <time>2018-06-07T10:34:18Z</time>
      </trkpt>
      <trkpt lat="45.92751" lon="4.72816">
        <ele>170</ele>
        <time>2018-06-07T10:34:19Z</time>
      </trkpt>
      <trkpt lat="45.92746" lon="4.7282">
        <ele>169</ele>
        <time>2018-06-07T10:34:20Z</time>
      </trkpt>
      <trkpt lat="45.92743" lon="4.72824">
        <ele>169</ele>
        <time>2018-06-07T10:34:21Z</time>
      </trkpt>
      <trkpt lat="45.92738" lon="4.72827">
        <ele>169</ele>
        <time>2018-06-07T10:34:22Z</time>
      </trkpt>
      <trkpt lat="45.92734" lon="4.7283">
        <ele>169</ele>
        <time>2018-06-07T10:34:23Z</time>
      </trkpt>
      <trkpt lat="45.9273" lon="4.72834">
        <ele>169</ele>
        <time>2018-06-07T10:34:24Z</time>
      </trkpt>
      <trkpt lat="45.92726" lon="4.72836">
        <ele>169</ele>
        <time>2018-06-07T10:34:25Z</time>
      </trkpt>
      <trkpt lat="45.92721" lon="4.72839">
        <ele>169</ele>
        <time>2018-06-07T10:34:26Z</time>
      </trkpt>
      <trkpt lat="45.92717" lon="4.72842">
        <ele>169</ele>
        <time>2018-06-07T10:34:27Z</time>
      </trkpt>
      <trkpt lat="45.92712" lon="4.72845">
        <ele>169</ele>
        <time>2018-06-07T10:34:28Z</time>
      </trkpt>
      <trkpt lat="45.92707" lon="4.72849">
        <ele>169</ele>
        <time>2018-06-07T10:34:29Z</time>
      </trkpt>
      <trkpt lat="45.92702" lon="4.72853">
        <ele>169</ele>
        <time>2018-06-07T10:34:30Z</time>
      </trkpt>
      <trkpt lat="45.92698" lon="4.72858">
        <ele>169</ele>
        <time>2018-06-07T10:34:31Z</time>
      </trkpt>
      <trkpt lat="45.92693" lon="4.72862">
        <ele>169</ele>
        <time>2018-06-07T10:34:32Z</time>
      </trkpt>
      <trkpt lat="45.92688" lon="4.72865">
        <ele>169</ele>
        <time>2018-06-07T10:34:33Z</time>
      </trkpt>
      <trkpt lat="45.92684" lon="4.72868">
        <ele>169</ele>
        <time>2018-06-07T10:34:34Z</time>
      </trkpt>
      <trkpt lat="45.9268" lon="4.72872">
        <ele>169</ele>
        <time>2018-06-07T10:34:35Z</time>
      </trkpt>
      <trkpt lat="45.92674" lon="4.72876">
        <ele>170</ele>
        <time>2018-06-07T10:34:36Z</time>
      </trkpt>
      <trkpt lat="45.92669" lon="4.72879">
        <ele>170</ele>
        <time>2018-06-07T10:34:37Z</time>
      </trkpt>
      <trkpt lat="45.92665" lon="4.72884">
        <ele>169</ele>
        <time>2018-06-07T10:34:38Z</time>
      </trkpt>
      <trkpt lat="45.9266" lon="4.72888">
        <ele>169</ele>
        <time>2018-06-07T10:34:39Z</time>
      </trkpt>
      <trkpt lat="45.92655" lon="4.72893">
        <ele>169</ele>
        <time>2018-06-07T10:34:40Z</time>
      </trkpt>
      <trkpt lat="45.9265" lon="4.72898">
        <ele>170</ele>
        <time>2018-06-07T10:34:41Z</time>
      </trkpt>
      <trkpt lat="45.92645" lon="4.72901">
        <ele>169</ele>
        <time>2018-06-07T10:34:42Z</time>
      </trkpt>
      <trkpt lat="45.92639" lon="4.72905">
        <ele>169</ele>
        <time>2018-06-07T10:34:43Z</time>
      </trkpt>
      <trkpt lat="45.92635" lon="4.72908">
        <ele>169</ele>
        <time>2018-06-07T10:34:44Z</time>
      </trkpt>
      <trkpt lat="45.92629" lon="4.72912">
        <ele>169</ele>
        <time>2018-06-07T10:34:45Z</time>
      </trkpt>
      <trkpt lat="45.92625" lon="4.72916">
        <ele>169</ele>
        <time>2018-06-07T10:34:46Z</time>
      </trkpt>
      <trkpt lat="45.92619" lon="4.7292">
        <ele>169</ele>
        <time>2018-06-07T10:34:47Z</time>
      </trkpt>
      <trkpt lat="45.92615" lon="4.72925">
        <ele>169</ele>
        <time>2018-06-07T10:34:48Z</time>
      </trkpt>
      <trkpt lat="45.9261" lon="4.7293">
        <ele>169</ele>
        <time>2018-06-07T10:34:49Z</time>
      </trkpt>
      <trkpt lat="45.92605" lon="4.72935">
        <ele>169</ele>
        <time>2018-06-07T10:34:50Z</time>
      </trkpt>
      <trkpt lat="45.926" lon="4.7294">
        <ele>169</ele>
        <time>2018-06-07T10:34:51Z</time>
      </trkpt>
      <trkpt lat="45.92596" lon="4.72949">
        <ele>169</ele>
        <time>2018-06-07T10:34:52Z</time>
      </trkpt>
      <trkpt lat="45.92591" lon="4.72954">
        <ele>169</ele>
        <time>2018-06-07T10:34:53Z</time>
      </trkpt>
      <trkpt lat="45.92587" lon="4.7296">
        <ele>169</ele>
        <time>2018-06-07T10:34:54Z</time>
      </trkpt>
      <trkpt lat="45.92583" lon="4.72965">
        <ele>169</ele>
        <time>2018-06-07T10:34:55Z</time>
      </trkpt>
      <trkpt lat="45.92579" lon="4.72969">
        <ele>169</ele>
        <time>2018-06-07T10:34:56Z</time>
      </trkpt>
      <trkpt lat="45.92575" lon="4.72974">
        <ele>169</ele>
        <time>2018-06-07T10:34:57Z</time>
      </trkpt>
      <trkpt lat="45.92571" lon="4.72979">
        <ele>169</ele>
        <time>2018-06-07T10:34:58Z</time>
      </trkpt>
      <trkpt lat="45.92567" lon="4.72984">
        <ele>169</ele>
        <time>2018-06-07T10:34:59Z</time>
      </trkpt>
      <trkpt lat="45.92562" lon="4.72989">
        <ele>169</ele>
        <time>2018-06-07T10:35:00Z</time>
      </trkpt>
      <trkpt lat="45.92557" lon="4.72997">
        <ele>169</ele>
        <time>2018-06-07T10:35:01Z</time>
      </trkpt>
      <trkpt lat="45.92552" lon="4.73004">
        <ele>169</ele>
        <time>2018-06-07T10:35:02Z</time>
      </trkpt>
      <trkpt lat="45.92547" lon="4.73007">
        <ele>169</ele>
        <time>2018-06-07T10:35:03Z</time>
      </trkpt>
      <trkpt lat="45.92542" lon="4.73011">
        <ele>169</ele>
        <time>2018-06-07T10:35:04Z</time>
      </trkpt>
      <trkpt lat="45.92536" lon="4.73015">
        <ele>169</ele>
        <time>2018-06-07T10:35:05Z</time>
      </trkpt>
      <trkpt lat="45.92531" lon="4.73019">
        <ele>169</ele>
        <time>2018-06-07T10:35:06Z</time>
      </trkpt>
      <trkpt lat="45.92526" lon="4.73022">
        <ele>169</ele>
        <time>2018-06-07T10:35:07Z</time>
      </trkpt>
      <trkpt lat="45.92521" lon="4.73027">
        <ele>169</ele>
        <time>2018-06-07T10:35:08Z</time>
      </trkpt>
      <trkpt lat="45.92517" lon="4.73031">
        <ele>169</ele>
        <time>2018-06-07T10:35:09Z</time>
      </trkpt>
      <trkpt lat="45.92512" lon="4.73035">
        <ele>169</ele>
        <time>2018-06-07T10:35:10Z</time>
      </trkpt>
      <trkpt lat="45.92508" lon="4.73039">
        <ele>169</ele>
        <time>2018-06-07T10:35:11Z</time>
      </trkpt>
      <trkpt lat="45.92503" lon="4.73042">
        <ele>170</ele>
        <time>2018-06-07T10:35:12Z</time>
      </trkpt>
      <trkpt lat="45.92498" lon="4.73046">
        <ele>170</ele>
        <time>2018-06-07T10:35:13Z</time>
      </trkpt>
      <trkpt lat="45.92494" lon="4.73049">
        <ele>170</ele>
        <time>2018-06-07T10:35:14Z</time>
      </trkpt>
      <trkpt lat="45.9249" lon="4.73051">
        <ele>170</ele>
        <time>2018-06-07T10:35:15Z</time>
      </trkpt>
      <trkpt lat="45.92485" lon="4.73056">
        <ele>170</ele>
        <time>2018-06-07T10:35:16Z</time>
      </trkpt>
      <trkpt lat="45.9248" lon="4.7306">
        <ele>170</ele>
        <time>2018-06-07T10:35:17Z</time>
      </trkpt>
      <trkpt lat="45.92475" lon="4.73065">
        <ele>170</ele>
        <time>2018-06-07T10:35:18Z</time>
      </trkpt>
      <trkpt lat="45.9247" lon="4.73069">
        <ele>170</ele>
        <time>2018-06-07T10:35:19Z</time>
      </trkpt>
      <trkpt lat="45.92464" lon="4.73074">
        <ele>170</ele>
        <time>2018-06-07T10:35:20Z</time>
      </trkpt>
      <trkpt lat="45.92459" lon="4.73078">
        <ele>170</ele>
        <time>2018-06-07T10:35:21Z</time>
      </trkpt>
      <trkpt lat="45.92454" lon="4.73082">
        <ele>170</ele>
        <time>2018-06-07T10:35:22Z</time>
      </trkpt>
      <trkpt lat="45.92451" lon="4.73089">
        <ele>170</ele>
        <time>2018-06-07T10:35:23Z</time>
      </trkpt>
      <trkpt lat="45.92447" lon="4.73092">
        <ele>170</ele>
        <time>2018-06-07T10:35:24Z</time>
      </trkpt>
      <trkpt lat="45.92443" lon="4.73095">
        <ele>170</ele>
        <time>2018-06-07T10:35:25Z</time>
      </trkpt>
      <trkpt lat="45.92438" lon="4.73101">
        <ele>170</ele>
        <time>2018-06-07T10:35:26Z</time>
      </trkpt>
      <trkpt lat="45.92433" lon="4.73104">
        <ele>170</ele>
        <time>2018-06-07T10:35:27Z</time>
      </trkpt>
      <trkpt lat="45.92428" lon="4.73108">
        <ele>170</ele>
        <time>2018-06-07T10:35:28Z</time>
      </trkpt>
      <trkpt lat="45.92424" lon="4.7311">
        <ele>170</ele>
        <time>2018-06-07T10:35:29Z</time>
      </trkpt>
      <trkpt lat="45.92419" lon="4.73114">
        <ele>170</ele>
        <time>2018-06-07T10:35:30Z</time>
      </trkpt>
      <trkpt lat="45.92414" lon="4.73119">
        <ele>171</ele>
        <time>2018-06-07T10:35:31Z</time>
      </trkpt>
      <trkpt lat="45.9241" lon="4.73124">
        <ele>171</ele>
        <time>2018-06-07T10:35:32Z</time>
      </trkpt>
      <trkpt lat="45.92408" lon="4.7313">
        <ele>171</ele>
        <time>2018-06-07T10:35:33Z</time>
      </trkpt>
      <trkpt lat="45.92406" lon="4.73137">
        <ele>171</ele>
        <time>2018-06-07T10:35:34Z</time>
      </trkpt>
      <trkpt lat="45.92406" lon="4.73144">
        <ele>171</ele>
        <time>2018-06-07T10:35:35Z</time>
      </trkpt>
      <trkpt lat="45.92406" lon="4.73151">
        <ele>171</ele>
        <time>2018-06-07T10:35:36Z</time>
      </trkpt>
      <trkpt lat="45.92409" lon="4.73157">
        <ele>170</ele>
        <time>2018-06-07T10:35:37Z</time>
      </trkpt>
      <trkpt lat="45.92409" lon="4.73164">
        <ele>170</ele>
        <time>2018-06-07T10:35:38Z</time>
      </trkpt>
      <trkpt lat="45.9241" lon="4.73174">
        <ele>170</ele>
        <time>2018-06-07T10:35:39Z</time>
      </trkpt>
      <trkpt lat="45.92412" lon="4.7318">
        <ele>171</ele>
        <time>2018-06-07T10:35:40Z</time>
      </trkpt>
      <trkpt lat="45.92412" lon="4.73188">
        <ele>171</ele>
        <time>2018-06-07T10:35:41Z</time>
      </trkpt>
      <trkpt lat="45.92412" lon="4.73197">
        <ele>171</ele>
        <time>2018-06-07T10:35:42Z</time>
      </trkpt>
      <trkpt lat="45.92412" lon="4.73204">
        <ele>171</ele>
        <time>2018-06-07T10:35:43Z</time>
      </trkpt>
      <trkpt lat="45.92411" lon="4.73213">
        <ele>171</ele>
        <time>2018-06-07T10:35:44Z</time>
      </trkpt>
      <trkpt lat="45.92411" lon="4.73222">
        <ele>171</ele>
        <time>2018-06-07T10:35:45Z</time>
      </trkpt>
      <trkpt lat="45.92411" lon="4.73229">
        <ele>171</ele>
        <time>2018-06-07T10:35:46Z</time>
      </trkpt>
      <trkpt lat="45.92411" lon="4.73237">
        <ele>171</ele>
        <time>2018-06-07T10:35:47Z</time>
      </trkpt>
      <trkpt lat="45.92411" lon="4.73245">
        <ele>171</ele>
        <time>2018-06-07T10:35:48Z</time>
      </trkpt>
      <trkpt lat="45.92411" lon="4.73253">
        <ele>171</ele>
        <time>2018-06-07T10:35:49Z</time>
      </trkpt>
      <trkpt lat="45.92412" lon="4.73261">
        <ele>171</ele>
        <time>2018-06-07T10:35:50Z</time>
      </trkpt>
      <trkpt lat="45.92412" lon="4.73269">
        <ele>171</ele>
        <time>2018-06-07T10:35:51Z</time>
      </trkpt>
      <trkpt lat="45.92413" lon="4.73276">
        <ele>171</ele>
        <time>2018-06-07T10:35:52Z</time>
      </trkpt>
      <trkpt lat="45.92413" lon="4.73287">
        <ele>171</ele>
        <time>2018-06-07T10:35:54Z</time>
      </trkpt>
      <trkpt lat="45.92414" lon="4.73295">
        <ele>171</ele>
        <time>2018-06-07T10:35:55Z</time>
      </trkpt>
      <trkpt lat="45.92415" lon="4.73302">
        <ele>171</ele>
        <time>2018-06-07T10:35:56Z</time>
      </trkpt>
      <trkpt lat="45.92415" lon="4.73309">
        <ele>171</ele>
        <time>2018-06-07T10:35:57Z</time>
      </trkpt>
      <trkpt lat="45.92417" lon="4.73321">
        <ele>171</ele>
        <time>2018-06-07T10:35:59Z</time>
      </trkpt>
      <trkpt lat="45.92419" lon="4.73328">
        <ele>171</ele>
        <time>2018-06-07T10:36:00Z</time>
      </trkpt>
      <trkpt lat="45.9242" lon="4.73335">
        <ele>171</ele>
        <time>2018-06-07T10:36:01Z</time>
      </trkpt>
      <trkpt lat="45.92421" lon="4.73343">
        <ele>171</ele>
        <time>2018-06-07T10:36:02Z</time>
      </trkpt>
      <trkpt lat="45.92421" lon="4.7335">
        <ele>171</ele>
        <time>2018-06-07T10:36:03Z</time>
      </trkpt>
      <trkpt lat="45.92423" lon="4.73357">
        <ele>171</ele>
        <time>2018-06-07T10:36:04Z</time>
      </trkpt>
      <trkpt lat="45.92424" lon="4.73364">
        <ele>172</ele>
        <time>2018-06-07T10:36:05Z</time>
      </trkpt>
      <trkpt lat="45.92426" lon="4.73373">
        <ele>172</ele>
        <time>2018-06-07T10:36:06Z</time>
      </trkpt>
      <trkpt lat="45.92427" lon="4.73381">
        <ele>172</ele>
        <time>2018-06-07T10:36:07Z</time>
      </trkpt>
      <trkpt lat="45.92428" lon="4.73388">
        <ele>172</ele>
        <time>2018-06-07T10:36:08Z</time>
      </trkpt>
      <trkpt lat="45.92431" lon="4.73396">
        <ele>172</ele>
        <time>2018-06-07T10:36:09Z</time>
      </trkpt>
      <trkpt lat="45.92435" lon="4.73402">
        <ele>172</ele>
        <time>2018-06-07T10:36:10Z</time>
      </trkpt>
      <trkpt lat="45.92439" lon="4.73408">
        <ele>172</ele>
        <time>2018-06-07T10:36:11Z</time>
      </trkpt>
      <trkpt lat="45.92443" lon="4.73413">
        <ele>172</ele>
        <time>2018-06-07T10:36:12Z</time>
      </trkpt>
      <trkpt lat="45.92452" lon="4.73417">
        <ele>173</ele>
        <time>2018-06-07T10:36:14Z</time>
      </trkpt>
      <trkpt lat="45.92456" lon="4.7342">
        <ele>173</ele>
        <time>2018-06-07T10:36:15Z</time>
      </trkpt>
      <trkpt lat="45.92462" lon="4.73425">
        <ele>173</ele>
        <time>2018-06-07T10:36:17Z</time>
      </trkpt>
      <trkpt lat="45.92463" lon="4.73434">
        <ele>173</ele>
        <time>2018-06-07T10:36:18Z</time>
      </trkpt>
      <trkpt lat="45.92464" lon="4.73441">
        <ele>173</ele>
        <time>2018-06-07T10:36:19Z</time>
      </trkpt>
      <trkpt lat="45.92466" lon="4.73448">
        <ele>173</ele>
        <time>2018-06-07T10:36:20Z</time>
      </trkpt>
      <trkpt lat="45.92468" lon="4.73454">
        <ele>173</ele>
        <time>2018-06-07T10:36:21Z</time>
      </trkpt>
      <trkpt lat="45.92469" lon="4.73462">
        <ele>173</ele>
        <time>2018-06-07T10:36:22Z</time>
      </trkpt>
      <trkpt lat="45.92469" lon="4.7347">
        <ele>173</ele>
        <time>2018-06-07T10:36:23Z</time>
      </trkpt>
      <trkpt lat="45.92469" lon="4.73477">
        <ele>173</ele>
        <time>2018-06-07T10:36:24Z</time>
      </trkpt>
      <trkpt lat="45.92469" lon="4.73483">
        <ele>173</ele>
        <time>2018-06-07T10:36:25Z</time>
      </trkpt>
      <trkpt lat="45.92468" lon="4.7349">
        <ele>173</ele>
        <time>2018-06-07T10:36:26Z</time>
      </trkpt>
      <trkpt lat="45.92469" lon="4.73496">
        <ele>173</ele>
        <time>2018-06-07T10:36:27Z</time>
      </trkpt>
      <trkpt lat="45.92469" lon="4.73503">
        <ele>174</ele>
        <time>2018-06-07T10:36:28Z</time>
      </trkpt>
      <trkpt lat="45.92468" lon="4.73511">
        <ele>174</ele>
        <time>2018-06-07T10:36:29Z</time>
      </trkpt>
      <trkpt lat="45.92468" lon="4.73517">
        <ele>174</ele>
        <time>2018-06-07T10:36:30Z</time>
      </trkpt>
      <trkpt lat="45.92466" lon="4.7353">
        <ele>174</ele>
        <time>2018-06-07T10:36:32Z</time>
      </trkpt>
      <trkpt lat="45.92466" lon="4.73536">
        <ele>174</ele>
        <time>2018-06-07T10:36:33Z</time>
      </trkpt>
      <trkpt lat="45.92466" lon="4.73547">
        <ele>173</ele>
        <time>2018-06-07T10:36:35Z</time>
      </trkpt>
      <trkpt lat="45.92465" lon="4.73552">
        <ele>173</ele>
        <time>2018-06-07T10:36:36Z</time>
      </trkpt>
      <trkpt lat="45.92465" lon="4.73561">
        <ele>173</ele>
        <time>2018-06-07T10:36:37Z</time>
      </trkpt>
      <trkpt lat="45.92467" lon="4.73566">
        <ele>173</ele>
        <time>2018-06-07T10:36:38Z</time>
      </trkpt>
      <trkpt lat="45.92467" lon="4.73574">
        <ele>173</ele>
        <time>2018-06-07T10:36:39Z</time>
      </trkpt>
      <trkpt lat="45.92467" lon="4.7358">
        <ele>173</ele>
        <time>2018-06-07T10:36:40Z</time>
      </trkpt>
      <trkpt lat="45.92467" lon="4.73587">
        <ele>174</ele>
        <time>2018-06-07T10:36:41Z</time>
      </trkpt>
      <trkpt lat="45.92468" lon="4.73595">
        <ele>174</ele>
        <time>2018-06-07T10:36:42Z</time>
      </trkpt>
      <trkpt lat="45.92468" lon="4.73604">
        <ele>174</ele>
        <time>2018-06-07T10:36:43Z</time>
      </trkpt>
      <trkpt lat="45.92468" lon="4.73612">
        <ele>174</ele>
        <time>2018-06-07T10:36:44Z</time>
      </trkpt>
      <trkpt lat="45.92468" lon="4.73621">
        <ele>174</ele>
        <time>2018-06-07T10:36:45Z</time>
      </trkpt>
      <trkpt lat="45.92469" lon="4.73629">
        <ele>174</ele>
        <time>2018-06-07T10:36:46Z</time>
      </trkpt>
      <trkpt lat="45.9247" lon="4.73636">
        <ele>174</ele>
        <time>2018-06-07T10:36:47Z</time>
      </trkpt>
      <trkpt lat="45.9247" lon="4.73645">
        <ele>174</ele>
        <time>2018-06-07T10:36:48Z</time>
      </trkpt>
      <trkpt lat="45.9247" lon="4.73652">
        <ele>174</ele>
        <time>2018-06-07T10:36:49Z</time>
      </trkpt>
      <trkpt lat="45.92469" lon="4.7366">
        <ele>174</ele>
        <time>2018-06-07T10:36:50Z</time>
      </trkpt>
      <trkpt lat="45.92468" lon="4.73672">
        <ele>174</ele>
        <time>2018-06-07T10:36:52Z</time>
      </trkpt>
      <trkpt lat="45.92468" lon="4.73678">
        <ele>174</ele>
        <time>2018-06-07T10:36:53Z</time>
      </trkpt>
      <trkpt lat="45.92466" lon="4.7369">
        <ele>174</ele>
        <time>2018-06-07T10:36:55Z</time>
      </trkpt>
      <trkpt lat="45.92464" lon="4.73696">
        <ele>174</ele>
        <time>2018-06-07T10:36:56Z</time>
      </trkpt>
      <trkpt lat="45.92462" lon="4.73708">
        <ele>174</ele>
        <time>2018-06-07T10:37:12Z</time>
      </trkpt>
      <trkpt lat="45.92462" lon="4.73709">
        <ele>174</ele>
        <time>2018-06-07T10:37:13Z</time>
      </trkpt>
      <trkpt lat="45.92457" lon="4.73711">
        <ele>174</ele>
        <time>2018-06-07T10:37:42.974Z</time>
      </trkpt>
    </trkseg>
  </trk>
</gpx>